<?xml version="1.0" encoding="UTF-8" standalone="no" ?>
<gpx xmlns="http://www.topografix.com/GPX/1/1" xmlns:xsi="http://www.w3.org/2001/XMLSchema-instance" xsi:schemaLocation="http://www.topografix.com/GPX/1/1 http://www.topografix.com/GPX/1/1/gpx.xsd" version="1.1" creator="VisuGPX - https://www.visugpx.com">
  <metadata>
    <name>Brières-les-Scellés - Bouville - Orveaux - Janville - Chamarande - Morigny - Etrechy</name>
  </metadata>
  <trk>
    <name><![CDATA[Brières-les-Scellés Cyclisme]]></name>
    <trkseg>
      <trkpt lat="48.45666" lon="2.13816">
        <ele>88.400001525879</ele>
        <time>2020-08-02T14:50:54.000Z</time>
      </trkpt>
      <trkpt lat="48.45666" lon="2.13816">
        <ele>88.400001525879</ele>
        <time>2020-08-02T14:50:55.000Z</time>
      </trkpt>
      <trkpt lat="48.45666" lon="2.1382">
        <ele>88.400001525879</ele>
        <time>2020-08-02T14:51:00.000Z</time>
      </trkpt>
      <trkpt lat="48.45666" lon="2.13823">
        <ele>88.400001525879</ele>
        <time>2020-08-02T14:51:01.000Z</time>
      </trkpt>
      <trkpt lat="48.45666" lon="2.13826">
        <ele>88.199996948242</ele>
        <time>2020-08-02T14:51:02.000Z</time>
      </trkpt>
      <trkpt lat="48.45666" lon="2.1385">
        <ele>88.400001525879</ele>
        <time>2020-08-02T14:51:08.000Z</time>
      </trkpt>
      <trkpt lat="48.45661" lon="2.13888">
        <ele>89</ele>
        <time>2020-08-02T14:51:15.000Z</time>
      </trkpt>
      <trkpt lat="48.4566" lon="2.13941">
        <ele>87.800003051758</ele>
        <time>2020-08-02T14:51:23.000Z</time>
      </trkpt>
      <trkpt lat="48.45663" lon="2.13991">
        <ele>86.599998474121</ele>
        <time>2020-08-02T14:51:29.000Z</time>
      </trkpt>
      <trkpt lat="48.45659" lon="2.14053">
        <ele>84.400001525879</ele>
        <time>2020-08-02T14:51:36.000Z</time>
      </trkpt>
      <trkpt lat="48.45653" lon="2.14135">
        <ele>84.800003051758</ele>
        <time>2020-08-02T14:51:45.000Z</time>
      </trkpt>
      <trkpt lat="48.4564" lon="2.14186">
        <ele>83.199996948242</ele>
        <time>2020-08-02T14:51:51.000Z</time>
      </trkpt>
      <trkpt lat="48.45616" lon="2.14262">
        <ele>82.599998474121</ele>
        <time>2020-08-02T14:52:00.000Z</time>
      </trkpt>
      <trkpt lat="48.45593" lon="2.14336">
        <ele>81.599998474121</ele>
        <time>2020-08-02T14:52:08.000Z</time>
      </trkpt>
      <trkpt lat="48.4559" lon="2.14345">
        <ele>81.400001525879</ele>
        <time>2020-08-02T14:52:09.000Z</time>
      </trkpt>
      <trkpt lat="48.45571" lon="2.14407">
        <ele>79.800003051758</ele>
        <time>2020-08-02T14:52:16.000Z</time>
      </trkpt>
      <trkpt lat="48.45557" lon="2.14458">
        <ele>78</ele>
        <time>2020-08-02T14:52:22.000Z</time>
      </trkpt>
      <trkpt lat="48.4555" lon="2.14524">
        <ele>77.800003051758</ele>
        <time>2020-08-02T14:52:29.000Z</time>
      </trkpt>
      <trkpt lat="48.45551" lon="2.14596">
        <ele>76.599998474121</ele>
        <time>2020-08-02T14:52:36.000Z</time>
      </trkpt>
      <trkpt lat="48.4556" lon="2.14671">
        <ele>75.800003051758</ele>
        <time>2020-08-02T14:52:43.000Z</time>
      </trkpt>
      <trkpt lat="48.45569" lon="2.14755">
        <ele>74.199996948242</ele>
        <time>2020-08-02T14:52:51.000Z</time>
      </trkpt>
      <trkpt lat="48.45576" lon="2.14815">
        <ele>72.599998474121</ele>
        <time>2020-08-02T14:52:57.000Z</time>
      </trkpt>
      <trkpt lat="48.45585" lon="2.14904">
        <ele>70.800003051758</ele>
        <time>2020-08-02T14:53:06.000Z</time>
      </trkpt>
      <trkpt lat="48.45586" lon="2.14913">
        <ele>70.800003051758</ele>
        <time>2020-08-02T14:53:07.000Z</time>
      </trkpt>
      <trkpt lat="48.4559" lon="2.14979">
        <ele>72.199996948242</ele>
        <time>2020-08-02T14:53:14.000Z</time>
      </trkpt>
      <trkpt lat="48.45589" lon="2.15064">
        <ele>72.199996948242</ele>
        <time>2020-08-02T14:53:23.000Z</time>
      </trkpt>
      <trkpt lat="48.45589" lon="2.15151">
        <ele>72.199996948242</ele>
        <time>2020-08-02T14:53:32.000Z</time>
      </trkpt>
      <trkpt lat="48.45589" lon="2.15226">
        <ele>73</ele>
        <time>2020-08-02T14:53:40.000Z</time>
      </trkpt>
      <trkpt lat="48.45582" lon="2.15302">
        <ele>72.199996948242</ele>
        <time>2020-08-02T14:53:48.000Z</time>
      </trkpt>
      <trkpt lat="48.4557" lon="2.15376">
        <ele>73</ele>
        <time>2020-08-02T14:53:56.000Z</time>
      </trkpt>
      <trkpt lat="48.45553" lon="2.15435">
        <ele>73</ele>
        <time>2020-08-02T14:54:03.000Z</time>
      </trkpt>
      <trkpt lat="48.45532" lon="2.15511">
        <ele>72</ele>
        <time>2020-08-02T14:54:12.000Z</time>
      </trkpt>
      <trkpt lat="48.4553" lon="2.1552">
        <ele>72</ele>
        <time>2020-08-02T14:54:13.000Z</time>
      </trkpt>
      <trkpt lat="48.45515" lon="2.15601">
        <ele>72.199996948242</ele>
        <time>2020-08-02T14:54:22.000Z</time>
      </trkpt>
      <trkpt lat="48.45502" lon="2.15682">
        <ele>73.400001525879</ele>
        <time>2020-08-02T14:54:31.000Z</time>
      </trkpt>
      <trkpt lat="48.45499" lon="2.15699">
        <ele>73.800003051758</ele>
        <time>2020-08-02T14:54:33.000Z</time>
      </trkpt>
      <trkpt lat="48.45487" lon="2.1578">
        <ele>74</ele>
        <time>2020-08-02T14:54:42.000Z</time>
      </trkpt>
      <trkpt lat="48.45478" lon="2.15864">
        <ele>73.199996948242</ele>
        <time>2020-08-02T14:54:51.000Z</time>
      </trkpt>
      <trkpt lat="48.45477" lon="2.15873">
        <ele>73</ele>
        <time>2020-08-02T14:54:52.000Z</time>
      </trkpt>
      <trkpt lat="48.45469" lon="2.15945">
        <ele>73.199996948242</ele>
        <time>2020-08-02T14:55:00.000Z</time>
      </trkpt>
      <trkpt lat="48.45459" lon="2.16016">
        <ele>72.400001525879</ele>
        <time>2020-08-02T14:55:08.000Z</time>
      </trkpt>
      <trkpt lat="48.45456" lon="2.1607">
        <ele>71.599998474121</ele>
        <time>2020-08-02T14:55:14.000Z</time>
      </trkpt>
      <trkpt lat="48.45454" lon="2.16079">
        <ele>71.400001525879</ele>
        <time>2020-08-02T14:55:15.000Z</time>
      </trkpt>
      <trkpt lat="48.45452" lon="2.16087">
        <ele>71.199996948242</ele>
        <time>2020-08-02T14:55:16.000Z</time>
      </trkpt>
      <trkpt lat="48.45447" lon="2.16104">
        <ele>70.800003051758</ele>
        <time>2020-08-02T14:55:18.000Z</time>
      </trkpt>
      <trkpt lat="48.45446" lon="2.16113">
        <ele>70.800003051758</ele>
        <time>2020-08-02T14:55:19.000Z</time>
      </trkpt>
      <trkpt lat="48.45447" lon="2.16122">
        <ele>70.800003051758</ele>
        <time>2020-08-02T14:55:20.000Z</time>
      </trkpt>
      <trkpt lat="48.4545" lon="2.16141">
        <ele>70.800003051758</ele>
        <time>2020-08-02T14:55:22.000Z</time>
      </trkpt>
      <trkpt lat="48.45449" lon="2.16159">
        <ele>70.800003051758</ele>
        <time>2020-08-02T14:55:24.000Z</time>
      </trkpt>
      <trkpt lat="48.45446" lon="2.16168">
        <ele>71</ele>
        <time>2020-08-02T14:55:25.000Z</time>
      </trkpt>
      <trkpt lat="48.45431" lon="2.16238">
        <ele>68.199996948242</ele>
        <time>2020-08-02T14:55:33.000Z</time>
      </trkpt>
      <trkpt lat="48.4542" lon="2.16318">
        <ele>70</ele>
        <time>2020-08-02T14:55:42.000Z</time>
      </trkpt>
      <trkpt lat="48.4541" lon="2.16391">
        <ele>71</ele>
        <time>2020-08-02T14:55:50.000Z</time>
      </trkpt>
      <trkpt lat="48.45399" lon="2.16463">
        <ele>71.400001525879</ele>
        <time>2020-08-02T14:55:58.000Z</time>
      </trkpt>
      <trkpt lat="48.45381" lon="2.16531">
        <ele>72.599998474121</ele>
        <time>2020-08-02T14:56:06.000Z</time>
      </trkpt>
      <trkpt lat="48.45356" lon="2.16595">
        <ele>71.599998474121</ele>
        <time>2020-08-02T14:56:14.000Z</time>
      </trkpt>
      <trkpt lat="48.45327" lon="2.16651">
        <ele>73.199996948242</ele>
        <time>2020-08-02T14:56:22.000Z</time>
      </trkpt>
      <trkpt lat="48.45298" lon="2.16682">
        <ele>74.199996948242</ele>
        <time>2020-08-02T14:56:28.000Z</time>
      </trkpt>
      <trkpt lat="48.45272" lon="2.16711">
        <ele>76.199996948242</ele>
        <time>2020-08-02T14:56:34.000Z</time>
      </trkpt>
      <trkpt lat="48.45269" lon="2.16717">
        <ele>76.599998474121</ele>
        <time>2020-08-02T14:56:35.000Z</time>
      </trkpt>
      <trkpt lat="48.45259" lon="2.16745">
        <ele>78.199996948242</ele>
        <time>2020-08-02T14:56:40.000Z</time>
      </trkpt>
      <trkpt lat="48.45259" lon="2.16778">
        <ele>77.400001525879</ele>
        <time>2020-08-02T14:56:44.000Z</time>
      </trkpt>
      <trkpt lat="48.45259" lon="2.16804">
        <ele>76.800003051758</ele>
        <time>2020-08-02T14:56:47.000Z</time>
      </trkpt>
      <trkpt lat="48.45259" lon="2.16822">
        <ele>76.199996948242</ele>
        <time>2020-08-02T14:56:49.000Z</time>
      </trkpt>
      <trkpt lat="48.45254" lon="2.1685">
        <ele>75</ele>
        <time>2020-08-02T14:56:52.000Z</time>
      </trkpt>
      <trkpt lat="48.45248" lon="2.16867">
        <ele>74.400001525879</ele>
        <time>2020-08-02T14:56:54.000Z</time>
      </trkpt>
      <trkpt lat="48.45229" lon="2.16902">
        <ele>73.199996948242</ele>
        <time>2020-08-02T14:56:59.000Z</time>
      </trkpt>
      <trkpt lat="48.45206" lon="2.16944">
        <ele>72.800003051758</ele>
        <time>2020-08-02T14:57:05.000Z</time>
      </trkpt>
      <trkpt lat="48.45174" lon="2.17003">
        <ele>71.400001525879</ele>
        <time>2020-08-02T14:57:13.000Z</time>
      </trkpt>
      <trkpt lat="48.4517" lon="2.17009">
        <ele>71.400001525879</ele>
        <time>2020-08-02T14:57:14.000Z</time>
      </trkpt>
      <trkpt lat="48.45131" lon="2.17069">
        <ele>71</ele>
        <time>2020-08-02T14:57:23.000Z</time>
      </trkpt>
      <trkpt lat="48.45114" lon="2.17098">
        <ele>71</ele>
        <time>2020-08-02T14:57:27.000Z</time>
      </trkpt>
      <trkpt lat="48.4511" lon="2.17115">
        <ele>70.599998474121</ele>
        <time>2020-08-02T14:57:29.000Z</time>
      </trkpt>
      <trkpt lat="48.45108" lon="2.17132">
        <ele>70.400001525879</ele>
        <time>2020-08-02T14:57:31.000Z</time>
      </trkpt>
      <trkpt lat="48.45105" lon="2.17137">
        <ele>70.400001525879</ele>
        <time>2020-08-02T14:57:32.000Z</time>
      </trkpt>
      <trkpt lat="48.45097" lon="2.17149">
        <ele>70.199996948242</ele>
        <time>2020-08-02T14:57:34.000Z</time>
      </trkpt>
      <trkpt lat="48.45091" lon="2.17164">
        <ele>70</ele>
        <time>2020-08-02T14:57:36.000Z</time>
      </trkpt>
      <trkpt lat="48.45082" lon="2.17188">
        <ele>70.800003051758</ele>
        <time>2020-08-02T14:57:39.000Z</time>
      </trkpt>
      <trkpt lat="48.45076" lon="2.17204">
        <ele>71.199996948242</ele>
        <time>2020-08-02T14:57:41.000Z</time>
      </trkpt>
      <trkpt lat="48.45068" lon="2.17224">
        <ele>71.599998474121</ele>
        <time>2020-08-02T14:57:45.000Z</time>
      </trkpt>
      <trkpt lat="48.45063" lon="2.17239">
        <ele>71.199996948242</ele>
        <time>2020-08-02T14:57:50.000Z</time>
      </trkpt>
      <trkpt lat="48.45053" lon="2.1727">
        <ele>71.800003051758</ele>
        <time>2020-08-02T14:57:55.000Z</time>
      </trkpt>
      <trkpt lat="48.45036" lon="2.17318">
        <ele>70.800003051758</ele>
        <time>2020-08-02T14:58:01.000Z</time>
      </trkpt>
      <trkpt lat="48.45031" lon="2.17344">
        <ele>70</ele>
        <time>2020-08-02T14:58:04.000Z</time>
      </trkpt>
      <trkpt lat="48.45028" lon="2.17352">
        <ele>69.800003051758</ele>
        <time>2020-08-02T14:58:05.000Z</time>
      </trkpt>
      <trkpt lat="48.45026" lon="2.17359">
        <ele>69.800003051758</ele>
        <time>2020-08-02T14:58:06.000Z</time>
      </trkpt>
      <trkpt lat="48.45027" lon="2.17367">
        <ele>70</ele>
        <time>2020-08-02T14:58:07.000Z</time>
      </trkpt>
      <trkpt lat="48.45029" lon="2.17375">
        <ele>70.199996948242</ele>
        <time>2020-08-02T14:58:08.000Z</time>
      </trkpt>
      <trkpt lat="48.45037" lon="2.17388">
        <ele>70.800003051758</ele>
        <time>2020-08-02T14:58:10.000Z</time>
      </trkpt>
      <trkpt lat="48.45054" lon="2.17433">
        <ele>71.599998474121</ele>
        <time>2020-08-02T14:58:15.000Z</time>
      </trkpt>
      <trkpt lat="48.45056" lon="2.17442">
        <ele>71.599998474121</ele>
        <time>2020-08-02T14:58:16.000Z</time>
      </trkpt>
      <trkpt lat="48.45055" lon="2.17451">
        <ele>71.400001525879</ele>
        <time>2020-08-02T14:58:17.000Z</time>
      </trkpt>
      <trkpt lat="48.4505" lon="2.17468">
        <ele>70.400001525879</ele>
        <time>2020-08-02T14:58:19.000Z</time>
      </trkpt>
      <trkpt lat="48.4505" lon="2.17485">
        <ele>69.800003051758</ele>
        <time>2020-08-02T14:58:21.000Z</time>
      </trkpt>
      <trkpt lat="48.4505" lon="2.17493">
        <ele>69.599998474121</ele>
        <time>2020-08-02T14:58:22.000Z</time>
      </trkpt>
      <trkpt lat="48.45046" lon="2.1752">
        <ele>69.800003051758</ele>
        <time>2020-08-02T14:58:25.000Z</time>
      </trkpt>
      <trkpt lat="48.45034" lon="2.17553">
        <ele>68.199996948242</ele>
        <time>2020-08-02T14:58:29.000Z</time>
      </trkpt>
      <trkpt lat="48.45013" lon="2.17608">
        <ele>66.400001525879</ele>
        <time>2020-08-02T14:58:36.000Z</time>
      </trkpt>
      <trkpt lat="48.44989" lon="2.17665">
        <ele>66</ele>
        <time>2020-08-02T14:58:44.000Z</time>
      </trkpt>
      <trkpt lat="48.44971" lon="2.17716">
        <ele>64.400001525879</ele>
        <time>2020-08-02T14:58:50.000Z</time>
      </trkpt>
      <trkpt lat="48.44945" lon="2.17786">
        <ele>64.599998474121</ele>
        <time>2020-08-02T14:58:59.000Z</time>
      </trkpt>
      <trkpt lat="48.44927" lon="2.17842">
        <ele>65.400001525879</ele>
        <time>2020-08-02T14:59:06.000Z</time>
      </trkpt>
      <trkpt lat="48.44919" lon="2.17875">
        <ele>66.599998474121</ele>
        <time>2020-08-02T14:59:10.000Z</time>
      </trkpt>
      <trkpt lat="48.44916" lon="2.17882">
        <ele>67</ele>
        <time>2020-08-02T14:59:11.000Z</time>
      </trkpt>
      <trkpt lat="48.449" lon="2.17939">
        <ele>67.199996948242</ele>
        <time>2020-08-02T14:59:18.000Z</time>
      </trkpt>
      <trkpt lat="48.44883" lon="2.17996">
        <ele>68</ele>
        <time>2020-08-02T14:59:25.000Z</time>
      </trkpt>
      <trkpt lat="48.44872" lon="2.18025">
        <ele>67.199996948242</ele>
        <time>2020-08-02T14:59:29.000Z</time>
      </trkpt>
      <trkpt lat="48.44862" lon="2.18046">
        <ele>66.800003051758</ele>
        <time>2020-08-02T14:59:32.000Z</time>
      </trkpt>
      <trkpt lat="48.44857" lon="2.18058">
        <ele>66.400001525879</ele>
        <time>2020-08-02T14:59:34.000Z</time>
      </trkpt>
      <trkpt lat="48.44856" lon="2.18064">
        <ele>66.400001525879</ele>
        <time>2020-08-02T14:59:35.000Z</time>
      </trkpt>
      <trkpt lat="48.44858" lon="2.18071">
        <ele>66.199996948242</ele>
        <time>2020-08-02T14:59:36.000Z</time>
      </trkpt>
      <trkpt lat="48.44865" lon="2.18084">
        <ele>66.199996948242</ele>
        <time>2020-08-02T14:59:38.000Z</time>
      </trkpt>
      <trkpt lat="48.4489" lon="2.18115">
        <ele>67.400001525879</ele>
        <time>2020-08-02T14:59:44.000Z</time>
      </trkpt>
      <trkpt lat="48.44913" lon="2.18138">
        <ele>68.199996948242</ele>
        <time>2020-08-02T14:59:49.000Z</time>
      </trkpt>
      <trkpt lat="48.44944" lon="2.18171">
        <ele>69.199996948242</ele>
        <time>2020-08-02T14:59:56.000Z</time>
      </trkpt>
      <trkpt lat="48.44971" lon="2.18199">
        <ele>69.800003051758</ele>
        <time>2020-08-02T15:00:02.000Z</time>
      </trkpt>
      <trkpt lat="48.45002" lon="2.18222">
        <ele>70.400001525879</ele>
        <time>2020-08-02T15:00:08.000Z</time>
      </trkpt>
      <trkpt lat="48.45007" lon="2.18226">
        <ele>70.400001525879</ele>
        <time>2020-08-02T15:00:09.000Z</time>
      </trkpt>
      <trkpt lat="48.45014" lon="2.18238">
        <ele>70.800003051758</ele>
        <time>2020-08-02T15:00:11.000Z</time>
      </trkpt>
      <trkpt lat="48.45017" lon="2.18245">
        <ele>71</ele>
        <time>2020-08-02T15:00:12.000Z</time>
      </trkpt>
      <trkpt lat="48.45018" lon="2.18253">
        <ele>71</ele>
        <time>2020-08-02T15:00:13.000Z</time>
      </trkpt>
      <trkpt lat="48.45021" lon="2.18278">
        <ele>71.400001525879</ele>
        <time>2020-08-02T15:00:16.000Z</time>
      </trkpt>
      <trkpt lat="48.45027" lon="2.18291">
        <ele>71</ele>
        <time>2020-08-02T15:00:18.000Z</time>
      </trkpt>
      <trkpt lat="48.45031" lon="2.18296">
        <ele>70.800003051758</ele>
        <time>2020-08-02T15:00:19.000Z</time>
      </trkpt>
      <trkpt lat="48.45048" lon="2.18314">
        <ele>69.599998474121</ele>
        <time>2020-08-02T15:00:23.000Z</time>
      </trkpt>
      <trkpt lat="48.45053" lon="2.18327">
        <ele>69.400001525879</ele>
        <time>2020-08-02T15:00:25.000Z</time>
      </trkpt>
      <trkpt lat="48.45052" lon="2.18343">
        <ele>69.599998474121</ele>
        <time>2020-08-02T15:00:27.000Z</time>
      </trkpt>
      <trkpt lat="48.45049" lon="2.1835">
        <ele>69.800003051758</ele>
        <time>2020-08-02T15:00:28.000Z</time>
      </trkpt>
      <trkpt lat="48.45027" lon="2.18396">
        <ele>69.199996948242</ele>
        <time>2020-08-02T15:00:35.000Z</time>
      </trkpt>
      <trkpt lat="48.45" lon="2.18449">
        <ele>68.400001525879</ele>
        <time>2020-08-02T15:00:43.000Z</time>
      </trkpt>
      <trkpt lat="48.44969" lon="2.18509">
        <ele>68.400001525879</ele>
        <time>2020-08-02T15:00:52.000Z</time>
      </trkpt>
      <trkpt lat="48.44937" lon="2.18568">
        <ele>67.400001525879</ele>
        <time>2020-08-02T15:01:01.000Z</time>
      </trkpt>
      <trkpt lat="48.44909" lon="2.18621">
        <ele>67.599998474121</ele>
        <time>2020-08-02T15:01:09.000Z</time>
      </trkpt>
      <trkpt lat="48.44884" lon="2.18668">
        <ele>68.400001525879</ele>
        <time>2020-08-02T15:01:17.000Z</time>
      </trkpt>
      <trkpt lat="48.44866" lon="2.187">
        <ele>69.199996948242</ele>
        <time>2020-08-02T15:01:24.000Z</time>
      </trkpt>
      <trkpt lat="48.44864" lon="2.18711">
        <ele>69.400001525879</ele>
        <time>2020-08-02T15:01:28.000Z</time>
      </trkpt>
      <trkpt lat="48.4487" lon="2.1872">
        <ele>69.400001525879</ele>
        <time>2020-08-02T15:01:31.000Z</time>
      </trkpt>
      <trkpt lat="48.44884" lon="2.18742">
        <ele>69.599998474121</ele>
        <time>2020-08-02T15:01:36.000Z</time>
      </trkpt>
      <trkpt lat="48.44886" lon="2.18748">
        <ele>69.599998474121</ele>
        <time>2020-08-02T15:01:37.000Z</time>
      </trkpt>
      <trkpt lat="48.44895" lon="2.18776">
        <ele>70.199996948242</ele>
        <time>2020-08-02T15:01:42.000Z</time>
      </trkpt>
      <trkpt lat="48.4491" lon="2.18822">
        <ele>71</ele>
        <time>2020-08-02T15:01:50.000Z</time>
      </trkpt>
      <trkpt lat="48.44914" lon="2.18834">
        <ele>71.199996948242</ele>
        <time>2020-08-02T15:01:52.000Z</time>
      </trkpt>
      <trkpt lat="48.44922" lon="2.18858">
        <ele>72</ele>
        <time>2020-08-02T15:01:56.000Z</time>
      </trkpt>
      <trkpt lat="48.44936" lon="2.18902">
        <ele>73.599998474121</ele>
        <time>2020-08-02T15:02:03.000Z</time>
      </trkpt>
      <trkpt lat="48.44954" lon="2.18957">
        <ele>75</ele>
        <time>2020-08-02T15:02:12.000Z</time>
      </trkpt>
      <trkpt lat="48.44973" lon="2.19012">
        <ele>76.199996948242</ele>
        <time>2020-08-02T15:02:21.000Z</time>
      </trkpt>
      <trkpt lat="48.44985" lon="2.19048">
        <ele>76.800003051758</ele>
        <time>2020-08-02T15:02:27.000Z</time>
      </trkpt>
      <trkpt lat="48.45001" lon="2.19096">
        <ele>78.400001525879</ele>
        <time>2020-08-02T15:02:35.000Z</time>
      </trkpt>
      <trkpt lat="48.45018" lon="2.19143">
        <ele>79.599998474121</ele>
        <time>2020-08-02T15:02:43.000Z</time>
      </trkpt>
      <trkpt lat="48.45021" lon="2.1915">
        <ele>79.800003051758</ele>
        <time>2020-08-02T15:02:44.000Z</time>
      </trkpt>
      <trkpt lat="48.45026" lon="2.19168">
        <ele>80.199996948242</ele>
        <time>2020-08-02T15:02:47.000Z</time>
      </trkpt>
      <trkpt lat="48.45028" lon="2.19174">
        <ele>80.199996948242</ele>
        <time>2020-08-02T15:02:48.000Z</time>
      </trkpt>
      <trkpt lat="48.45041" lon="2.19215">
        <ele>82.400001525879</ele>
        <time>2020-08-02T15:02:55.000Z</time>
      </trkpt>
      <trkpt lat="48.45042" lon="2.19221">
        <ele>82.599998474121</ele>
        <time>2020-08-02T15:02:56.000Z</time>
      </trkpt>
      <trkpt lat="48.45042" lon="2.19228">
        <ele>83</ele>
        <time>2020-08-02T15:02:57.000Z</time>
      </trkpt>
      <trkpt lat="48.45045" lon="2.19248">
        <ele>84.199996948242</ele>
        <time>2020-08-02T15:03:01.000Z</time>
      </trkpt>
      <trkpt lat="48.45048" lon="2.19277">
        <ele>85.400001525879</ele>
        <time>2020-08-02T15:03:06.000Z</time>
      </trkpt>
      <trkpt lat="48.4505" lon="2.19307">
        <ele>87.199996948242</ele>
        <time>2020-08-02T15:03:12.000Z</time>
      </trkpt>
      <trkpt lat="48.45051" lon="2.19337">
        <ele>88.800003051758</ele>
        <time>2020-08-02T15:03:18.000Z</time>
      </trkpt>
      <trkpt lat="48.45053" lon="2.19362">
        <ele>89.800003051758</ele>
        <time>2020-08-02T15:03:23.000Z</time>
      </trkpt>
      <trkpt lat="48.45054" lon="2.19381">
        <ele>90.599998474121</ele>
        <time>2020-08-02T15:03:27.000Z</time>
      </trkpt>
      <trkpt lat="48.45056" lon="2.1942">
        <ele>92</ele>
        <time>2020-08-02T15:03:34.000Z</time>
      </trkpt>
      <trkpt lat="48.45057" lon="2.19454">
        <ele>94</ele>
        <time>2020-08-02T15:03:40.000Z</time>
      </trkpt>
      <trkpt lat="48.45061" lon="2.19479">
        <ele>95.400001525879</ele>
        <time>2020-08-02T15:03:45.000Z</time>
      </trkpt>
      <trkpt lat="48.45061" lon="2.19492">
        <ele>96.199996948242</ele>
        <time>2020-08-02T15:03:49.000Z</time>
      </trkpt>
      <trkpt lat="48.45058" lon="2.19498">
        <ele>96.599998474121</ele>
        <time>2020-08-02T15:03:51.000Z</time>
      </trkpt>
      <trkpt lat="48.45053" lon="2.19504">
        <ele>96.800003051758</ele>
        <time>2020-08-02T15:03:53.000Z</time>
      </trkpt>
      <trkpt lat="48.45049" lon="2.1951">
        <ele>97.199996948242</ele>
        <time>2020-08-02T15:03:56.000Z</time>
      </trkpt>
      <trkpt lat="48.45047" lon="2.19512">
        <ele>97.400001525879</ele>
        <time>2020-08-02T15:03:58.000Z</time>
      </trkpt>
      <trkpt lat="48.45045" lon="2.19514">
        <ele>97.400001525879</ele>
        <time>2020-08-02T15:03:59.000Z</time>
      </trkpt>
      <trkpt lat="48.45042" lon="2.19517">
        <ele>97.599998474121</ele>
        <time>2020-08-02T15:04:01.000Z</time>
      </trkpt>
      <trkpt lat="48.4504" lon="2.19519">
        <ele>97.800003051758</ele>
        <time>2020-08-02T15:04:02.000Z</time>
      </trkpt>
      <trkpt lat="48.45031" lon="2.19531">
        <ele>99.599998474121</ele>
        <time>2020-08-02T15:04:08.000Z</time>
      </trkpt>
      <trkpt lat="48.45027" lon="2.19538">
        <ele>100.59999847412</ele>
        <time>2020-08-02T15:04:11.000Z</time>
      </trkpt>
      <trkpt lat="48.45026" lon="2.19543">
        <ele>101</ele>
        <time>2020-08-02T15:04:13.000Z</time>
      </trkpt>
      <trkpt lat="48.45026" lon="2.19546">
        <ele>101.40000152588</ele>
        <time>2020-08-02T15:04:14.000Z</time>
      </trkpt>
      <trkpt lat="48.45026" lon="2.19555">
        <ele>102</ele>
        <time>2020-08-02T15:04:17.000Z</time>
      </trkpt>
      <trkpt lat="48.45027" lon="2.19558">
        <ele>102.19999694824</ele>
        <time>2020-08-02T15:04:18.000Z</time>
      </trkpt>
      <trkpt lat="48.45032" lon="2.19571">
        <ele>103</ele>
        <time>2020-08-02T15:04:23.000Z</time>
      </trkpt>
      <trkpt lat="48.45037" lon="2.19584">
        <ele>103.19999694824</ele>
        <time>2020-08-02T15:04:27.000Z</time>
      </trkpt>
      <trkpt lat="48.45041" lon="2.19595">
        <ele>103.19999694824</ele>
        <time>2020-08-02T15:04:32.000Z</time>
      </trkpt>
      <trkpt lat="48.45038" lon="2.19596">
        <ele>103.59999847412</ele>
        <time>2020-08-02T15:05:03.000Z</time>
      </trkpt>
      <trkpt lat="48.45035" lon="2.19593">
        <ele>103.59999847412</ele>
        <time>2020-08-02T15:05:05.000Z</time>
      </trkpt>
      <trkpt lat="48.45027" lon="2.19582">
        <ele>104.19999694824</ele>
        <time>2020-08-02T15:05:10.000Z</time>
      </trkpt>
      <trkpt lat="48.45024" lon="2.19577">
        <ele>104</ele>
        <time>2020-08-02T15:05:12.000Z</time>
      </trkpt>
      <trkpt lat="48.45024" lon="2.19567">
        <ele>103.40000152588</ele>
        <time>2020-08-02T15:05:15.000Z</time>
      </trkpt>
      <trkpt lat="48.45028" lon="2.1955">
        <ele>101.40000152588</ele>
        <time>2020-08-02T15:05:20.000Z</time>
      </trkpt>
      <trkpt lat="48.4503" lon="2.19545">
        <ele>100.80000305176</ele>
        <time>2020-08-02T15:05:22.000Z</time>
      </trkpt>
      <trkpt lat="48.45032" lon="2.1954">
        <ele>100.19999694824</ele>
        <time>2020-08-02T15:05:25.000Z</time>
      </trkpt>
      <trkpt lat="48.45033" lon="2.19537">
        <ele>99.800003051758</ele>
        <time>2020-08-02T15:05:27.000Z</time>
      </trkpt>
      <trkpt lat="48.45037" lon="2.19514">
        <ele>97.599998474121</ele>
        <time>2020-08-02T15:05:38.000Z</time>
      </trkpt>
      <trkpt lat="48.45039" lon="2.19512">
        <ele>97.599998474121</ele>
        <time>2020-08-02T15:05:39.000Z</time>
      </trkpt>
      <trkpt lat="48.4504" lon="2.19508">
        <ele>97.400001525879</ele>
        <time>2020-08-02T15:05:40.000Z</time>
      </trkpt>
      <trkpt lat="48.45042" lon="2.19499">
        <ele>97.199996948242</ele>
        <time>2020-08-02T15:05:44.000Z</time>
      </trkpt>
      <trkpt lat="48.45047" lon="2.19495">
        <ele>96.800003051758</ele>
        <time>2020-08-02T15:05:48.000Z</time>
      </trkpt>
      <trkpt lat="48.45049" lon="2.19492">
        <ele>96.599998474121</ele>
        <time>2020-08-02T15:05:50.000Z</time>
      </trkpt>
      <trkpt lat="48.45053" lon="2.19486">
        <ele>96.199996948242</ele>
        <time>2020-08-02T15:05:53.000Z</time>
      </trkpt>
      <trkpt lat="48.45053" lon="2.19479">
        <ele>95.599998474121</ele>
        <time>2020-08-02T15:05:57.000Z</time>
      </trkpt>
      <trkpt lat="48.45053" lon="2.19476">
        <ele>95.599998474121</ele>
        <time>2020-08-02T15:05:58.000Z</time>
      </trkpt>
      <trkpt lat="48.45054" lon="2.19456">
        <ele>94.400001525879</ele>
        <time>2020-08-02T15:06:03.000Z</time>
      </trkpt>
      <trkpt lat="48.45054" lon="2.19448">
        <ele>93.800003051758</ele>
        <time>2020-08-02T15:06:05.000Z</time>
      </trkpt>
      <trkpt lat="48.45052" lon="2.19444">
        <ele>93.599998474121</ele>
        <time>2020-08-02T15:06:07.000Z</time>
      </trkpt>
      <trkpt lat="48.45041" lon="2.19441">
        <ele>93.800003051758</ele>
        <time>2020-08-02T15:06:12.000Z</time>
      </trkpt>
      <trkpt lat="48.45026" lon="2.19436">
        <ele>94</ele>
        <time>2020-08-02T15:06:18.000Z</time>
      </trkpt>
      <trkpt lat="48.45009" lon="2.19432">
        <ele>94.400001525879</ele>
        <time>2020-08-02T15:06:23.000Z</time>
      </trkpt>
      <trkpt lat="48.44993" lon="2.19429">
        <ele>94.400001525879</ele>
        <time>2020-08-02T15:06:28.000Z</time>
      </trkpt>
      <trkpt lat="48.44978" lon="2.19426">
        <ele>94.400001525879</ele>
        <time>2020-08-02T15:06:32.000Z</time>
      </trkpt>
      <trkpt lat="48.44962" lon="2.19424">
        <ele>94.400001525879</ele>
        <time>2020-08-02T15:06:37.000Z</time>
      </trkpt>
      <trkpt lat="48.44946" lon="2.19423">
        <ele>94.599998474121</ele>
        <time>2020-08-02T15:06:42.000Z</time>
      </trkpt>
      <trkpt lat="48.44938" lon="2.19425">
        <ele>95</ele>
        <time>2020-08-02T15:06:45.000Z</time>
      </trkpt>
      <trkpt lat="48.44934" lon="2.19429">
        <ele>95.599998474121</ele>
        <time>2020-08-02T15:06:47.000Z</time>
      </trkpt>
      <trkpt lat="48.44932" lon="2.19431">
        <ele>95.800003051758</ele>
        <time>2020-08-02T15:06:48.000Z</time>
      </trkpt>
      <trkpt lat="48.44928" lon="2.19443">
        <ele>97</ele>
        <time>2020-08-02T15:06:51.000Z</time>
      </trkpt>
      <trkpt lat="48.44916" lon="2.19468">
        <ele>99</ele>
        <time>2020-08-02T15:06:58.000Z</time>
      </trkpt>
      <trkpt lat="48.44906" lon="2.19485">
        <ele>100.59999847412</ele>
        <time>2020-08-02T15:07:04.000Z</time>
      </trkpt>
      <trkpt lat="48.44901" lon="2.19493">
        <ele>101.40000152588</ele>
        <time>2020-08-02T15:07:07.000Z</time>
      </trkpt>
      <trkpt lat="48.449" lon="2.19497">
        <ele>101.80000305176</ele>
        <time>2020-08-02T15:07:08.000Z</time>
      </trkpt>
      <trkpt lat="48.44897" lon="2.19513">
        <ele>104</ele>
        <time>2020-08-02T15:07:13.000Z</time>
      </trkpt>
      <trkpt lat="48.44891" lon="2.19526">
        <ele>105.59999847412</ele>
        <time>2020-08-02T15:07:18.000Z</time>
      </trkpt>
      <trkpt lat="48.44886" lon="2.19538">
        <ele>107.19999694824</ele>
        <time>2020-08-02T15:07:23.000Z</time>
      </trkpt>
      <trkpt lat="48.44883" lon="2.19544">
        <ele>108.19999694824</ele>
        <time>2020-08-02T15:07:27.000Z</time>
      </trkpt>
      <trkpt lat="48.44882" lon="2.19546">
        <ele>108.59999847412</ele>
        <time>2020-08-02T15:08:13.000Z</time>
      </trkpt>
      <trkpt lat="48.44883" lon="2.19541">
        <ele>107.80000305176</ele>
        <time>2020-08-02T15:08:15.000Z</time>
      </trkpt>
      <trkpt lat="48.44886" lon="2.19535">
        <ele>106.80000305176</ele>
        <time>2020-08-02T15:08:19.000Z</time>
      </trkpt>
      <trkpt lat="48.44888" lon="2.19529">
        <ele>106</ele>
        <time>2020-08-02T15:08:22.000Z</time>
      </trkpt>
      <trkpt lat="48.44893" lon="2.1952">
        <ele>104.80000305176</ele>
        <time>2020-08-02T15:08:26.000Z</time>
      </trkpt>
      <trkpt lat="48.44894" lon="2.19518">
        <ele>104.59999847412</ele>
        <time>2020-08-02T15:08:27.000Z</time>
      </trkpt>
      <trkpt lat="48.44899" lon="2.19505">
        <ele>102.80000305176</ele>
        <time>2020-08-02T15:08:32.000Z</time>
      </trkpt>
      <trkpt lat="48.44905" lon="2.19492">
        <ele>101.40000152588</ele>
        <time>2020-08-02T15:08:36.000Z</time>
      </trkpt>
      <trkpt lat="48.44916" lon="2.19469">
        <ele>99</ele>
        <time>2020-08-02T15:08:41.000Z</time>
      </trkpt>
      <trkpt lat="48.44926" lon="2.19445">
        <ele>97</ele>
        <time>2020-08-02T15:08:46.000Z</time>
      </trkpt>
      <trkpt lat="48.44933" lon="2.19439">
        <ele>96.599998474121</ele>
        <time>2020-08-02T15:08:50.000Z</time>
      </trkpt>
      <trkpt lat="48.44936" lon="2.19438">
        <ele>96.400001525879</ele>
        <time>2020-08-02T15:08:51.000Z</time>
      </trkpt>
      <trkpt lat="48.44946" lon="2.19436">
        <ele>95.800003051758</ele>
        <time>2020-08-02T15:08:53.000Z</time>
      </trkpt>
      <trkpt lat="48.44953" lon="2.19434">
        <ele>95.199996948242</ele>
        <time>2020-08-02T15:08:55.000Z</time>
      </trkpt>
      <trkpt lat="48.44958" lon="2.19429">
        <ele>94.800003051758</ele>
        <time>2020-08-02T15:08:59.000Z</time>
      </trkpt>
      <trkpt lat="48.44971" lon="2.19427">
        <ele>94.400001525879</ele>
        <time>2020-08-02T15:09:04.000Z</time>
      </trkpt>
      <trkpt lat="48.44988" lon="2.19427">
        <ele>94.199996948242</ele>
        <time>2020-08-02T15:09:09.000Z</time>
      </trkpt>
      <trkpt lat="48.45004" lon="2.19427">
        <ele>94</ele>
        <time>2020-08-02T15:09:14.000Z</time>
      </trkpt>
      <trkpt lat="48.45013" lon="2.19427">
        <ele>94</ele>
        <time>2020-08-02T15:09:17.000Z</time>
      </trkpt>
      <trkpt lat="48.4502" lon="2.19426">
        <ele>93.800003051758</ele>
        <time>2020-08-02T15:09:21.000Z</time>
      </trkpt>
      <trkpt lat="48.45025" lon="2.19427">
        <ele>93.599998474121</ele>
        <time>2020-08-02T15:09:24.000Z</time>
      </trkpt>
      <trkpt lat="48.45045" lon="2.19447">
        <ele>94</ele>
        <time>2020-08-02T15:09:29.000Z</time>
      </trkpt>
      <trkpt lat="48.45056" lon="2.19469">
        <ele>95</ele>
        <time>2020-08-02T15:09:35.000Z</time>
      </trkpt>
      <trkpt lat="48.45062" lon="2.19491">
        <ele>96</ele>
        <time>2020-08-02T15:09:40.000Z</time>
      </trkpt>
      <trkpt lat="48.45065" lon="2.19514">
        <ele>96.599998474121</ele>
        <time>2020-08-02T15:09:45.000Z</time>
      </trkpt>
      <trkpt lat="48.45067" lon="2.19524">
        <ele>96.800003051758</ele>
        <time>2020-08-02T15:09:47.000Z</time>
      </trkpt>
      <trkpt lat="48.4507" lon="2.19534">
        <ele>97</ele>
        <time>2020-08-02T15:09:49.000Z</time>
      </trkpt>
      <trkpt lat="48.45074" lon="2.19556">
        <ele>97.599998474121</ele>
        <time>2020-08-02T15:09:54.000Z</time>
      </trkpt>
      <trkpt lat="48.45078" lon="2.1958">
        <ele>99.199996948242</ele>
        <time>2020-08-02T15:09:59.000Z</time>
      </trkpt>
      <trkpt lat="48.45077" lon="2.19612">
        <ele>100.40000152588</ele>
        <time>2020-08-02T15:10:05.000Z</time>
      </trkpt>
      <trkpt lat="48.45078" lon="2.19637">
        <ele>101.19999694824</ele>
        <time>2020-08-02T15:10:10.000Z</time>
      </trkpt>
      <trkpt lat="48.45077" lon="2.19665">
        <ele>103.80000305176</ele>
        <time>2020-08-02T15:10:16.000Z</time>
      </trkpt>
      <trkpt lat="48.45074" lon="2.19693">
        <ele>105.80000305176</ele>
        <time>2020-08-02T15:10:21.000Z</time>
      </trkpt>
      <trkpt lat="48.45074" lon="2.19717">
        <ele>106.80000305176</ele>
        <time>2020-08-02T15:10:26.000Z</time>
      </trkpt>
      <trkpt lat="48.45077" lon="2.19742">
        <ele>108</ele>
        <time>2020-08-02T15:10:32.000Z</time>
      </trkpt>
      <trkpt lat="48.45079" lon="2.19768">
        <ele>108.40000152588</ele>
        <time>2020-08-02T15:10:38.000Z</time>
      </trkpt>
      <trkpt lat="48.45079" lon="2.19794">
        <ele>109</ele>
        <time>2020-08-02T15:10:43.000Z</time>
      </trkpt>
      <trkpt lat="48.4508" lon="2.19819">
        <ele>110</ele>
        <time>2020-08-02T15:10:49.000Z</time>
      </trkpt>
      <trkpt lat="48.45081" lon="2.19826">
        <ele>110.40000152588</ele>
        <time>2020-08-02T15:10:51.000Z</time>
      </trkpt>
      <trkpt lat="48.45081" lon="2.19834">
        <ele>111</ele>
        <time>2020-08-02T15:10:53.000Z</time>
      </trkpt>
      <trkpt lat="48.45082" lon="2.19858">
        <ele>112.40000152588</ele>
        <time>2020-08-02T15:10:58.000Z</time>
      </trkpt>
      <trkpt lat="48.45082" lon="2.19881">
        <ele>114.19999694824</ele>
        <time>2020-08-02T15:11:04.000Z</time>
      </trkpt>
      <trkpt lat="48.45085" lon="2.19911">
        <ele>115.40000152588</ele>
        <time>2020-08-02T15:11:11.000Z</time>
      </trkpt>
      <trkpt lat="48.45086" lon="2.19931">
        <ele>115.59999847412</ele>
        <time>2020-08-02T15:11:15.000Z</time>
      </trkpt>
      <trkpt lat="48.45085" lon="2.19958">
        <ele>116.59999847412</ele>
        <time>2020-08-02T15:11:21.000Z</time>
      </trkpt>
      <trkpt lat="48.45083" lon="2.19981">
        <ele>117.59999847412</ele>
        <time>2020-08-02T15:11:26.000Z</time>
      </trkpt>
      <trkpt lat="48.45082" lon="2.20003">
        <ele>119.19999694824</ele>
        <time>2020-08-02T15:11:31.000Z</time>
      </trkpt>
      <trkpt lat="48.45082" lon="2.20032">
        <ele>121.40000152588</ele>
        <time>2020-08-02T15:11:38.000Z</time>
      </trkpt>
      <trkpt lat="48.45085" lon="2.2005">
        <ele>122.40000152588</ele>
        <time>2020-08-02T15:11:43.000Z</time>
      </trkpt>
      <trkpt lat="48.45088" lon="2.2007">
        <ele>123</ele>
        <time>2020-08-02T15:11:49.000Z</time>
      </trkpt>
      <trkpt lat="48.45089" lon="2.20092">
        <ele>123.59999847412</ele>
        <time>2020-08-02T15:11:54.000Z</time>
      </trkpt>
      <trkpt lat="48.4509" lon="2.20104">
        <ele>123.80000305176</ele>
        <time>2020-08-02T15:11:57.000Z</time>
      </trkpt>
      <trkpt lat="48.4509" lon="2.20112">
        <ele>124</ele>
        <time>2020-08-02T15:11:59.000Z</time>
      </trkpt>
      <trkpt lat="48.45089" lon="2.2013">
        <ele>124.80000305176</ele>
        <time>2020-08-02T15:12:04.000Z</time>
      </trkpt>
      <trkpt lat="48.45089" lon="2.20155">
        <ele>125.59999847412</ele>
        <time>2020-08-02T15:12:10.000Z</time>
      </trkpt>
      <trkpt lat="48.4509" lon="2.2018">
        <ele>127.19999694824</ele>
        <time>2020-08-02T15:12:16.000Z</time>
      </trkpt>
      <trkpt lat="48.45091" lon="2.20203">
        <ele>128.80000305176</ele>
        <time>2020-08-02T15:12:22.000Z</time>
      </trkpt>
      <trkpt lat="48.45091" lon="2.20223">
        <ele>130.60000610352</ele>
        <time>2020-08-02T15:12:27.000Z</time>
      </trkpt>
      <trkpt lat="48.45093" lon="2.20242">
        <ele>131.80000305176</ele>
        <time>2020-08-02T15:12:32.000Z</time>
      </trkpt>
      <trkpt lat="48.45093" lon="2.20262">
        <ele>132.60000610352</ele>
        <time>2020-08-02T15:12:37.000Z</time>
      </trkpt>
      <trkpt lat="48.45096" lon="2.2028">
        <ele>133.19999694824</ele>
        <time>2020-08-02T15:12:42.000Z</time>
      </trkpt>
      <trkpt lat="48.451" lon="2.203">
        <ele>133.39999389648</ele>
        <time>2020-08-02T15:12:48.000Z</time>
      </trkpt>
      <trkpt lat="48.45103" lon="2.20322">
        <ele>133.80000305176</ele>
        <time>2020-08-02T15:12:53.000Z</time>
      </trkpt>
      <trkpt lat="48.45104" lon="2.20342">
        <ele>134.39999389648</ele>
        <time>2020-08-02T15:12:58.000Z</time>
      </trkpt>
      <trkpt lat="48.45105" lon="2.2036">
        <ele>134.39999389648</ele>
        <time>2020-08-02T15:13:02.000Z</time>
      </trkpt>
      <trkpt lat="48.45105" lon="2.20386">
        <ele>135.19999694824</ele>
        <time>2020-08-02T15:13:07.000Z</time>
      </trkpt>
      <trkpt lat="48.45105" lon="2.20391">
        <ele>135.39999389648</ele>
        <time>2020-08-02T15:13:08.000Z</time>
      </trkpt>
      <trkpt lat="48.45107" lon="2.20412">
        <ele>135.39999389648</ele>
        <time>2020-08-02T15:13:12.000Z</time>
      </trkpt>
      <trkpt lat="48.4511" lon="2.20432">
        <ele>135.19999694824</ele>
        <time>2020-08-02T15:13:16.000Z</time>
      </trkpt>
      <trkpt lat="48.45112" lon="2.2045">
        <ele>134.80000305176</ele>
        <time>2020-08-02T15:13:21.000Z</time>
      </trkpt>
      <trkpt lat="48.45114" lon="2.2048">
        <ele>134.60000610352</ele>
        <time>2020-08-02T15:13:27.000Z</time>
      </trkpt>
      <trkpt lat="48.45118" lon="2.20509">
        <ele>134.19999694824</ele>
        <time>2020-08-02T15:13:33.000Z</time>
      </trkpt>
      <trkpt lat="48.4512" lon="2.20536">
        <ele>134.60000610352</ele>
        <time>2020-08-02T15:13:39.000Z</time>
      </trkpt>
      <trkpt lat="48.45121" lon="2.20555">
        <ele>134.80000305176</ele>
        <time>2020-08-02T15:13:44.000Z</time>
      </trkpt>
      <trkpt lat="48.45124" lon="2.20583">
        <ele>134.80000305176</ele>
        <time>2020-08-02T15:13:50.000Z</time>
      </trkpt>
      <trkpt lat="48.45126" lon="2.20607">
        <ele>134.19999694824</ele>
        <time>2020-08-02T15:13:55.000Z</time>
      </trkpt>
      <trkpt lat="48.45129" lon="2.20632">
        <ele>133.60000610352</ele>
        <time>2020-08-02T15:14:00.000Z</time>
      </trkpt>
      <trkpt lat="48.45131" lon="2.20654">
        <ele>133.19999694824</ele>
        <time>2020-08-02T15:14:05.000Z</time>
      </trkpt>
      <trkpt lat="48.45133" lon="2.20671">
        <ele>133.19999694824</ele>
        <time>2020-08-02T15:14:09.000Z</time>
      </trkpt>
      <trkpt lat="48.45138" lon="2.20697">
        <ele>133</ele>
        <time>2020-08-02T15:14:14.000Z</time>
      </trkpt>
      <trkpt lat="48.4514" lon="2.20722">
        <ele>132.80000305176</ele>
        <time>2020-08-02T15:14:19.000Z</time>
      </trkpt>
      <trkpt lat="48.45141" lon="2.20753">
        <ele>133.60000610352</ele>
        <time>2020-08-02T15:14:25.000Z</time>
      </trkpt>
      <trkpt lat="48.45143" lon="2.20777">
        <ele>134.80000305176</ele>
        <time>2020-08-02T15:14:30.000Z</time>
      </trkpt>
      <trkpt lat="48.45146" lon="2.20811">
        <ele>136</ele>
        <time>2020-08-02T15:14:36.000Z</time>
      </trkpt>
      <trkpt lat="48.45149" lon="2.20839">
        <ele>137.19999694824</ele>
        <time>2020-08-02T15:14:43.000Z</time>
      </trkpt>
      <trkpt lat="48.45153" lon="2.20863">
        <ele>139.39999389648</ele>
        <time>2020-08-02T15:14:49.000Z</time>
      </trkpt>
      <trkpt lat="48.45157" lon="2.20882">
        <ele>140.80000305176</ele>
        <time>2020-08-02T15:14:53.000Z</time>
      </trkpt>
      <trkpt lat="48.45167" lon="2.20911">
        <ele>141.39999389648</ele>
        <time>2020-08-02T15:14:59.000Z</time>
      </trkpt>
      <trkpt lat="48.4517" lon="2.20925">
        <ele>141.60000610352</ele>
        <time>2020-08-02T15:15:03.000Z</time>
      </trkpt>
      <trkpt lat="48.45174" lon="2.20946">
        <ele>142</ele>
        <time>2020-08-02T15:15:08.000Z</time>
      </trkpt>
      <trkpt lat="48.45176" lon="2.20951">
        <ele>142</ele>
        <time>2020-08-02T15:15:09.000Z</time>
      </trkpt>
      <trkpt lat="48.45175" lon="2.20964">
        <ele>142.39999389648</ele>
        <time>2020-08-02T15:15:11.000Z</time>
      </trkpt>
      <trkpt lat="48.45162" lon="2.20971">
        <ele>143</ele>
        <time>2020-08-02T15:15:15.000Z</time>
      </trkpt>
      <trkpt lat="48.45131" lon="2.20973">
        <ele>143.39999389648</ele>
        <time>2020-08-02T15:15:23.000Z</time>
      </trkpt>
      <trkpt lat="48.45091" lon="2.21001">
        <ele>144.19999694824</ele>
        <time>2020-08-02T15:15:32.000Z</time>
      </trkpt>
      <trkpt lat="48.45055" lon="2.20999">
        <ele>144.60000610352</ele>
        <time>2020-08-02T15:15:42.000Z</time>
      </trkpt>
      <trkpt lat="48.45018" lon="2.20994">
        <ele>145</ele>
        <time>2020-08-02T15:15:51.000Z</time>
      </trkpt>
      <trkpt lat="48.44984" lon="2.20988">
        <ele>145</ele>
        <time>2020-08-02T15:15:59.000Z</time>
      </trkpt>
      <trkpt lat="48.44952" lon="2.20985">
        <ele>144.80000305176</ele>
        <time>2020-08-02T15:16:07.000Z</time>
      </trkpt>
      <trkpt lat="48.4491" lon="2.20982">
        <ele>144.19999694824</ele>
        <time>2020-08-02T15:16:17.000Z</time>
      </trkpt>
      <trkpt lat="48.44875" lon="2.20978">
        <ele>143</ele>
        <time>2020-08-02T15:16:26.000Z</time>
      </trkpt>
      <trkpt lat="48.44843" lon="2.20974">
        <ele>141.80000305176</ele>
        <time>2020-08-02T15:16:34.000Z</time>
      </trkpt>
      <trkpt lat="48.44811" lon="2.20972">
        <ele>140.80000305176</ele>
        <time>2020-08-02T15:16:41.000Z</time>
      </trkpt>
      <trkpt lat="48.44783" lon="2.20969">
        <ele>140</ele>
        <time>2020-08-02T15:16:47.000Z</time>
      </trkpt>
      <trkpt lat="48.44779" lon="2.20968">
        <ele>140</ele>
        <time>2020-08-02T15:16:48.000Z</time>
      </trkpt>
      <trkpt lat="48.44774" lon="2.20967">
        <ele>139.80000305176</ele>
        <time>2020-08-02T15:16:49.000Z</time>
      </trkpt>
      <trkpt lat="48.44765" lon="2.20969">
        <ele>139.60000610352</ele>
        <time>2020-08-02T15:16:52.000Z</time>
      </trkpt>
      <trkpt lat="48.44762" lon="2.20984">
        <ele>140</ele>
        <time>2020-08-02T15:16:56.000Z</time>
      </trkpt>
      <trkpt lat="48.4477" lon="2.21016">
        <ele>140.39999389648</ele>
        <time>2020-08-02T15:17:02.000Z</time>
      </trkpt>
      <trkpt lat="48.44782" lon="2.21061">
        <ele>141.19999694824</ele>
        <time>2020-08-02T15:17:10.000Z</time>
      </trkpt>
      <trkpt lat="48.44794" lon="2.21103">
        <ele>141</ele>
        <time>2020-08-02T15:17:17.000Z</time>
      </trkpt>
      <trkpt lat="48.44797" lon="2.21116">
        <ele>141</ele>
        <time>2020-08-02T15:17:19.000Z</time>
      </trkpt>
      <trkpt lat="48.44813" lon="2.21178">
        <ele>141.19999694824</ele>
        <time>2020-08-02T15:17:29.000Z</time>
      </trkpt>
      <trkpt lat="48.44827" lon="2.21235">
        <ele>140.60000610352</ele>
        <time>2020-08-02T15:17:38.000Z</time>
      </trkpt>
      <trkpt lat="48.44842" lon="2.21292">
        <ele>141.80000305176</ele>
        <time>2020-08-02T15:17:46.000Z</time>
      </trkpt>
      <trkpt lat="48.44859" lon="2.21352">
        <ele>143.60000610352</ele>
        <time>2020-08-02T15:17:54.000Z</time>
      </trkpt>
      <trkpt lat="48.44878" lon="2.21426">
        <ele>145</ele>
        <time>2020-08-02T15:18:04.000Z</time>
      </trkpt>
      <trkpt lat="48.44897" lon="2.215">
        <ele>145.39999389648</ele>
        <time>2020-08-02T15:18:14.000Z</time>
      </trkpt>
      <trkpt lat="48.44913" lon="2.2156">
        <ele>146</ele>
        <time>2020-08-02T15:18:22.000Z</time>
      </trkpt>
      <trkpt lat="48.44928" lon="2.21618">
        <ele>146</ele>
        <time>2020-08-02T15:18:30.000Z</time>
      </trkpt>
      <trkpt lat="48.44947" lon="2.21688">
        <ele>145.80000305176</ele>
        <time>2020-08-02T15:18:39.000Z</time>
      </trkpt>
      <trkpt lat="48.44963" lon="2.21749">
        <ele>145.60000610352</ele>
        <time>2020-08-02T15:18:47.000Z</time>
      </trkpt>
      <trkpt lat="48.44979" lon="2.21812">
        <ele>146.19999694824</ele>
        <time>2020-08-02T15:18:55.000Z</time>
      </trkpt>
      <trkpt lat="48.44999" lon="2.21889">
        <ele>146.19999694824</ele>
        <time>2020-08-02T15:19:05.000Z</time>
      </trkpt>
      <trkpt lat="48.45001" lon="2.21897">
        <ele>146.19999694824</ele>
        <time>2020-08-02T15:19:06.000Z</time>
      </trkpt>
      <trkpt lat="48.45022" lon="2.21975">
        <ele>146.80000305176</ele>
        <time>2020-08-02T15:19:16.000Z</time>
      </trkpt>
      <trkpt lat="48.45024" lon="2.21982">
        <ele>146.80000305176</ele>
        <time>2020-08-02T15:19:17.000Z</time>
      </trkpt>
      <trkpt lat="48.45042" lon="2.22051">
        <ele>147.39999389648</ele>
        <time>2020-08-02T15:19:26.000Z</time>
      </trkpt>
      <trkpt lat="48.4506" lon="2.22118">
        <ele>148</ele>
        <time>2020-08-02T15:19:35.000Z</time>
      </trkpt>
      <trkpt lat="48.45079" lon="2.2219">
        <ele>148.60000610352</ele>
        <time>2020-08-02T15:19:45.000Z</time>
      </trkpt>
      <trkpt lat="48.45093" lon="2.22247">
        <ele>149</ele>
        <time>2020-08-02T15:19:53.000Z</time>
      </trkpt>
      <trkpt lat="48.45107" lon="2.22304">
        <ele>151</ele>
        <time>2020-08-02T15:20:01.000Z</time>
      </trkpt>
      <trkpt lat="48.45108" lon="2.22312">
        <ele>151.19999694824</ele>
        <time>2020-08-02T15:20:02.000Z</time>
      </trkpt>
      <trkpt lat="48.45108" lon="2.2232">
        <ele>151.60000610352</ele>
        <time>2020-08-02T15:20:03.000Z</time>
      </trkpt>
      <trkpt lat="48.45106" lon="2.22335">
        <ele>152</ele>
        <time>2020-08-02T15:20:05.000Z</time>
      </trkpt>
      <trkpt lat="48.45104" lon="2.22342">
        <ele>151.80000305176</ele>
        <time>2020-08-02T15:20:06.000Z</time>
      </trkpt>
      <trkpt lat="48.45102" lon="2.22349">
        <ele>151.80000305176</ele>
        <time>2020-08-02T15:20:07.000Z</time>
      </trkpt>
      <trkpt lat="48.45083" lon="2.22387">
        <ele>151</ele>
        <time>2020-08-02T15:20:13.000Z</time>
      </trkpt>
      <trkpt lat="48.45063" lon="2.22442">
        <ele>150.60000610352</ele>
        <time>2020-08-02T15:20:21.000Z</time>
      </trkpt>
      <trkpt lat="48.45055" lon="2.22478">
        <ele>150.80000305176</ele>
        <time>2020-08-02T15:20:26.000Z</time>
      </trkpt>
      <trkpt lat="48.45052" lon="2.22484">
        <ele>150.80000305176</ele>
        <time>2020-08-02T15:20:27.000Z</time>
      </trkpt>
      <trkpt lat="48.45049" lon="2.22489">
        <ele>151</ele>
        <time>2020-08-02T15:20:28.000Z</time>
      </trkpt>
      <trkpt lat="48.45041" lon="2.22495">
        <ele>151</ele>
        <time>2020-08-02T15:20:30.000Z</time>
      </trkpt>
      <trkpt lat="48.45037" lon="2.22497">
        <ele>151</ele>
        <time>2020-08-02T15:20:31.000Z</time>
      </trkpt>
      <trkpt lat="48.45027" lon="2.22501">
        <ele>151</ele>
        <time>2020-08-02T15:20:33.000Z</time>
      </trkpt>
      <trkpt lat="48.45012" lon="2.22504">
        <ele>151</ele>
        <time>2020-08-02T15:20:36.000Z</time>
      </trkpt>
      <trkpt lat="48.45001" lon="2.22506">
        <ele>151.19999694824</ele>
        <time>2020-08-02T15:20:38.000Z</time>
      </trkpt>
      <trkpt lat="48.4498" lon="2.22509">
        <ele>151.19999694824</ele>
        <time>2020-08-02T15:20:42.000Z</time>
      </trkpt>
      <trkpt lat="48.44937" lon="2.22508">
        <ele>151</ele>
        <time>2020-08-02T15:20:50.000Z</time>
      </trkpt>
      <trkpt lat="48.44901" lon="2.22499">
        <ele>151</ele>
        <time>2020-08-02T15:20:57.000Z</time>
      </trkpt>
      <trkpt lat="48.44856" lon="2.22481">
        <ele>151</ele>
        <time>2020-08-02T15:21:06.000Z</time>
      </trkpt>
      <trkpt lat="48.44828" lon="2.22462">
        <ele>151.19999694824</ele>
        <time>2020-08-02T15:21:12.000Z</time>
      </trkpt>
      <trkpt lat="48.44795" lon="2.22432">
        <ele>151.60000610352</ele>
        <time>2020-08-02T15:21:19.000Z</time>
      </trkpt>
      <trkpt lat="48.4476" lon="2.22397">
        <ele>151.80000305176</ele>
        <time>2020-08-02T15:21:27.000Z</time>
      </trkpt>
      <trkpt lat="48.44723" lon="2.2237">
        <ele>151.39999389648</ele>
        <time>2020-08-02T15:21:35.000Z</time>
      </trkpt>
      <trkpt lat="48.44682" lon="2.22356">
        <ele>151</ele>
        <time>2020-08-02T15:21:43.000Z</time>
      </trkpt>
      <trkpt lat="48.44636" lon="2.22348">
        <ele>151</ele>
        <time>2020-08-02T15:21:52.000Z</time>
      </trkpt>
      <trkpt lat="48.44598" lon="2.22345">
        <ele>151</ele>
        <time>2020-08-02T15:21:59.000Z</time>
      </trkpt>
      <trkpt lat="48.44564" lon="2.22345">
        <ele>151</ele>
        <time>2020-08-02T15:22:06.000Z</time>
      </trkpt>
      <trkpt lat="48.44544" lon="2.22347">
        <ele>151</ele>
        <time>2020-08-02T15:22:12.000Z</time>
      </trkpt>
      <trkpt lat="48.44537" lon="2.22346">
        <ele>151</ele>
        <time>2020-08-02T15:22:17.000Z</time>
      </trkpt>
      <trkpt lat="48.44526" lon="2.2233">
        <ele>151</ele>
        <time>2020-08-02T15:22:21.000Z</time>
      </trkpt>
      <trkpt lat="48.44497" lon="2.22289">
        <ele>151</ele>
        <time>2020-08-02T15:22:29.000Z</time>
      </trkpt>
      <trkpt lat="48.44467" lon="2.22247">
        <ele>151</ele>
        <time>2020-08-02T15:22:37.000Z</time>
      </trkpt>
      <trkpt lat="48.44435" lon="2.22201">
        <ele>151.60000610352</ele>
        <time>2020-08-02T15:22:45.000Z</time>
      </trkpt>
      <trkpt lat="48.44399" lon="2.22151">
        <ele>152.19999694824</ele>
        <time>2020-08-02T15:22:54.000Z</time>
      </trkpt>
      <trkpt lat="48.44359" lon="2.22094">
        <ele>152.80000305176</ele>
        <time>2020-08-02T15:23:04.000Z</time>
      </trkpt>
      <trkpt lat="48.44355" lon="2.22088">
        <ele>152.80000305176</ele>
        <time>2020-08-02T15:23:05.000Z</time>
      </trkpt>
      <trkpt lat="48.44332" lon="2.22062">
        <ele>152.39999389648</ele>
        <time>2020-08-02T15:23:10.000Z</time>
      </trkpt>
      <trkpt lat="48.44321" lon="2.22053">
        <ele>152</ele>
        <time>2020-08-02T15:23:13.000Z</time>
      </trkpt>
      <trkpt lat="48.44311" lon="2.22064">
        <ele>152</ele>
        <time>2020-08-02T15:23:17.000Z</time>
      </trkpt>
      <trkpt lat="48.44294" lon="2.22092">
        <ele>151.60000610352</ele>
        <time>2020-08-02T15:23:22.000Z</time>
      </trkpt>
      <trkpt lat="48.44256" lon="2.22153">
        <ele>150.80000305176</ele>
        <time>2020-08-02T15:23:31.000Z</time>
      </trkpt>
      <trkpt lat="48.44228" lon="2.22197">
        <ele>151</ele>
        <time>2020-08-02T15:23:38.000Z</time>
      </trkpt>
      <trkpt lat="48.44186" lon="2.22262">
        <ele>151.80000305176</ele>
        <time>2020-08-02T15:23:48.000Z</time>
      </trkpt>
      <trkpt lat="48.44182" lon="2.22268">
        <ele>151.80000305176</ele>
        <time>2020-08-02T15:23:49.000Z</time>
      </trkpt>
      <trkpt lat="48.44145" lon="2.22328">
        <ele>151</ele>
        <time>2020-08-02T15:23:58.000Z</time>
      </trkpt>
      <trkpt lat="48.44133" lon="2.22348">
        <ele>151</ele>
        <time>2020-08-02T15:24:01.000Z</time>
      </trkpt>
      <trkpt lat="48.44095" lon="2.22407">
        <ele>150.19999694824</ele>
        <time>2020-08-02T15:24:10.000Z</time>
      </trkpt>
      <trkpt lat="48.44083" lon="2.22427">
        <ele>150.19999694824</ele>
        <time>2020-08-02T15:24:13.000Z</time>
      </trkpt>
      <trkpt lat="48.44047" lon="2.22491">
        <ele>149</ele>
        <time>2020-08-02T15:24:22.000Z</time>
      </trkpt>
      <trkpt lat="48.44044" lon="2.22498">
        <ele>148.60000610352</ele>
        <time>2020-08-02T15:24:23.000Z</time>
      </trkpt>
      <trkpt lat="48.44019" lon="2.22552">
        <ele>147.39999389648</ele>
        <time>2020-08-02T15:24:30.000Z</time>
      </trkpt>
      <trkpt lat="48.43987" lon="2.22623">
        <ele>146.80000305176</ele>
        <time>2020-08-02T15:24:39.000Z</time>
      </trkpt>
      <trkpt lat="48.43979" lon="2.22639">
        <ele>146.80000305176</ele>
        <time>2020-08-02T15:24:41.000Z</time>
      </trkpt>
      <trkpt lat="48.43957" lon="2.22687">
        <ele>147.80000305176</ele>
        <time>2020-08-02T15:24:48.000Z</time>
      </trkpt>
      <trkpt lat="48.43954" lon="2.22702">
        <ele>147.80000305176</ele>
        <time>2020-08-02T15:24:51.000Z</time>
      </trkpt>
      <trkpt lat="48.43965" lon="2.22715">
        <ele>147.60000610352</ele>
        <time>2020-08-02T15:24:55.000Z</time>
      </trkpt>
      <trkpt lat="48.43986" lon="2.22744">
        <ele>147.39999389648</ele>
        <time>2020-08-02T15:25:02.000Z</time>
      </trkpt>
      <trkpt lat="48.44016" lon="2.22784">
        <ele>146</ele>
        <time>2020-08-02T15:25:10.000Z</time>
      </trkpt>
      <trkpt lat="48.44051" lon="2.22833">
        <ele>144.80000305176</ele>
        <time>2020-08-02T15:25:19.000Z</time>
      </trkpt>
      <trkpt lat="48.44087" lon="2.22882">
        <ele>143</ele>
        <time>2020-08-02T15:25:28.000Z</time>
      </trkpt>
      <trkpt lat="48.44099" lon="2.22897">
        <ele>142.60000610352</ele>
        <time>2020-08-02T15:25:32.000Z</time>
      </trkpt>
      <trkpt lat="48.441" lon="2.22898">
        <ele>142.60000610352</ele>
        <time>2020-08-02T15:25:34.000Z</time>
      </trkpt>
      <trkpt lat="48.44096" lon="2.22893">
        <ele>142.60000610352</ele>
        <time>2020-08-02T15:25:58.000Z</time>
      </trkpt>
      <trkpt lat="48.44084" lon="2.22879">
        <ele>143.19999694824</ele>
        <time>2020-08-02T15:26:03.000Z</time>
      </trkpt>
      <trkpt lat="48.44062" lon="2.22849">
        <ele>144.19999694824</ele>
        <time>2020-08-02T15:26:10.000Z</time>
      </trkpt>
      <trkpt lat="48.44029" lon="2.22805">
        <ele>145.60000610352</ele>
        <time>2020-08-02T15:26:20.000Z</time>
      </trkpt>
      <trkpt lat="48.44001" lon="2.22766">
        <ele>146.60000610352</ele>
        <time>2020-08-02T15:26:29.000Z</time>
      </trkpt>
      <trkpt lat="48.43977" lon="2.22734">
        <ele>147.39999389648</ele>
        <time>2020-08-02T15:26:37.000Z</time>
      </trkpt>
      <trkpt lat="48.43956" lon="2.22705">
        <ele>147.80000305176</ele>
        <time>2020-08-02T15:26:45.000Z</time>
      </trkpt>
      <trkpt lat="48.4395" lon="2.22702">
        <ele>147.80000305176</ele>
        <time>2020-08-02T15:26:47.000Z</time>
      </trkpt>
      <trkpt lat="48.43948" lon="2.22705">
        <ele>147.80000305176</ele>
        <time>2020-08-02T15:26:48.000Z</time>
      </trkpt>
      <trkpt lat="48.43942" lon="2.22722">
        <ele>147.80000305176</ele>
        <time>2020-08-02T15:26:52.000Z</time>
      </trkpt>
      <trkpt lat="48.43924" lon="2.22766">
        <ele>147.80000305176</ele>
        <time>2020-08-02T15:27:00.000Z</time>
      </trkpt>
      <trkpt lat="48.439" lon="2.22822">
        <ele>147.39999389648</ele>
        <time>2020-08-02T15:27:09.000Z</time>
      </trkpt>
      <trkpt lat="48.43876" lon="2.22877">
        <ele>146.80000305176</ele>
        <time>2020-08-02T15:27:17.000Z</time>
      </trkpt>
      <trkpt lat="48.43848" lon="2.22943">
        <ele>146.60000610352</ele>
        <time>2020-08-02T15:27:25.000Z</time>
      </trkpt>
      <trkpt lat="48.43828" lon="2.2299">
        <ele>146.60000610352</ele>
        <time>2020-08-02T15:27:31.000Z</time>
      </trkpt>
      <trkpt lat="48.438" lon="2.23056">
        <ele>147.19999694824</ele>
        <time>2020-08-02T15:27:40.000Z</time>
      </trkpt>
      <trkpt lat="48.43772" lon="2.23124">
        <ele>146.80000305176</ele>
        <time>2020-08-02T15:27:49.000Z</time>
      </trkpt>
      <trkpt lat="48.43749" lon="2.23185">
        <ele>146.39999389648</ele>
        <time>2020-08-02T15:27:57.000Z</time>
      </trkpt>
      <trkpt lat="48.43738" lon="2.23222">
        <ele>146.60000610352</ele>
        <time>2020-08-02T15:28:02.000Z</time>
      </trkpt>
      <trkpt lat="48.43737" lon="2.23227">
        <ele>146.60000610352</ele>
        <time>2020-08-02T15:28:03.000Z</time>
      </trkpt>
      <trkpt lat="48.43733" lon="2.23239">
        <ele>146.80000305176</ele>
        <time>2020-08-02T15:28:07.000Z</time>
      </trkpt>
      <trkpt lat="48.43727" lon="2.23264">
        <ele>146.80000305176</ele>
        <time>2020-08-02T15:28:13.000Z</time>
      </trkpt>
      <trkpt lat="48.43721" lon="2.23279">
        <ele>146.60000610352</ele>
        <time>2020-08-02T15:28:17.000Z</time>
      </trkpt>
      <trkpt lat="48.4372" lon="2.23285">
        <ele>146.60000610352</ele>
        <time>2020-08-02T15:28:22.000Z</time>
      </trkpt>
      <trkpt lat="48.4372" lon="2.23285">
        <ele>146.60000610352</ele>
        <time>2020-08-02T15:28:24.000Z</time>
      </trkpt>
      <trkpt lat="48.43721" lon="2.23282">
        <ele>146.60000610352</ele>
        <time>2020-08-02T15:28:40.000Z</time>
      </trkpt>
      <trkpt lat="48.43721" lon="2.23279">
        <ele>146.60000610352</ele>
        <time>2020-08-02T15:28:41.000Z</time>
      </trkpt>
      <trkpt lat="48.43728" lon="2.23259">
        <ele>146.80000305176</ele>
        <time>2020-08-02T15:28:45.000Z</time>
      </trkpt>
      <trkpt lat="48.43735" lon="2.23241">
        <ele>146.80000305176</ele>
        <time>2020-08-02T15:28:49.000Z</time>
      </trkpt>
      <trkpt lat="48.43738" lon="2.23241">
        <ele>146.60000610352</ele>
        <time>2020-08-02T15:28:50.000Z</time>
      </trkpt>
      <trkpt lat="48.43752" lon="2.23254">
        <ele>146.19999694824</ele>
        <time>2020-08-02T15:28:54.000Z</time>
      </trkpt>
      <trkpt lat="48.43776" lon="2.23278">
        <ele>145.39999389648</ele>
        <time>2020-08-02T15:29:02.000Z</time>
      </trkpt>
      <trkpt lat="48.438" lon="2.23303">
        <ele>144.39999389648</ele>
        <time>2020-08-02T15:29:12.000Z</time>
      </trkpt>
      <trkpt lat="48.43804" lon="2.23308">
        <ele>144.39999389648</ele>
        <time>2020-08-02T15:29:16.000Z</time>
      </trkpt>
      <trkpt lat="48.43799" lon="2.23302">
        <ele>144.60000610352</ele>
        <time>2020-08-02T15:31:49.000Z</time>
      </trkpt>
      <trkpt lat="48.43788" lon="2.2329">
        <ele>145</ele>
        <time>2020-08-02T15:31:55.000Z</time>
      </trkpt>
      <trkpt lat="48.43768" lon="2.23269">
        <ele>145.60000610352</ele>
        <time>2020-08-02T15:32:01.000Z</time>
      </trkpt>
      <trkpt lat="48.43749" lon="2.23249">
        <ele>146.39999389648</ele>
        <time>2020-08-02T15:32:07.000Z</time>
      </trkpt>
      <trkpt lat="48.43736" lon="2.23241">
        <ele>146.80000305176</ele>
        <time>2020-08-02T15:32:11.000Z</time>
      </trkpt>
      <trkpt lat="48.43732" lon="2.23247">
        <ele>146.80000305176</ele>
        <time>2020-08-02T15:32:13.000Z</time>
      </trkpt>
      <trkpt lat="48.43731" lon="2.23251">
        <ele>146.80000305176</ele>
        <time>2020-08-02T15:32:14.000Z</time>
      </trkpt>
      <trkpt lat="48.43719" lon="2.23297">
        <ele>146.60000610352</ele>
        <time>2020-08-02T15:32:22.000Z</time>
      </trkpt>
      <trkpt lat="48.43715" lon="2.23307">
        <ele>146.39999389648</ele>
        <time>2020-08-02T15:32:24.000Z</time>
      </trkpt>
      <trkpt lat="48.43708" lon="2.23331">
        <ele>146.39999389648</ele>
        <time>2020-08-02T15:32:28.000Z</time>
      </trkpt>
      <trkpt lat="48.43703" lon="2.23348">
        <ele>146.60000610352</ele>
        <time>2020-08-02T15:32:31.000Z</time>
      </trkpt>
      <trkpt lat="48.43697" lon="2.23368">
        <ele>147</ele>
        <time>2020-08-02T15:32:36.000Z</time>
      </trkpt>
      <trkpt lat="48.43695" lon="2.23377">
        <ele>147.19999694824</ele>
        <time>2020-08-02T15:32:38.000Z</time>
      </trkpt>
      <trkpt lat="48.43682" lon="2.23423">
        <ele>148</ele>
        <time>2020-08-02T15:32:46.000Z</time>
      </trkpt>
      <trkpt lat="48.43675" lon="2.23453">
        <ele>148</ele>
        <time>2020-08-02T15:32:51.000Z</time>
      </trkpt>
      <trkpt lat="48.43671" lon="2.23471">
        <ele>148</ele>
        <time>2020-08-02T15:32:54.000Z</time>
      </trkpt>
      <trkpt lat="48.43655" lon="2.23531">
        <ele>148.39999389648</ele>
        <time>2020-08-02T15:33:04.000Z</time>
      </trkpt>
      <trkpt lat="48.43646" lon="2.23565">
        <ele>148.39999389648</ele>
        <time>2020-08-02T15:33:10.000Z</time>
      </trkpt>
      <trkpt lat="48.43631" lon="2.23628">
        <ele>148.80000305176</ele>
        <time>2020-08-02T15:33:19.000Z</time>
      </trkpt>
      <trkpt lat="48.43614" lon="2.23697">
        <ele>148.19999694824</ele>
        <time>2020-08-02T15:33:29.000Z</time>
      </trkpt>
      <trkpt lat="48.43601" lon="2.23753">
        <ele>149</ele>
        <time>2020-08-02T15:33:37.000Z</time>
      </trkpt>
      <trkpt lat="48.43593" lon="2.23808">
        <ele>149</ele>
        <time>2020-08-02T15:33:45.000Z</time>
      </trkpt>
      <trkpt lat="48.43595" lon="2.23858">
        <ele>148.60000610352</ele>
        <time>2020-08-02T15:33:52.000Z</time>
      </trkpt>
      <trkpt lat="48.436" lon="2.2391">
        <ele>148</ele>
        <time>2020-08-02T15:33:59.000Z</time>
      </trkpt>
      <trkpt lat="48.43609" lon="2.23977">
        <ele>148</ele>
        <time>2020-08-02T15:34:08.000Z</time>
      </trkpt>
      <trkpt lat="48.43618" lon="2.24038">
        <ele>148</ele>
        <time>2020-08-02T15:34:16.000Z</time>
      </trkpt>
      <trkpt lat="48.43619" lon="2.24096">
        <ele>148.19999694824</ele>
        <time>2020-08-02T15:34:23.000Z</time>
      </trkpt>
      <trkpt lat="48.43614" lon="2.24174">
        <ele>147.39999389648</ele>
        <time>2020-08-02T15:34:32.000Z</time>
      </trkpt>
      <trkpt lat="48.43605" lon="2.24239">
        <ele>146.19999694824</ele>
        <time>2020-08-02T15:34:40.000Z</time>
      </trkpt>
      <trkpt lat="48.43596" lon="2.24292">
        <ele>146</ele>
        <time>2020-08-02T15:34:46.000Z</time>
      </trkpt>
      <trkpt lat="48.43579" lon="2.24372">
        <ele>145.60000610352</ele>
        <time>2020-08-02T15:34:55.000Z</time>
      </trkpt>
      <trkpt lat="48.4356" lon="2.2445">
        <ele>145</ele>
        <time>2020-08-02T15:35:04.000Z</time>
      </trkpt>
      <trkpt lat="48.43546" lon="2.24516">
        <ele>144.39999389648</ele>
        <time>2020-08-02T15:35:12.000Z</time>
      </trkpt>
      <trkpt lat="48.43533" lon="2.24588">
        <ele>144.60000610352</ele>
        <time>2020-08-02T15:35:20.000Z</time>
      </trkpt>
      <trkpt lat="48.43527" lon="2.24633">
        <ele>145</ele>
        <time>2020-08-02T15:35:25.000Z</time>
      </trkpt>
      <trkpt lat="48.43515" lon="2.24712">
        <ele>145.60000610352</ele>
        <time>2020-08-02T15:35:34.000Z</time>
      </trkpt>
      <trkpt lat="48.43514" lon="2.24721">
        <ele>145.60000610352</ele>
        <time>2020-08-02T15:35:35.000Z</time>
      </trkpt>
      <trkpt lat="48.43506" lon="2.24789">
        <ele>146.80000305176</ele>
        <time>2020-08-02T15:35:43.000Z</time>
      </trkpt>
      <trkpt lat="48.43502" lon="2.24864">
        <ele>147.39999389648</ele>
        <time>2020-08-02T15:35:52.000Z</time>
      </trkpt>
      <trkpt lat="48.43492" lon="2.24939">
        <ele>146.19999694824</ele>
        <time>2020-08-02T15:36:01.000Z</time>
      </trkpt>
      <trkpt lat="48.43481" lon="2.25007">
        <ele>145</ele>
        <time>2020-08-02T15:36:09.000Z</time>
      </trkpt>
      <trkpt lat="48.43476" lon="2.25052">
        <ele>144.60000610352</ele>
        <time>2020-08-02T15:36:14.000Z</time>
      </trkpt>
      <trkpt lat="48.43478" lon="2.25069">
        <ele>144.60000610352</ele>
        <time>2020-08-02T15:36:16.000Z</time>
      </trkpt>
      <trkpt lat="48.43482" lon="2.25085">
        <ele>144.60000610352</ele>
        <time>2020-08-02T15:36:18.000Z</time>
      </trkpt>
      <trkpt lat="48.43489" lon="2.251">
        <ele>144.60000610352</ele>
        <time>2020-08-02T15:36:20.000Z</time>
      </trkpt>
      <trkpt lat="48.43514" lon="2.25146">
        <ele>145</ele>
        <time>2020-08-02T15:36:27.000Z</time>
      </trkpt>
      <trkpt lat="48.4352" lon="2.25159">
        <ele>145</ele>
        <time>2020-08-02T15:36:29.000Z</time>
      </trkpt>
      <trkpt lat="48.43524" lon="2.25173">
        <ele>144.80000305176</ele>
        <time>2020-08-02T15:36:31.000Z</time>
      </trkpt>
      <trkpt lat="48.43524" lon="2.25181">
        <ele>144.60000610352</ele>
        <time>2020-08-02T15:36:32.000Z</time>
      </trkpt>
      <trkpt lat="48.43522" lon="2.2519">
        <ele>144.60000610352</ele>
        <time>2020-08-02T15:36:33.000Z</time>
      </trkpt>
      <trkpt lat="48.43516" lon="2.25206">
        <ele>144.39999389648</ele>
        <time>2020-08-02T15:36:35.000Z</time>
      </trkpt>
      <trkpt lat="48.43486" lon="2.25274">
        <ele>143.39999389648</ele>
        <time>2020-08-02T15:36:43.000Z</time>
      </trkpt>
      <trkpt lat="48.43483" lon="2.25282">
        <ele>143.19999694824</ele>
        <time>2020-08-02T15:36:44.000Z</time>
      </trkpt>
      <trkpt lat="48.43468" lon="2.25316">
        <ele>142.80000305176</ele>
        <time>2020-08-02T15:36:49.000Z</time>
      </trkpt>
      <trkpt lat="48.43461" lon="2.2533">
        <ele>142.60000610352</ele>
        <time>2020-08-02T15:36:51.000Z</time>
      </trkpt>
      <trkpt lat="48.4345" lon="2.25354">
        <ele>141.39999389648</ele>
        <time>2020-08-02T15:36:54.000Z</time>
      </trkpt>
      <trkpt lat="48.43436" lon="2.25382">
        <ele>138.60000610352</ele>
        <time>2020-08-02T15:36:58.000Z</time>
      </trkpt>
      <trkpt lat="48.43427" lon="2.25395">
        <ele>137.19999694824</ele>
        <time>2020-08-02T15:37:00.000Z</time>
      </trkpt>
      <trkpt lat="48.43412" lon="2.25421">
        <ele>135.39999389648</ele>
        <time>2020-08-02T15:37:04.000Z</time>
      </trkpt>
      <trkpt lat="48.43406" lon="2.25435">
        <ele>134.80000305176</ele>
        <time>2020-08-02T15:37:06.000Z</time>
      </trkpt>
      <trkpt lat="48.43397" lon="2.25458">
        <ele>134</ele>
        <time>2020-08-02T15:37:10.000Z</time>
      </trkpt>
      <trkpt lat="48.43396" lon="2.25464">
        <ele>133.39999389648</ele>
        <time>2020-08-02T15:37:11.000Z</time>
      </trkpt>
      <trkpt lat="48.43396" lon="2.2548">
        <ele>131.19999694824</ele>
        <time>2020-08-02T15:37:13.000Z</time>
      </trkpt>
      <trkpt lat="48.43397" lon="2.25488">
        <ele>130.19999694824</ele>
        <time>2020-08-02T15:37:14.000Z</time>
      </trkpt>
      <trkpt lat="48.43399" lon="2.25495">
        <ele>129.39999389648</ele>
        <time>2020-08-02T15:37:15.000Z</time>
      </trkpt>
      <trkpt lat="48.43409" lon="2.25524">
        <ele>128.39999389648</ele>
        <time>2020-08-02T15:37:19.000Z</time>
      </trkpt>
      <trkpt lat="48.43419" lon="2.25555">
        <ele>127.40000152588</ele>
        <time>2020-08-02T15:37:23.000Z</time>
      </trkpt>
      <trkpt lat="48.43421" lon="2.25562">
        <ele>127</ele>
        <time>2020-08-02T15:37:24.000Z</time>
      </trkpt>
      <trkpt lat="48.43422" lon="2.25584">
        <ele>124.59999847412</ele>
        <time>2020-08-02T15:37:28.000Z</time>
      </trkpt>
      <trkpt lat="48.43417" lon="2.25622">
        <ele>121.40000152588</ele>
        <time>2020-08-02T15:37:34.000Z</time>
      </trkpt>
      <trkpt lat="48.43415" lon="2.25642">
        <ele>120</ele>
        <time>2020-08-02T15:37:37.000Z</time>
      </trkpt>
      <trkpt lat="48.43415" lon="2.25649">
        <ele>119.40000152588</ele>
        <time>2020-08-02T15:37:38.000Z</time>
      </trkpt>
      <trkpt lat="48.43417" lon="2.25664">
        <ele>118.40000152588</ele>
        <time>2020-08-02T15:37:40.000Z</time>
      </trkpt>
      <trkpt lat="48.43419" lon="2.25678">
        <ele>117.40000152588</ele>
        <time>2020-08-02T15:37:42.000Z</time>
      </trkpt>
      <trkpt lat="48.43422" lon="2.25686">
        <ele>117</ele>
        <time>2020-08-02T15:37:43.000Z</time>
      </trkpt>
      <trkpt lat="48.43435" lon="2.25729">
        <ele>115.40000152588</ele>
        <time>2020-08-02T15:37:48.000Z</time>
      </trkpt>
      <trkpt lat="48.4344" lon="2.2576">
        <ele>113.59999847412</ele>
        <time>2020-08-02T15:37:51.000Z</time>
      </trkpt>
      <trkpt lat="48.43442" lon="2.2578">
        <ele>112.59999847412</ele>
        <time>2020-08-02T15:37:53.000Z</time>
      </trkpt>
      <trkpt lat="48.43441" lon="2.25824">
        <ele>109.80000305176</ele>
        <time>2020-08-02T15:37:58.000Z</time>
      </trkpt>
      <trkpt lat="48.43436" lon="2.25859">
        <ele>106.40000152588</ele>
        <time>2020-08-02T15:38:04.000Z</time>
      </trkpt>
      <trkpt lat="48.43431" lon="2.25888">
        <ele>104.40000152588</ele>
        <time>2020-08-02T15:38:09.000Z</time>
      </trkpt>
      <trkpt lat="48.43426" lon="2.25914">
        <ele>102.40000152588</ele>
        <time>2020-08-02T15:38:14.000Z</time>
      </trkpt>
      <trkpt lat="48.43425" lon="2.25925">
        <ele>101.40000152588</ele>
        <time>2020-08-02T15:38:16.000Z</time>
      </trkpt>
      <trkpt lat="48.43426" lon="2.25942">
        <ele>100.19999694824</ele>
        <time>2020-08-02T15:38:18.000Z</time>
      </trkpt>
      <trkpt lat="48.43432" lon="2.25986">
        <ele>96.800003051758</ele>
        <time>2020-08-02T15:38:23.000Z</time>
      </trkpt>
      <trkpt lat="48.43431" lon="2.25994">
        <ele>96.199996948242</ele>
        <time>2020-08-02T15:38:24.000Z</time>
      </trkpt>
      <trkpt lat="48.43431" lon="2.26031">
        <ele>93.800003051758</ele>
        <time>2020-08-02T15:38:28.000Z</time>
      </trkpt>
      <trkpt lat="48.4343" lon="2.26042">
        <ele>93.199996948242</ele>
        <time>2020-08-02T15:38:29.000Z</time>
      </trkpt>
      <trkpt lat="48.43422" lon="2.26107">
        <ele>90.800003051758</ele>
        <time>2020-08-02T15:38:35.000Z</time>
      </trkpt>
      <trkpt lat="48.43418" lon="2.26142">
        <ele>91</ele>
        <time>2020-08-02T15:38:39.000Z</time>
      </trkpt>
      <trkpt lat="48.43416" lon="2.26153">
        <ele>91</ele>
        <time>2020-08-02T15:38:41.000Z</time>
      </trkpt>
      <trkpt lat="48.43414" lon="2.26156">
        <ele>91</ele>
        <time>2020-08-02T15:38:42.000Z</time>
      </trkpt>
      <trkpt lat="48.43409" lon="2.26172">
        <ele>91.199996948242</ele>
        <time>2020-08-02T15:38:47.000Z</time>
      </trkpt>
      <trkpt lat="48.434" lon="2.26188">
        <ele>92</ele>
        <time>2020-08-02T15:38:52.000Z</time>
      </trkpt>
      <trkpt lat="48.4339" lon="2.26211">
        <ele>92.599998474121</ele>
        <time>2020-08-02T15:38:58.000Z</time>
      </trkpt>
      <trkpt lat="48.43385" lon="2.26235">
        <ele>92.599998474121</ele>
        <time>2020-08-02T15:39:04.000Z</time>
      </trkpt>
      <trkpt lat="48.43384" lon="2.2626">
        <ele>93.400001525879</ele>
        <time>2020-08-02T15:39:09.000Z</time>
      </trkpt>
      <trkpt lat="48.43384" lon="2.26266">
        <ele>93.599998474121</ele>
        <time>2020-08-02T15:39:10.000Z</time>
      </trkpt>
      <trkpt lat="48.43387" lon="2.26295">
        <ele>94.400001525879</ele>
        <time>2020-08-02T15:39:14.000Z</time>
      </trkpt>
      <trkpt lat="48.43386" lon="2.26333">
        <ele>94.199996948242</ele>
        <time>2020-08-02T15:39:19.000Z</time>
      </trkpt>
      <trkpt lat="48.43383" lon="2.26349">
        <ele>93.199996948242</ele>
        <time>2020-08-02T15:39:21.000Z</time>
      </trkpt>
      <trkpt lat="48.43381" lon="2.26364">
        <ele>92.400001525879</ele>
        <time>2020-08-02T15:39:23.000Z</time>
      </trkpt>
      <trkpt lat="48.43377" lon="2.26408">
        <ele>90.800003051758</ele>
        <time>2020-08-02T15:39:29.000Z</time>
      </trkpt>
      <trkpt lat="48.43365" lon="2.26456">
        <ele>88</ele>
        <time>2020-08-02T15:39:36.000Z</time>
      </trkpt>
      <trkpt lat="48.43357" lon="2.26483">
        <ele>86.199996948242</ele>
        <time>2020-08-02T15:39:41.000Z</time>
      </trkpt>
      <trkpt lat="48.43348" lon="2.26508">
        <ele>84.599998474121</ele>
        <time>2020-08-02T15:39:47.000Z</time>
      </trkpt>
      <trkpt lat="48.43342" lon="2.26529">
        <ele>83.800003051758</ele>
        <time>2020-08-02T15:39:51.000Z</time>
      </trkpt>
      <trkpt lat="48.43343" lon="2.26534">
        <ele>83.800003051758</ele>
        <time>2020-08-02T15:39:52.000Z</time>
      </trkpt>
      <trkpt lat="48.43353" lon="2.26556">
        <ele>83.800003051758</ele>
        <time>2020-08-02T15:39:57.000Z</time>
      </trkpt>
      <trkpt lat="48.43367" lon="2.26574">
        <ele>84.599998474121</ele>
        <time>2020-08-02T15:40:02.000Z</time>
      </trkpt>
      <trkpt lat="48.43383" lon="2.26594">
        <ele>85.599998474121</ele>
        <time>2020-08-02T15:40:08.000Z</time>
      </trkpt>
      <trkpt lat="48.43396" lon="2.26604">
        <ele>86.400001525879</ele>
        <time>2020-08-02T15:40:13.000Z</time>
      </trkpt>
      <trkpt lat="48.43413" lon="2.2662">
        <ele>87.400001525879</ele>
        <time>2020-08-02T15:40:19.000Z</time>
      </trkpt>
      <trkpt lat="48.43427" lon="2.26642">
        <ele>88</ele>
        <time>2020-08-02T15:40:26.000Z</time>
      </trkpt>
      <trkpt lat="48.43434" lon="2.26659">
        <ele>88.199996948242</ele>
        <time>2020-08-02T15:40:32.000Z</time>
      </trkpt>
      <trkpt lat="48.43443" lon="2.26676">
        <ele>88.599998474121</ele>
        <time>2020-08-02T15:40:37.000Z</time>
      </trkpt>
      <trkpt lat="48.43456" lon="2.26697">
        <ele>89</ele>
        <time>2020-08-02T15:40:44.000Z</time>
      </trkpt>
      <trkpt lat="48.43465" lon="2.26716">
        <ele>89.400001525879</ele>
        <time>2020-08-02T15:40:50.000Z</time>
      </trkpt>
      <trkpt lat="48.43472" lon="2.26738">
        <ele>89.400001525879</ele>
        <time>2020-08-02T15:40:56.000Z</time>
      </trkpt>
      <trkpt lat="48.43477" lon="2.26766">
        <ele>89.400001525879</ele>
        <time>2020-08-02T15:41:01.000Z</time>
      </trkpt>
      <trkpt lat="48.43486" lon="2.26812">
        <ele>89.199996948242</ele>
        <time>2020-08-02T15:41:08.000Z</time>
      </trkpt>
      <trkpt lat="48.43494" lon="2.26841">
        <ele>88.800003051758</ele>
        <time>2020-08-02T15:41:12.000Z</time>
      </trkpt>
      <trkpt lat="48.43496" lon="2.26847">
        <ele>88.599998474121</ele>
        <time>2020-08-02T15:41:13.000Z</time>
      </trkpt>
      <trkpt lat="48.43505" lon="2.26889">
        <ele>88</ele>
        <time>2020-08-02T15:41:19.000Z</time>
      </trkpt>
      <trkpt lat="48.43515" lon="2.26942">
        <ele>87</ele>
        <time>2020-08-02T15:41:26.000Z</time>
      </trkpt>
      <trkpt lat="48.43517" lon="2.26973">
        <ele>86</ele>
        <time>2020-08-02T15:41:31.000Z</time>
      </trkpt>
      <trkpt lat="48.4352" lon="2.26988">
        <ele>85.800003051758</ele>
        <time>2020-08-02T15:41:34.000Z</time>
      </trkpt>
      <trkpt lat="48.43523" lon="2.26993">
        <ele>86</ele>
        <time>2020-08-02T15:41:35.000Z</time>
      </trkpt>
      <trkpt lat="48.43545" lon="2.27028">
        <ele>88.599998474121</ele>
        <time>2020-08-02T15:41:43.000Z</time>
      </trkpt>
      <trkpt lat="48.43571" lon="2.27052">
        <ele>91.599998474121</ele>
        <time>2020-08-02T15:41:51.000Z</time>
      </trkpt>
      <trkpt lat="48.4359" lon="2.27065">
        <ele>93.800003051758</ele>
        <time>2020-08-02T15:41:57.000Z</time>
      </trkpt>
      <trkpt lat="48.4361" lon="2.27073">
        <ele>96</ele>
        <time>2020-08-02T15:42:03.000Z</time>
      </trkpt>
      <trkpt lat="48.43628" lon="2.27085">
        <ele>98</ele>
        <time>2020-08-02T15:42:09.000Z</time>
      </trkpt>
      <trkpt lat="48.43644" lon="2.27102">
        <ele>100.19999694824</ele>
        <time>2020-08-02T15:42:14.000Z</time>
      </trkpt>
      <trkpt lat="48.43655" lon="2.2713">
        <ele>102.19999694824</ele>
        <time>2020-08-02T15:42:20.000Z</time>
      </trkpt>
      <trkpt lat="48.43664" lon="2.27145">
        <ele>103.59999847412</ele>
        <time>2020-08-02T15:42:24.000Z</time>
      </trkpt>
      <trkpt lat="48.43676" lon="2.27155">
        <ele>105.19999694824</ele>
        <time>2020-08-02T15:42:29.000Z</time>
      </trkpt>
      <trkpt lat="48.43695" lon="2.2717">
        <ele>107.80000305176</ele>
        <time>2020-08-02T15:42:35.000Z</time>
      </trkpt>
      <trkpt lat="48.43711" lon="2.27182">
        <ele>110</ele>
        <time>2020-08-02T15:42:41.000Z</time>
      </trkpt>
      <trkpt lat="48.43729" lon="2.27187">
        <ele>112.19999694824</ele>
        <time>2020-08-02T15:42:47.000Z</time>
      </trkpt>
      <trkpt lat="48.43742" lon="2.27188">
        <ele>113.59999847412</ele>
        <time>2020-08-02T15:42:53.000Z</time>
      </trkpt>
      <trkpt lat="48.4375" lon="2.27182">
        <ele>114.19999694824</ele>
        <time>2020-08-02T15:42:58.000Z</time>
      </trkpt>
      <trkpt lat="48.43752" lon="2.27181">
        <ele>114.40000152588</ele>
        <time>2020-08-02T15:42:59.000Z</time>
      </trkpt>
      <trkpt lat="48.43754" lon="2.27181">
        <ele>114.59999847412</ele>
        <time>2020-08-02T15:43:02.000Z</time>
      </trkpt>
      <trkpt lat="48.43776" lon="2.27192">
        <ele>118</ele>
        <time>2020-08-02T15:43:48.000Z</time>
      </trkpt>
      <trkpt lat="48.4378" lon="2.27191">
        <ele>118.59999847412</ele>
        <time>2020-08-02T15:43:50.000Z</time>
      </trkpt>
      <trkpt lat="48.43784" lon="2.27193">
        <ele>119.19999694824</ele>
        <time>2020-08-02T15:43:53.000Z</time>
      </trkpt>
      <trkpt lat="48.43785" lon="2.27196">
        <ele>119.59999847412</ele>
        <time>2020-08-02T15:43:55.000Z</time>
      </trkpt>
      <trkpt lat="48.43787" lon="2.27202">
        <ele>120.19999694824</ele>
        <time>2020-08-02T15:44:00.000Z</time>
      </trkpt>
      <trkpt lat="48.43782" lon="2.27193">
        <ele>119</ele>
        <time>2020-08-02T15:44:12.000Z</time>
      </trkpt>
      <trkpt lat="48.4377" lon="2.27189">
        <ele>117</ele>
        <time>2020-08-02T15:44:17.000Z</time>
      </trkpt>
      <trkpt lat="48.43757" lon="2.2719">
        <ele>115.40000152588</ele>
        <time>2020-08-02T15:44:22.000Z</time>
      </trkpt>
      <trkpt lat="48.43754" lon="2.27188">
        <ele>115</ele>
        <time>2020-08-02T15:44:27.000Z</time>
      </trkpt>
      <trkpt lat="48.43754" lon="2.27185">
        <ele>114.80000305176</ele>
        <time>2020-08-02T15:44:30.000Z</time>
      </trkpt>
      <trkpt lat="48.43753" lon="2.2718">
        <ele>114.40000152588</ele>
        <time>2020-08-02T15:44:32.000Z</time>
      </trkpt>
      <trkpt lat="48.43753" lon="2.27178">
        <ele>114.40000152588</ele>
        <time>2020-08-02T15:44:33.000Z</time>
      </trkpt>
      <trkpt lat="48.43755" lon="2.27176">
        <ele>114.40000152588</ele>
        <time>2020-08-02T15:44:34.000Z</time>
      </trkpt>
      <trkpt lat="48.43761" lon="2.27174">
        <ele>115</ele>
        <time>2020-08-02T15:44:37.000Z</time>
      </trkpt>
      <trkpt lat="48.4377" lon="2.27167">
        <ele>115.80000305176</ele>
        <time>2020-08-02T15:44:41.000Z</time>
      </trkpt>
      <trkpt lat="48.43781" lon="2.27151">
        <ele>117.19999694824</ele>
        <time>2020-08-02T15:44:47.000Z</time>
      </trkpt>
      <trkpt lat="48.43791" lon="2.27132">
        <ele>118.19999694824</ele>
        <time>2020-08-02T15:44:53.000Z</time>
      </trkpt>
      <trkpt lat="48.43797" lon="2.27115">
        <ele>118.80000305176</ele>
        <time>2020-08-02T15:44:58.000Z</time>
      </trkpt>
      <trkpt lat="48.43801" lon="2.27109">
        <ele>119.40000152588</ele>
        <time>2020-08-02T15:45:02.000Z</time>
      </trkpt>
      <trkpt lat="48.43803" lon="2.27108">
        <ele>119.80000305176</ele>
        <time>2020-08-02T15:45:03.000Z</time>
      </trkpt>
      <trkpt lat="48.43811" lon="2.27103">
        <ele>121</ele>
        <time>2020-08-02T15:45:07.000Z</time>
      </trkpt>
      <trkpt lat="48.43825" lon="2.27093">
        <ele>123.59999847412</ele>
        <time>2020-08-02T15:45:14.000Z</time>
      </trkpt>
      <trkpt lat="48.43827" lon="2.27092">
        <ele>124</ele>
        <time>2020-08-02T15:45:15.000Z</time>
      </trkpt>
      <trkpt lat="48.43837" lon="2.2709">
        <ele>125.80000305176</ele>
        <time>2020-08-02T15:45:20.000Z</time>
      </trkpt>
      <trkpt lat="48.4384" lon="2.27087">
        <ele>126.40000152588</ele>
        <time>2020-08-02T15:45:22.000Z</time>
      </trkpt>
      <trkpt lat="48.43846" lon="2.27086">
        <ele>127.40000152588</ele>
        <time>2020-08-02T15:45:25.000Z</time>
      </trkpt>
      <trkpt lat="48.43855" lon="2.27086">
        <ele>128.39999389648</ele>
        <time>2020-08-02T15:45:29.000Z</time>
      </trkpt>
      <trkpt lat="48.43865" lon="2.27083">
        <ele>129</ele>
        <time>2020-08-02T15:45:34.000Z</time>
      </trkpt>
      <trkpt lat="48.43874" lon="2.27077">
        <ele>129.60000610352</ele>
        <time>2020-08-02T15:45:39.000Z</time>
      </trkpt>
      <trkpt lat="48.43884" lon="2.27066">
        <ele>130.39999389648</ele>
        <time>2020-08-02T15:45:45.000Z</time>
      </trkpt>
      <trkpt lat="48.43887" lon="2.27064">
        <ele>130.60000610352</ele>
        <time>2020-08-02T15:45:46.000Z</time>
      </trkpt>
      <trkpt lat="48.43893" lon="2.27059">
        <ele>131.19999694824</ele>
        <time>2020-08-02T15:45:49.000Z</time>
      </trkpt>
      <trkpt lat="48.43899" lon="2.27052">
        <ele>131.60000610352</ele>
        <time>2020-08-02T15:45:53.000Z</time>
      </trkpt>
      <trkpt lat="48.43905" lon="2.2706">
        <ele>131.80000305176</ele>
        <time>2020-08-02T15:46:11.000Z</time>
      </trkpt>
      <trkpt lat="48.43913" lon="2.2708">
        <ele>131.80000305176</ele>
        <time>2020-08-02T15:46:17.000Z</time>
      </trkpt>
      <trkpt lat="48.4392" lon="2.27098">
        <ele>132.60000610352</ele>
        <time>2020-08-02T15:46:23.000Z</time>
      </trkpt>
      <trkpt lat="48.43925" lon="2.27109">
        <ele>132.80000305176</ele>
        <time>2020-08-02T15:46:28.000Z</time>
      </trkpt>
      <trkpt lat="48.43934" lon="2.27124">
        <ele>133.39999389648</ele>
        <time>2020-08-02T15:46:35.000Z</time>
      </trkpt>
      <trkpt lat="48.43944" lon="2.27137">
        <ele>132.60000610352</ele>
        <time>2020-08-02T15:46:39.000Z</time>
      </trkpt>
      <trkpt lat="48.43948" lon="2.27141">
        <ele>132.39999389648</ele>
        <time>2020-08-02T15:46:40.000Z</time>
      </trkpt>
      <trkpt lat="48.43961" lon="2.27153">
        <ele>131.39999389648</ele>
        <time>2020-08-02T15:46:44.000Z</time>
      </trkpt>
      <trkpt lat="48.43977" lon="2.27173">
        <ele>130.19999694824</ele>
        <time>2020-08-02T15:46:50.000Z</time>
      </trkpt>
      <trkpt lat="48.43979" lon="2.27181">
        <ele>129.80000305176</ele>
        <time>2020-08-02T15:46:52.000Z</time>
      </trkpt>
      <trkpt lat="48.4398" lon="2.27191">
        <ele>129.60000610352</ele>
        <time>2020-08-02T15:46:55.000Z</time>
      </trkpt>
      <trkpt lat="48.4398" lon="2.27197">
        <ele>129.60000610352</ele>
        <time>2020-08-02T15:46:59.000Z</time>
      </trkpt>
      <trkpt lat="48.43984" lon="2.27184">
        <ele>129.39999389648</ele>
        <time>2020-08-02T15:47:21.000Z</time>
      </trkpt>
      <trkpt lat="48.43984" lon="2.27178">
        <ele>129.39999389648</ele>
        <time>2020-08-02T15:47:23.000Z</time>
      </trkpt>
      <trkpt lat="48.43981" lon="2.27175">
        <ele>129.80000305176</ele>
        <time>2020-08-02T15:47:25.000Z</time>
      </trkpt>
      <trkpt lat="48.43969" lon="2.2716">
        <ele>131</ele>
        <time>2020-08-02T15:47:31.000Z</time>
      </trkpt>
      <trkpt lat="48.43952" lon="2.27141">
        <ele>132.19999694824</ele>
        <time>2020-08-02T15:47:39.000Z</time>
      </trkpt>
      <trkpt lat="48.43938" lon="2.27125">
        <ele>133</ele>
        <time>2020-08-02T15:47:45.000Z</time>
      </trkpt>
      <trkpt lat="48.43925" lon="2.27101">
        <ele>132.80000305176</ele>
        <time>2020-08-02T15:47:53.000Z</time>
      </trkpt>
      <trkpt lat="48.43915" lon="2.27073">
        <ele>132.19999694824</ele>
        <time>2020-08-02T15:48:00.000Z</time>
      </trkpt>
      <trkpt lat="48.43902" lon="2.27041">
        <ele>131.80000305176</ele>
        <time>2020-08-02T15:48:08.000Z</time>
      </trkpt>
      <trkpt lat="48.4389" lon="2.27011">
        <ele>131.19999694824</ele>
        <time>2020-08-02T15:48:15.000Z</time>
      </trkpt>
      <trkpt lat="48.43885" lon="2.26989">
        <ele>131</ele>
        <time>2020-08-02T15:48:20.000Z</time>
      </trkpt>
      <trkpt lat="48.43879" lon="2.26953">
        <ele>131.80000305176</ele>
        <time>2020-08-02T15:48:27.000Z</time>
      </trkpt>
      <trkpt lat="48.43875" lon="2.2692">
        <ele>133.39999389648</ele>
        <time>2020-08-02T15:48:33.000Z</time>
      </trkpt>
      <trkpt lat="48.43873" lon="2.26894">
        <ele>134.39999389648</ele>
        <time>2020-08-02T15:48:38.000Z</time>
      </trkpt>
      <trkpt lat="48.4387" lon="2.2687">
        <ele>135</ele>
        <time>2020-08-02T15:48:44.000Z</time>
      </trkpt>
      <trkpt lat="48.4387" lon="2.26863">
        <ele>135.19999694824</ele>
        <time>2020-08-02T15:48:46.000Z</time>
      </trkpt>
      <trkpt lat="48.43869" lon="2.26855">
        <ele>135.60000610352</ele>
        <time>2020-08-02T15:48:49.000Z</time>
      </trkpt>
      <trkpt lat="48.43869" lon="2.26832">
        <ele>136</ele>
        <time>2020-08-02T15:48:54.000Z</time>
      </trkpt>
      <trkpt lat="48.43872" lon="2.26807">
        <ele>137.19999694824</ele>
        <time>2020-08-02T15:49:00.000Z</time>
      </trkpt>
      <trkpt lat="48.43873" lon="2.26789">
        <ele>138</ele>
        <time>2020-08-02T15:49:05.000Z</time>
      </trkpt>
      <trkpt lat="48.43888" lon="2.26761">
        <ele>138.80000305176</ele>
        <time>2020-08-02T15:49:12.000Z</time>
      </trkpt>
      <trkpt lat="48.43909" lon="2.26728">
        <ele>138.39999389648</ele>
        <time>2020-08-02T15:49:20.000Z</time>
      </trkpt>
      <trkpt lat="48.4392" lon="2.26712">
        <ele>138</ele>
        <time>2020-08-02T15:49:26.000Z</time>
      </trkpt>
      <trkpt lat="48.43936" lon="2.26691">
        <ele>137.39999389648</ele>
        <time>2020-08-02T15:49:33.000Z</time>
      </trkpt>
      <trkpt lat="48.43943" lon="2.2668">
        <ele>137.39999389648</ele>
        <time>2020-08-02T15:49:38.000Z</time>
      </trkpt>
      <trkpt lat="48.43944" lon="2.26679">
        <ele>137.39999389648</ele>
        <time>2020-08-02T15:49:40.000Z</time>
      </trkpt>
      <trkpt lat="48.43946" lon="2.26678">
        <ele>137.39999389648</ele>
        <time>2020-08-02T15:49:50.000Z</time>
      </trkpt>
      <trkpt lat="48.43948" lon="2.26676">
        <ele>137.19999694824</ele>
        <time>2020-08-02T15:49:51.000Z</time>
      </trkpt>
      <trkpt lat="48.43964" lon="2.26665">
        <ele>136.80000305176</ele>
        <time>2020-08-02T15:49:56.000Z</time>
      </trkpt>
      <trkpt lat="48.43986" lon="2.26659">
        <ele>136.39999389648</ele>
        <time>2020-08-02T15:50:02.000Z</time>
      </trkpt>
      <trkpt lat="48.4401" lon="2.26655">
        <ele>136.19999694824</ele>
        <time>2020-08-02T15:50:08.000Z</time>
      </trkpt>
      <trkpt lat="48.44046" lon="2.26651">
        <ele>135.60000610352</ele>
        <time>2020-08-02T15:50:17.000Z</time>
      </trkpt>
      <trkpt lat="48.44088" lon="2.26649">
        <ele>135.19999694824</ele>
        <time>2020-08-02T15:50:26.000Z</time>
      </trkpt>
      <trkpt lat="48.44126" lon="2.26648">
        <ele>133.80000305176</ele>
        <time>2020-08-02T15:50:33.000Z</time>
      </trkpt>
      <trkpt lat="48.44167" lon="2.26647">
        <ele>132</ele>
        <time>2020-08-02T15:50:41.000Z</time>
      </trkpt>
      <trkpt lat="48.44197" lon="2.26651">
        <ele>132.19999694824</ele>
        <time>2020-08-02T15:50:47.000Z</time>
      </trkpt>
      <trkpt lat="48.44229" lon="2.26662">
        <ele>133.19999694824</ele>
        <time>2020-08-02T15:50:54.000Z</time>
      </trkpt>
      <trkpt lat="48.44262" lon="2.26674">
        <ele>134.39999389648</ele>
        <time>2020-08-02T15:51:01.000Z</time>
      </trkpt>
      <trkpt lat="48.44291" lon="2.26678">
        <ele>135.39999389648</ele>
        <time>2020-08-02T15:51:07.000Z</time>
      </trkpt>
      <trkpt lat="48.44337" lon="2.26678">
        <ele>136.60000610352</ele>
        <time>2020-08-02T15:51:17.000Z</time>
      </trkpt>
      <trkpt lat="48.44387" lon="2.26677">
        <ele>137.39999389648</ele>
        <time>2020-08-02T15:51:28.000Z</time>
      </trkpt>
      <trkpt lat="48.44429" lon="2.26676">
        <ele>138</ele>
        <time>2020-08-02T15:51:37.000Z</time>
      </trkpt>
      <trkpt lat="48.44472" lon="2.26676">
        <ele>139.19999694824</ele>
        <time>2020-08-02T15:51:46.000Z</time>
      </trkpt>
      <trkpt lat="48.44522" lon="2.26676">
        <ele>140.80000305176</ele>
        <time>2020-08-02T15:51:57.000Z</time>
      </trkpt>
      <trkpt lat="48.44554" lon="2.26671">
        <ele>141.60000610352</ele>
        <time>2020-08-02T15:52:04.000Z</time>
      </trkpt>
      <trkpt lat="48.44588" lon="2.26663">
        <ele>142.80000305176</ele>
        <time>2020-08-02T15:52:12.000Z</time>
      </trkpt>
      <trkpt lat="48.44629" lon="2.26648">
        <ele>144</ele>
        <time>2020-08-02T15:52:22.000Z</time>
      </trkpt>
      <trkpt lat="48.44655" lon="2.2664">
        <ele>144.80000305176</ele>
        <time>2020-08-02T15:52:29.000Z</time>
      </trkpt>
      <trkpt lat="48.44684" lon="2.2663">
        <ele>145.39999389648</ele>
        <time>2020-08-02T15:52:37.000Z</time>
      </trkpt>
      <trkpt lat="48.44717" lon="2.26619">
        <ele>146.80000305176</ele>
        <time>2020-08-02T15:52:46.000Z</time>
      </trkpt>
      <trkpt lat="48.44735" lon="2.26621">
        <ele>147.19999694824</ele>
        <time>2020-08-02T15:52:52.000Z</time>
      </trkpt>
      <trkpt lat="48.44742" lon="2.26637">
        <ele>147.39999389648</ele>
        <time>2020-08-02T15:52:56.000Z</time>
      </trkpt>
      <trkpt lat="48.44753" lon="2.26671">
        <ele>147.39999389648</ele>
        <time>2020-08-02T15:53:03.000Z</time>
      </trkpt>
      <trkpt lat="48.44775" lon="2.26709">
        <ele>147.60000610352</ele>
        <time>2020-08-02T15:53:11.000Z</time>
      </trkpt>
      <trkpt lat="48.44807" lon="2.26745">
        <ele>147.60000610352</ele>
        <time>2020-08-02T15:53:20.000Z</time>
      </trkpt>
      <trkpt lat="48.44824" lon="2.26764">
        <ele>147.60000610352</ele>
        <time>2020-08-02T15:53:25.000Z</time>
      </trkpt>
      <trkpt lat="48.44836" lon="2.26775">
        <ele>147.80000305176</ele>
        <time>2020-08-02T15:53:28.000Z</time>
      </trkpt>
      <trkpt lat="48.44866" lon="2.26809">
        <ele>148.19999694824</ele>
        <time>2020-08-02T15:53:36.000Z</time>
      </trkpt>
      <trkpt lat="48.44889" lon="2.26836">
        <ele>148.39999389648</ele>
        <time>2020-08-02T15:53:42.000Z</time>
      </trkpt>
      <trkpt lat="48.44899" lon="2.26852">
        <ele>148.39999389648</ele>
        <time>2020-08-02T15:53:45.000Z</time>
      </trkpt>
      <trkpt lat="48.44908" lon="2.26871">
        <ele>148.19999694824</ele>
        <time>2020-08-02T15:53:48.000Z</time>
      </trkpt>
      <trkpt lat="48.44922" lon="2.26908">
        <ele>148</ele>
        <time>2020-08-02T15:53:54.000Z</time>
      </trkpt>
      <trkpt lat="48.4494" lon="2.26951">
        <ele>148</ele>
        <time>2020-08-02T15:54:01.000Z</time>
      </trkpt>
      <trkpt lat="48.4496" lon="2.26983">
        <ele>148.39999389648</ele>
        <time>2020-08-02T15:54:07.000Z</time>
      </trkpt>
      <trkpt lat="48.44993" lon="2.27024">
        <ele>148.80000305176</ele>
        <time>2020-08-02T15:54:15.000Z</time>
      </trkpt>
      <trkpt lat="48.45014" lon="2.27055">
        <ele>149</ele>
        <time>2020-08-02T15:54:21.000Z</time>
      </trkpt>
      <trkpt lat="48.45016" lon="2.27061">
        <ele>149</ele>
        <time>2020-08-02T15:54:22.000Z</time>
      </trkpt>
      <trkpt lat="48.45022" lon="2.27084">
        <ele>149.19999694824</ele>
        <time>2020-08-02T15:54:26.000Z</time>
      </trkpt>
      <trkpt lat="48.45024" lon="2.27091">
        <ele>149.19999694824</ele>
        <time>2020-08-02T15:54:27.000Z</time>
      </trkpt>
      <trkpt lat="48.45028" lon="2.27103">
        <ele>149.19999694824</ele>
        <time>2020-08-02T15:54:29.000Z</time>
      </trkpt>
      <trkpt lat="48.45032" lon="2.27109">
        <ele>149.19999694824</ele>
        <time>2020-08-02T15:54:30.000Z</time>
      </trkpt>
      <trkpt lat="48.45064" lon="2.27151">
        <ele>149.80000305176</ele>
        <time>2020-08-02T15:54:38.000Z</time>
      </trkpt>
      <trkpt lat="48.45068" lon="2.27157">
        <ele>150</ele>
        <time>2020-08-02T15:54:39.000Z</time>
      </trkpt>
      <trkpt lat="48.45074" lon="2.27171">
        <ele>149.80000305176</ele>
        <time>2020-08-02T15:54:41.000Z</time>
      </trkpt>
      <trkpt lat="48.45077" lon="2.27179">
        <ele>149.60000610352</ele>
        <time>2020-08-02T15:54:42.000Z</time>
      </trkpt>
      <trkpt lat="48.45082" lon="2.27196">
        <ele>149.19999694824</ele>
        <time>2020-08-02T15:54:44.000Z</time>
      </trkpt>
      <trkpt lat="48.45087" lon="2.27232">
        <ele>148</ele>
        <time>2020-08-02T15:54:48.000Z</time>
      </trkpt>
      <trkpt lat="48.45091" lon="2.27298">
        <ele>147.19999694824</ele>
        <time>2020-08-02T15:54:55.000Z</time>
      </trkpt>
      <trkpt lat="48.45092" lon="2.27383">
        <ele>145.60000610352</ele>
        <time>2020-08-02T15:55:04.000Z</time>
      </trkpt>
      <trkpt lat="48.45092" lon="2.27393">
        <ele>145.39999389648</ele>
        <time>2020-08-02T15:55:05.000Z</time>
      </trkpt>
      <trkpt lat="48.45089" lon="2.2748">
        <ele>144.80000305176</ele>
        <time>2020-08-02T15:55:14.000Z</time>
      </trkpt>
      <trkpt lat="48.45084" lon="2.27567">
        <ele>143.80000305176</ele>
        <time>2020-08-02T15:55:23.000Z</time>
      </trkpt>
      <trkpt lat="48.45084" lon="2.27577">
        <ele>143.60000610352</ele>
        <time>2020-08-02T15:55:24.000Z</time>
      </trkpt>
      <trkpt lat="48.45079" lon="2.27661">
        <ele>143.60000610352</ele>
        <time>2020-08-02T15:55:32.000Z</time>
      </trkpt>
      <trkpt lat="48.45074" lon="2.27743">
        <ele>142</ele>
        <time>2020-08-02T15:55:40.000Z</time>
      </trkpt>
      <trkpt lat="48.45071" lon="2.27773">
        <ele>141.60000610352</ele>
        <time>2020-08-02T15:55:43.000Z</time>
      </trkpt>
      <trkpt lat="48.45062" lon="2.27863">
        <ele>140.19999694824</ele>
        <time>2020-08-02T15:55:52.000Z</time>
      </trkpt>
      <trkpt lat="48.45052" lon="2.27944">
        <ele>139.39999389648</ele>
        <time>2020-08-02T15:56:00.000Z</time>
      </trkpt>
      <trkpt lat="48.45051" lon="2.27954">
        <ele>139.39999389648</ele>
        <time>2020-08-02T15:56:01.000Z</time>
      </trkpt>
      <trkpt lat="48.45042" lon="2.28035">
        <ele>138.39999389648</ele>
        <time>2020-08-02T15:56:09.000Z</time>
      </trkpt>
      <trkpt lat="48.45041" lon="2.28045">
        <ele>138.60000610352</ele>
        <time>2020-08-02T15:56:10.000Z</time>
      </trkpt>
      <trkpt lat="48.45034" lon="2.28128">
        <ele>138.60000610352</ele>
        <time>2020-08-02T15:56:18.000Z</time>
      </trkpt>
      <trkpt lat="48.45031" lon="2.28158">
        <ele>138.19999694824</ele>
        <time>2020-08-02T15:56:21.000Z</time>
      </trkpt>
      <trkpt lat="48.45023" lon="2.28245">
        <ele>137.19999694824</ele>
        <time>2020-08-02T15:56:30.000Z</time>
      </trkpt>
      <trkpt lat="48.45017" lon="2.28312">
        <ele>137</ele>
        <time>2020-08-02T15:56:37.000Z</time>
      </trkpt>
      <trkpt lat="48.45009" lon="2.28402">
        <ele>135.19999694824</ele>
        <time>2020-08-02T15:56:46.000Z</time>
      </trkpt>
      <trkpt lat="48.45002" lon="2.28486">
        <ele>135.60000610352</ele>
        <time>2020-08-02T15:56:55.000Z</time>
      </trkpt>
      <trkpt lat="48.44996" lon="2.28554">
        <ele>137.80000305176</ele>
        <time>2020-08-02T15:57:03.000Z</time>
      </trkpt>
      <trkpt lat="48.44991" lon="2.28625">
        <ele>138.80000305176</ele>
        <time>2020-08-02T15:57:11.000Z</time>
      </trkpt>
      <trkpt lat="48.44992" lon="2.28651">
        <ele>138.80000305176</ele>
        <time>2020-08-02T15:57:15.000Z</time>
      </trkpt>
      <trkpt lat="48.44992" lon="2.28664">
        <ele>138.80000305176</ele>
        <time>2020-08-02T15:57:19.000Z</time>
      </trkpt>
      <trkpt lat="48.44991" lon="2.28665">
        <ele>138.60000610352</ele>
        <time>2020-08-02T15:57:21.000Z</time>
      </trkpt>
      <trkpt lat="48.44993" lon="2.28669">
        <ele>138.60000610352</ele>
        <time>2020-08-02T15:58:42.000Z</time>
      </trkpt>
      <trkpt lat="48.44994" lon="2.28672">
        <ele>138.60000610352</ele>
        <time>2020-08-02T15:58:43.000Z</time>
      </trkpt>
      <trkpt lat="48.45" lon="2.28692">
        <ele>138.39999389648</ele>
        <time>2020-08-02T15:58:47.000Z</time>
      </trkpt>
      <trkpt lat="48.45015" lon="2.28729">
        <ele>138.19999694824</ele>
        <time>2020-08-02T15:58:53.000Z</time>
      </trkpt>
      <trkpt lat="48.45018" lon="2.28735">
        <ele>138.19999694824</ele>
        <time>2020-08-02T15:58:54.000Z</time>
      </trkpt>
      <trkpt lat="48.45035" lon="2.28765">
        <ele>138.19999694824</ele>
        <time>2020-08-02T15:58:59.000Z</time>
      </trkpt>
      <trkpt lat="48.45056" lon="2.2881">
        <ele>138.19999694824</ele>
        <time>2020-08-02T15:59:05.000Z</time>
      </trkpt>
      <trkpt lat="48.45075" lon="2.28847">
        <ele>137.80000305176</ele>
        <time>2020-08-02T15:59:10.000Z</time>
      </trkpt>
      <trkpt lat="48.45094" lon="2.28888">
        <ele>136.80000305176</ele>
        <time>2020-08-02T15:59:16.000Z</time>
      </trkpt>
      <trkpt lat="48.45116" lon="2.28929">
        <ele>135.39999389648</ele>
        <time>2020-08-02T15:59:22.000Z</time>
      </trkpt>
      <trkpt lat="48.45138" lon="2.28973">
        <ele>134</ele>
        <time>2020-08-02T15:59:28.000Z</time>
      </trkpt>
      <trkpt lat="48.45164" lon="2.29024">
        <ele>132.19999694824</ele>
        <time>2020-08-02T15:59:35.000Z</time>
      </trkpt>
      <trkpt lat="48.45179" lon="2.29052">
        <ele>131</ele>
        <time>2020-08-02T15:59:39.000Z</time>
      </trkpt>
      <trkpt lat="48.45183" lon="2.29059">
        <ele>130.80000305176</ele>
        <time>2020-08-02T15:59:40.000Z</time>
      </trkpt>
      <trkpt lat="48.45211" lon="2.29109">
        <ele>131.39999389648</ele>
        <time>2020-08-02T15:59:47.000Z</time>
      </trkpt>
      <trkpt lat="48.4523" lon="2.29145">
        <ele>132.80000305176</ele>
        <time>2020-08-02T15:59:52.000Z</time>
      </trkpt>
      <trkpt lat="48.45238" lon="2.29164">
        <ele>133.39999389648</ele>
        <time>2020-08-02T15:59:56.000Z</time>
      </trkpt>
      <trkpt lat="48.45237" lon="2.29183">
        <ele>134.19999694824</ele>
        <time>2020-08-02T16:00:00.000Z</time>
      </trkpt>
      <trkpt lat="48.45236" lon="2.29218">
        <ele>136</ele>
        <time>2020-08-02T16:00:07.000Z</time>
      </trkpt>
      <trkpt lat="48.45238" lon="2.29245">
        <ele>137.80000305176</ele>
        <time>2020-08-02T16:00:12.000Z</time>
      </trkpt>
      <trkpt lat="48.45242" lon="2.29281">
        <ele>138.80000305176</ele>
        <time>2020-08-02T16:00:18.000Z</time>
      </trkpt>
      <trkpt lat="48.45241" lon="2.29296">
        <ele>139.19999694824</ele>
        <time>2020-08-02T16:00:20.000Z</time>
      </trkpt>
      <trkpt lat="48.45242" lon="2.2931">
        <ele>139.39999389648</ele>
        <time>2020-08-02T16:00:22.000Z</time>
      </trkpt>
      <trkpt lat="48.45242" lon="2.29318">
        <ele>139.39999389648</ele>
        <time>2020-08-02T16:00:23.000Z</time>
      </trkpt>
      <trkpt lat="48.45242" lon="2.29342">
        <ele>139.39999389648</ele>
        <time>2020-08-02T16:00:26.000Z</time>
      </trkpt>
      <trkpt lat="48.45239" lon="2.29393">
        <ele>139.19999694824</ele>
        <time>2020-08-02T16:00:32.000Z</time>
      </trkpt>
      <trkpt lat="48.45238" lon="2.2941">
        <ele>139</ele>
        <time>2020-08-02T16:00:34.000Z</time>
      </trkpt>
      <trkpt lat="48.45238" lon="2.29427">
        <ele>139</ele>
        <time>2020-08-02T16:00:36.000Z</time>
      </trkpt>
      <trkpt lat="48.4524" lon="2.2949">
        <ele>139</ele>
        <time>2020-08-02T16:00:43.000Z</time>
      </trkpt>
      <trkpt lat="48.4524" lon="2.29553">
        <ele>138.39999389648</ele>
        <time>2020-08-02T16:00:50.000Z</time>
      </trkpt>
      <trkpt lat="48.4524" lon="2.29571">
        <ele>137.60000610352</ele>
        <time>2020-08-02T16:00:52.000Z</time>
      </trkpt>
      <trkpt lat="48.45242" lon="2.29596">
        <ele>136.60000610352</ele>
        <time>2020-08-02T16:00:55.000Z</time>
      </trkpt>
      <trkpt lat="48.45242" lon="2.29605">
        <ele>136.19999694824</ele>
        <time>2020-08-02T16:00:56.000Z</time>
      </trkpt>
      <trkpt lat="48.45242" lon="2.29646">
        <ele>134.19999694824</ele>
        <time>2020-08-02T16:01:01.000Z</time>
      </trkpt>
      <trkpt lat="48.45251" lon="2.29666">
        <ele>134</ele>
        <time>2020-08-02T16:01:05.000Z</time>
      </trkpt>
      <trkpt lat="48.45271" lon="2.2968">
        <ele>134.60000610352</ele>
        <time>2020-08-02T16:01:09.000Z</time>
      </trkpt>
      <trkpt lat="48.45306" lon="2.29705">
        <ele>135.39999389648</ele>
        <time>2020-08-02T16:01:16.000Z</time>
      </trkpt>
      <trkpt lat="48.45325" lon="2.29721">
        <ele>135.80000305176</ele>
        <time>2020-08-02T16:01:20.000Z</time>
      </trkpt>
      <trkpt lat="48.45333" lon="2.29728">
        <ele>135.80000305176</ele>
        <time>2020-08-02T16:01:22.000Z</time>
      </trkpt>
      <trkpt lat="48.45345" lon="2.29738">
        <ele>136.19999694824</ele>
        <time>2020-08-02T16:01:25.000Z</time>
      </trkpt>
      <trkpt lat="48.45354" lon="2.29744">
        <ele>136.39999389648</ele>
        <time>2020-08-02T16:01:27.000Z</time>
      </trkpt>
      <trkpt lat="48.45358" lon="2.29747">
        <ele>136.60000610352</ele>
        <time>2020-08-02T16:01:28.000Z</time>
      </trkpt>
      <trkpt lat="48.45377" lon="2.29762">
        <ele>136.80000305176</ele>
        <time>2020-08-02T16:01:32.000Z</time>
      </trkpt>
      <trkpt lat="48.45405" lon="2.29784">
        <ele>137</ele>
        <time>2020-08-02T16:01:38.000Z</time>
      </trkpt>
      <trkpt lat="48.45428" lon="2.29803">
        <ele>137.39999389648</ele>
        <time>2020-08-02T16:01:43.000Z</time>
      </trkpt>
      <trkpt lat="48.45433" lon="2.29806">
        <ele>137.39999389648</ele>
        <time>2020-08-02T16:01:44.000Z</time>
      </trkpt>
      <trkpt lat="48.45456" lon="2.29825">
        <ele>135.80000305176</ele>
        <time>2020-08-02T16:01:49.000Z</time>
      </trkpt>
      <trkpt lat="48.45461" lon="2.29828">
        <ele>135.39999389648</ele>
        <time>2020-08-02T16:01:50.000Z</time>
      </trkpt>
      <trkpt lat="48.45465" lon="2.29832">
        <ele>135.19999694824</ele>
        <time>2020-08-02T16:01:51.000Z</time>
      </trkpt>
      <trkpt lat="48.45473" lon="2.29842">
        <ele>134.80000305176</ele>
        <time>2020-08-02T16:01:53.000Z</time>
      </trkpt>
      <trkpt lat="48.45481" lon="2.2985">
        <ele>134.39999389648</ele>
        <time>2020-08-02T16:01:55.000Z</time>
      </trkpt>
      <trkpt lat="48.45509" lon="2.29877">
        <ele>133</ele>
        <time>2020-08-02T16:02:02.000Z</time>
      </trkpt>
      <trkpt lat="48.45543" lon="2.29906">
        <ele>132.19999694824</ele>
        <time>2020-08-02T16:02:10.000Z</time>
      </trkpt>
      <trkpt lat="48.45563" lon="2.2994">
        <ele>131</ele>
        <time>2020-08-02T16:02:16.000Z</time>
      </trkpt>
      <trkpt lat="48.45595" lon="2.30003">
        <ele>128.80000305176</ele>
        <time>2020-08-02T16:02:26.000Z</time>
      </trkpt>
      <trkpt lat="48.45619" lon="2.30056">
        <ele>127.59999847412</ele>
        <time>2020-08-02T16:02:33.000Z</time>
      </trkpt>
      <trkpt lat="48.45646" lon="2.30124">
        <ele>126.40000152588</ele>
        <time>2020-08-02T16:02:42.000Z</time>
      </trkpt>
      <trkpt lat="48.45654" lon="2.30144">
        <ele>126.19999694824</ele>
        <time>2020-08-02T16:02:45.000Z</time>
      </trkpt>
      <trkpt lat="48.45659" lon="2.30151">
        <ele>126</ele>
        <time>2020-08-02T16:02:47.000Z</time>
      </trkpt>
      <trkpt lat="48.45678" lon="2.30168">
        <ele>125.80000305176</ele>
        <time>2020-08-02T16:02:52.000Z</time>
      </trkpt>
      <trkpt lat="48.45715" lon="2.30197">
        <ele>126.40000152588</ele>
        <time>2020-08-02T16:02:59.000Z</time>
      </trkpt>
      <trkpt lat="48.45742" lon="2.30219">
        <ele>126.80000305176</ele>
        <time>2020-08-02T16:03:04.000Z</time>
      </trkpt>
      <trkpt lat="48.45747" lon="2.30223">
        <ele>126.80000305176</ele>
        <time>2020-08-02T16:03:05.000Z</time>
      </trkpt>
      <trkpt lat="48.45758" lon="2.30231">
        <ele>127</ele>
        <time>2020-08-02T16:03:08.000Z</time>
      </trkpt>
      <trkpt lat="48.45762" lon="2.30235">
        <ele>127.19999694824</ele>
        <time>2020-08-02T16:03:09.000Z</time>
      </trkpt>
      <trkpt lat="48.45766" lon="2.30239">
        <ele>127.19999694824</ele>
        <time>2020-08-02T16:03:10.000Z</time>
      </trkpt>
      <trkpt lat="48.45783" lon="2.30253">
        <ele>128</ele>
        <time>2020-08-02T16:03:14.000Z</time>
      </trkpt>
      <trkpt lat="48.45803" lon="2.30267">
        <ele>128.60000610352</ele>
        <time>2020-08-02T16:03:19.000Z</time>
      </trkpt>
      <trkpt lat="48.45806" lon="2.30268">
        <ele>128.80000305176</ele>
        <time>2020-08-02T16:03:20.000Z</time>
      </trkpt>
      <trkpt lat="48.45811" lon="2.30263">
        <ele>129.39999389648</ele>
        <time>2020-08-02T16:03:22.000Z</time>
      </trkpt>
      <trkpt lat="48.45811" lon="2.30244">
        <ele>130.39999389648</ele>
        <time>2020-08-02T16:03:26.000Z</time>
      </trkpt>
      <trkpt lat="48.4581" lon="2.30222">
        <ele>130.80000305176</ele>
        <time>2020-08-02T16:03:30.000Z</time>
      </trkpt>
      <trkpt lat="48.45813" lon="2.30214">
        <ele>131.19999694824</ele>
        <time>2020-08-02T16:03:32.000Z</time>
      </trkpt>
      <trkpt lat="48.45815" lon="2.30212">
        <ele>131.39999389648</ele>
        <time>2020-08-02T16:03:33.000Z</time>
      </trkpt>
      <trkpt lat="48.45818" lon="2.30211">
        <ele>131.60000610352</ele>
        <time>2020-08-02T16:03:34.000Z</time>
      </trkpt>
      <trkpt lat="48.45827" lon="2.30212">
        <ele>132.39999389648</ele>
        <time>2020-08-02T16:03:37.000Z</time>
      </trkpt>
      <trkpt lat="48.45839" lon="2.30219">
        <ele>133.19999694824</ele>
        <time>2020-08-02T16:03:41.000Z</time>
      </trkpt>
      <trkpt lat="48.45849" lon="2.30224">
        <ele>133.80000305176</ele>
        <time>2020-08-02T16:03:46.000Z</time>
      </trkpt>
      <trkpt lat="48.45849" lon="2.30225">
        <ele>133.80000305176</ele>
        <time>2020-08-02T16:03:47.000Z</time>
      </trkpt>
      <trkpt lat="48.45854" lon="2.30229">
        <ele>134</ele>
        <time>2020-08-02T16:04:21.000Z</time>
      </trkpt>
      <trkpt lat="48.45856" lon="2.30231">
        <ele>134</ele>
        <time>2020-08-02T16:04:22.000Z</time>
      </trkpt>
      <trkpt lat="48.45861" lon="2.30235">
        <ele>134.19999694824</ele>
        <time>2020-08-02T16:04:24.000Z</time>
      </trkpt>
      <trkpt lat="48.45867" lon="2.30239">
        <ele>134.60000610352</ele>
        <time>2020-08-02T16:04:26.000Z</time>
      </trkpt>
      <trkpt lat="48.45889" lon="2.30256">
        <ele>135.19999694824</ele>
        <time>2020-08-02T16:04:32.000Z</time>
      </trkpt>
      <trkpt lat="48.45908" lon="2.3027">
        <ele>135.60000610352</ele>
        <time>2020-08-02T16:04:37.000Z</time>
      </trkpt>
      <trkpt lat="48.4592" lon="2.30287">
        <ele>135.19999694824</ele>
        <time>2020-08-02T16:04:40.000Z</time>
      </trkpt>
      <trkpt lat="48.45927" lon="2.30298">
        <ele>135</ele>
        <time>2020-08-02T16:04:42.000Z</time>
      </trkpt>
      <trkpt lat="48.4594" lon="2.3031">
        <ele>134</ele>
        <time>2020-08-02T16:04:45.000Z</time>
      </trkpt>
      <trkpt lat="48.45951" lon="2.30314">
        <ele>133</ele>
        <time>2020-08-02T16:04:47.000Z</time>
      </trkpt>
      <trkpt lat="48.45962" lon="2.30316">
        <ele>132.39999389648</ele>
        <time>2020-08-02T16:04:49.000Z</time>
      </trkpt>
      <trkpt lat="48.45979" lon="2.30313">
        <ele>131.39999389648</ele>
        <time>2020-08-02T16:04:52.000Z</time>
      </trkpt>
      <trkpt lat="48.45992" lon="2.30309">
        <ele>131</ele>
        <time>2020-08-02T16:04:54.000Z</time>
      </trkpt>
      <trkpt lat="48.46005" lon="2.30307">
        <ele>130</ele>
        <time>2020-08-02T16:04:56.000Z</time>
      </trkpt>
      <trkpt lat="48.4601" lon="2.30305">
        <ele>129.60000610352</ele>
        <time>2020-08-02T16:04:57.000Z</time>
      </trkpt>
      <trkpt lat="48.4603" lon="2.30294">
        <ele>129.19999694824</ele>
        <time>2020-08-02T16:05:01.000Z</time>
      </trkpt>
      <trkpt lat="48.46038" lon="2.3029">
        <ele>129.19999694824</ele>
        <time>2020-08-02T16:05:04.000Z</time>
      </trkpt>
      <trkpt lat="48.46055" lon="2.3029">
        <ele>128.60000610352</ele>
        <time>2020-08-02T16:05:08.000Z</time>
      </trkpt>
      <trkpt lat="48.4609" lon="2.30296">
        <ele>127.80000305176</ele>
        <time>2020-08-02T16:05:13.000Z</time>
      </trkpt>
      <trkpt lat="48.46115" lon="2.30298">
        <ele>127.40000152588</ele>
        <time>2020-08-02T16:05:17.000Z</time>
      </trkpt>
      <trkpt lat="48.46126" lon="2.303">
        <ele>127.19999694824</ele>
        <time>2020-08-02T16:05:19.000Z</time>
      </trkpt>
      <trkpt lat="48.46138" lon="2.30305">
        <ele>126.59999847412</ele>
        <time>2020-08-02T16:05:21.000Z</time>
      </trkpt>
      <trkpt lat="48.46147" lon="2.30315">
        <ele>125.59999847412</ele>
        <time>2020-08-02T16:05:23.000Z</time>
      </trkpt>
      <trkpt lat="48.46152" lon="2.30322">
        <ele>125</ele>
        <time>2020-08-02T16:05:24.000Z</time>
      </trkpt>
      <trkpt lat="48.46155" lon="2.3033">
        <ele>124.40000152588</ele>
        <time>2020-08-02T16:05:25.000Z</time>
      </trkpt>
      <trkpt lat="48.46161" lon="2.30341">
        <ele>123.40000152588</ele>
        <time>2020-08-02T16:05:27.000Z</time>
      </trkpt>
      <trkpt lat="48.46173" lon="2.30353">
        <ele>122.40000152588</ele>
        <time>2020-08-02T16:05:31.000Z</time>
      </trkpt>
      <trkpt lat="48.46175" lon="2.30353">
        <ele>122.40000152588</ele>
        <time>2020-08-02T16:05:32.000Z</time>
      </trkpt>
      <trkpt lat="48.46182" lon="2.30353">
        <ele>122.40000152588</ele>
        <time>2020-08-02T16:05:35.000Z</time>
      </trkpt>
      <trkpt lat="48.46196" lon="2.30346">
        <ele>124.80000305176</ele>
        <time>2020-08-02T16:05:40.000Z</time>
      </trkpt>
      <trkpt lat="48.46202" lon="2.30338">
        <ele>125.80000305176</ele>
        <time>2020-08-02T16:05:44.000Z</time>
      </trkpt>
      <trkpt lat="48.46203" lon="2.30335">
        <ele>126</ele>
        <time>2020-08-02T16:05:45.000Z</time>
      </trkpt>
      <trkpt lat="48.46206" lon="2.3032">
        <ele>127.80000305176</ele>
        <time>2020-08-02T16:05:50.000Z</time>
      </trkpt>
      <trkpt lat="48.4621" lon="2.30302">
        <ele>130.60000610352</ele>
        <time>2020-08-02T16:05:55.000Z</time>
      </trkpt>
      <trkpt lat="48.46219" lon="2.30287">
        <ele>133.60000610352</ele>
        <time>2020-08-02T16:06:01.000Z</time>
      </trkpt>
      <trkpt lat="48.4623" lon="2.30271">
        <ele>134.39999389648</ele>
        <time>2020-08-02T16:06:07.000Z</time>
      </trkpt>
      <trkpt lat="48.46242" lon="2.3026">
        <ele>134.60000610352</ele>
        <time>2020-08-02T16:06:13.000Z</time>
      </trkpt>
      <trkpt lat="48.4626" lon="2.30262">
        <ele>134.60000610352</ele>
        <time>2020-08-02T16:06:19.000Z</time>
      </trkpt>
      <trkpt lat="48.46267" lon="2.30278">
        <ele>134.19999694824</ele>
        <time>2020-08-02T16:06:24.000Z</time>
      </trkpt>
      <trkpt lat="48.46266" lon="2.30297">
        <ele>133.80000305176</ele>
        <time>2020-08-02T16:06:28.000Z</time>
      </trkpt>
      <trkpt lat="48.46267" lon="2.30311">
        <ele>133.39999389648</ele>
        <time>2020-08-02T16:06:31.000Z</time>
      </trkpt>
      <trkpt lat="48.46268" lon="2.30315">
        <ele>133.19999694824</ele>
        <time>2020-08-02T16:06:32.000Z</time>
      </trkpt>
      <trkpt lat="48.46269" lon="2.3032">
        <ele>133</ele>
        <time>2020-08-02T16:06:33.000Z</time>
      </trkpt>
      <trkpt lat="48.46274" lon="2.30326">
        <ele>132.60000610352</ele>
        <time>2020-08-02T16:06:35.000Z</time>
      </trkpt>
      <trkpt lat="48.46288" lon="2.30334">
        <ele>131.80000305176</ele>
        <time>2020-08-02T16:06:39.000Z</time>
      </trkpt>
      <trkpt lat="48.46311" lon="2.3035">
        <ele>131</ele>
        <time>2020-08-02T16:06:45.000Z</time>
      </trkpt>
      <trkpt lat="48.46315" lon="2.30353">
        <ele>130.80000305176</ele>
        <time>2020-08-02T16:06:46.000Z</time>
      </trkpt>
      <trkpt lat="48.4634" lon="2.3037">
        <ele>130</ele>
        <time>2020-08-02T16:06:52.000Z</time>
      </trkpt>
      <trkpt lat="48.46355" lon="2.30379">
        <ele>129.80000305176</ele>
        <time>2020-08-02T16:06:56.000Z</time>
      </trkpt>
      <trkpt lat="48.46357" lon="2.3038">
        <ele>130</ele>
        <time>2020-08-02T16:06:57.000Z</time>
      </trkpt>
      <trkpt lat="48.4636" lon="2.30379">
        <ele>129.80000305176</ele>
        <time>2020-08-02T16:06:59.000Z</time>
      </trkpt>
      <trkpt lat="48.46372" lon="2.30364">
        <ele>129.60000610352</ele>
        <time>2020-08-02T16:07:04.000Z</time>
      </trkpt>
      <trkpt lat="48.46385" lon="2.30343">
        <ele>130</ele>
        <time>2020-08-02T16:07:09.000Z</time>
      </trkpt>
      <trkpt lat="48.46387" lon="2.30341">
        <ele>130.19999694824</ele>
        <time>2020-08-02T16:07:10.000Z</time>
      </trkpt>
      <trkpt lat="48.46393" lon="2.30341">
        <ele>130.39999389648</ele>
        <time>2020-08-02T16:07:12.000Z</time>
      </trkpt>
      <trkpt lat="48.46395" lon="2.30342">
        <ele>130.60000610352</ele>
        <time>2020-08-02T16:07:13.000Z</time>
      </trkpt>
      <trkpt lat="48.464" lon="2.30349">
        <ele>130.80000305176</ele>
        <time>2020-08-02T16:07:16.000Z</time>
      </trkpt>
      <trkpt lat="48.46411" lon="2.30362">
        <ele>131.39999389648</ele>
        <time>2020-08-02T16:07:21.000Z</time>
      </trkpt>
      <trkpt lat="48.46421" lon="2.30363">
        <ele>131.80000305176</ele>
        <time>2020-08-02T16:07:26.000Z</time>
      </trkpt>
      <trkpt lat="48.46424" lon="2.30361">
        <ele>132</ele>
        <time>2020-08-02T16:07:28.000Z</time>
      </trkpt>
      <trkpt lat="48.46432" lon="2.30354">
        <ele>132.60000610352</ele>
        <time>2020-08-02T16:07:32.000Z</time>
      </trkpt>
      <trkpt lat="48.46441" lon="2.30347">
        <ele>131.19999694824</ele>
        <time>2020-08-02T16:07:36.000Z</time>
      </trkpt>
      <trkpt lat="48.46452" lon="2.30337">
        <ele>129.80000305176</ele>
        <time>2020-08-02T16:07:40.000Z</time>
      </trkpt>
      <trkpt lat="48.46458" lon="2.30323">
        <ele>129.19999694824</ele>
        <time>2020-08-02T16:07:43.000Z</time>
      </trkpt>
      <trkpt lat="48.46461" lon="2.3032">
        <ele>129</ele>
        <time>2020-08-02T16:07:44.000Z</time>
      </trkpt>
      <trkpt lat="48.46469" lon="2.3031">
        <ele>127.80000305176</ele>
        <time>2020-08-02T16:07:48.000Z</time>
      </trkpt>
      <trkpt lat="48.46472" lon="2.30312">
        <ele>127.40000152588</ele>
        <time>2020-08-02T16:07:50.000Z</time>
      </trkpt>
      <trkpt lat="48.46474" lon="2.30316">
        <ele>126.80000305176</ele>
        <time>2020-08-02T16:07:52.000Z</time>
      </trkpt>
      <trkpt lat="48.46474" lon="2.30325">
        <ele>126.59999847412</ele>
        <time>2020-08-02T16:07:56.000Z</time>
      </trkpt>
      <trkpt lat="48.46474" lon="2.30341">
        <ele>126.19999694824</ele>
        <time>2020-08-02T16:08:01.000Z</time>
      </trkpt>
      <trkpt lat="48.46475" lon="2.30354">
        <ele>125.40000152588</ele>
        <time>2020-08-02T16:08:05.000Z</time>
      </trkpt>
      <trkpt lat="48.46476" lon="2.30361">
        <ele>125.19999694824</ele>
        <time>2020-08-02T16:08:07.000Z</time>
      </trkpt>
      <trkpt lat="48.46478" lon="2.30369">
        <ele>124.59999847412</ele>
        <time>2020-08-02T16:08:10.000Z</time>
      </trkpt>
      <trkpt lat="48.4648" lon="2.30369">
        <ele>124.19999694824</ele>
        <time>2020-08-02T16:18:53.000Z</time>
      </trkpt>
      <trkpt lat="48.46491" lon="2.30361">
        <ele>122.80000305176</ele>
        <time>2020-08-02T16:18:56.000Z</time>
      </trkpt>
      <trkpt lat="48.465" lon="2.30358">
        <ele>121.40000152588</ele>
        <time>2020-08-02T16:18:58.000Z</time>
      </trkpt>
      <trkpt lat="48.46508" lon="2.3036">
        <ele>120.19999694824</ele>
        <time>2020-08-02T16:19:00.000Z</time>
      </trkpt>
      <trkpt lat="48.4653" lon="2.30366">
        <ele>115.80000305176</ele>
        <time>2020-08-02T16:19:05.000Z</time>
      </trkpt>
      <trkpt lat="48.46546" lon="2.30369">
        <ele>112.19999694824</ele>
        <time>2020-08-02T16:19:09.000Z</time>
      </trkpt>
      <trkpt lat="48.46557" lon="2.30371">
        <ele>109.59999847412</ele>
        <time>2020-08-02T16:19:13.000Z</time>
      </trkpt>
      <trkpt lat="48.46564" lon="2.30368">
        <ele>108.40000152588</ele>
        <time>2020-08-02T16:19:16.000Z</time>
      </trkpt>
      <trkpt lat="48.46566" lon="2.30366">
        <ele>108</ele>
        <time>2020-08-02T16:19:17.000Z</time>
      </trkpt>
      <trkpt lat="48.46579" lon="2.30357">
        <ele>105.80000305176</ele>
        <time>2020-08-02T16:19:22.000Z</time>
      </trkpt>
      <trkpt lat="48.46595" lon="2.30358">
        <ele>102.59999847412</ele>
        <time>2020-08-02T16:19:26.000Z</time>
      </trkpt>
      <trkpt lat="48.46607" lon="2.30361">
        <ele>100.40000152588</ele>
        <time>2020-08-02T16:19:28.000Z</time>
      </trkpt>
      <trkpt lat="48.46622" lon="2.30369">
        <ele>98.199996948242</ele>
        <time>2020-08-02T16:19:31.000Z</time>
      </trkpt>
      <trkpt lat="48.46648" lon="2.30383">
        <ele>94</ele>
        <time>2020-08-02T16:19:36.000Z</time>
      </trkpt>
      <trkpt lat="48.46652" lon="2.30385">
        <ele>93.400001525879</ele>
        <time>2020-08-02T16:19:37.000Z</time>
      </trkpt>
      <trkpt lat="48.46665" lon="2.30393">
        <ele>91.400001525879</ele>
        <time>2020-08-02T16:19:42.000Z</time>
      </trkpt>
      <trkpt lat="48.4668" lon="2.30402">
        <ele>89</ele>
        <time>2020-08-02T16:19:47.000Z</time>
      </trkpt>
      <trkpt lat="48.46692" lon="2.30411">
        <ele>88</ele>
        <time>2020-08-02T16:19:52.000Z</time>
      </trkpt>
      <trkpt lat="48.46707" lon="2.30417">
        <ele>87.599998474121</ele>
        <time>2020-08-02T16:19:57.000Z</time>
      </trkpt>
      <trkpt lat="48.46713" lon="2.30424">
        <ele>87.400001525879</ele>
        <time>2020-08-02T16:20:01.000Z</time>
      </trkpt>
      <trkpt lat="48.46716" lon="2.30423">
        <ele>87.400001525879</ele>
        <time>2020-08-02T16:20:03.000Z</time>
      </trkpt>
      <trkpt lat="48.4672" lon="2.30421">
        <ele>87.400001525879</ele>
        <time>2020-08-02T16:20:05.000Z</time>
      </trkpt>
      <trkpt lat="48.4673" lon="2.3042">
        <ele>87.199996948242</ele>
        <time>2020-08-02T16:20:09.000Z</time>
      </trkpt>
      <trkpt lat="48.46741" lon="2.30411">
        <ele>87.400001525879</ele>
        <time>2020-08-02T16:20:13.000Z</time>
      </trkpt>
      <trkpt lat="48.46757" lon="2.30404">
        <ele>87.599998474121</ele>
        <time>2020-08-02T16:20:18.000Z</time>
      </trkpt>
      <trkpt lat="48.46768" lon="2.30404">
        <ele>87.199996948242</ele>
        <time>2020-08-02T16:20:22.000Z</time>
      </trkpt>
      <trkpt lat="48.46774" lon="2.30404">
        <ele>87.199996948242</ele>
        <time>2020-08-02T16:20:25.000Z</time>
      </trkpt>
      <trkpt lat="48.46777" lon="2.304">
        <ele>87.400001525879</ele>
        <time>2020-08-02T16:20:27.000Z</time>
      </trkpt>
      <trkpt lat="48.46787" lon="2.30394">
        <ele>87.400001525879</ele>
        <time>2020-08-02T16:20:32.000Z</time>
      </trkpt>
      <trkpt lat="48.46796" lon="2.3039">
        <ele>87.599998474121</ele>
        <time>2020-08-02T16:20:36.000Z</time>
      </trkpt>
      <trkpt lat="48.46799" lon="2.30388">
        <ele>87.599998474121</ele>
        <time>2020-08-02T16:21:17.000Z</time>
      </trkpt>
      <trkpt lat="48.46804" lon="2.30387">
        <ele>87.800003051758</ele>
        <time>2020-08-02T16:21:19.000Z</time>
      </trkpt>
      <trkpt lat="48.46818" lon="2.30383">
        <ele>88</ele>
        <time>2020-08-02T16:21:23.000Z</time>
      </trkpt>
      <trkpt lat="48.46826" lon="2.30379">
        <ele>87.800003051758</ele>
        <time>2020-08-02T16:21:27.000Z</time>
      </trkpt>
      <trkpt lat="48.46838" lon="2.30369">
        <ele>87.599998474121</ele>
        <time>2020-08-02T16:21:32.000Z</time>
      </trkpt>
      <trkpt lat="48.46848" lon="2.30365">
        <ele>87.400001525879</ele>
        <time>2020-08-02T16:21:37.000Z</time>
      </trkpt>
      <trkpt lat="48.46863" lon="2.30361">
        <ele>88.599998474121</ele>
        <time>2020-08-02T16:21:43.000Z</time>
      </trkpt>
      <trkpt lat="48.46879" lon="2.30351">
        <ele>89.199996948242</ele>
        <time>2020-08-02T16:21:50.000Z</time>
      </trkpt>
      <trkpt lat="48.46894" lon="2.30336">
        <ele>88</ele>
        <time>2020-08-02T16:21:57.000Z</time>
      </trkpt>
      <trkpt lat="48.46917" lon="2.3032">
        <ele>87.800003051758</ele>
        <time>2020-08-02T16:22:05.000Z</time>
      </trkpt>
      <trkpt lat="48.46932" lon="2.30314">
        <ele>88</ele>
        <time>2020-08-02T16:22:10.000Z</time>
      </trkpt>
      <trkpt lat="48.46952" lon="2.30304">
        <ele>88.400001525879</ele>
        <time>2020-08-02T16:22:17.000Z</time>
      </trkpt>
      <trkpt lat="48.46968" lon="2.303">
        <ele>88.800003051758</ele>
        <time>2020-08-02T16:22:22.000Z</time>
      </trkpt>
      <trkpt lat="48.46992" lon="2.30296">
        <ele>89.199996948242</ele>
        <time>2020-08-02T16:22:28.000Z</time>
      </trkpt>
      <trkpt lat="48.47007" lon="2.30295">
        <ele>89.199996948242</ele>
        <time>2020-08-02T16:22:33.000Z</time>
      </trkpt>
      <trkpt lat="48.47028" lon="2.30289">
        <ele>88.800003051758</ele>
        <time>2020-08-02T16:22:39.000Z</time>
      </trkpt>
      <trkpt lat="48.47053" lon="2.30278">
        <ele>88.400001525879</ele>
        <time>2020-08-02T16:22:45.000Z</time>
      </trkpt>
      <trkpt lat="48.47072" lon="2.3027">
        <ele>87.800003051758</ele>
        <time>2020-08-02T16:22:50.000Z</time>
      </trkpt>
      <trkpt lat="48.47093" lon="2.30261">
        <ele>87.400001525879</ele>
        <time>2020-08-02T16:22:55.000Z</time>
      </trkpt>
      <trkpt lat="48.47111" lon="2.30253">
        <ele>87</ele>
        <time>2020-08-02T16:22:59.000Z</time>
      </trkpt>
      <trkpt lat="48.47121" lon="2.30248">
        <ele>86.800003051758</ele>
        <time>2020-08-02T16:23:01.000Z</time>
      </trkpt>
      <trkpt lat="48.47143" lon="2.30233">
        <ele>86</ele>
        <time>2020-08-02T16:23:06.000Z</time>
      </trkpt>
      <trkpt lat="48.47171" lon="2.30214">
        <ele>85.199996948242</ele>
        <time>2020-08-02T16:23:12.000Z</time>
      </trkpt>
      <trkpt lat="48.47185" lon="2.30207">
        <ele>85</ele>
        <time>2020-08-02T16:23:15.000Z</time>
      </trkpt>
      <trkpt lat="48.47194" lon="2.30203">
        <ele>84.800003051758</ele>
        <time>2020-08-02T16:23:17.000Z</time>
      </trkpt>
      <trkpt lat="48.4722" lon="2.3019">
        <ele>84</ele>
        <time>2020-08-02T16:23:23.000Z</time>
      </trkpt>
      <trkpt lat="48.47251" lon="2.30174">
        <ele>82.800003051758</ele>
        <time>2020-08-02T16:23:29.000Z</time>
      </trkpt>
      <trkpt lat="48.47262" lon="2.30169">
        <ele>82.400001525879</ele>
        <time>2020-08-02T16:23:31.000Z</time>
      </trkpt>
      <trkpt lat="48.47282" lon="2.30159">
        <ele>81.400001525879</ele>
        <time>2020-08-02T16:23:35.000Z</time>
      </trkpt>
      <trkpt lat="48.47294" lon="2.30151">
        <ele>81</ele>
        <time>2020-08-02T16:23:39.000Z</time>
      </trkpt>
      <trkpt lat="48.47298" lon="2.30149">
        <ele>80.800003051758</ele>
        <time>2020-08-02T16:23:42.000Z</time>
      </trkpt>
      <trkpt lat="48.473" lon="2.30149">
        <ele>80.599998474121</ele>
        <time>2020-08-02T16:23:43.000Z</time>
      </trkpt>
      <trkpt lat="48.47304" lon="2.3015">
        <ele>80.599998474121</ele>
        <time>2020-08-02T16:23:45.000Z</time>
      </trkpt>
      <trkpt lat="48.47308" lon="2.30147">
        <ele>80.400001525879</ele>
        <time>2020-08-02T16:24:07.000Z</time>
      </trkpt>
      <trkpt lat="48.47311" lon="2.30145">
        <ele>80.199996948242</ele>
        <time>2020-08-02T16:24:08.000Z</time>
      </trkpt>
      <trkpt lat="48.47319" lon="2.30141">
        <ele>80</ele>
        <time>2020-08-02T16:24:10.000Z</time>
      </trkpt>
      <trkpt lat="48.47323" lon="2.30139">
        <ele>79.800003051758</ele>
        <time>2020-08-02T16:24:11.000Z</time>
      </trkpt>
      <trkpt lat="48.4734" lon="2.3013">
        <ele>79.599998474121</ele>
        <time>2020-08-02T16:24:15.000Z</time>
      </trkpt>
      <trkpt lat="48.47349" lon="2.30125">
        <ele>79.599998474121</ele>
        <time>2020-08-02T16:24:17.000Z</time>
      </trkpt>
      <trkpt lat="48.47363" lon="2.30114">
        <ele>79.199996948242</ele>
        <time>2020-08-02T16:24:20.000Z</time>
      </trkpt>
      <trkpt lat="48.47394" lon="2.30094">
        <ele>77.599998474121</ele>
        <time>2020-08-02T16:24:26.000Z</time>
      </trkpt>
      <trkpt lat="48.47417" lon="2.30081">
        <ele>75.800003051758</ele>
        <time>2020-08-02T16:24:31.000Z</time>
      </trkpt>
      <trkpt lat="48.47422" lon="2.30079">
        <ele>75.599998474121</ele>
        <time>2020-08-02T16:24:32.000Z</time>
      </trkpt>
      <trkpt lat="48.47433" lon="2.30078">
        <ele>75</ele>
        <time>2020-08-02T16:24:34.000Z</time>
      </trkpt>
      <trkpt lat="48.47438" lon="2.30078">
        <ele>74.599998474121</ele>
        <time>2020-08-02T16:24:35.000Z</time>
      </trkpt>
      <trkpt lat="48.47449" lon="2.30077">
        <ele>74.199996948242</ele>
        <time>2020-08-02T16:24:37.000Z</time>
      </trkpt>
      <trkpt lat="48.47458" lon="2.30072">
        <ele>73.599998474121</ele>
        <time>2020-08-02T16:24:39.000Z</time>
      </trkpt>
      <trkpt lat="48.47491" lon="2.30043">
        <ele>71.199996948242</ele>
        <time>2020-08-02T16:24:46.000Z</time>
      </trkpt>
      <trkpt lat="48.475" lon="2.30034">
        <ele>70.800003051758</ele>
        <time>2020-08-02T16:24:48.000Z</time>
      </trkpt>
      <trkpt lat="48.47514" lon="2.30019">
        <ele>70.400001525879</ele>
        <time>2020-08-02T16:24:51.000Z</time>
      </trkpt>
      <trkpt lat="48.47552" lon="2.29977">
        <ele>69.400001525879</ele>
        <time>2020-08-02T16:25:00.000Z</time>
      </trkpt>
      <trkpt lat="48.47585" lon="2.29938">
        <ele>69.599998474121</ele>
        <time>2020-08-02T16:25:08.000Z</time>
      </trkpt>
      <trkpt lat="48.476" lon="2.29918">
        <ele>70</ele>
        <time>2020-08-02T16:25:12.000Z</time>
      </trkpt>
      <trkpt lat="48.47607" lon="2.29907">
        <ele>70.199996948242</ele>
        <time>2020-08-02T16:25:14.000Z</time>
      </trkpt>
      <trkpt lat="48.47622" lon="2.29879">
        <ele>70.599998474121</ele>
        <time>2020-08-02T16:25:19.000Z</time>
      </trkpt>
      <trkpt lat="48.47626" lon="2.29874">
        <ele>70.800003051758</ele>
        <time>2020-08-02T16:25:20.000Z</time>
      </trkpt>
      <trkpt lat="48.47633" lon="2.29864">
        <ele>71</ele>
        <time>2020-08-02T16:25:22.000Z</time>
      </trkpt>
      <trkpt lat="48.47642" lon="2.29847">
        <ele>71.400001525879</ele>
        <time>2020-08-02T16:25:25.000Z</time>
      </trkpt>
      <trkpt lat="48.47665" lon="2.298">
        <ele>72.199996948242</ele>
        <time>2020-08-02T16:25:33.000Z</time>
      </trkpt>
      <trkpt lat="48.47681" lon="2.2977">
        <ele>72.599998474121</ele>
        <time>2020-08-02T16:25:38.000Z</time>
      </trkpt>
      <trkpt lat="48.47691" lon="2.29757">
        <ele>72.800003051758</ele>
        <time>2020-08-02T16:25:41.000Z</time>
      </trkpt>
      <trkpt lat="48.47722" lon="2.29719">
        <ele>73.800003051758</ele>
        <time>2020-08-02T16:25:49.000Z</time>
      </trkpt>
      <trkpt lat="48.47742" lon="2.29677">
        <ele>74.599998474121</ele>
        <time>2020-08-02T16:25:56.000Z</time>
      </trkpt>
      <trkpt lat="48.47763" lon="2.29629">
        <ele>75.400001525879</ele>
        <time>2020-08-02T16:26:04.000Z</time>
      </trkpt>
      <trkpt lat="48.47776" lon="2.29599">
        <ele>76.400001525879</ele>
        <time>2020-08-02T16:26:09.000Z</time>
      </trkpt>
      <trkpt lat="48.47782" lon="2.29594">
        <ele>77</ele>
        <time>2020-08-02T16:26:11.000Z</time>
      </trkpt>
      <trkpt lat="48.47788" lon="2.29598">
        <ele>77.400001525879</ele>
        <time>2020-08-02T16:26:13.000Z</time>
      </trkpt>
      <trkpt lat="48.47792" lon="2.29602">
        <ele>77.599998474121</ele>
        <time>2020-08-02T16:26:14.000Z</time>
      </trkpt>
      <trkpt lat="48.47795" lon="2.29607">
        <ele>77.800003051758</ele>
        <time>2020-08-02T16:26:15.000Z</time>
      </trkpt>
      <trkpt lat="48.47802" lon="2.29619">
        <ele>78</ele>
        <time>2020-08-02T16:26:18.000Z</time>
      </trkpt>
      <trkpt lat="48.47815" lon="2.29634">
        <ele>78.800003051758</ele>
        <time>2020-08-02T16:26:22.000Z</time>
      </trkpt>
      <trkpt lat="48.47824" lon="2.29642">
        <ele>79.400001525879</ele>
        <time>2020-08-02T16:26:24.000Z</time>
      </trkpt>
      <trkpt lat="48.47856" lon="2.29665">
        <ele>81.199996948242</ele>
        <time>2020-08-02T16:26:31.000Z</time>
      </trkpt>
      <trkpt lat="48.47883" lon="2.29686">
        <ele>81.400001525879</ele>
        <time>2020-08-02T16:26:37.000Z</time>
      </trkpt>
      <trkpt lat="48.47915" lon="2.29708">
        <ele>81.800003051758</ele>
        <time>2020-08-02T16:26:44.000Z</time>
      </trkpt>
      <trkpt lat="48.47947" lon="2.29732">
        <ele>81</ele>
        <time>2020-08-02T16:26:51.000Z</time>
      </trkpt>
      <trkpt lat="48.4798" lon="2.29757">
        <ele>79.400001525879</ele>
        <time>2020-08-02T16:26:58.000Z</time>
      </trkpt>
      <trkpt lat="48.48022" lon="2.29776">
        <ele>78.599998474121</ele>
        <time>2020-08-02T16:27:05.000Z</time>
      </trkpt>
      <trkpt lat="48.48058" lon="2.29797">
        <ele>77.599998474121</ele>
        <time>2020-08-02T16:27:11.000Z</time>
      </trkpt>
      <trkpt lat="48.48107" lon="2.29831">
        <ele>76.800003051758</ele>
        <time>2020-08-02T16:27:20.000Z</time>
      </trkpt>
      <trkpt lat="48.48135" lon="2.29847">
        <ele>80.400001525879</ele>
        <time>2020-08-02T16:27:26.000Z</time>
      </trkpt>
      <trkpt lat="48.48141" lon="2.29842">
        <ele>80.599998474121</ele>
        <time>2020-08-02T16:27:28.000Z</time>
      </trkpt>
      <trkpt lat="48.48144" lon="2.29836">
        <ele>80.599998474121</ele>
        <time>2020-08-02T16:27:29.000Z</time>
      </trkpt>
      <trkpt lat="48.48155" lon="2.29812">
        <ele>81.400001525879</ele>
        <time>2020-08-02T16:27:33.000Z</time>
      </trkpt>
      <trkpt lat="48.48158" lon="2.29806">
        <ele>82</ele>
        <time>2020-08-02T16:27:34.000Z</time>
      </trkpt>
      <trkpt lat="48.48166" lon="2.29796">
        <ele>81.599998474121</ele>
        <time>2020-08-02T16:27:36.000Z</time>
      </trkpt>
      <trkpt lat="48.48176" lon="2.29783">
        <ele>81</ele>
        <time>2020-08-02T16:27:39.000Z</time>
      </trkpt>
      <trkpt lat="48.4819" lon="2.29781">
        <ele>81.199996948242</ele>
        <time>2020-08-02T16:27:43.000Z</time>
      </trkpt>
      <trkpt lat="48.48215" lon="2.29789">
        <ele>82.800003051758</ele>
        <time>2020-08-02T16:27:49.000Z</time>
      </trkpt>
      <trkpt lat="48.48254" lon="2.29801">
        <ele>84.800003051758</ele>
        <time>2020-08-02T16:27:58.000Z</time>
      </trkpt>
      <trkpt lat="48.4828" lon="2.29809">
        <ele>86.400001525879</ele>
        <time>2020-08-02T16:28:05.000Z</time>
      </trkpt>
      <trkpt lat="48.483" lon="2.29818">
        <ele>88</ele>
        <time>2020-08-02T16:28:11.000Z</time>
      </trkpt>
      <trkpt lat="48.4832" lon="2.29823">
        <ele>89.199996948242</ele>
        <time>2020-08-02T16:28:16.000Z</time>
      </trkpt>
      <trkpt lat="48.48338" lon="2.29817">
        <ele>89.599998474121</ele>
        <time>2020-08-02T16:28:21.000Z</time>
      </trkpt>
      <trkpt lat="48.48353" lon="2.2979">
        <ele>90</ele>
        <time>2020-08-02T16:28:27.000Z</time>
      </trkpt>
      <trkpt lat="48.48371" lon="2.29763">
        <ele>91.400001525879</ele>
        <time>2020-08-02T16:28:33.000Z</time>
      </trkpt>
      <trkpt lat="48.4839" lon="2.29746">
        <ele>93</ele>
        <time>2020-08-02T16:28:39.000Z</time>
      </trkpt>
      <trkpt lat="48.48412" lon="2.2974">
        <ele>96</ele>
        <time>2020-08-02T16:28:45.000Z</time>
      </trkpt>
      <trkpt lat="48.4843" lon="2.29737">
        <ele>97.800003051758</ele>
        <time>2020-08-02T16:28:50.000Z</time>
      </trkpt>
      <trkpt lat="48.48452" lon="2.29735">
        <ele>99.199996948242</ele>
        <time>2020-08-02T16:28:56.000Z</time>
      </trkpt>
      <trkpt lat="48.48475" lon="2.29738">
        <ele>100.59999847412</ele>
        <time>2020-08-02T16:29:02.000Z</time>
      </trkpt>
      <trkpt lat="48.48499" lon="2.29741">
        <ele>102</ele>
        <time>2020-08-02T16:29:08.000Z</time>
      </trkpt>
      <trkpt lat="48.48519" lon="2.29749">
        <ele>103.19999694824</ele>
        <time>2020-08-02T16:29:14.000Z</time>
      </trkpt>
      <trkpt lat="48.48536" lon="2.2976">
        <ele>104.59999847412</ele>
        <time>2020-08-02T16:29:20.000Z</time>
      </trkpt>
      <trkpt lat="48.48547" lon="2.29772">
        <ele>105.19999694824</ele>
        <time>2020-08-02T16:29:24.000Z</time>
      </trkpt>
      <trkpt lat="48.48554" lon="2.29776">
        <ele>105.80000305176</ele>
        <time>2020-08-02T16:29:29.000Z</time>
      </trkpt>
      <trkpt lat="48.48558" lon="2.29777">
        <ele>106.19999694824</ele>
        <time>2020-08-02T16:29:31.000Z</time>
      </trkpt>
      <trkpt lat="48.48562" lon="2.29781">
        <ele>106.40000152588</ele>
        <time>2020-08-02T16:29:34.000Z</time>
      </trkpt>
      <trkpt lat="48.48566" lon="2.2978">
        <ele>107</ele>
        <time>2020-08-02T16:29:37.000Z</time>
      </trkpt>
      <trkpt lat="48.48571" lon="2.29779">
        <ele>107.59999847412</ele>
        <time>2020-08-02T16:29:39.000Z</time>
      </trkpt>
      <trkpt lat="48.48584" lon="2.29775">
        <ele>109.40000152588</ele>
        <time>2020-08-02T16:29:43.000Z</time>
      </trkpt>
      <trkpt lat="48.48604" lon="2.29773">
        <ele>111.80000305176</ele>
        <time>2020-08-02T16:29:49.000Z</time>
      </trkpt>
      <trkpt lat="48.48617" lon="2.29758">
        <ele>113.80000305176</ele>
        <time>2020-08-02T16:29:54.000Z</time>
      </trkpt>
      <trkpt lat="48.4862" lon="2.29754">
        <ele>114.40000152588</ele>
        <time>2020-08-02T16:29:55.000Z</time>
      </trkpt>
      <trkpt lat="48.48622" lon="2.29745">
        <ele>114.80000305176</ele>
        <time>2020-08-02T16:29:57.000Z</time>
      </trkpt>
      <trkpt lat="48.48625" lon="2.29712">
        <ele>116</ele>
        <time>2020-08-02T16:30:03.000Z</time>
      </trkpt>
      <trkpt lat="48.48627" lon="2.29674">
        <ele>117.59999847412</ele>
        <time>2020-08-02T16:30:10.000Z</time>
      </trkpt>
      <trkpt lat="48.48628" lon="2.29637">
        <ele>120</ele>
        <time>2020-08-02T16:30:17.000Z</time>
      </trkpt>
      <trkpt lat="48.48631" lon="2.29607">
        <ele>122</ele>
        <time>2020-08-02T16:30:23.000Z</time>
      </trkpt>
      <trkpt lat="48.48632" lon="2.29575">
        <ele>122.40000152588</ele>
        <time>2020-08-02T16:30:29.000Z</time>
      </trkpt>
      <trkpt lat="48.48635" lon="2.29538">
        <ele>122.59999847412</ele>
        <time>2020-08-02T16:30:36.000Z</time>
      </trkpt>
      <trkpt lat="48.48641" lon="2.29509">
        <ele>123.59999847412</ele>
        <time>2020-08-02T16:30:42.000Z</time>
      </trkpt>
      <trkpt lat="48.48647" lon="2.2951">
        <ele>124.19999694824</ele>
        <time>2020-08-02T16:30:44.000Z</time>
      </trkpt>
      <trkpt lat="48.48649" lon="2.29512">
        <ele>124.40000152588</ele>
        <time>2020-08-02T16:30:45.000Z</time>
      </trkpt>
      <trkpt lat="48.48672" lon="2.29527">
        <ele>126.19999694824</ele>
        <time>2020-08-02T16:30:52.000Z</time>
      </trkpt>
      <trkpt lat="48.48688" lon="2.29535">
        <ele>127.40000152588</ele>
        <time>2020-08-02T16:30:57.000Z</time>
      </trkpt>
      <trkpt lat="48.48703" lon="2.29546">
        <ele>127.80000305176</ele>
        <time>2020-08-02T16:31:03.000Z</time>
      </trkpt>
      <trkpt lat="48.4872" lon="2.29558">
        <ele>128.19999694824</ele>
        <time>2020-08-02T16:31:08.000Z</time>
      </trkpt>
      <trkpt lat="48.48752" lon="2.29576">
        <ele>129.39999389648</ele>
        <time>2020-08-02T16:31:17.000Z</time>
      </trkpt>
      <trkpt lat="48.48777" lon="2.29583">
        <ele>130.80000305176</ele>
        <time>2020-08-02T16:31:24.000Z</time>
      </trkpt>
      <trkpt lat="48.48804" lon="2.29588">
        <ele>133</ele>
        <time>2020-08-02T16:31:31.000Z</time>
      </trkpt>
      <trkpt lat="48.48835" lon="2.29606">
        <ele>134.39999389648</ele>
        <time>2020-08-02T16:31:40.000Z</time>
      </trkpt>
      <trkpt lat="48.48862" lon="2.29623">
        <ele>135.60000610352</ele>
        <time>2020-08-02T16:31:48.000Z</time>
      </trkpt>
      <trkpt lat="48.48895" lon="2.29631">
        <ele>138.19999694824</ele>
        <time>2020-08-02T16:31:57.000Z</time>
      </trkpt>
      <trkpt lat="48.48929" lon="2.29646">
        <ele>139.80000305176</ele>
        <time>2020-08-02T16:32:05.000Z</time>
      </trkpt>
      <trkpt lat="48.48957" lon="2.29664">
        <ele>141.19999694824</ele>
        <time>2020-08-02T16:32:12.000Z</time>
      </trkpt>
      <trkpt lat="48.48977" lon="2.29674">
        <ele>142.19999694824</ele>
        <time>2020-08-02T16:32:17.000Z</time>
      </trkpt>
      <trkpt lat="48.48999" lon="2.29697">
        <ele>142</ele>
        <time>2020-08-02T16:32:23.000Z</time>
      </trkpt>
      <trkpt lat="48.49014" lon="2.29713">
        <ele>142</ele>
        <time>2020-08-02T16:32:27.000Z</time>
      </trkpt>
      <trkpt lat="48.49023" lon="2.2972">
        <ele>142.19999694824</ele>
        <time>2020-08-02T16:32:29.000Z</time>
      </trkpt>
      <trkpt lat="48.49053" lon="2.29747">
        <ele>142</ele>
        <time>2020-08-02T16:32:37.000Z</time>
      </trkpt>
      <trkpt lat="48.4907" lon="2.29758">
        <ele>143.39999389648</ele>
        <time>2020-08-02T16:32:41.000Z</time>
      </trkpt>
      <trkpt lat="48.49077" lon="2.29765">
        <ele>144</ele>
        <time>2020-08-02T16:32:43.000Z</time>
      </trkpt>
      <trkpt lat="48.49097" lon="2.29794">
        <ele>145.80000305176</ele>
        <time>2020-08-02T16:32:50.000Z</time>
      </trkpt>
      <trkpt lat="48.49108" lon="2.29813">
        <ele>146.60000610352</ele>
        <time>2020-08-02T16:32:55.000Z</time>
      </trkpt>
      <trkpt lat="48.49133" lon="2.29839">
        <ele>148.19999694824</ele>
        <time>2020-08-02T16:33:02.000Z</time>
      </trkpt>
      <trkpt lat="48.4916" lon="2.29866">
        <ele>150</ele>
        <time>2020-08-02T16:33:09.000Z</time>
      </trkpt>
      <trkpt lat="48.49185" lon="2.29891">
        <ele>151.19999694824</ele>
        <time>2020-08-02T16:33:16.000Z</time>
      </trkpt>
      <trkpt lat="48.49209" lon="2.29898">
        <ele>150.60000610352</ele>
        <time>2020-08-02T16:33:21.000Z</time>
      </trkpt>
      <trkpt lat="48.49246" lon="2.29912">
        <ele>149.39999389648</ele>
        <time>2020-08-02T16:33:30.000Z</time>
      </trkpt>
      <trkpt lat="48.49286" lon="2.29929">
        <ele>149.60000610352</ele>
        <time>2020-08-02T16:33:40.000Z</time>
      </trkpt>
      <trkpt lat="48.49319" lon="2.29943">
        <ele>149.80000305176</ele>
        <time>2020-08-02T16:33:48.000Z</time>
      </trkpt>
      <trkpt lat="48.49346" lon="2.29953">
        <ele>150</ele>
        <time>2020-08-02T16:33:55.000Z</time>
      </trkpt>
      <trkpt lat="48.49382" lon="2.29964">
        <ele>151.19999694824</ele>
        <time>2020-08-02T16:34:03.000Z</time>
      </trkpt>
      <trkpt lat="48.49433" lon="2.29977">
        <ele>152.60000610352</ele>
        <time>2020-08-02T16:34:12.000Z</time>
      </trkpt>
      <trkpt lat="48.49468" lon="2.29988">
        <ele>152.60000610352</ele>
        <time>2020-08-02T16:34:18.000Z</time>
      </trkpt>
      <trkpt lat="48.49508" lon="2.30002">
        <ele>152.19999694824</ele>
        <time>2020-08-02T16:34:25.000Z</time>
      </trkpt>
      <trkpt lat="48.49527" lon="2.30018">
        <ele>152.19999694824</ele>
        <time>2020-08-02T16:34:29.000Z</time>
      </trkpt>
      <trkpt lat="48.49531" lon="2.30021">
        <ele>152.19999694824</ele>
        <time>2020-08-02T16:34:30.000Z</time>
      </trkpt>
      <trkpt lat="48.49535" lon="2.30024">
        <ele>152</ele>
        <time>2020-08-02T16:34:31.000Z</time>
      </trkpt>
      <trkpt lat="48.49554" lon="2.30042">
        <ele>152</ele>
        <time>2020-08-02T16:34:35.000Z</time>
      </trkpt>
      <trkpt lat="48.49579" lon="2.3007">
        <ele>152.19999694824</ele>
        <time>2020-08-02T16:34:40.000Z</time>
      </trkpt>
      <trkpt lat="48.49599" lon="2.30107">
        <ele>152.39999389648</ele>
        <time>2020-08-02T16:34:46.000Z</time>
      </trkpt>
      <trkpt lat="48.49609" lon="2.30127">
        <ele>152.60000610352</ele>
        <time>2020-08-02T16:34:49.000Z</time>
      </trkpt>
      <trkpt lat="48.49611" lon="2.30133">
        <ele>152.60000610352</ele>
        <time>2020-08-02T16:34:50.000Z</time>
      </trkpt>
      <trkpt lat="48.49614" lon="2.3014">
        <ele>152.80000305176</ele>
        <time>2020-08-02T16:34:51.000Z</time>
      </trkpt>
      <trkpt lat="48.49633" lon="2.3018">
        <ele>152.60000610352</ele>
        <time>2020-08-02T16:34:57.000Z</time>
      </trkpt>
      <trkpt lat="48.49666" lon="2.30226">
        <ele>151.39999389648</ele>
        <time>2020-08-02T16:35:04.000Z</time>
      </trkpt>
      <trkpt lat="48.49683" lon="2.30249">
        <ele>150.80000305176</ele>
        <time>2020-08-02T16:35:08.000Z</time>
      </trkpt>
      <trkpt lat="48.49687" lon="2.30254">
        <ele>150.60000610352</ele>
        <time>2020-08-02T16:35:09.000Z</time>
      </trkpt>
      <trkpt lat="48.49692" lon="2.30255">
        <ele>150.39999389648</ele>
        <time>2020-08-02T16:35:10.000Z</time>
      </trkpt>
      <trkpt lat="48.49699" lon="2.30252">
        <ele>149.80000305176</ele>
        <time>2020-08-02T16:35:12.000Z</time>
      </trkpt>
      <trkpt lat="48.49703" lon="2.30249">
        <ele>149.60000610352</ele>
        <time>2020-08-02T16:35:13.000Z</time>
      </trkpt>
      <trkpt lat="48.49711" lon="2.30239">
        <ele>149.19999694824</ele>
        <time>2020-08-02T16:35:15.000Z</time>
      </trkpt>
      <trkpt lat="48.49716" lon="2.30234">
        <ele>149</ele>
        <time>2020-08-02T16:35:16.000Z</time>
      </trkpt>
      <trkpt lat="48.4975" lon="2.30194">
        <ele>148.39999389648</ele>
        <time>2020-08-02T16:35:23.000Z</time>
      </trkpt>
      <trkpt lat="48.49771" lon="2.30148">
        <ele>148.80000305176</ele>
        <time>2020-08-02T16:35:29.000Z</time>
      </trkpt>
      <trkpt lat="48.49789" lon="2.30075">
        <ele>147.60000610352</ele>
        <time>2020-08-02T16:35:37.000Z</time>
      </trkpt>
      <trkpt lat="48.49801" lon="2.30026">
        <ele>146</ele>
        <time>2020-08-02T16:35:43.000Z</time>
      </trkpt>
      <trkpt lat="48.49802" lon="2.30019">
        <ele>146.19999694824</ele>
        <time>2020-08-02T16:35:44.000Z</time>
      </trkpt>
      <trkpt lat="48.4981" lon="2.29991">
        <ele>146.80000305176</ele>
        <time>2020-08-02T16:35:48.000Z</time>
      </trkpt>
      <trkpt lat="48.4982" lon="2.2995">
        <ele>146</ele>
        <time>2020-08-02T16:35:54.000Z</time>
      </trkpt>
      <trkpt lat="48.49823" lon="2.29935">
        <ele>146</ele>
        <time>2020-08-02T16:35:56.000Z</time>
      </trkpt>
      <trkpt lat="48.49826" lon="2.29919">
        <ele>145.80000305176</ele>
        <time>2020-08-02T16:35:58.000Z</time>
      </trkpt>
      <trkpt lat="48.49841" lon="2.29868">
        <ele>144.19999694824</ele>
        <time>2020-08-02T16:36:04.000Z</time>
      </trkpt>
      <trkpt lat="48.49849" lon="2.29843">
        <ele>143.39999389648</ele>
        <time>2020-08-02T16:36:07.000Z</time>
      </trkpt>
      <trkpt lat="48.49853" lon="2.29826">
        <ele>142.60000610352</ele>
        <time>2020-08-02T16:36:09.000Z</time>
      </trkpt>
      <trkpt lat="48.49855" lon="2.29818">
        <ele>141.80000305176</ele>
        <time>2020-08-02T16:36:10.000Z</time>
      </trkpt>
      <trkpt lat="48.4986" lon="2.29777">
        <ele>138.60000610352</ele>
        <time>2020-08-02T16:36:15.000Z</time>
      </trkpt>
      <trkpt lat="48.49862" lon="2.29768">
        <ele>138</ele>
        <time>2020-08-02T16:36:16.000Z</time>
      </trkpt>
      <trkpt lat="48.49871" lon="2.29728">
        <ele>136</ele>
        <time>2020-08-02T16:36:20.000Z</time>
      </trkpt>
      <trkpt lat="48.4988" lon="2.29673">
        <ele>134.80000305176</ele>
        <time>2020-08-02T16:36:26.000Z</time>
      </trkpt>
      <trkpt lat="48.49882" lon="2.29654">
        <ele>134.39999389648</ele>
        <time>2020-08-02T16:36:28.000Z</time>
      </trkpt>
      <trkpt lat="48.49886" lon="2.29636">
        <ele>134</ele>
        <time>2020-08-02T16:36:30.000Z</time>
      </trkpt>
      <trkpt lat="48.49892" lon="2.29595">
        <ele>133.19999694824</ele>
        <time>2020-08-02T16:36:35.000Z</time>
      </trkpt>
      <trkpt lat="48.49891" lon="2.2954">
        <ele>130.60000610352</ele>
        <time>2020-08-02T16:36:41.000Z</time>
      </trkpt>
      <trkpt lat="48.49889" lon="2.29511">
        <ele>130</ele>
        <time>2020-08-02T16:36:45.000Z</time>
      </trkpt>
      <trkpt lat="48.49888" lon="2.29505">
        <ele>130</ele>
        <time>2020-08-02T16:36:46.000Z</time>
      </trkpt>
      <trkpt lat="48.49881" lon="2.29476">
        <ele>130.39999389648</ele>
        <time>2020-08-02T16:36:51.000Z</time>
      </trkpt>
      <trkpt lat="48.49879" lon="2.29469">
        <ele>130.60000610352</ele>
        <time>2020-08-02T16:36:52.000Z</time>
      </trkpt>
      <trkpt lat="48.49878" lon="2.29463">
        <ele>131</ele>
        <time>2020-08-02T16:36:53.000Z</time>
      </trkpt>
      <trkpt lat="48.49878" lon="2.2944">
        <ele>132</ele>
        <time>2020-08-02T16:36:56.000Z</time>
      </trkpt>
      <trkpt lat="48.49878" lon="2.29431">
        <ele>132</ele>
        <time>2020-08-02T16:36:57.000Z</time>
      </trkpt>
      <trkpt lat="48.49878" lon="2.29415">
        <ele>132</ele>
        <time>2020-08-02T16:36:59.000Z</time>
      </trkpt>
      <trkpt lat="48.49879" lon="2.29407">
        <ele>132</ele>
        <time>2020-08-02T16:37:00.000Z</time>
      </trkpt>
      <trkpt lat="48.49881" lon="2.2939">
        <ele>131.80000305176</ele>
        <time>2020-08-02T16:37:02.000Z</time>
      </trkpt>
      <trkpt lat="48.49886" lon="2.29373">
        <ele>131.60000610352</ele>
        <time>2020-08-02T16:37:04.000Z</time>
      </trkpt>
      <trkpt lat="48.4989" lon="2.29354">
        <ele>131</ele>
        <time>2020-08-02T16:37:06.000Z</time>
      </trkpt>
      <trkpt lat="48.49893" lon="2.29335">
        <ele>130.19999694824</ele>
        <time>2020-08-02T16:37:08.000Z</time>
      </trkpt>
      <trkpt lat="48.49902" lon="2.29308">
        <ele>128.80000305176</ele>
        <time>2020-08-02T16:37:11.000Z</time>
      </trkpt>
      <trkpt lat="48.49904" lon="2.29299">
        <ele>128.19999694824</ele>
        <time>2020-08-02T16:37:12.000Z</time>
      </trkpt>
      <trkpt lat="48.49904" lon="2.29289">
        <ele>127.59999847412</ele>
        <time>2020-08-02T16:37:13.000Z</time>
      </trkpt>
      <trkpt lat="48.49902" lon="2.2927">
        <ele>126.59999847412</ele>
        <time>2020-08-02T16:37:15.000Z</time>
      </trkpt>
      <trkpt lat="48.499" lon="2.2926">
        <ele>126</ele>
        <time>2020-08-02T16:37:16.000Z</time>
      </trkpt>
      <trkpt lat="48.499" lon="2.29229">
        <ele>124.80000305176</ele>
        <time>2020-08-02T16:37:19.000Z</time>
      </trkpt>
      <trkpt lat="48.49906" lon="2.2914">
        <ele>120</ele>
        <time>2020-08-02T16:37:27.000Z</time>
      </trkpt>
      <trkpt lat="48.49907" lon="2.29129">
        <ele>119.59999847412</ele>
        <time>2020-08-02T16:37:28.000Z</time>
      </trkpt>
      <trkpt lat="48.49916" lon="2.29087">
        <ele>117.19999694824</ele>
        <time>2020-08-02T16:37:32.000Z</time>
      </trkpt>
      <trkpt lat="48.49928" lon="2.29031">
        <ele>114.40000152588</ele>
        <time>2020-08-02T16:37:38.000Z</time>
      </trkpt>
      <trkpt lat="48.49937" lon="2.28977">
        <ele>113.80000305176</ele>
        <time>2020-08-02T16:37:44.000Z</time>
      </trkpt>
      <trkpt lat="48.4994" lon="2.28922">
        <ele>115.19999694824</ele>
        <time>2020-08-02T16:37:50.000Z</time>
      </trkpt>
      <trkpt lat="48.49946" lon="2.28864">
        <ele>115</ele>
        <time>2020-08-02T16:37:56.000Z</time>
      </trkpt>
      <trkpt lat="48.49948" lon="2.28855">
        <ele>115</ele>
        <time>2020-08-02T16:37:57.000Z</time>
      </trkpt>
      <trkpt lat="48.49954" lon="2.28836">
        <ele>114.19999694824</ele>
        <time>2020-08-02T16:37:59.000Z</time>
      </trkpt>
      <trkpt lat="48.49958" lon="2.28827">
        <ele>113.80000305176</ele>
        <time>2020-08-02T16:38:00.000Z</time>
      </trkpt>
      <trkpt lat="48.49991" lon="2.28763">
        <ele>111.19999694824</ele>
        <time>2020-08-02T16:38:08.000Z</time>
      </trkpt>
      <trkpt lat="48.50005" lon="2.2874">
        <ele>109.40000152588</ele>
        <time>2020-08-02T16:38:11.000Z</time>
      </trkpt>
      <trkpt lat="48.50016" lon="2.28716">
        <ele>108.40000152588</ele>
        <time>2020-08-02T16:38:14.000Z</time>
      </trkpt>
      <trkpt lat="48.50034" lon="2.28663">
        <ele>110.59999847412</ele>
        <time>2020-08-02T16:38:20.000Z</time>
      </trkpt>
      <trkpt lat="48.5005" lon="2.28599">
        <ele>111</ele>
        <time>2020-08-02T16:38:27.000Z</time>
      </trkpt>
      <trkpt lat="48.50062" lon="2.28537">
        <ele>108</ele>
        <time>2020-08-02T16:38:34.000Z</time>
      </trkpt>
      <trkpt lat="48.5007" lon="2.28514">
        <ele>106.40000152588</ele>
        <time>2020-08-02T16:38:37.000Z</time>
      </trkpt>
      <trkpt lat="48.50076" lon="2.28499">
        <ele>105.40000152588</ele>
        <time>2020-08-02T16:38:39.000Z</time>
      </trkpt>
      <trkpt lat="48.50079" lon="2.28493">
        <ele>105.19999694824</ele>
        <time>2020-08-02T16:38:40.000Z</time>
      </trkpt>
      <trkpt lat="48.50099" lon="2.28436">
        <ele>102.19999694824</ele>
        <time>2020-08-02T16:38:47.000Z</time>
      </trkpt>
      <trkpt lat="48.50108" lon="2.28381">
        <ele>101</ele>
        <time>2020-08-02T16:38:53.000Z</time>
      </trkpt>
      <trkpt lat="48.5011" lon="2.28333">
        <ele>98.599998474121</ele>
        <time>2020-08-02T16:38:58.000Z</time>
      </trkpt>
      <trkpt lat="48.5011" lon="2.28278">
        <ele>97.199996948242</ele>
        <time>2020-08-02T16:39:04.000Z</time>
      </trkpt>
      <trkpt lat="48.50117" lon="2.28225">
        <ele>94.599998474121</ele>
        <time>2020-08-02T16:39:10.000Z</time>
      </trkpt>
      <trkpt lat="48.50121" lon="2.28208">
        <ele>94.199996948242</ele>
        <time>2020-08-02T16:39:12.000Z</time>
      </trkpt>
      <trkpt lat="48.50133" lon="2.28167">
        <ele>91.599998474121</ele>
        <time>2020-08-02T16:39:17.000Z</time>
      </trkpt>
      <trkpt lat="48.5015" lon="2.28112">
        <ele>89</ele>
        <time>2020-08-02T16:39:24.000Z</time>
      </trkpt>
      <trkpt lat="48.50156" lon="2.28089">
        <ele>88</ele>
        <time>2020-08-02T16:39:28.000Z</time>
      </trkpt>
      <trkpt lat="48.50157" lon="2.28071">
        <ele>87.400001525879</ele>
        <time>2020-08-02T16:39:33.000Z</time>
      </trkpt>
      <trkpt lat="48.50161" lon="2.28045">
        <ele>87.199996948242</ele>
        <time>2020-08-02T16:39:39.000Z</time>
      </trkpt>
      <trkpt lat="48.5017" lon="2.27997">
        <ele>87.800003051758</ele>
        <time>2020-08-02T16:39:46.000Z</time>
      </trkpt>
      <trkpt lat="48.50177" lon="2.27946">
        <ele>88.599998474121</ele>
        <time>2020-08-02T16:39:53.000Z</time>
      </trkpt>
      <trkpt lat="48.50183" lon="2.27897">
        <ele>89</ele>
        <time>2020-08-02T16:40:00.000Z</time>
      </trkpt>
      <trkpt lat="48.50185" lon="2.2789">
        <ele>89.199996948242</ele>
        <time>2020-08-02T16:40:01.000Z</time>
      </trkpt>
      <trkpt lat="48.50194" lon="2.27843">
        <ele>91.199996948242</ele>
        <time>2020-08-02T16:40:08.000Z</time>
      </trkpt>
      <trkpt lat="48.50195" lon="2.27837">
        <ele>91.400001525879</ele>
        <time>2020-08-02T16:40:09.000Z</time>
      </trkpt>
      <trkpt lat="48.50205" lon="2.27772">
        <ele>93.400001525879</ele>
        <time>2020-08-02T16:40:18.000Z</time>
      </trkpt>
      <trkpt lat="48.5021" lon="2.27744">
        <ele>94.199996948242</ele>
        <time>2020-08-02T16:40:22.000Z</time>
      </trkpt>
      <trkpt lat="48.50213" lon="2.27718">
        <ele>96</ele>
        <time>2020-08-02T16:40:26.000Z</time>
      </trkpt>
      <trkpt lat="48.50213" lon="2.27691">
        <ele>97.400001525879</ele>
        <time>2020-08-02T16:40:31.000Z</time>
      </trkpt>
      <trkpt lat="48.50207" lon="2.27649">
        <ele>98</ele>
        <time>2020-08-02T16:40:38.000Z</time>
      </trkpt>
      <trkpt lat="48.50203" lon="2.27611">
        <ele>98.199996948242</ele>
        <time>2020-08-02T16:40:45.000Z</time>
      </trkpt>
      <trkpt lat="48.50213" lon="2.27587">
        <ele>100.40000152588</ele>
        <time>2020-08-02T16:40:50.000Z</time>
      </trkpt>
      <trkpt lat="48.50229" lon="2.27555">
        <ele>103.80000305176</ele>
        <time>2020-08-02T16:40:57.000Z</time>
      </trkpt>
      <trkpt lat="48.50242" lon="2.27513">
        <ele>102.19999694824</ele>
        <time>2020-08-02T16:41:04.000Z</time>
      </trkpt>
      <trkpt lat="48.50245" lon="2.275">
        <ele>101</ele>
        <time>2020-08-02T16:41:06.000Z</time>
      </trkpt>
      <trkpt lat="48.50249" lon="2.27474">
        <ele>101.59999847412</ele>
        <time>2020-08-02T16:41:10.000Z</time>
      </trkpt>
      <trkpt lat="48.50251" lon="2.27467">
        <ele>101.40000152588</ele>
        <time>2020-08-02T16:41:11.000Z</time>
      </trkpt>
      <trkpt lat="48.50265" lon="2.27443">
        <ele>101.40000152588</ele>
        <time>2020-08-02T16:41:16.000Z</time>
      </trkpt>
      <trkpt lat="48.50279" lon="2.27421">
        <ele>103.19999694824</ele>
        <time>2020-08-02T16:41:22.000Z</time>
      </trkpt>
      <trkpt lat="48.50285" lon="2.27401">
        <ele>104.19999694824</ele>
        <time>2020-08-02T16:41:28.000Z</time>
      </trkpt>
      <trkpt lat="48.50292" lon="2.27385">
        <ele>106</ele>
        <time>2020-08-02T16:41:33.000Z</time>
      </trkpt>
      <trkpt lat="48.503" lon="2.27362">
        <ele>108.40000152588</ele>
        <time>2020-08-02T16:41:41.000Z</time>
      </trkpt>
      <trkpt lat="48.50306" lon="2.27351">
        <ele>109.80000305176</ele>
        <time>2020-08-02T16:41:46.000Z</time>
      </trkpt>
      <trkpt lat="48.50314" lon="2.27336">
        <ele>112</ele>
        <time>2020-08-02T16:41:52.000Z</time>
      </trkpt>
      <trkpt lat="48.50325" lon="2.2732">
        <ele>114.59999847412</ele>
        <time>2020-08-02T16:41:58.000Z</time>
      </trkpt>
      <trkpt lat="48.50336" lon="2.27299">
        <ele>117.19999694824</ele>
        <time>2020-08-02T16:42:06.000Z</time>
      </trkpt>
      <trkpt lat="48.5034" lon="2.27276">
        <ele>119</ele>
        <time>2020-08-02T16:42:14.000Z</time>
      </trkpt>
      <trkpt lat="48.50343" lon="2.27258">
        <ele>120.40000152588</ele>
        <time>2020-08-02T16:42:20.000Z</time>
      </trkpt>
      <trkpt lat="48.50344" lon="2.27255">
        <ele>120.59999847412</ele>
        <time>2020-08-02T16:42:21.000Z</time>
      </trkpt>
      <trkpt lat="48.50348" lon="2.27231">
        <ele>121.59999847412</ele>
        <time>2020-08-02T16:42:28.000Z</time>
      </trkpt>
      <trkpt lat="48.50358" lon="2.27209">
        <ele>122.40000152588</ele>
        <time>2020-08-02T16:42:34.000Z</time>
      </trkpt>
      <trkpt lat="48.50368" lon="2.2719">
        <ele>123.40000152588</ele>
        <time>2020-08-02T16:42:40.000Z</time>
      </trkpt>
      <trkpt lat="48.50371" lon="2.27184">
        <ele>123.80000305176</ele>
        <time>2020-08-02T16:42:42.000Z</time>
      </trkpt>
      <trkpt lat="48.50375" lon="2.27181">
        <ele>124.19999694824</ele>
        <time>2020-08-02T16:42:44.000Z</time>
      </trkpt>
      <trkpt lat="48.50379" lon="2.2718">
        <ele>124.80000305176</ele>
        <time>2020-08-02T16:42:46.000Z</time>
      </trkpt>
      <trkpt lat="48.50387" lon="2.27181">
        <ele>125.80000305176</ele>
        <time>2020-08-02T16:42:49.000Z</time>
      </trkpt>
      <trkpt lat="48.50401" lon="2.27195">
        <ele>127.80000305176</ele>
        <time>2020-08-02T16:42:55.000Z</time>
      </trkpt>
      <trkpt lat="48.50409" lon="2.27215">
        <ele>128.80000305176</ele>
        <time>2020-08-02T16:43:00.000Z</time>
      </trkpt>
      <trkpt lat="48.5042" lon="2.27235">
        <ele>130.19999694824</ele>
        <time>2020-08-02T16:43:04.000Z</time>
      </trkpt>
      <trkpt lat="48.5043" lon="2.27265">
        <ele>130.39999389648</ele>
        <time>2020-08-02T16:43:09.000Z</time>
      </trkpt>
      <trkpt lat="48.50441" lon="2.27299">
        <ele>129.60000610352</ele>
        <time>2020-08-02T16:43:15.000Z</time>
      </trkpt>
      <trkpt lat="48.50447" lon="2.27332">
        <ele>128.19999694824</ele>
        <time>2020-08-02T16:43:21.000Z</time>
      </trkpt>
      <trkpt lat="48.50453" lon="2.2736">
        <ele>129.19999694824</ele>
        <time>2020-08-02T16:43:26.000Z</time>
      </trkpt>
      <trkpt lat="48.50457" lon="2.27385">
        <ele>130</ele>
        <time>2020-08-02T16:43:31.000Z</time>
      </trkpt>
      <trkpt lat="48.50456" lon="2.27415">
        <ele>130.60000610352</ele>
        <time>2020-08-02T16:43:36.000Z</time>
      </trkpt>
      <trkpt lat="48.5045" lon="2.27445">
        <ele>129.80000305176</ele>
        <time>2020-08-02T16:43:41.000Z</time>
      </trkpt>
      <trkpt lat="48.50448" lon="2.2747">
        <ele>129.80000305176</ele>
        <time>2020-08-02T16:43:46.000Z</time>
      </trkpt>
      <trkpt lat="48.50446" lon="2.27503">
        <ele>129.60000610352</ele>
        <time>2020-08-02T16:43:51.000Z</time>
      </trkpt>
      <trkpt lat="48.50445" lon="2.27532">
        <ele>129.80000305176</ele>
        <time>2020-08-02T16:43:55.000Z</time>
      </trkpt>
      <trkpt lat="48.50445" lon="2.27554">
        <ele>130</ele>
        <time>2020-08-02T16:43:58.000Z</time>
      </trkpt>
      <trkpt lat="48.50445" lon="2.27584">
        <ele>130.19999694824</ele>
        <time>2020-08-02T16:44:03.000Z</time>
      </trkpt>
      <trkpt lat="48.50451" lon="2.27613">
        <ele>130.19999694824</ele>
        <time>2020-08-02T16:44:09.000Z</time>
      </trkpt>
      <trkpt lat="48.50459" lon="2.2765">
        <ele>130.60000610352</ele>
        <time>2020-08-02T16:44:15.000Z</time>
      </trkpt>
      <trkpt lat="48.50466" lon="2.27691">
        <ele>131</ele>
        <time>2020-08-02T16:44:21.000Z</time>
      </trkpt>
      <trkpt lat="48.50478" lon="2.27735">
        <ele>131</ele>
        <time>2020-08-02T16:44:28.000Z</time>
      </trkpt>
      <trkpt lat="48.50485" lon="2.27751">
        <ele>131</ele>
        <time>2020-08-02T16:44:31.000Z</time>
      </trkpt>
      <trkpt lat="48.50491" lon="2.27754">
        <ele>131</ele>
        <time>2020-08-02T16:44:33.000Z</time>
      </trkpt>
      <trkpt lat="48.50497" lon="2.27742">
        <ele>131</ele>
        <time>2020-08-02T16:44:36.000Z</time>
      </trkpt>
      <trkpt lat="48.50506" lon="2.27723">
        <ele>130.80000305176</ele>
        <time>2020-08-02T16:44:40.000Z</time>
      </trkpt>
      <trkpt lat="48.5052" lon="2.27703">
        <ele>130.60000610352</ele>
        <time>2020-08-02T16:44:45.000Z</time>
      </trkpt>
      <trkpt lat="48.50531" lon="2.27705">
        <ele>131</ele>
        <time>2020-08-02T16:44:48.000Z</time>
      </trkpt>
      <trkpt lat="48.50537" lon="2.27708">
        <ele>131.19999694824</ele>
        <time>2020-08-02T16:44:50.000Z</time>
      </trkpt>
      <trkpt lat="48.50543" lon="2.27707">
        <ele>131.39999389648</ele>
        <time>2020-08-02T16:44:52.000Z</time>
      </trkpt>
      <trkpt lat="48.50558" lon="2.27697">
        <ele>132</ele>
        <time>2020-08-02T16:44:57.000Z</time>
      </trkpt>
      <trkpt lat="48.50581" lon="2.27678">
        <ele>133.60000610352</ele>
        <time>2020-08-02T16:45:03.000Z</time>
      </trkpt>
      <trkpt lat="48.50598" lon="2.27661">
        <ele>135</ele>
        <time>2020-08-02T16:45:08.000Z</time>
      </trkpt>
      <trkpt lat="48.50606" lon="2.27652">
        <ele>134.80000305176</ele>
        <time>2020-08-02T16:45:12.000Z</time>
      </trkpt>
      <trkpt lat="48.50609" lon="2.27651">
        <ele>134.80000305176</ele>
        <time>2020-08-02T16:45:13.000Z</time>
      </trkpt>
      <trkpt lat="48.50627" lon="2.27653">
        <ele>134.60000610352</ele>
        <time>2020-08-02T16:45:18.000Z</time>
      </trkpt>
      <trkpt lat="48.50657" lon="2.27653">
        <ele>134.19999694824</ele>
        <time>2020-08-02T16:45:25.000Z</time>
      </trkpt>
      <trkpt lat="48.50703" lon="2.27651">
        <ele>133.60000610352</ele>
        <time>2020-08-02T16:45:36.000Z</time>
      </trkpt>
      <trkpt lat="48.50739" lon="2.27651">
        <ele>133.19999694824</ele>
        <time>2020-08-02T16:45:44.000Z</time>
      </trkpt>
      <trkpt lat="48.50781" lon="2.27648">
        <ele>133.39999389648</ele>
        <time>2020-08-02T16:45:53.000Z</time>
      </trkpt>
      <trkpt lat="48.5082" lon="2.27647">
        <ele>133.80000305176</ele>
        <time>2020-08-02T16:46:01.000Z</time>
      </trkpt>
      <trkpt lat="48.50859" lon="2.27644">
        <ele>134.80000305176</ele>
        <time>2020-08-02T16:46:09.000Z</time>
      </trkpt>
      <trkpt lat="48.50871" lon="2.27642">
        <ele>135.80000305176</ele>
        <time>2020-08-02T16:46:13.000Z</time>
      </trkpt>
      <trkpt lat="48.50883" lon="2.27641">
        <ele>136.60000610352</ele>
        <time>2020-08-02T16:46:18.000Z</time>
      </trkpt>
      <trkpt lat="48.50894" lon="2.27631">
        <ele>137.60000610352</ele>
        <time>2020-08-02T16:46:21.000Z</time>
      </trkpt>
      <trkpt lat="48.50901" lon="2.27623">
        <ele>138</ele>
        <time>2020-08-02T16:46:23.000Z</time>
      </trkpt>
      <trkpt lat="48.50916" lon="2.27604">
        <ele>139</ele>
        <time>2020-08-02T16:46:28.000Z</time>
      </trkpt>
      <trkpt lat="48.50929" lon="2.27587">
        <ele>139.80000305176</ele>
        <time>2020-08-02T16:46:32.000Z</time>
      </trkpt>
      <trkpt lat="48.50936" lon="2.27578">
        <ele>139.80000305176</ele>
        <time>2020-08-02T16:46:34.000Z</time>
      </trkpt>
      <trkpt lat="48.50944" lon="2.27566">
        <ele>139.39999389648</ele>
        <time>2020-08-02T16:46:36.000Z</time>
      </trkpt>
      <trkpt lat="48.50947" lon="2.27553">
        <ele>138.80000305176</ele>
        <time>2020-08-02T16:46:38.000Z</time>
      </trkpt>
      <trkpt lat="48.50946" lon="2.27511">
        <ele>138</ele>
        <time>2020-08-02T16:46:43.000Z</time>
      </trkpt>
      <trkpt lat="48.50945" lon="2.27503">
        <ele>137.60000610352</ele>
        <time>2020-08-02T16:46:44.000Z</time>
      </trkpt>
      <trkpt lat="48.50946" lon="2.27486">
        <ele>137.19999694824</ele>
        <time>2020-08-02T16:46:46.000Z</time>
      </trkpt>
      <trkpt lat="48.50947" lon="2.27477">
        <ele>137</ele>
        <time>2020-08-02T16:46:47.000Z</time>
      </trkpt>
      <trkpt lat="48.50955" lon="2.27435">
        <ele>135.60000610352</ele>
        <time>2020-08-02T16:46:52.000Z</time>
      </trkpt>
      <trkpt lat="48.50955" lon="2.27418">
        <ele>135.39999389648</ele>
        <time>2020-08-02T16:46:54.000Z</time>
      </trkpt>
      <trkpt lat="48.50953" lon="2.27401">
        <ele>135.39999389648</ele>
        <time>2020-08-02T16:46:56.000Z</time>
      </trkpt>
      <trkpt lat="48.50948" lon="2.27386">
        <ele>135.39999389648</ele>
        <time>2020-08-02T16:46:58.000Z</time>
      </trkpt>
      <trkpt lat="48.50939" lon="2.27364">
        <ele>135.19999694824</ele>
        <time>2020-08-02T16:47:01.000Z</time>
      </trkpt>
      <trkpt lat="48.50937" lon="2.27357">
        <ele>135.19999694824</ele>
        <time>2020-08-02T16:47:02.000Z</time>
      </trkpt>
      <trkpt lat="48.50932" lon="2.27341">
        <ele>135</ele>
        <time>2020-08-02T16:47:04.000Z</time>
      </trkpt>
      <trkpt lat="48.50925" lon="2.27326">
        <ele>134.80000305176</ele>
        <time>2020-08-02T16:47:06.000Z</time>
      </trkpt>
      <trkpt lat="48.50906" lon="2.2728">
        <ele>134</ele>
        <time>2020-08-02T16:47:12.000Z</time>
      </trkpt>
      <trkpt lat="48.50897" lon="2.27267">
        <ele>133.80000305176</ele>
        <time>2020-08-02T16:47:14.000Z</time>
      </trkpt>
      <trkpt lat="48.50886" lon="2.27257">
        <ele>133.60000610352</ele>
        <time>2020-08-02T16:47:16.000Z</time>
      </trkpt>
      <trkpt lat="48.50881" lon="2.27252">
        <ele>133.39999389648</ele>
        <time>2020-08-02T16:47:17.000Z</time>
      </trkpt>
      <trkpt lat="48.50855" lon="2.27229">
        <ele>133.19999694824</ele>
        <time>2020-08-02T16:47:22.000Z</time>
      </trkpt>
      <trkpt lat="48.50821" lon="2.27197">
        <ele>133.19999694824</ele>
        <time>2020-08-02T16:47:29.000Z</time>
      </trkpt>
      <trkpt lat="48.50817" lon="2.27192">
        <ele>133.19999694824</ele>
        <time>2020-08-02T16:47:30.000Z</time>
      </trkpt>
      <trkpt lat="48.50812" lon="2.27187">
        <ele>133.19999694824</ele>
        <time>2020-08-02T16:47:31.000Z</time>
      </trkpt>
      <trkpt lat="48.50798" lon="2.27174">
        <ele>133.19999694824</ele>
        <time>2020-08-02T16:47:34.000Z</time>
      </trkpt>
      <trkpt lat="48.50793" lon="2.2717">
        <ele>133.19999694824</ele>
        <time>2020-08-02T16:47:35.000Z</time>
      </trkpt>
      <trkpt lat="48.50788" lon="2.27166">
        <ele>133.19999694824</ele>
        <time>2020-08-02T16:47:36.000Z</time>
      </trkpt>
      <trkpt lat="48.50774" lon="2.2715">
        <ele>133</ele>
        <time>2020-08-02T16:47:39.000Z</time>
      </trkpt>
      <trkpt lat="48.50766" lon="2.27127">
        <ele>133</ele>
        <time>2020-08-02T16:47:43.000Z</time>
      </trkpt>
      <trkpt lat="48.50763" lon="2.27102">
        <ele>133</ele>
        <time>2020-08-02T16:47:47.000Z</time>
      </trkpt>
      <trkpt lat="48.50757" lon="2.27059">
        <ele>133.39999389648</ele>
        <time>2020-08-02T16:47:54.000Z</time>
      </trkpt>
      <trkpt lat="48.5075" lon="2.27016">
        <ele>134</ele>
        <time>2020-08-02T16:48:00.000Z</time>
      </trkpt>
      <trkpt lat="48.50744" lon="2.26996">
        <ele>134.19999694824</ele>
        <time>2020-08-02T16:48:05.000Z</time>
      </trkpt>
      <trkpt lat="48.50743" lon="2.2698">
        <ele>133.80000305176</ele>
        <time>2020-08-02T16:48:08.000Z</time>
      </trkpt>
      <trkpt lat="48.50744" lon="2.26974">
        <ele>133.80000305176</ele>
        <time>2020-08-02T16:48:09.000Z</time>
      </trkpt>
      <trkpt lat="48.50747" lon="2.26969">
        <ele>133.60000610352</ele>
        <time>2020-08-02T16:48:10.000Z</time>
      </trkpt>
      <trkpt lat="48.50758" lon="2.26945">
        <ele>132.80000305176</ele>
        <time>2020-08-02T16:48:14.000Z</time>
      </trkpt>
      <trkpt lat="48.50773" lon="2.26914">
        <ele>131.80000305176</ele>
        <time>2020-08-02T16:48:19.000Z</time>
      </trkpt>
      <trkpt lat="48.50781" lon="2.26897">
        <ele>131.80000305176</ele>
        <time>2020-08-02T16:48:23.000Z</time>
      </trkpt>
      <trkpt lat="48.50787" lon="2.26881">
        <ele>131.80000305176</ele>
        <time>2020-08-02T16:48:28.000Z</time>
      </trkpt>
      <trkpt lat="48.50795" lon="2.26863">
        <ele>131.60000610352</ele>
        <time>2020-08-02T16:48:32.000Z</time>
      </trkpt>
      <trkpt lat="48.50808" lon="2.26854">
        <ele>131.60000610352</ele>
        <time>2020-08-02T16:48:35.000Z</time>
      </trkpt>
      <trkpt lat="48.50818" lon="2.26847">
        <ele>131.39999389648</ele>
        <time>2020-08-02T16:48:37.000Z</time>
      </trkpt>
      <trkpt lat="48.50853" lon="2.26823">
        <ele>131</ele>
        <time>2020-08-02T16:48:44.000Z</time>
      </trkpt>
      <trkpt lat="48.50888" lon="2.26798">
        <ele>131.39999389648</ele>
        <time>2020-08-02T16:48:51.000Z</time>
      </trkpt>
      <trkpt lat="48.50896" lon="2.26787">
        <ele>131.39999389648</ele>
        <time>2020-08-02T16:48:53.000Z</time>
      </trkpt>
      <trkpt lat="48.50904" lon="2.26777">
        <ele>131</ele>
        <time>2020-08-02T16:48:55.000Z</time>
      </trkpt>
      <trkpt lat="48.50917" lon="2.26761">
        <ele>130.60000610352</ele>
        <time>2020-08-02T16:48:58.000Z</time>
      </trkpt>
      <trkpt lat="48.50928" lon="2.26754">
        <ele>130.19999694824</ele>
        <time>2020-08-02T16:49:00.000Z</time>
      </trkpt>
      <trkpt lat="48.5094" lon="2.26746">
        <ele>129.80000305176</ele>
        <time>2020-08-02T16:49:02.000Z</time>
      </trkpt>
      <trkpt lat="48.50955" lon="2.26731">
        <ele>129.80000305176</ele>
        <time>2020-08-02T16:49:05.000Z</time>
      </trkpt>
      <trkpt lat="48.50983" lon="2.26702">
        <ele>130.19999694824</ele>
        <time>2020-08-02T16:49:11.000Z</time>
      </trkpt>
      <trkpt lat="48.50995" lon="2.2669">
        <ele>130.60000610352</ele>
        <time>2020-08-02T16:49:14.000Z</time>
      </trkpt>
      <trkpt lat="48.51003" lon="2.26685">
        <ele>131</ele>
        <time>2020-08-02T16:49:16.000Z</time>
      </trkpt>
      <trkpt lat="48.51008" lon="2.26681">
        <ele>131.19999694824</ele>
        <time>2020-08-02T16:49:17.000Z</time>
      </trkpt>
      <trkpt lat="48.51015" lon="2.26674">
        <ele>131.39999389648</ele>
        <time>2020-08-02T16:49:19.000Z</time>
      </trkpt>
      <trkpt lat="48.5102" lon="2.26665">
        <ele>131.80000305176</ele>
        <time>2020-08-02T16:49:21.000Z</time>
      </trkpt>
      <trkpt lat="48.51022" lon="2.26662">
        <ele>132</ele>
        <time>2020-08-02T16:49:22.000Z</time>
      </trkpt>
      <trkpt lat="48.51024" lon="2.26653">
        <ele>132.19999694824</ele>
        <time>2020-08-02T16:49:25.000Z</time>
      </trkpt>
      <trkpt lat="48.51032" lon="2.26637">
        <ele>132.39999389648</ele>
        <time>2020-08-02T16:49:29.000Z</time>
      </trkpt>
      <trkpt lat="48.51038" lon="2.26627">
        <ele>132.60000610352</ele>
        <time>2020-08-02T16:49:31.000Z</time>
      </trkpt>
      <trkpt lat="48.51043" lon="2.26613">
        <ele>132.80000305176</ele>
        <time>2020-08-02T16:49:33.000Z</time>
      </trkpt>
      <trkpt lat="48.51051" lon="2.2657">
        <ele>134.19999694824</ele>
        <time>2020-08-02T16:49:39.000Z</time>
      </trkpt>
      <trkpt lat="48.51053" lon="2.26548">
        <ele>134.80000305176</ele>
        <time>2020-08-02T16:49:42.000Z</time>
      </trkpt>
      <trkpt lat="48.51055" lon="2.26525">
        <ele>135.19999694824</ele>
        <time>2020-08-02T16:49:45.000Z</time>
      </trkpt>
      <trkpt lat="48.51058" lon="2.26477">
        <ele>135.80000305176</ele>
        <time>2020-08-02T16:49:51.000Z</time>
      </trkpt>
      <trkpt lat="48.51059" lon="2.26419">
        <ele>135.60000610352</ele>
        <time>2020-08-02T16:49:58.000Z</time>
      </trkpt>
      <trkpt lat="48.51058" lon="2.26403">
        <ele>135.60000610352</ele>
        <time>2020-08-02T16:50:00.000Z</time>
      </trkpt>
      <trkpt lat="48.51059" lon="2.26377">
        <ele>136</ele>
        <time>2020-08-02T16:50:03.000Z</time>
      </trkpt>
      <trkpt lat="48.51059" lon="2.26368">
        <ele>136</ele>
        <time>2020-08-02T16:50:04.000Z</time>
      </trkpt>
      <trkpt lat="48.5106" lon="2.26352">
        <ele>135.80000305176</ele>
        <time>2020-08-02T16:50:06.000Z</time>
      </trkpt>
      <trkpt lat="48.51059" lon="2.26344">
        <ele>135.60000610352</ele>
        <time>2020-08-02T16:50:07.000Z</time>
      </trkpt>
      <trkpt lat="48.51057" lon="2.26322">
        <ele>135.60000610352</ele>
        <time>2020-08-02T16:50:11.000Z</time>
      </trkpt>
      <trkpt lat="48.51053" lon="2.26311">
        <ele>135.60000610352</ele>
        <time>2020-08-02T16:50:13.000Z</time>
      </trkpt>
      <trkpt lat="48.51048" lon="2.26298">
        <ele>135.80000305176</ele>
        <time>2020-08-02T16:50:15.000Z</time>
      </trkpt>
      <trkpt lat="48.51043" lon="2.26276">
        <ele>135.80000305176</ele>
        <time>2020-08-02T16:50:19.000Z</time>
      </trkpt>
      <trkpt lat="48.51044" lon="2.26271">
        <ele>135.60000610352</ele>
        <time>2020-08-02T16:50:20.000Z</time>
      </trkpt>
      <trkpt lat="48.5105" lon="2.26255">
        <ele>135</ele>
        <time>2020-08-02T16:50:23.000Z</time>
      </trkpt>
      <trkpt lat="48.51059" lon="2.26232">
        <ele>134.39999389648</ele>
        <time>2020-08-02T16:50:28.000Z</time>
      </trkpt>
      <trkpt lat="48.51069" lon="2.26211">
        <ele>133.39999389648</ele>
        <time>2020-08-02T16:50:32.000Z</time>
      </trkpt>
      <trkpt lat="48.51079" lon="2.26192">
        <ele>131.80000305176</ele>
        <time>2020-08-02T16:50:36.000Z</time>
      </trkpt>
      <trkpt lat="48.51082" lon="2.26183">
        <ele>131.19999694824</ele>
        <time>2020-08-02T16:50:39.000Z</time>
      </trkpt>
      <trkpt lat="48.51084" lon="2.26176">
        <ele>130.80000305176</ele>
        <time>2020-08-02T16:50:41.000Z</time>
      </trkpt>
      <trkpt lat="48.51083" lon="2.26158">
        <ele>130.39999389648</ele>
        <time>2020-08-02T16:50:44.000Z</time>
      </trkpt>
      <trkpt lat="48.51081" lon="2.26153">
        <ele>130.60000610352</ele>
        <time>2020-08-02T16:50:45.000Z</time>
      </trkpt>
      <trkpt lat="48.51076" lon="2.26136">
        <ele>131</ele>
        <time>2020-08-02T16:50:49.000Z</time>
      </trkpt>
      <trkpt lat="48.51076" lon="2.26134">
        <ele>130.80000305176</ele>
        <time>2020-08-02T16:50:50.000Z</time>
      </trkpt>
      <trkpt lat="48.51074" lon="2.26123">
        <ele>130.80000305176</ele>
        <time>2020-08-02T16:50:53.000Z</time>
      </trkpt>
      <trkpt lat="48.51065" lon="2.26108">
        <ele>131.39999389648</ele>
        <time>2020-08-02T16:50:58.000Z</time>
      </trkpt>
      <trkpt lat="48.5106" lon="2.26098">
        <ele>131.60000610352</ele>
        <time>2020-08-02T16:51:02.000Z</time>
      </trkpt>
      <trkpt lat="48.51059" lon="2.26095">
        <ele>131.39999389648</ele>
        <time>2020-08-02T16:51:03.000Z</time>
      </trkpt>
      <trkpt lat="48.51057" lon="2.26079">
        <ele>131.19999694824</ele>
        <time>2020-08-02T16:51:08.000Z</time>
      </trkpt>
      <trkpt lat="48.51058" lon="2.26077">
        <ele>131</ele>
        <time>2020-08-02T16:51:09.000Z</time>
      </trkpt>
      <trkpt lat="48.51062" lon="2.2606">
        <ele>129.19999694824</ele>
        <time>2020-08-02T16:51:13.000Z</time>
      </trkpt>
      <trkpt lat="48.51076" lon="2.26047">
        <ele>126.59999847412</ele>
        <time>2020-08-02T16:51:18.000Z</time>
      </trkpt>
      <trkpt lat="48.51079" lon="2.26046">
        <ele>126.19999694824</ele>
        <time>2020-08-02T16:51:20.000Z</time>
      </trkpt>
      <trkpt lat="48.51091" lon="2.2604">
        <ele>124.59999847412</ele>
        <time>2020-08-02T16:51:29.000Z</time>
      </trkpt>
      <trkpt lat="48.51093" lon="2.26039">
        <ele>124.40000152588</ele>
        <time>2020-08-02T16:51:30.000Z</time>
      </trkpt>
      <trkpt lat="48.51099" lon="2.26037">
        <ele>123.59999847412</ele>
        <time>2020-08-02T16:51:35.000Z</time>
      </trkpt>
      <trkpt lat="48.51106" lon="2.26034">
        <ele>122.19999694824</ele>
        <time>2020-08-02T16:51:40.000Z</time>
      </trkpt>
      <trkpt lat="48.5111" lon="2.26032">
        <ele>121.40000152588</ele>
        <time>2020-08-02T16:51:43.000Z</time>
      </trkpt>
      <trkpt lat="48.51159" lon="2.26004">
        <ele>111.40000152588</ele>
        <time>2020-08-02T16:59:14.000Z</time>
      </trkpt>
      <trkpt lat="48.51159" lon="2.26002">
        <ele>111.40000152588</ele>
        <time>2020-08-02T16:59:15.000Z</time>
      </trkpt>
      <trkpt lat="48.51159" lon="2.26001">
        <ele>111.40000152588</ele>
        <time>2020-08-02T16:59:16.000Z</time>
      </trkpt>
      <trkpt lat="48.51155" lon="2.25989">
        <ele>110.59999847412</ele>
        <time>2020-08-02T16:59:33.000Z</time>
      </trkpt>
      <trkpt lat="48.51154" lon="2.25982">
        <ele>109.59999847412</ele>
        <time>2020-08-02T16:59:35.000Z</time>
      </trkpt>
      <trkpt lat="48.5115" lon="2.25968">
        <ele>108</ele>
        <time>2020-08-02T16:59:38.000Z</time>
      </trkpt>
      <trkpt lat="48.51151" lon="2.25964">
        <ele>107.19999694824</ele>
        <time>2020-08-02T16:59:39.000Z</time>
      </trkpt>
      <trkpt lat="48.5115" lon="2.2595">
        <ele>106</ele>
        <time>2020-08-02T16:59:42.000Z</time>
      </trkpt>
      <trkpt lat="48.51149" lon="2.25944">
        <ele>105.59999847412</ele>
        <time>2020-08-02T16:59:43.000Z</time>
      </trkpt>
      <trkpt lat="48.51147" lon="2.25936">
        <ele>105</ele>
        <time>2020-08-02T16:59:45.000Z</time>
      </trkpt>
      <trkpt lat="48.51145" lon="2.25926">
        <ele>104.40000152588</ele>
        <time>2020-08-02T16:59:48.000Z</time>
      </trkpt>
      <trkpt lat="48.51137" lon="2.25906">
        <ele>103.19999694824</ele>
        <time>2020-08-02T16:59:54.000Z</time>
      </trkpt>
      <trkpt lat="48.51132" lon="2.25895">
        <ele>102.59999847412</ele>
        <time>2020-08-02T16:59:58.000Z</time>
      </trkpt>
      <trkpt lat="48.5113" lon="2.2589">
        <ele>102.40000152588</ele>
        <time>2020-08-02T17:00:02.000Z</time>
      </trkpt>
      <trkpt lat="48.51119" lon="2.25858">
        <ele>100.19999694824</ele>
        <time>2020-08-02T17:00:52.000Z</time>
      </trkpt>
      <trkpt lat="48.51108" lon="2.25852">
        <ele>100.59999847412</ele>
        <time>2020-08-02T17:00:56.000Z</time>
      </trkpt>
      <trkpt lat="48.51101" lon="2.25848">
        <ele>100.59999847412</ele>
        <time>2020-08-02T17:01:00.000Z</time>
      </trkpt>
      <trkpt lat="48.511" lon="2.25843">
        <ele>100.40000152588</ele>
        <time>2020-08-02T17:01:02.000Z</time>
      </trkpt>
      <trkpt lat="48.51097" lon="2.25834">
        <ele>100.19999694824</ele>
        <time>2020-08-02T17:01:05.000Z</time>
      </trkpt>
      <trkpt lat="48.51094" lon="2.25826">
        <ele>100</ele>
        <time>2020-08-02T17:01:06.000Z</time>
      </trkpt>
      <trkpt lat="48.51092" lon="2.25813">
        <ele>99.599998474121</ele>
        <time>2020-08-02T17:01:08.000Z</time>
      </trkpt>
      <trkpt lat="48.51092" lon="2.25806">
        <ele>99</ele>
        <time>2020-08-02T17:01:09.000Z</time>
      </trkpt>
      <trkpt lat="48.51095" lon="2.25794">
        <ele>97.400001525879</ele>
        <time>2020-08-02T17:01:11.000Z</time>
      </trkpt>
      <trkpt lat="48.51097" lon="2.25787">
        <ele>96.599998474121</ele>
        <time>2020-08-02T17:01:12.000Z</time>
      </trkpt>
      <trkpt lat="48.51102" lon="2.25764">
        <ele>94.199996948242</ele>
        <time>2020-08-02T17:01:15.000Z</time>
      </trkpt>
      <trkpt lat="48.51106" lon="2.25738">
        <ele>91.599998474121</ele>
        <time>2020-08-02T17:01:19.000Z</time>
      </trkpt>
      <trkpt lat="48.51103" lon="2.25719">
        <ele>91</ele>
        <time>2020-08-02T17:01:23.000Z</time>
      </trkpt>
      <trkpt lat="48.51098" lon="2.25711">
        <ele>91.400001525879</ele>
        <time>2020-08-02T17:01:26.000Z</time>
      </trkpt>
      <trkpt lat="48.51096" lon="2.25708">
        <ele>91.599998474121</ele>
        <time>2020-08-02T17:01:27.000Z</time>
      </trkpt>
      <trkpt lat="48.51094" lon="2.25703">
        <ele>91.800003051758</ele>
        <time>2020-08-02T17:01:28.000Z</time>
      </trkpt>
      <trkpt lat="48.5109" lon="2.25699">
        <ele>92.199996948242</ele>
        <time>2020-08-02T17:01:30.000Z</time>
      </trkpt>
      <trkpt lat="48.51088" lon="2.25695">
        <ele>92.400001525879</ele>
        <time>2020-08-02T17:01:31.000Z</time>
      </trkpt>
      <trkpt lat="48.51087" lon="2.25691">
        <ele>92.400001525879</ele>
        <time>2020-08-02T17:01:32.000Z</time>
      </trkpt>
      <trkpt lat="48.51085" lon="2.25685">
        <ele>92.400001525879</ele>
        <time>2020-08-02T17:01:34.000Z</time>
      </trkpt>
      <trkpt lat="48.51085" lon="2.25681">
        <ele>92.199996948242</ele>
        <time>2020-08-02T17:01:35.000Z</time>
      </trkpt>
      <trkpt lat="48.51085" lon="2.25666">
        <ele>91.199996948242</ele>
        <time>2020-08-02T17:01:38.000Z</time>
      </trkpt>
      <trkpt lat="48.51082" lon="2.25663">
        <ele>91.599998474121</ele>
        <time>2020-08-02T17:01:39.000Z</time>
      </trkpt>
      <trkpt lat="48.51074" lon="2.25658">
        <ele>93.400001525879</ele>
        <time>2020-08-02T17:01:41.000Z</time>
      </trkpt>
      <trkpt lat="48.51059" lon="2.25639">
        <ele>96.599998474121</ele>
        <time>2020-08-02T17:01:46.000Z</time>
      </trkpt>
      <trkpt lat="48.51056" lon="2.25634">
        <ele>97.400001525879</ele>
        <time>2020-08-02T17:01:48.000Z</time>
      </trkpt>
      <trkpt lat="48.51055" lon="2.25628">
        <ele>97.599998474121</ele>
        <time>2020-08-02T17:01:50.000Z</time>
      </trkpt>
      <trkpt lat="48.51053" lon="2.25622">
        <ele>98.199996948242</ele>
        <time>2020-08-02T17:01:52.000Z</time>
      </trkpt>
      <trkpt lat="48.51052" lon="2.25617">
        <ele>98.400001525879</ele>
        <time>2020-08-02T17:01:54.000Z</time>
      </trkpt>
      <trkpt lat="48.51049" lon="2.256">
        <ele>99.400001525879</ele>
        <time>2020-08-02T17:01:58.000Z</time>
      </trkpt>
      <trkpt lat="48.51057" lon="2.25574">
        <ele>98.199996948242</ele>
        <time>2020-08-02T17:02:03.000Z</time>
      </trkpt>
      <trkpt lat="48.51064" lon="2.25548">
        <ele>96.599998474121</ele>
        <time>2020-08-02T17:02:08.000Z</time>
      </trkpt>
      <trkpt lat="48.51074" lon="2.25527">
        <ele>96.199996948242</ele>
        <time>2020-08-02T17:02:12.000Z</time>
      </trkpt>
      <trkpt lat="48.51085" lon="2.25504">
        <ele>96.400001525879</ele>
        <time>2020-08-02T17:02:17.000Z</time>
      </trkpt>
      <trkpt lat="48.5109" lon="2.25497">
        <ele>96.199996948242</ele>
        <time>2020-08-02T17:02:19.000Z</time>
      </trkpt>
      <trkpt lat="48.51098" lon="2.25486">
        <ele>95.199996948242</ele>
        <time>2020-08-02T17:02:22.000Z</time>
      </trkpt>
      <trkpt lat="48.51111" lon="2.2546">
        <ele>93</ele>
        <time>2020-08-02T17:02:27.000Z</time>
      </trkpt>
      <trkpt lat="48.51113" lon="2.25446">
        <ele>92.599998474121</ele>
        <time>2020-08-02T17:02:30.000Z</time>
      </trkpt>
      <trkpt lat="48.51113" lon="2.25441">
        <ele>92.800003051758</ele>
        <time>2020-08-02T17:02:31.000Z</time>
      </trkpt>
      <trkpt lat="48.51112" lon="2.25433">
        <ele>93.199996948242</ele>
        <time>2020-08-02T17:02:33.000Z</time>
      </trkpt>
      <trkpt lat="48.51109" lon="2.25426">
        <ele>93.800003051758</ele>
        <time>2020-08-02T17:02:35.000Z</time>
      </trkpt>
      <trkpt lat="48.51107" lon="2.25417">
        <ele>94.400001525879</ele>
        <time>2020-08-02T17:02:37.000Z</time>
      </trkpt>
      <trkpt lat="48.51106" lon="2.25407">
        <ele>94.400001525879</ele>
        <time>2020-08-02T17:02:39.000Z</time>
      </trkpt>
      <trkpt lat="48.51103" lon="2.25393">
        <ele>94.400001525879</ele>
        <time>2020-08-02T17:02:42.000Z</time>
      </trkpt>
      <trkpt lat="48.51103" lon="2.25388">
        <ele>94.199996948242</ele>
        <time>2020-08-02T17:02:43.000Z</time>
      </trkpt>
      <trkpt lat="48.51105" lon="2.25383">
        <ele>93.599998474121</ele>
        <time>2020-08-02T17:02:44.000Z</time>
      </trkpt>
      <trkpt lat="48.5111" lon="2.25377">
        <ele>92.199996948242</ele>
        <time>2020-08-02T17:02:46.000Z</time>
      </trkpt>
      <trkpt lat="48.51122" lon="2.25377">
        <ele>89.800003051758</ele>
        <time>2020-08-02T17:02:50.000Z</time>
      </trkpt>
      <trkpt lat="48.5114" lon="2.25383">
        <ele>86.400001525879</ele>
        <time>2020-08-02T17:02:54.000Z</time>
      </trkpt>
      <trkpt lat="48.51148" lon="2.25381">
        <ele>84.800003051758</ele>
        <time>2020-08-02T17:02:55.000Z</time>
      </trkpt>
      <trkpt lat="48.51161" lon="2.25376">
        <ele>82.599998474121</ele>
        <time>2020-08-02T17:02:57.000Z</time>
      </trkpt>
      <trkpt lat="48.51191" lon="2.25368">
        <ele>78.599998474121</ele>
        <time>2020-08-02T17:03:01.000Z</time>
      </trkpt>
      <trkpt lat="48.51213" lon="2.25364">
        <ele>75.599998474121</ele>
        <time>2020-08-02T17:03:05.000Z</time>
      </trkpt>
      <trkpt lat="48.51221" lon="2.25359">
        <ele>74.800003051758</ele>
        <time>2020-08-02T17:03:08.000Z</time>
      </trkpt>
      <trkpt lat="48.51223" lon="2.25355">
        <ele>74.599998474121</ele>
        <time>2020-08-02T17:03:09.000Z</time>
      </trkpt>
      <trkpt lat="48.51223" lon="2.2533">
        <ele>75.400001525879</ele>
        <time>2020-08-02T17:03:13.000Z</time>
      </trkpt>
      <trkpt lat="48.5122" lon="2.25276">
        <ele>72.199996948242</ele>
        <time>2020-08-02T17:03:20.000Z</time>
      </trkpt>
      <trkpt lat="48.51221" lon="2.25214">
        <ele>73</ele>
        <time>2020-08-02T17:03:28.000Z</time>
      </trkpt>
      <trkpt lat="48.51221" lon="2.25141">
        <ele>73.400001525879</ele>
        <time>2020-08-02T17:03:37.000Z</time>
      </trkpt>
      <trkpt lat="48.51221" lon="2.25133">
        <ele>73.599998474121</ele>
        <time>2020-08-02T17:03:38.000Z</time>
      </trkpt>
      <trkpt lat="48.5122" lon="2.25098">
        <ele>74.199996948242</ele>
        <time>2020-08-02T17:03:43.000Z</time>
      </trkpt>
      <trkpt lat="48.51214" lon="2.25087">
        <ele>74.599998474121</ele>
        <time>2020-08-02T17:03:45.000Z</time>
      </trkpt>
      <trkpt lat="48.5121" lon="2.25083">
        <ele>75.199996948242</ele>
        <time>2020-08-02T17:03:46.000Z</time>
      </trkpt>
      <trkpt lat="48.51196" lon="2.25063">
        <ele>77.599998474121</ele>
        <time>2020-08-02T17:03:50.000Z</time>
      </trkpt>
      <trkpt lat="48.5119" lon="2.25052">
        <ele>79</ele>
        <time>2020-08-02T17:03:52.000Z</time>
      </trkpt>
      <trkpt lat="48.51184" lon="2.25041">
        <ele>80.199996948242</ele>
        <time>2020-08-02T17:03:54.000Z</time>
      </trkpt>
      <trkpt lat="48.51175" lon="2.25026">
        <ele>83</ele>
        <time>2020-08-02T17:03:57.000Z</time>
      </trkpt>
      <trkpt lat="48.51169" lon="2.25019">
        <ele>84.599998474121</ele>
        <time>2020-08-02T17:03:59.000Z</time>
      </trkpt>
      <trkpt lat="48.51166" lon="2.25016">
        <ele>85.400001525879</ele>
        <time>2020-08-02T17:04:00.000Z</time>
      </trkpt>
      <trkpt lat="48.51151" lon="2.24999">
        <ele>89.400001525879</ele>
        <time>2020-08-02T17:04:05.000Z</time>
      </trkpt>
      <trkpt lat="48.51134" lon="2.24982">
        <ele>92.800003051758</ele>
        <time>2020-08-02T17:04:11.000Z</time>
      </trkpt>
      <trkpt lat="48.51122" lon="2.24969">
        <ele>94.800003051758</ele>
        <time>2020-08-02T17:04:16.000Z</time>
      </trkpt>
      <trkpt lat="48.51111" lon="2.24962">
        <ele>97</ele>
        <time>2020-08-02T17:04:20.000Z</time>
      </trkpt>
      <trkpt lat="48.51097" lon="2.24954">
        <ele>99</ele>
        <time>2020-08-02T17:04:25.000Z</time>
      </trkpt>
      <trkpt lat="48.51092" lon="2.2495">
        <ele>99</ele>
        <time>2020-08-02T17:04:27.000Z</time>
      </trkpt>
      <trkpt lat="48.51087" lon="2.24944">
        <ele>98.800003051758</ele>
        <time>2020-08-02T17:04:29.000Z</time>
      </trkpt>
      <trkpt lat="48.51076" lon="2.24927">
        <ele>98.400001525879</ele>
        <time>2020-08-02T17:04:34.000Z</time>
      </trkpt>
      <trkpt lat="48.51075" lon="2.2491">
        <ele>98</ele>
        <time>2020-08-02T17:04:38.000Z</time>
      </trkpt>
      <trkpt lat="48.51078" lon="2.24889">
        <ele>97.400001525879</ele>
        <time>2020-08-02T17:04:43.000Z</time>
      </trkpt>
      <trkpt lat="48.51077" lon="2.24884">
        <ele>97.400001525879</ele>
        <time>2020-08-02T17:04:44.000Z</time>
      </trkpt>
      <trkpt lat="48.51074" lon="2.24862">
        <ele>97.400001525879</ele>
        <time>2020-08-02T17:04:48.000Z</time>
      </trkpt>
      <trkpt lat="48.5107" lon="2.24848">
        <ele>97.199996948242</ele>
        <time>2020-08-02T17:04:50.000Z</time>
      </trkpt>
      <trkpt lat="48.51065" lon="2.24832">
        <ele>97.199996948242</ele>
        <time>2020-08-02T17:04:52.000Z</time>
      </trkpt>
      <trkpt lat="48.51058" lon="2.24827">
        <ele>97</ele>
        <time>2020-08-02T17:04:54.000Z</time>
      </trkpt>
      <trkpt lat="48.51054" lon="2.24826">
        <ele>96.800003051758</ele>
        <time>2020-08-02T17:04:55.000Z</time>
      </trkpt>
      <trkpt lat="48.51037" lon="2.24825">
        <ele>96.400001525879</ele>
        <time>2020-08-02T17:04:59.000Z</time>
      </trkpt>
      <trkpt lat="48.51031" lon="2.24824">
        <ele>96.400001525879</ele>
        <time>2020-08-02T17:05:00.000Z</time>
      </trkpt>
      <trkpt lat="48.51009" lon="2.24819">
        <ele>95.800003051758</ele>
        <time>2020-08-02T17:05:04.000Z</time>
      </trkpt>
      <trkpt lat="48.50975" lon="2.24801">
        <ele>95</ele>
        <time>2020-08-02T17:05:10.000Z</time>
      </trkpt>
      <trkpt lat="48.50943" lon="2.24773">
        <ele>94.199996948242</ele>
        <time>2020-08-02T17:05:17.000Z</time>
      </trkpt>
      <trkpt lat="48.50915" lon="2.24744">
        <ele>94.199996948242</ele>
        <time>2020-08-02T17:05:24.000Z</time>
      </trkpt>
      <trkpt lat="48.50907" lon="2.24737">
        <ele>94</ele>
        <time>2020-08-02T17:05:26.000Z</time>
      </trkpt>
      <trkpt lat="48.50895" lon="2.24726">
        <ele>93.800003051758</ele>
        <time>2020-08-02T17:05:29.000Z</time>
      </trkpt>
      <trkpt lat="48.5087" lon="2.24707">
        <ele>93.400001525879</ele>
        <time>2020-08-02T17:05:34.000Z</time>
      </trkpt>
      <trkpt lat="48.50832" lon="2.24683">
        <ele>93.199996948242</ele>
        <time>2020-08-02T17:05:41.000Z</time>
      </trkpt>
      <trkpt lat="48.50804" lon="2.24674">
        <ele>93.599998474121</ele>
        <time>2020-08-02T17:05:46.000Z</time>
      </trkpt>
      <trkpt lat="48.50789" lon="2.24668">
        <ele>93.599998474121</ele>
        <time>2020-08-02T17:05:49.000Z</time>
      </trkpt>
      <trkpt lat="48.50778" lon="2.24664">
        <ele>93.800003051758</ele>
        <time>2020-08-02T17:05:51.000Z</time>
      </trkpt>
      <trkpt lat="48.5076" lon="2.24654">
        <ele>93.599998474121</ele>
        <time>2020-08-02T17:05:55.000Z</time>
      </trkpt>
      <trkpt lat="48.50751" lon="2.2465">
        <ele>93.599998474121</ele>
        <time>2020-08-02T17:05:57.000Z</time>
      </trkpt>
      <trkpt lat="48.50742" lon="2.24647">
        <ele>93.800003051758</ele>
        <time>2020-08-02T17:05:59.000Z</time>
      </trkpt>
      <trkpt lat="48.50728" lon="2.24644">
        <ele>94</ele>
        <time>2020-08-02T17:06:02.000Z</time>
      </trkpt>
      <trkpt lat="48.50723" lon="2.24642">
        <ele>94</ele>
        <time>2020-08-02T17:06:03.000Z</time>
      </trkpt>
      <trkpt lat="48.50703" lon="2.24639">
        <ele>94.599998474121</ele>
        <time>2020-08-02T17:06:08.000Z</time>
      </trkpt>
      <trkpt lat="48.50691" lon="2.2464">
        <ele>95.199996948242</ele>
        <time>2020-08-02T17:06:12.000Z</time>
      </trkpt>
      <trkpt lat="48.50674" lon="2.24641">
        <ele>96</ele>
        <time>2020-08-02T17:06:17.000Z</time>
      </trkpt>
      <trkpt lat="48.50652" lon="2.24642">
        <ele>97.199996948242</ele>
        <time>2020-08-02T17:06:23.000Z</time>
      </trkpt>
      <trkpt lat="48.50639" lon="2.24641">
        <ele>97.800003051758</ele>
        <time>2020-08-02T17:06:27.000Z</time>
      </trkpt>
      <trkpt lat="48.5061" lon="2.2464">
        <ele>99.199996948242</ele>
        <time>2020-08-02T17:06:34.000Z</time>
      </trkpt>
      <trkpt lat="48.50596" lon="2.24643">
        <ele>100.19999694824</ele>
        <time>2020-08-02T17:06:38.000Z</time>
      </trkpt>
      <trkpt lat="48.50587" lon="2.24641">
        <ele>100.59999847412</ele>
        <time>2020-08-02T17:06:41.000Z</time>
      </trkpt>
      <trkpt lat="48.50586" lon="2.24639">
        <ele>100.59999847412</ele>
        <time>2020-08-02T17:06:42.000Z</time>
      </trkpt>
      <trkpt lat="48.50585" lon="2.24635">
        <ele>100.40000152588</ele>
        <time>2020-08-02T17:06:43.000Z</time>
      </trkpt>
      <trkpt lat="48.50585" lon="2.24625">
        <ele>99.800003051758</ele>
        <time>2020-08-02T17:06:45.000Z</time>
      </trkpt>
      <trkpt lat="48.50586" lon="2.24604">
        <ele>98.599998474121</ele>
        <time>2020-08-02T17:06:49.000Z</time>
      </trkpt>
      <trkpt lat="48.50584" lon="2.2458">
        <ele>97.199996948242</ele>
        <time>2020-08-02T17:06:53.000Z</time>
      </trkpt>
      <trkpt lat="48.50583" lon="2.24573">
        <ele>97.199996948242</ele>
        <time>2020-08-02T17:06:54.000Z</time>
      </trkpt>
      <trkpt lat="48.50583" lon="2.24543">
        <ele>96.599998474121</ele>
        <time>2020-08-02T17:06:59.000Z</time>
      </trkpt>
      <trkpt lat="48.50586" lon="2.24518">
        <ele>95.400001525879</ele>
        <time>2020-08-02T17:07:03.000Z</time>
      </trkpt>
      <trkpt lat="48.50584" lon="2.24466">
        <ele>95.400001525879</ele>
        <time>2020-08-02T17:07:10.000Z</time>
      </trkpt>
      <trkpt lat="48.50584" lon="2.24459">
        <ele>95.599998474121</ele>
        <time>2020-08-02T17:07:11.000Z</time>
      </trkpt>
      <trkpt lat="48.50585" lon="2.24443">
        <ele>95.599998474121</ele>
        <time>2020-08-02T17:07:13.000Z</time>
      </trkpt>
      <trkpt lat="48.50587" lon="2.24426">
        <ele>95.599998474121</ele>
        <time>2020-08-02T17:07:15.000Z</time>
      </trkpt>
      <trkpt lat="48.5059" lon="2.24404">
        <ele>95.599998474121</ele>
        <time>2020-08-02T17:07:18.000Z</time>
      </trkpt>
      <trkpt lat="48.50593" lon="2.2439">
        <ele>96.199996948242</ele>
        <time>2020-08-02T17:07:20.000Z</time>
      </trkpt>
      <trkpt lat="48.50595" lon="2.24383">
        <ele>96.400001525879</ele>
        <time>2020-08-02T17:07:21.000Z</time>
      </trkpt>
      <trkpt lat="48.50605" lon="2.24338">
        <ele>97.800003051758</ele>
        <time>2020-08-02T17:07:27.000Z</time>
      </trkpt>
      <trkpt lat="48.50609" lon="2.24325">
        <ele>97.599998474121</ele>
        <time>2020-08-02T17:07:29.000Z</time>
      </trkpt>
      <trkpt lat="48.50615" lon="2.24312">
        <ele>97.599998474121</ele>
        <time>2020-08-02T17:07:31.000Z</time>
      </trkpt>
      <trkpt lat="48.50627" lon="2.24279">
        <ele>97.400001525879</ele>
        <time>2020-08-02T17:07:36.000Z</time>
      </trkpt>
      <trkpt lat="48.5063" lon="2.24272">
        <ele>97.400001525879</ele>
        <time>2020-08-02T17:07:37.000Z</time>
      </trkpt>
      <trkpt lat="48.50635" lon="2.24249">
        <ele>98</ele>
        <time>2020-08-02T17:07:40.000Z</time>
      </trkpt>
      <trkpt lat="48.50639" lon="2.24235">
        <ele>98</ele>
        <time>2020-08-02T17:07:42.000Z</time>
      </trkpt>
      <trkpt lat="48.50642" lon="2.24212">
        <ele>98.199996948242</ele>
        <time>2020-08-02T17:07:45.000Z</time>
      </trkpt>
      <trkpt lat="48.50643" lon="2.24205">
        <ele>98.199996948242</ele>
        <time>2020-08-02T17:07:46.000Z</time>
      </trkpt>
      <trkpt lat="48.5065" lon="2.24171">
        <ele>98.199996948242</ele>
        <time>2020-08-02T17:07:51.000Z</time>
      </trkpt>
      <trkpt lat="48.50661" lon="2.24134">
        <ele>97.199996948242</ele>
        <time>2020-08-02T17:07:56.000Z</time>
      </trkpt>
      <trkpt lat="48.50671" lon="2.24103">
        <ele>97.400001525879</ele>
        <time>2020-08-02T17:08:00.000Z</time>
      </trkpt>
      <trkpt lat="48.50674" lon="2.24094">
        <ele>97.400001525879</ele>
        <time>2020-08-02T17:08:01.000Z</time>
      </trkpt>
      <trkpt lat="48.50681" lon="2.2407">
        <ele>97.400001525879</ele>
        <time>2020-08-02T17:08:04.000Z</time>
      </trkpt>
      <trkpt lat="48.50685" lon="2.24053">
        <ele>97.400001525879</ele>
        <time>2020-08-02T17:08:06.000Z</time>
      </trkpt>
      <trkpt lat="48.50692" lon="2.24026">
        <ele>97</ele>
        <time>2020-08-02T17:08:09.000Z</time>
      </trkpt>
      <trkpt lat="48.50697" lon="2.24006">
        <ele>96.599998474121</ele>
        <time>2020-08-02T17:08:11.000Z</time>
      </trkpt>
      <trkpt lat="48.50705" lon="2.2396">
        <ele>94</ele>
        <time>2020-08-02T17:08:16.000Z</time>
      </trkpt>
      <trkpt lat="48.50706" lon="2.2395">
        <ele>93.599998474121</ele>
        <time>2020-08-02T17:08:17.000Z</time>
      </trkpt>
      <trkpt lat="48.50707" lon="2.23931">
        <ele>93</ele>
        <time>2020-08-02T17:08:19.000Z</time>
      </trkpt>
      <trkpt lat="48.50705" lon="2.23913">
        <ele>93.199996948242</ele>
        <time>2020-08-02T17:08:21.000Z</time>
      </trkpt>
      <trkpt lat="48.50703" lon="2.23905">
        <ele>92.800003051758</ele>
        <time>2020-08-02T17:08:22.000Z</time>
      </trkpt>
      <trkpt lat="48.50701" lon="2.23896">
        <ele>92.599998474121</ele>
        <time>2020-08-02T17:08:23.000Z</time>
      </trkpt>
      <trkpt lat="48.50689" lon="2.23864">
        <ele>91.800003051758</ele>
        <time>2020-08-02T17:08:27.000Z</time>
      </trkpt>
      <trkpt lat="48.50685" lon="2.23847">
        <ele>91.199996948242</ele>
        <time>2020-08-02T17:08:29.000Z</time>
      </trkpt>
      <trkpt lat="48.50682" lon="2.23821">
        <ele>90</ele>
        <time>2020-08-02T17:08:32.000Z</time>
      </trkpt>
      <trkpt lat="48.5068" lon="2.23813">
        <ele>89.800003051758</ele>
        <time>2020-08-02T17:08:33.000Z</time>
      </trkpt>
      <trkpt lat="48.50675" lon="2.23794">
        <ele>89.800003051758</ele>
        <time>2020-08-02T17:08:36.000Z</time>
      </trkpt>
      <trkpt lat="48.50679" lon="2.23784">
        <ele>89.199996948242</ele>
        <time>2020-08-02T17:08:38.000Z</time>
      </trkpt>
      <trkpt lat="48.50683" lon="2.2378">
        <ele>88.800003051758</ele>
        <time>2020-08-02T17:08:39.000Z</time>
      </trkpt>
      <trkpt lat="48.50687" lon="2.23776">
        <ele>88.400001525879</ele>
        <time>2020-08-02T17:08:40.000Z</time>
      </trkpt>
      <trkpt lat="48.50696" lon="2.23771">
        <ele>87.400001525879</ele>
        <time>2020-08-02T17:08:42.000Z</time>
      </trkpt>
      <trkpt lat="48.50723" lon="2.2375">
        <ele>85.199996948242</ele>
        <time>2020-08-02T17:08:47.000Z</time>
      </trkpt>
      <trkpt lat="48.50747" lon="2.23731">
        <ele>83</ele>
        <time>2020-08-02T17:08:51.000Z</time>
      </trkpt>
      <trkpt lat="48.50753" lon="2.23726">
        <ele>82.400001525879</ele>
        <time>2020-08-02T17:08:52.000Z</time>
      </trkpt>
      <trkpt lat="48.50793" lon="2.23689">
        <ele>78.199996948242</ele>
        <time>2020-08-02T17:08:59.000Z</time>
      </trkpt>
      <trkpt lat="48.50839" lon="2.23657">
        <ele>76.199996948242</ele>
        <time>2020-08-02T17:09:07.000Z</time>
      </trkpt>
      <trkpt lat="48.50871" lon="2.23635">
        <ele>74.599998474121</ele>
        <time>2020-08-02T17:09:13.000Z</time>
      </trkpt>
      <trkpt lat="48.50881" lon="2.23623">
        <ele>74</ele>
        <time>2020-08-02T17:09:17.000Z</time>
      </trkpt>
      <trkpt lat="48.50887" lon="2.23609">
        <ele>73.599998474121</ele>
        <time>2020-08-02T17:09:22.000Z</time>
      </trkpt>
      <trkpt lat="48.50889" lon="2.23608">
        <ele>73.599998474121</ele>
        <time>2020-08-02T17:09:23.000Z</time>
      </trkpt>
      <trkpt lat="48.50894" lon="2.23606">
        <ele>73.400001525879</ele>
        <time>2020-08-02T17:09:26.000Z</time>
      </trkpt>
      <trkpt lat="48.509" lon="2.23603">
        <ele>73.199996948242</ele>
        <time>2020-08-02T17:09:31.000Z</time>
      </trkpt>
      <trkpt lat="48.50911" lon="2.23601">
        <ele>72.800003051758</ele>
        <time>2020-08-02T17:09:35.000Z</time>
      </trkpt>
      <trkpt lat="48.50929" lon="2.23594">
        <ele>72.199996948242</ele>
        <time>2020-08-02T17:09:40.000Z</time>
      </trkpt>
      <trkpt lat="48.50942" lon="2.2359">
        <ele>71.800003051758</ele>
        <time>2020-08-02T17:09:43.000Z</time>
      </trkpt>
      <trkpt lat="48.5095" lon="2.23588">
        <ele>71.400001525879</ele>
        <time>2020-08-02T17:09:45.000Z</time>
      </trkpt>
      <trkpt lat="48.50969" lon="2.23579">
        <ele>71.199996948242</ele>
        <time>2020-08-02T17:09:50.000Z</time>
      </trkpt>
      <trkpt lat="48.50981" lon="2.23585">
        <ele>70.800003051758</ele>
        <time>2020-08-02T17:09:54.000Z</time>
      </trkpt>
      <trkpt lat="48.50989" lon="2.23594">
        <ele>70.400001525879</ele>
        <time>2020-08-02T17:09:56.000Z</time>
      </trkpt>
      <trkpt lat="48.50992" lon="2.236">
        <ele>70.400001525879</ele>
        <time>2020-08-02T17:09:57.000Z</time>
      </trkpt>
      <trkpt lat="48.5101" lon="2.23636">
        <ele>69.400001525879</ele>
        <time>2020-08-02T17:10:02.000Z</time>
      </trkpt>
      <trkpt lat="48.51032" lon="2.23691">
        <ele>68.400001525879</ele>
        <time>2020-08-02T17:10:09.000Z</time>
      </trkpt>
      <trkpt lat="48.51037" lon="2.23706">
        <ele>68</ele>
        <time>2020-08-02T17:10:11.000Z</time>
      </trkpt>
      <trkpt lat="48.51043" lon="2.23727">
        <ele>67.400001525879</ele>
        <time>2020-08-02T17:10:14.000Z</time>
      </trkpt>
      <trkpt lat="48.51046" lon="2.23747">
        <ele>67</ele>
        <time>2020-08-02T17:10:17.000Z</time>
      </trkpt>
      <trkpt lat="48.51046" lon="2.23753">
        <ele>67.199996948242</ele>
        <time>2020-08-02T17:10:18.000Z</time>
      </trkpt>
      <trkpt lat="48.51044" lon="2.23761">
        <ele>67.400001525879</ele>
        <time>2020-08-02T17:10:20.000Z</time>
      </trkpt>
      <trkpt lat="48.5104" lon="2.23766">
        <ele>67.400001525879</ele>
        <time>2020-08-02T17:10:22.000Z</time>
      </trkpt>
      <trkpt lat="48.51025" lon="2.23776">
        <ele>67.800003051758</ele>
        <time>2020-08-02T17:10:28.000Z</time>
      </trkpt>
      <trkpt lat="48.51002" lon="2.23792">
        <ele>69</ele>
        <time>2020-08-02T17:10:35.000Z</time>
      </trkpt>
      <trkpt lat="48.50977" lon="2.2381">
        <ele>70.400001525879</ele>
        <time>2020-08-02T17:10:43.000Z</time>
      </trkpt>
      <trkpt lat="48.50955" lon="2.23821">
        <ele>71.199996948242</ele>
        <time>2020-08-02T17:10:50.000Z</time>
      </trkpt>
      <trkpt lat="48.5095" lon="2.2382">
        <ele>71.400001525879</ele>
        <time>2020-08-02T17:10:52.000Z</time>
      </trkpt>
      <trkpt lat="48.50947" lon="2.23816">
        <ele>71.599998474121</ele>
        <time>2020-08-02T17:10:54.000Z</time>
      </trkpt>
      <trkpt lat="48.50944" lon="2.23809">
        <ele>71.599998474121</ele>
        <time>2020-08-02T17:10:56.000Z</time>
      </trkpt>
      <trkpt lat="48.50941" lon="2.23797">
        <ele>71.800003051758</ele>
        <time>2020-08-02T17:11:00.000Z</time>
      </trkpt>
      <trkpt lat="48.50938" lon="2.23801">
        <ele>71.800003051758</ele>
        <time>2020-08-02T17:11:03.000Z</time>
      </trkpt>
      <trkpt lat="48.50939" lon="2.23803">
        <ele>71.800003051758</ele>
        <time>2020-08-02T17:11:04.000Z</time>
      </trkpt>
      <trkpt lat="48.5094" lon="2.23806">
        <ele>71.800003051758</ele>
        <time>2020-08-02T17:11:05.000Z</time>
      </trkpt>
      <trkpt lat="48.50943" lon="2.23816">
        <ele>71.599998474121</ele>
        <time>2020-08-02T17:11:08.000Z</time>
      </trkpt>
      <trkpt lat="48.50952" lon="2.23841">
        <ele>71.599998474121</ele>
        <time>2020-08-02T17:11:15.000Z</time>
      </trkpt>
      <trkpt lat="48.50958" lon="2.23859">
        <ele>71.800003051758</ele>
        <time>2020-08-02T17:11:22.000Z</time>
      </trkpt>
      <trkpt lat="48.50959" lon="2.23857">
        <ele>71.800003051758</ele>
        <time>2020-08-02T17:11:23.000Z</time>
      </trkpt>
      <trkpt lat="48.50957" lon="2.23846">
        <ele>71.599998474121</ele>
        <time>2020-08-02T17:11:26.000Z</time>
      </trkpt>
      <trkpt lat="48.50948" lon="2.2382">
        <ele>71.400001525879</ele>
        <time>2020-08-02T17:11:30.000Z</time>
      </trkpt>
      <trkpt lat="48.50946" lon="2.23814">
        <ele>71.599998474121</ele>
        <time>2020-08-02T17:11:31.000Z</time>
      </trkpt>
      <trkpt lat="48.50928" lon="2.23754">
        <ele>72.199996948242</ele>
        <time>2020-08-02T17:11:39.000Z</time>
      </trkpt>
      <trkpt lat="48.50906" lon="2.23684">
        <ele>73.400001525879</ele>
        <time>2020-08-02T17:11:48.000Z</time>
      </trkpt>
      <trkpt lat="48.50887" lon="2.23626">
        <ele>73.800003051758</ele>
        <time>2020-08-02T17:11:56.000Z</time>
      </trkpt>
      <trkpt lat="48.50886" lon="2.23619">
        <ele>73.800003051758</ele>
        <time>2020-08-02T17:11:57.000Z</time>
      </trkpt>
      <trkpt lat="48.50891" lon="2.23606">
        <ele>73.599998474121</ele>
        <time>2020-08-02T17:11:59.000Z</time>
      </trkpt>
      <trkpt lat="48.50908" lon="2.23598">
        <ele>73</ele>
        <time>2020-08-02T17:12:02.000Z</time>
      </trkpt>
      <trkpt lat="48.50941" lon="2.23587">
        <ele>71.800003051758</ele>
        <time>2020-08-02T17:12:07.000Z</time>
      </trkpt>
      <trkpt lat="48.50968" lon="2.23577">
        <ele>71.199996948242</ele>
        <time>2020-08-02T17:12:11.000Z</time>
      </trkpt>
      <trkpt lat="48.50974" lon="2.23571">
        <ele>71</ele>
        <time>2020-08-02T17:12:12.000Z</time>
      </trkpt>
      <trkpt lat="48.50979" lon="2.23565">
        <ele>71</ele>
        <time>2020-08-02T17:12:13.000Z</time>
      </trkpt>
      <trkpt lat="48.50988" lon="2.23549">
        <ele>70.599998474121</ele>
        <time>2020-08-02T17:12:15.000Z</time>
      </trkpt>
      <trkpt lat="48.50991" lon="2.2354">
        <ele>70.599998474121</ele>
        <time>2020-08-02T17:12:16.000Z</time>
      </trkpt>
      <trkpt lat="48.51016" lon="2.2347">
        <ele>70</ele>
        <time>2020-08-02T17:12:24.000Z</time>
      </trkpt>
      <trkpt lat="48.51042" lon="2.23403">
        <ele>69</ele>
        <time>2020-08-02T17:12:32.000Z</time>
      </trkpt>
      <trkpt lat="48.51057" lon="2.23349">
        <ele>68.400001525879</ele>
        <time>2020-08-02T17:12:38.000Z</time>
      </trkpt>
      <trkpt lat="48.51068" lon="2.23303">
        <ele>67.599998474121</ele>
        <time>2020-08-02T17:12:43.000Z</time>
      </trkpt>
      <trkpt lat="48.51069" lon="2.23283">
        <ele>67.400001525879</ele>
        <time>2020-08-02T17:12:45.000Z</time>
      </trkpt>
      <trkpt lat="48.51059" lon="2.23239">
        <ele>68</ele>
        <time>2020-08-02T17:12:50.000Z</time>
      </trkpt>
      <trkpt lat="48.51044" lon="2.23192">
        <ele>68.599998474121</ele>
        <time>2020-08-02T17:12:56.000Z</time>
      </trkpt>
      <trkpt lat="48.51026" lon="2.23133">
        <ele>69.599998474121</ele>
        <time>2020-08-02T17:13:04.000Z</time>
      </trkpt>
      <trkpt lat="48.51021" lon="2.23116">
        <ele>69.800003051758</ele>
        <time>2020-08-02T17:13:07.000Z</time>
      </trkpt>
      <trkpt lat="48.51022" lon="2.2311">
        <ele>69.800003051758</ele>
        <time>2020-08-02T17:13:08.000Z</time>
      </trkpt>
      <trkpt lat="48.51025" lon="2.23106">
        <ele>69.599998474121</ele>
        <time>2020-08-02T17:13:09.000Z</time>
      </trkpt>
      <trkpt lat="48.51036" lon="2.23101">
        <ele>69.400001525879</ele>
        <time>2020-08-02T17:13:11.000Z</time>
      </trkpt>
      <trkpt lat="48.51075" lon="2.23091">
        <ele>66.800003051758</ele>
        <time>2020-08-02T17:13:17.000Z</time>
      </trkpt>
      <trkpt lat="48.51128" lon="2.23076">
        <ele>65</ele>
        <time>2020-08-02T17:13:24.000Z</time>
      </trkpt>
      <trkpt lat="48.51169" lon="2.23071">
        <ele>65</ele>
        <time>2020-08-02T17:13:29.000Z</time>
      </trkpt>
      <trkpt lat="48.51215" lon="2.23078">
        <ele>66.199996948242</ele>
        <time>2020-08-02T17:13:35.000Z</time>
      </trkpt>
      <trkpt lat="48.5125" lon="2.23082">
        <ele>67.400001525879</ele>
        <time>2020-08-02T17:13:40.000Z</time>
      </trkpt>
      <trkpt lat="48.51289" lon="2.23086">
        <ele>68.199996948242</ele>
        <time>2020-08-02T17:13:46.000Z</time>
      </trkpt>
      <trkpt lat="48.51324" lon="2.23089">
        <ele>68.400001525879</ele>
        <time>2020-08-02T17:13:52.000Z</time>
      </trkpt>
      <trkpt lat="48.51358" lon="2.23094">
        <ele>69</ele>
        <time>2020-08-02T17:13:58.000Z</time>
      </trkpt>
      <trkpt lat="48.5139" lon="2.23097">
        <ele>71</ele>
        <time>2020-08-02T17:14:04.000Z</time>
      </trkpt>
      <trkpt lat="48.51418" lon="2.23101">
        <ele>72.599998474121</ele>
        <time>2020-08-02T17:14:10.000Z</time>
      </trkpt>
      <trkpt lat="48.51431" lon="2.23102">
        <ele>73.199996948242</ele>
        <time>2020-08-02T17:14:15.000Z</time>
      </trkpt>
      <trkpt lat="48.51432" lon="2.23104">
        <ele>73.400001525879</ele>
        <time>2020-08-02T17:14:16.000Z</time>
      </trkpt>
      <trkpt lat="48.51433" lon="2.2311">
        <ele>73.800003051758</ele>
        <time>2020-08-02T17:14:18.000Z</time>
      </trkpt>
      <trkpt lat="48.51433" lon="2.23115">
        <ele>74.199996948242</ele>
        <time>2020-08-02T17:14:19.000Z</time>
      </trkpt>
      <trkpt lat="48.51433" lon="2.23126">
        <ele>74.800003051758</ele>
        <time>2020-08-02T17:14:21.000Z</time>
      </trkpt>
      <trkpt lat="48.51432" lon="2.23141">
        <ele>75.599998474121</ele>
        <time>2020-08-02T17:14:23.000Z</time>
      </trkpt>
      <trkpt lat="48.51433" lon="2.23153">
        <ele>76.400001525879</ele>
        <time>2020-08-02T17:14:25.000Z</time>
      </trkpt>
      <trkpt lat="48.51435" lon="2.23158">
        <ele>76.800003051758</ele>
        <time>2020-08-02T17:14:26.000Z</time>
      </trkpt>
      <trkpt lat="48.51435" lon="2.23164">
        <ele>77.199996948242</ele>
        <time>2020-08-02T17:14:27.000Z</time>
      </trkpt>
      <trkpt lat="48.51432" lon="2.23189">
        <ele>76.800003051758</ele>
        <time>2020-08-02T17:14:30.000Z</time>
      </trkpt>
      <trkpt lat="48.51428" lon="2.23227">
        <ele>76.599998474121</ele>
        <time>2020-08-02T17:14:35.000Z</time>
      </trkpt>
      <trkpt lat="48.51425" lon="2.23243">
        <ele>76.599998474121</ele>
        <time>2020-08-02T17:14:37.000Z</time>
      </trkpt>
      <trkpt lat="48.51424" lon="2.23262">
        <ele>76.599998474121</ele>
        <time>2020-08-02T17:14:39.000Z</time>
      </trkpt>
      <trkpt lat="48.5142" lon="2.23301">
        <ele>76.400001525879</ele>
        <time>2020-08-02T17:14:43.000Z</time>
      </trkpt>
      <trkpt lat="48.51418" lon="2.23321">
        <ele>76</ele>
        <time>2020-08-02T17:14:45.000Z</time>
      </trkpt>
      <trkpt lat="48.51418" lon="2.2333">
        <ele>75.599998474121</ele>
        <time>2020-08-02T17:14:46.000Z</time>
      </trkpt>
      <trkpt lat="48.5142" lon="2.23357">
        <ele>74.199996948242</ele>
        <time>2020-08-02T17:14:49.000Z</time>
      </trkpt>
      <trkpt lat="48.51431" lon="2.23419">
        <ele>71.599998474121</ele>
        <time>2020-08-02T17:14:56.000Z</time>
      </trkpt>
      <trkpt lat="48.51433" lon="2.23427">
        <ele>71.400001525879</ele>
        <time>2020-08-02T17:14:57.000Z</time>
      </trkpt>
      <trkpt lat="48.51436" lon="2.23435">
        <ele>71.400001525879</ele>
        <time>2020-08-02T17:14:58.000Z</time>
      </trkpt>
      <trkpt lat="48.51443" lon="2.23458">
        <ele>71.599998474121</ele>
        <time>2020-08-02T17:15:01.000Z</time>
      </trkpt>
      <trkpt lat="48.51454" lon="2.23499">
        <ele>71.800003051758</ele>
        <time>2020-08-02T17:15:07.000Z</time>
      </trkpt>
      <trkpt lat="48.5146" lon="2.23528">
        <ele>72.199996948242</ele>
        <time>2020-08-02T17:15:11.000Z</time>
      </trkpt>
      <trkpt lat="48.51465" lon="2.23549">
        <ele>73</ele>
        <time>2020-08-02T17:15:14.000Z</time>
      </trkpt>
      <trkpt lat="48.51477" lon="2.23609">
        <ele>73.199996948242</ele>
        <time>2020-08-02T17:15:22.000Z</time>
      </trkpt>
      <trkpt lat="48.51493" lon="2.23677">
        <ele>73</ele>
        <time>2020-08-02T17:15:31.000Z</time>
      </trkpt>
      <trkpt lat="48.51503" lon="2.23736">
        <ele>72.199996948242</ele>
        <time>2020-08-02T17:15:38.000Z</time>
      </trkpt>
      <trkpt lat="48.51517" lon="2.23807">
        <ele>70.800003051758</ele>
        <time>2020-08-02T17:15:46.000Z</time>
      </trkpt>
      <trkpt lat="48.51535" lon="2.23886">
        <ele>71.599998474121</ele>
        <time>2020-08-02T17:15:55.000Z</time>
      </trkpt>
      <trkpt lat="48.51547" lon="2.23932">
        <ele>71.599998474121</ele>
        <time>2020-08-02T17:16:01.000Z</time>
      </trkpt>
      <trkpt lat="48.51552" lon="2.23962">
        <ele>71</ele>
        <time>2020-08-02T17:16:05.000Z</time>
      </trkpt>
      <trkpt lat="48.51553" lon="2.2397">
        <ele>70.800003051758</ele>
        <time>2020-08-02T17:16:06.000Z</time>
      </trkpt>
      <trkpt lat="48.51554" lon="2.23989">
        <ele>70.800003051758</ele>
        <time>2020-08-02T17:16:08.000Z</time>
      </trkpt>
      <trkpt lat="48.51557" lon="2.24017">
        <ele>69.599998474121</ele>
        <time>2020-08-02T17:16:11.000Z</time>
      </trkpt>
      <trkpt lat="48.51558" lon="2.24037">
        <ele>68.599998474121</ele>
        <time>2020-08-02T17:16:13.000Z</time>
      </trkpt>
      <trkpt lat="48.51564" lon="2.24064">
        <ele>68.199996948242</ele>
        <time>2020-08-02T17:16:16.000Z</time>
      </trkpt>
      <trkpt lat="48.51566" lon="2.24073">
        <ele>68.199996948242</ele>
        <time>2020-08-02T17:16:17.000Z</time>
      </trkpt>
      <trkpt lat="48.51583" lon="2.24132">
        <ele>67.199996948242</ele>
        <time>2020-08-02T17:16:24.000Z</time>
      </trkpt>
      <trkpt lat="48.51598" lon="2.24192">
        <ele>65.599998474121</ele>
        <time>2020-08-02T17:16:32.000Z</time>
      </trkpt>
      <trkpt lat="48.51599" lon="2.24205">
        <ele>65</ele>
        <time>2020-08-02T17:16:34.000Z</time>
      </trkpt>
      <trkpt lat="48.51601" lon="2.24212">
        <ele>64.599998474121</ele>
        <time>2020-08-02T17:16:35.000Z</time>
      </trkpt>
      <trkpt lat="48.51616" lon="2.24266">
        <ele>63.799999237061</ele>
        <time>2020-08-02T17:16:42.000Z</time>
      </trkpt>
      <trkpt lat="48.5163" lon="2.24324">
        <ele>64.199996948242</ele>
        <time>2020-08-02T17:16:49.000Z</time>
      </trkpt>
      <trkpt lat="48.51646" lon="2.24384">
        <ele>64.400001525879</ele>
        <time>2020-08-02T17:16:57.000Z</time>
      </trkpt>
      <trkpt lat="48.51651" lon="2.24412">
        <ele>65.199996948242</ele>
        <time>2020-08-02T17:17:01.000Z</time>
      </trkpt>
      <trkpt lat="48.51652" lon="2.24422">
        <ele>65.199996948242</ele>
        <time>2020-08-02T17:17:03.000Z</time>
      </trkpt>
      <trkpt lat="48.5166" lon="2.24455">
        <ele>65</ele>
        <time>2020-08-02T17:17:10.000Z</time>
      </trkpt>
      <trkpt lat="48.51666" lon="2.24478">
        <ele>64.800003051758</ele>
        <time>2020-08-02T17:17:15.000Z</time>
      </trkpt>
      <trkpt lat="48.51671" lon="2.245">
        <ele>64.800003051758</ele>
        <time>2020-08-02T17:17:19.000Z</time>
      </trkpt>
      <trkpt lat="48.51673" lon="2.24523">
        <ele>65.400001525879</ele>
        <time>2020-08-02T17:17:24.000Z</time>
      </trkpt>
      <trkpt lat="48.51677" lon="2.24522">
        <ele>65.400001525879</ele>
        <time>2020-08-02T17:17:27.000Z</time>
      </trkpt>
      <trkpt lat="48.51677" lon="2.2452">
        <ele>65.400001525879</ele>
        <time>2020-08-02T17:17:28.000Z</time>
      </trkpt>
      <trkpt lat="48.51676" lon="2.24508">
        <ele>65.199996948242</ele>
        <time>2020-08-02T17:17:31.000Z</time>
      </trkpt>
      <trkpt lat="48.51672" lon="2.24479">
        <ele>65</ele>
        <time>2020-08-02T17:17:35.000Z</time>
      </trkpt>
      <trkpt lat="48.51656" lon="2.24409">
        <ele>65.199996948242</ele>
        <time>2020-08-02T17:17:43.000Z</time>
      </trkpt>
      <trkpt lat="48.51654" lon="2.244">
        <ele>65</ele>
        <time>2020-08-02T17:17:44.000Z</time>
      </trkpt>
      <trkpt lat="48.51648" lon="2.24383">
        <ele>64.400001525879</ele>
        <time>2020-08-02T17:17:46.000Z</time>
      </trkpt>
      <trkpt lat="48.5164" lon="2.24348">
        <ele>64.400001525879</ele>
        <time>2020-08-02T17:17:50.000Z</time>
      </trkpt>
      <trkpt lat="48.51631" lon="2.24314">
        <ele>64.400001525879</ele>
        <time>2020-08-02T17:17:54.000Z</time>
      </trkpt>
      <trkpt lat="48.51625" lon="2.24298">
        <ele>64.199996948242</ele>
        <time>2020-08-02T17:17:56.000Z</time>
      </trkpt>
      <trkpt lat="48.5161" lon="2.24241">
        <ele>64</ele>
        <time>2020-08-02T17:18:03.000Z</time>
      </trkpt>
      <trkpt lat="48.51598" lon="2.24191">
        <ele>65.599998474121</ele>
        <time>2020-08-02T17:18:09.000Z</time>
      </trkpt>
      <trkpt lat="48.51582" lon="2.24136">
        <ele>67.199996948242</ele>
        <time>2020-08-02T17:18:16.000Z</time>
      </trkpt>
      <trkpt lat="48.51567" lon="2.24079">
        <ele>68.199996948242</ele>
        <time>2020-08-02T17:18:23.000Z</time>
      </trkpt>
      <trkpt lat="48.51564" lon="2.24071">
        <ele>68.199996948242</ele>
        <time>2020-08-02T17:18:24.000Z</time>
      </trkpt>
      <trkpt lat="48.51557" lon="2.24027">
        <ele>69</ele>
        <time>2020-08-02T17:18:29.000Z</time>
      </trkpt>
      <trkpt lat="48.51555" lon="2.23992">
        <ele>70.800003051758</ele>
        <time>2020-08-02T17:18:33.000Z</time>
      </trkpt>
      <trkpt lat="48.51553" lon="2.23977">
        <ele>70.800003051758</ele>
        <time>2020-08-02T17:18:35.000Z</time>
      </trkpt>
      <trkpt lat="48.5155" lon="2.23964">
        <ele>70.800003051758</ele>
        <time>2020-08-02T17:18:37.000Z</time>
      </trkpt>
      <trkpt lat="48.51548" lon="2.2395">
        <ele>70.800003051758</ele>
        <time>2020-08-02T17:18:39.000Z</time>
      </trkpt>
      <trkpt lat="48.51546" lon="2.23943">
        <ele>70.800003051758</ele>
        <time>2020-08-02T17:18:40.000Z</time>
      </trkpt>
      <trkpt lat="48.51544" lon="2.23936">
        <ele>70.800003051758</ele>
        <time>2020-08-02T17:18:41.000Z</time>
      </trkpt>
      <trkpt lat="48.51537" lon="2.23908">
        <ele>71.599998474121</ele>
        <time>2020-08-02T17:18:45.000Z</time>
      </trkpt>
      <trkpt lat="48.51533" lon="2.23894">
        <ele>71.400001525879</ele>
        <time>2020-08-02T17:18:47.000Z</time>
      </trkpt>
      <trkpt lat="48.51529" lon="2.23873">
        <ele>71</ele>
        <time>2020-08-02T17:18:50.000Z</time>
      </trkpt>
      <trkpt lat="48.51513" lon="2.23809">
        <ele>70.400001525879</ele>
        <time>2020-08-02T17:18:58.000Z</time>
      </trkpt>
      <trkpt lat="48.51503" lon="2.23761">
        <ele>71.400001525879</ele>
        <time>2020-08-02T17:19:04.000Z</time>
      </trkpt>
      <trkpt lat="48.51496" lon="2.23711">
        <ele>72.400001525879</ele>
        <time>2020-08-02T17:19:10.000Z</time>
      </trkpt>
      <trkpt lat="48.51495" lon="2.23702">
        <ele>72.400001525879</ele>
        <time>2020-08-02T17:19:11.000Z</time>
      </trkpt>
      <trkpt lat="48.51493" lon="2.23694">
        <ele>72.599998474121</ele>
        <time>2020-08-02T17:19:12.000Z</time>
      </trkpt>
      <trkpt lat="48.51489" lon="2.23678">
        <ele>72.599998474121</ele>
        <time>2020-08-02T17:19:14.000Z</time>
      </trkpt>
      <trkpt lat="48.51487" lon="2.2367">
        <ele>72.599998474121</ele>
        <time>2020-08-02T17:19:15.000Z</time>
      </trkpt>
      <trkpt lat="48.5148" lon="2.23646">
        <ele>72.599998474121</ele>
        <time>2020-08-02T17:19:18.000Z</time>
      </trkpt>
      <trkpt lat="48.51478" lon="2.23638">
        <ele>72.400001525879</ele>
        <time>2020-08-02T17:19:19.000Z</time>
      </trkpt>
      <trkpt lat="48.51465" lon="2.2358">
        <ele>73.400001525879</ele>
        <time>2020-08-02T17:19:26.000Z</time>
      </trkpt>
      <trkpt lat="48.51452" lon="2.23529">
        <ele>71.400001525879</ele>
        <time>2020-08-02T17:19:32.000Z</time>
      </trkpt>
      <trkpt lat="48.51439" lon="2.23479">
        <ele>70.400001525879</ele>
        <time>2020-08-02T17:19:38.000Z</time>
      </trkpt>
      <trkpt lat="48.51429" lon="2.23446">
        <ele>70.400001525879</ele>
        <time>2020-08-02T17:19:42.000Z</time>
      </trkpt>
      <trkpt lat="48.51423" lon="2.23421">
        <ele>71</ele>
        <time>2020-08-02T17:19:45.000Z</time>
      </trkpt>
      <trkpt lat="48.51408" lon="2.23359">
        <ele>73</ele>
        <time>2020-08-02T17:19:52.000Z</time>
      </trkpt>
      <trkpt lat="48.51407" lon="2.23332">
        <ele>74.599998474121</ele>
        <time>2020-08-02T17:19:55.000Z</time>
      </trkpt>
      <trkpt lat="48.51408" lon="2.23314">
        <ele>75.400001525879</ele>
        <time>2020-08-02T17:19:57.000Z</time>
      </trkpt>
      <trkpt lat="48.51413" lon="2.23264">
        <ele>76</ele>
        <time>2020-08-02T17:20:03.000Z</time>
      </trkpt>
      <trkpt lat="48.51417" lon="2.23223">
        <ele>75.800003051758</ele>
        <time>2020-08-02T17:20:08.000Z</time>
      </trkpt>
      <trkpt lat="48.5143" lon="2.23165">
        <ele>76.800003051758</ele>
        <time>2020-08-02T17:20:15.000Z</time>
      </trkpt>
      <trkpt lat="48.5144" lon="2.23122">
        <ele>75.199996948242</ele>
        <time>2020-08-02T17:20:20.000Z</time>
      </trkpt>
      <trkpt lat="48.51454" lon="2.23064">
        <ele>73</ele>
        <time>2020-08-02T17:20:26.000Z</time>
      </trkpt>
      <trkpt lat="48.51467" lon="2.23009">
        <ele>71.800003051758</ele>
        <time>2020-08-02T17:20:32.000Z</time>
      </trkpt>
      <trkpt lat="48.51491" lon="2.22955">
        <ele>72.400001525879</ele>
        <time>2020-08-02T17:20:39.000Z</time>
      </trkpt>
      <trkpt lat="48.51521" lon="2.22916">
        <ele>75.400001525879</ele>
        <time>2020-08-02T17:20:46.000Z</time>
      </trkpt>
      <trkpt lat="48.51524" lon="2.2291">
        <ele>75.599998474121</ele>
        <time>2020-08-02T17:20:47.000Z</time>
      </trkpt>
      <trkpt lat="48.51538" lon="2.22883">
        <ele>76.599998474121</ele>
        <time>2020-08-02T17:20:51.000Z</time>
      </trkpt>
      <trkpt lat="48.51541" lon="2.22876">
        <ele>76.800003051758</ele>
        <time>2020-08-02T17:20:52.000Z</time>
      </trkpt>
      <trkpt lat="48.51545" lon="2.2286">
        <ele>77</ele>
        <time>2020-08-02T17:20:54.000Z</time>
      </trkpt>
      <trkpt lat="48.51547" lon="2.22851">
        <ele>76.800003051758</ele>
        <time>2020-08-02T17:20:55.000Z</time>
      </trkpt>
      <trkpt lat="48.51559" lon="2.22792">
        <ele>74.800003051758</ele>
        <time>2020-08-02T17:21:02.000Z</time>
      </trkpt>
      <trkpt lat="48.51579" lon="2.22738">
        <ele>75.800003051758</ele>
        <time>2020-08-02T17:21:09.000Z</time>
      </trkpt>
      <trkpt lat="48.51594" lon="2.22702">
        <ele>76.800003051758</ele>
        <time>2020-08-02T17:21:14.000Z</time>
      </trkpt>
      <trkpt lat="48.51597" lon="2.22694">
        <ele>76.800003051758</ele>
        <time>2020-08-02T17:21:15.000Z</time>
      </trkpt>
      <trkpt lat="48.51611" lon="2.22658">
        <ele>78.199996948242</ele>
        <time>2020-08-02T17:21:20.000Z</time>
      </trkpt>
      <trkpt lat="48.51613" lon="2.22652">
        <ele>78.599998474121</ele>
        <time>2020-08-02T17:21:21.000Z</time>
      </trkpt>
      <trkpt lat="48.51618" lon="2.22632">
        <ele>79.599998474121</ele>
        <time>2020-08-02T17:21:25.000Z</time>
      </trkpt>
      <trkpt lat="48.51621" lon="2.22621">
        <ele>80.199996948242</ele>
        <time>2020-08-02T17:21:27.000Z</time>
      </trkpt>
      <trkpt lat="48.51623" lon="2.22609">
        <ele>80.800003051758</ele>
        <time>2020-08-02T17:21:29.000Z</time>
      </trkpt>
      <trkpt lat="48.51629" lon="2.22604">
        <ele>81.400001525879</ele>
        <time>2020-08-02T17:21:31.000Z</time>
      </trkpt>
      <trkpt lat="48.51632" lon="2.22605">
        <ele>81.599998474121</ele>
        <time>2020-08-02T17:21:32.000Z</time>
      </trkpt>
      <trkpt lat="48.51636" lon="2.22611">
        <ele>82</ele>
        <time>2020-08-02T17:21:34.000Z</time>
      </trkpt>
      <trkpt lat="48.51651" lon="2.22631">
        <ele>83.199996948242</ele>
        <time>2020-08-02T17:21:40.000Z</time>
      </trkpt>
      <trkpt lat="48.51658" lon="2.2264">
        <ele>83.800003051758</ele>
        <time>2020-08-02T17:21:43.000Z</time>
      </trkpt>
      <trkpt lat="48.5167" lon="2.22653">
        <ele>84.800003051758</ele>
        <time>2020-08-02T17:21:48.000Z</time>
      </trkpt>
      <trkpt lat="48.51675" lon="2.2266">
        <ele>85.199996948242</ele>
        <time>2020-08-02T17:21:51.000Z</time>
      </trkpt>
      <trkpt lat="48.51679" lon="2.22666">
        <ele>85.400001525879</ele>
        <time>2020-08-02T17:21:53.000Z</time>
      </trkpt>
      <trkpt lat="48.51691" lon="2.22685">
        <ele>87</ele>
        <time>2020-08-02T17:21:59.000Z</time>
      </trkpt>
      <trkpt lat="48.51706" lon="2.22707">
        <ele>88.599998474121</ele>
        <time>2020-08-02T17:22:06.000Z</time>
      </trkpt>
      <trkpt lat="48.51714" lon="2.22722">
        <ele>89.599998474121</ele>
        <time>2020-08-02T17:22:10.000Z</time>
      </trkpt>
      <trkpt lat="48.51727" lon="2.22738">
        <ele>91.199996948242</ele>
        <time>2020-08-02T17:22:15.000Z</time>
      </trkpt>
      <trkpt lat="48.51734" lon="2.22744">
        <ele>92</ele>
        <time>2020-08-02T17:22:17.000Z</time>
      </trkpt>
      <trkpt lat="48.51739" lon="2.22752">
        <ele>92.800003051758</ele>
        <time>2020-08-02T17:22:19.000Z</time>
      </trkpt>
      <trkpt lat="48.51752" lon="2.22773">
        <ele>94.400001525879</ele>
        <time>2020-08-02T17:22:24.000Z</time>
      </trkpt>
      <trkpt lat="48.51762" lon="2.22792">
        <ele>96</ele>
        <time>2020-08-02T17:22:29.000Z</time>
      </trkpt>
      <trkpt lat="48.51776" lon="2.22813">
        <ele>97.400001525879</ele>
        <time>2020-08-02T17:22:35.000Z</time>
      </trkpt>
      <trkpt lat="48.51793" lon="2.22837">
        <ele>98.599998474121</ele>
        <time>2020-08-02T17:22:41.000Z</time>
      </trkpt>
      <trkpt lat="48.51801" lon="2.2285">
        <ele>99</ele>
        <time>2020-08-02T17:22:45.000Z</time>
      </trkpt>
      <trkpt lat="48.51814" lon="2.22868">
        <ele>99.800003051758</ele>
        <time>2020-08-02T17:22:50.000Z</time>
      </trkpt>
      <trkpt lat="48.51827" lon="2.22886">
        <ele>100.59999847412</ele>
        <time>2020-08-02T17:22:55.000Z</time>
      </trkpt>
      <trkpt lat="48.51839" lon="2.22904">
        <ele>101.40000152588</ele>
        <time>2020-08-02T17:23:00.000Z</time>
      </trkpt>
      <trkpt lat="48.5185" lon="2.22921">
        <ele>103</ele>
        <time>2020-08-02T17:23:04.000Z</time>
      </trkpt>
      <trkpt lat="48.51867" lon="2.22943">
        <ele>104.19999694824</ele>
        <time>2020-08-02T17:23:10.000Z</time>
      </trkpt>
      <trkpt lat="48.51878" lon="2.22959">
        <ele>105</ele>
        <time>2020-08-02T17:23:15.000Z</time>
      </trkpt>
      <trkpt lat="48.51889" lon="2.22975">
        <ele>106</ele>
        <time>2020-08-02T17:23:20.000Z</time>
      </trkpt>
      <trkpt lat="48.51891" lon="2.22982">
        <ele>106.59999847412</ele>
        <time>2020-08-02T17:23:23.000Z</time>
      </trkpt>
      <trkpt lat="48.51898" lon="2.2299">
        <ele>107</ele>
        <time>2020-08-02T17:23:27.000Z</time>
      </trkpt>
      <trkpt lat="48.519" lon="2.22993">
        <ele>107.19999694824</ele>
        <time>2020-08-02T17:23:28.000Z</time>
      </trkpt>
      <trkpt lat="48.51911" lon="2.23005">
        <ele>108</ele>
        <time>2020-08-02T17:23:33.000Z</time>
      </trkpt>
      <trkpt lat="48.51929" lon="2.23027">
        <ele>110</ele>
        <time>2020-08-02T17:23:40.000Z</time>
      </trkpt>
      <trkpt lat="48.51943" lon="2.23047">
        <ele>111.80000305176</ele>
        <time>2020-08-02T17:23:46.000Z</time>
      </trkpt>
      <trkpt lat="48.51955" lon="2.23064">
        <ele>113.59999847412</ele>
        <time>2020-08-02T17:23:51.000Z</time>
      </trkpt>
      <trkpt lat="48.51965" lon="2.2308">
        <ele>115.19999694824</ele>
        <time>2020-08-02T17:23:56.000Z</time>
      </trkpt>
      <trkpt lat="48.51979" lon="2.23098">
        <ele>117.19999694824</ele>
        <time>2020-08-02T17:24:02.000Z</time>
      </trkpt>
      <trkpt lat="48.51991" lon="2.23121">
        <ele>120</ele>
        <time>2020-08-02T17:24:08.000Z</time>
      </trkpt>
      <trkpt lat="48.52006" lon="2.23139">
        <ele>122</ele>
        <time>2020-08-02T17:24:14.000Z</time>
      </trkpt>
      <trkpt lat="48.52016" lon="2.23155">
        <ele>123.80000305176</ele>
        <time>2020-08-02T17:24:19.000Z</time>
      </trkpt>
      <trkpt lat="48.52019" lon="2.23158">
        <ele>124.40000152588</ele>
        <time>2020-08-02T17:24:20.000Z</time>
      </trkpt>
      <trkpt lat="48.52024" lon="2.23164">
        <ele>125.19999694824</ele>
        <time>2020-08-02T17:24:22.000Z</time>
      </trkpt>
      <trkpt lat="48.5204" lon="2.23185">
        <ele>127.59999847412</ele>
        <time>2020-08-02T17:24:29.000Z</time>
      </trkpt>
      <trkpt lat="48.52051" lon="2.23202">
        <ele>129.60000610352</ele>
        <time>2020-08-02T17:24:34.000Z</time>
      </trkpt>
      <trkpt lat="48.52061" lon="2.23217">
        <ele>131.60000610352</ele>
        <time>2020-08-02T17:24:39.000Z</time>
      </trkpt>
      <trkpt lat="48.5207" lon="2.23229">
        <ele>133</ele>
        <time>2020-08-02T17:24:44.000Z</time>
      </trkpt>
      <trkpt lat="48.52079" lon="2.23242">
        <ele>134.60000610352</ele>
        <time>2020-08-02T17:24:49.000Z</time>
      </trkpt>
      <trkpt lat="48.52087" lon="2.23255">
        <ele>135.60000610352</ele>
        <time>2020-08-02T17:24:53.000Z</time>
      </trkpt>
      <trkpt lat="48.52089" lon="2.23257">
        <ele>135.80000305176</ele>
        <time>2020-08-02T17:24:54.000Z</time>
      </trkpt>
      <trkpt lat="48.52099" lon="2.23271">
        <ele>136.60000610352</ele>
        <time>2020-08-02T17:24:58.000Z</time>
      </trkpt>
      <trkpt lat="48.52101" lon="2.23275">
        <ele>136.80000305176</ele>
        <time>2020-08-02T17:24:59.000Z</time>
      </trkpt>
      <trkpt lat="48.52103" lon="2.23279">
        <ele>136.80000305176</ele>
        <time>2020-08-02T17:25:00.000Z</time>
      </trkpt>
      <trkpt lat="48.52111" lon="2.23288">
        <ele>136.60000610352</ele>
        <time>2020-08-02T17:25:03.000Z</time>
      </trkpt>
      <trkpt lat="48.52122" lon="2.23305">
        <ele>136.80000305176</ele>
        <time>2020-08-02T17:25:08.000Z</time>
      </trkpt>
      <trkpt lat="48.52134" lon="2.23321">
        <ele>136.80000305176</ele>
        <time>2020-08-02T17:25:13.000Z</time>
      </trkpt>
      <trkpt lat="48.5214" lon="2.2333">
        <ele>136.80000305176</ele>
        <time>2020-08-02T17:25:17.000Z</time>
      </trkpt>
      <trkpt lat="48.52157" lon="2.23343">
        <ele>135.60000610352</ele>
        <time>2020-08-02T17:25:23.000Z</time>
      </trkpt>
      <trkpt lat="48.52174" lon="2.23354">
        <ele>134.39999389648</ele>
        <time>2020-08-02T17:25:29.000Z</time>
      </trkpt>
      <trkpt lat="48.52198" lon="2.2337">
        <ele>133</ele>
        <time>2020-08-02T17:25:37.000Z</time>
      </trkpt>
      <trkpt lat="48.52218" lon="2.2337">
        <ele>131.19999694824</ele>
        <time>2020-08-02T17:25:43.000Z</time>
      </trkpt>
      <trkpt lat="48.52236" lon="2.23357">
        <ele>131.80000305176</ele>
        <time>2020-08-02T17:25:49.000Z</time>
      </trkpt>
      <trkpt lat="48.5225" lon="2.23339">
        <ele>133.60000610352</ele>
        <time>2020-08-02T17:25:55.000Z</time>
      </trkpt>
      <trkpt lat="48.52256" lon="2.23323">
        <ele>134.80000305176</ele>
        <time>2020-08-02T17:25:59.000Z</time>
      </trkpt>
      <trkpt lat="48.52259" lon="2.23297">
        <ele>136.80000305176</ele>
        <time>2020-08-02T17:26:05.000Z</time>
      </trkpt>
      <trkpt lat="48.52261" lon="2.2328">
        <ele>138.19999694824</ele>
        <time>2020-08-02T17:26:09.000Z</time>
      </trkpt>
      <trkpt lat="48.52263" lon="2.23251">
        <ele>140.39999389648</ele>
        <time>2020-08-02T17:26:16.000Z</time>
      </trkpt>
      <trkpt lat="48.52264" lon="2.23232">
        <ele>141</ele>
        <time>2020-08-02T17:26:20.000Z</time>
      </trkpt>
      <trkpt lat="48.52264" lon="2.23208">
        <ele>141.39999389648</ele>
        <time>2020-08-02T17:26:25.000Z</time>
      </trkpt>
      <trkpt lat="48.52263" lon="2.23173">
        <ele>141.80000305176</ele>
        <time>2020-08-02T17:26:31.000Z</time>
      </trkpt>
      <trkpt lat="48.52263" lon="2.23163">
        <ele>141.80000305176</ele>
        <time>2020-08-02T17:26:33.000Z</time>
      </trkpt>
      <trkpt lat="48.52262" lon="2.23155">
        <ele>142</ele>
        <time>2020-08-02T17:26:35.000Z</time>
      </trkpt>
      <trkpt lat="48.52259" lon="2.23146">
        <ele>142</ele>
        <time>2020-08-02T17:26:39.000Z</time>
      </trkpt>
      <trkpt lat="48.52257" lon="2.23145">
        <ele>142</ele>
        <time>2020-08-02T17:26:40.000Z</time>
      </trkpt>
      <trkpt lat="48.52249" lon="2.23145">
        <ele>141.60000610352</ele>
        <time>2020-08-02T17:26:44.000Z</time>
      </trkpt>
      <trkpt lat="48.52245" lon="2.23147">
        <ele>141.39999389648</ele>
        <time>2020-08-02T17:26:47.000Z</time>
      </trkpt>
      <trkpt lat="48.52244" lon="2.23148">
        <ele>141.39999389648</ele>
        <time>2020-08-02T17:26:48.000Z</time>
      </trkpt>
      <trkpt lat="48.52236" lon="2.23145">
        <ele>141.19999694824</ele>
        <time>2020-08-02T17:26:51.000Z</time>
      </trkpt>
      <trkpt lat="48.52218" lon="2.23141">
        <ele>140.80000305176</ele>
        <time>2020-08-02T17:26:57.000Z</time>
      </trkpt>
      <trkpt lat="48.52202" lon="2.23143">
        <ele>140.39999389648</ele>
        <time>2020-08-02T17:27:02.000Z</time>
      </trkpt>
      <trkpt lat="48.52192" lon="2.23147">
        <ele>140.19999694824</ele>
        <time>2020-08-02T17:27:05.000Z</time>
      </trkpt>
      <trkpt lat="48.5219" lon="2.23151">
        <ele>140.19999694824</ele>
        <time>2020-08-02T17:27:06.000Z</time>
      </trkpt>
      <trkpt lat="48.52183" lon="2.23162">
        <ele>139.80000305176</ele>
        <time>2020-08-02T17:27:09.000Z</time>
      </trkpt>
      <trkpt lat="48.5218" lon="2.23164">
        <ele>139.19999694824</ele>
        <time>2020-08-02T17:27:10.000Z</time>
      </trkpt>
      <trkpt lat="48.52166" lon="2.23163">
        <ele>136.80000305176</ele>
        <time>2020-08-02T17:27:13.000Z</time>
      </trkpt>
      <trkpt lat="48.52152" lon="2.23148">
        <ele>133.60000610352</ele>
        <time>2020-08-02T17:27:17.000Z</time>
      </trkpt>
      <trkpt lat="48.52149" lon="2.2313">
        <ele>132.19999694824</ele>
        <time>2020-08-02T17:27:21.000Z</time>
      </trkpt>
      <trkpt lat="48.52149" lon="2.2312">
        <ele>132</ele>
        <time>2020-08-02T17:27:24.000Z</time>
      </trkpt>
      <trkpt lat="48.52151" lon="2.23116">
        <ele>132.60000610352</ele>
        <time>2020-08-02T17:27:26.000Z</time>
      </trkpt>
      <trkpt lat="48.52155" lon="2.23112">
        <ele>133.39999389648</ele>
        <time>2020-08-02T17:27:29.000Z</time>
      </trkpt>
      <trkpt lat="48.52156" lon="2.23112">
        <ele>133.80000305176</ele>
        <time>2020-08-02T17:27:30.000Z</time>
      </trkpt>
      <trkpt lat="48.52159" lon="2.23111">
        <ele>134.39999389648</ele>
        <time>2020-08-02T17:27:31.000Z</time>
      </trkpt>
      <trkpt lat="48.52166" lon="2.23102">
        <ele>135.80000305176</ele>
        <time>2020-08-02T17:27:34.000Z</time>
      </trkpt>
      <trkpt lat="48.52172" lon="2.23092">
        <ele>137.39999389648</ele>
        <time>2020-08-02T17:27:37.000Z</time>
      </trkpt>
      <trkpt lat="48.52175" lon="2.23086">
        <ele>138</ele>
        <time>2020-08-02T17:27:39.000Z</time>
      </trkpt>
      <trkpt lat="48.52176" lon="2.2308">
        <ele>138.19999694824</ele>
        <time>2020-08-02T17:27:41.000Z</time>
      </trkpt>
      <trkpt lat="48.52176" lon="2.23074">
        <ele>138.19999694824</ele>
        <time>2020-08-02T17:27:43.000Z</time>
      </trkpt>
      <trkpt lat="48.52176" lon="2.23071">
        <ele>138.39999389648</ele>
        <time>2020-08-02T17:27:44.000Z</time>
      </trkpt>
      <trkpt lat="48.52177" lon="2.23058">
        <ele>138.80000305176</ele>
        <time>2020-08-02T17:27:49.000Z</time>
      </trkpt>
      <trkpt lat="48.52178" lon="2.23055">
        <ele>139</ele>
        <time>2020-08-02T17:27:50.000Z</time>
      </trkpt>
      <trkpt lat="48.5218" lon="2.23047">
        <ele>139.60000610352</ele>
        <time>2020-08-02T17:27:52.000Z</time>
      </trkpt>
      <trkpt lat="48.52183" lon="2.23029">
        <ele>140.39999389648</ele>
        <time>2020-08-02T17:27:56.000Z</time>
      </trkpt>
      <trkpt lat="48.52183" lon="2.23025">
        <ele>140.39999389648</ele>
        <time>2020-08-02T17:27:57.000Z</time>
      </trkpt>
      <trkpt lat="48.52182" lon="2.2302">
        <ele>140.19999694824</ele>
        <time>2020-08-02T17:27:59.000Z</time>
      </trkpt>
      <trkpt lat="48.52177" lon="2.23013">
        <ele>139.39999389648</ele>
        <time>2020-08-02T17:28:01.000Z</time>
      </trkpt>
      <trkpt lat="48.52172" lon="2.23001">
        <ele>138.19999694824</ele>
        <time>2020-08-02T17:28:04.000Z</time>
      </trkpt>
      <trkpt lat="48.52169" lon="2.22997">
        <ele>137.80000305176</ele>
        <time>2020-08-02T17:28:05.000Z</time>
      </trkpt>
      <trkpt lat="48.52166" lon="2.22983">
        <ele>138.39999389648</ele>
        <time>2020-08-02T17:28:08.000Z</time>
      </trkpt>
      <trkpt lat="48.52161" lon="2.22962">
        <ele>138.80000305176</ele>
        <time>2020-08-02T17:28:13.000Z</time>
      </trkpt>
      <trkpt lat="48.5216" lon="2.22943">
        <ele>139.19999694824</ele>
        <time>2020-08-02T17:28:17.000Z</time>
      </trkpt>
      <trkpt lat="48.52161" lon="2.22913">
        <ele>140</ele>
        <time>2020-08-02T17:28:23.000Z</time>
      </trkpt>
      <trkpt lat="48.52158" lon="2.22897">
        <ele>140.39999389648</ele>
        <time>2020-08-02T17:28:27.000Z</time>
      </trkpt>
      <trkpt lat="48.52157" lon="2.22892">
        <ele>140.80000305176</ele>
        <time>2020-08-02T17:28:28.000Z</time>
      </trkpt>
      <trkpt lat="48.52156" lon="2.22886">
        <ele>140.80000305176</ele>
        <time>2020-08-02T17:28:29.000Z</time>
      </trkpt>
      <trkpt lat="48.52154" lon="2.2287">
        <ele>141</ele>
        <time>2020-08-02T17:28:32.000Z</time>
      </trkpt>
      <trkpt lat="48.52154" lon="2.22861">
        <ele>141.19999694824</ele>
        <time>2020-08-02T17:28:34.000Z</time>
      </trkpt>
      <trkpt lat="48.52149" lon="2.2285">
        <ele>140.80000305176</ele>
        <time>2020-08-02T17:28:36.000Z</time>
      </trkpt>
      <trkpt lat="48.52138" lon="2.22831">
        <ele>140.19999694824</ele>
        <time>2020-08-02T17:28:40.000Z</time>
      </trkpt>
      <trkpt lat="48.52135" lon="2.22829">
        <ele>139.80000305176</ele>
        <time>2020-08-02T17:28:41.000Z</time>
      </trkpt>
      <trkpt lat="48.52132" lon="2.22827">
        <ele>139.60000610352</ele>
        <time>2020-08-02T17:28:42.000Z</time>
      </trkpt>
      <trkpt lat="48.52125" lon="2.2283">
        <ele>139</ele>
        <time>2020-08-02T17:28:44.000Z</time>
      </trkpt>
      <trkpt lat="48.5212" lon="2.22835">
        <ele>138.60000610352</ele>
        <time>2020-08-02T17:28:47.000Z</time>
      </trkpt>
      <trkpt lat="48.52115" lon="2.22843">
        <ele>138</ele>
        <time>2020-08-02T17:28:52.000Z</time>
      </trkpt>
      <trkpt lat="48.52114" lon="2.22847">
        <ele>137.60000610352</ele>
        <time>2020-08-02T17:28:54.000Z</time>
      </trkpt>
      <trkpt lat="48.52107" lon="2.22851">
        <ele>136.60000610352</ele>
        <time>2020-08-02T17:28:56.000Z</time>
      </trkpt>
      <trkpt lat="48.52103" lon="2.22853">
        <ele>135.80000305176</ele>
        <time>2020-08-02T17:28:57.000Z</time>
      </trkpt>
      <trkpt lat="48.5209" lon="2.22856">
        <ele>132.60000610352</ele>
        <time>2020-08-02T17:29:00.000Z</time>
      </trkpt>
      <trkpt lat="48.52084" lon="2.22852">
        <ele>131</ele>
        <time>2020-08-02T17:29:03.000Z</time>
      </trkpt>
      <trkpt lat="48.52082" lon="2.22853">
        <ele>130.39999389648</ele>
        <time>2020-08-02T17:29:04.000Z</time>
      </trkpt>
      <trkpt lat="48.52072" lon="2.22852">
        <ele>127.80000305176</ele>
        <time>2020-08-02T17:29:08.000Z</time>
      </trkpt>
      <trkpt lat="48.52065" lon="2.22854">
        <ele>125.59999847412</ele>
        <time>2020-08-02T17:29:12.000Z</time>
      </trkpt>
      <trkpt lat="48.5206" lon="2.22862">
        <ele>123.80000305176</ele>
        <time>2020-08-02T17:29:16.000Z</time>
      </trkpt>
      <trkpt lat="48.52058" lon="2.22864">
        <ele>123.19999694824</ele>
        <time>2020-08-02T17:29:18.000Z</time>
      </trkpt>
      <trkpt lat="48.52028" lon="2.22849">
        <ele>115.59999847412</ele>
        <time>2020-08-02T17:30:51.000Z</time>
      </trkpt>
      <trkpt lat="48.52026" lon="2.22859">
        <ele>114.19999694824</ele>
        <time>2020-08-02T17:30:53.000Z</time>
      </trkpt>
      <trkpt lat="48.52026" lon="2.22868">
        <ele>113.59999847412</ele>
        <time>2020-08-02T17:30:55.000Z</time>
      </trkpt>
      <trkpt lat="48.52027" lon="2.22874">
        <ele>113.59999847412</ele>
        <time>2020-08-02T17:30:57.000Z</time>
      </trkpt>
      <trkpt lat="48.52028" lon="2.22878">
        <ele>113.59999847412</ele>
        <time>2020-08-02T17:30:59.000Z</time>
      </trkpt>
      <trkpt lat="48.5203" lon="2.22887">
        <ele>113.59999847412</ele>
        <time>2020-08-02T17:31:16.000Z</time>
      </trkpt>
      <trkpt lat="48.52032" lon="2.2289">
        <ele>114</ele>
        <time>2020-08-02T17:31:17.000Z</time>
      </trkpt>
      <trkpt lat="48.52033" lon="2.22894">
        <ele>114</ele>
        <time>2020-08-02T17:31:19.000Z</time>
      </trkpt>
      <trkpt lat="48.52022" lon="2.22896">
        <ele>110.59999847412</ele>
        <time>2020-08-02T17:31:32.000Z</time>
      </trkpt>
      <trkpt lat="48.5202" lon="2.22894">
        <ele>110.40000152588</ele>
        <time>2020-08-02T17:31:33.000Z</time>
      </trkpt>
      <trkpt lat="48.52014" lon="2.22884">
        <ele>109.80000305176</ele>
        <time>2020-08-02T17:31:36.000Z</time>
      </trkpt>
      <trkpt lat="48.52011" lon="2.22878">
        <ele>110</ele>
        <time>2020-08-02T17:31:38.000Z</time>
      </trkpt>
      <trkpt lat="48.52005" lon="2.22868">
        <ele>110.19999694824</ele>
        <time>2020-08-02T17:31:41.000Z</time>
      </trkpt>
      <trkpt lat="48.52004" lon="2.22864">
        <ele>110.40000152588</ele>
        <time>2020-08-02T17:31:42.000Z</time>
      </trkpt>
      <trkpt lat="48.51999" lon="2.22852">
        <ele>110.80000305176</ele>
        <time>2020-08-02T17:31:45.000Z</time>
      </trkpt>
      <trkpt lat="48.51998" lon="2.22848">
        <ele>111</ele>
        <time>2020-08-02T17:31:46.000Z</time>
      </trkpt>
      <trkpt lat="48.51998" lon="2.22842">
        <ele>111.40000152588</ele>
        <time>2020-08-02T17:31:48.000Z</time>
      </trkpt>
      <trkpt lat="48.51999" lon="2.22836">
        <ele>112</ele>
        <time>2020-08-02T17:31:50.000Z</time>
      </trkpt>
      <trkpt lat="48.51997" lon="2.22828">
        <ele>112.40000152588</ele>
        <time>2020-08-02T17:31:52.000Z</time>
      </trkpt>
      <trkpt lat="48.51986" lon="2.22811">
        <ele>112.40000152588</ele>
        <time>2020-08-02T17:31:56.000Z</time>
      </trkpt>
      <trkpt lat="48.51978" lon="2.22801">
        <ele>112.40000152588</ele>
        <time>2020-08-02T17:31:59.000Z</time>
      </trkpt>
      <trkpt lat="48.51973" lon="2.22793">
        <ele>112.40000152588</ele>
        <time>2020-08-02T17:32:02.000Z</time>
      </trkpt>
      <trkpt lat="48.51964" lon="2.22786">
        <ele>112.19999694824</ele>
        <time>2020-08-02T17:32:05.000Z</time>
      </trkpt>
      <trkpt lat="48.5196" lon="2.22784">
        <ele>111.80000305176</ele>
        <time>2020-08-02T17:32:06.000Z</time>
      </trkpt>
      <trkpt lat="48.51955" lon="2.22783">
        <ele>111.59999847412</ele>
        <time>2020-08-02T17:32:07.000Z</time>
      </trkpt>
      <trkpt lat="48.51943" lon="2.22784">
        <ele>110.40000152588</ele>
        <time>2020-08-02T17:32:10.000Z</time>
      </trkpt>
      <trkpt lat="48.51933" lon="2.22782">
        <ele>109.80000305176</ele>
        <time>2020-08-02T17:32:12.000Z</time>
      </trkpt>
      <trkpt lat="48.51922" lon="2.22778">
        <ele>108.80000305176</ele>
        <time>2020-08-02T17:32:14.000Z</time>
      </trkpt>
      <trkpt lat="48.5189" lon="2.22774">
        <ele>106</ele>
        <time>2020-08-02T17:32:19.000Z</time>
      </trkpt>
      <trkpt lat="48.51884" lon="2.22774">
        <ele>105.40000152588</ele>
        <time>2020-08-02T17:32:20.000Z</time>
      </trkpt>
      <trkpt lat="48.51871" lon="2.22779">
        <ele>104.40000152588</ele>
        <time>2020-08-02T17:32:22.000Z</time>
      </trkpt>
      <trkpt lat="48.51855" lon="2.22794">
        <ele>103</ele>
        <time>2020-08-02T17:32:25.000Z</time>
      </trkpt>
      <trkpt lat="48.51837" lon="2.22811">
        <ele>101.19999694824</ele>
        <time>2020-08-02T17:32:28.000Z</time>
      </trkpt>
      <trkpt lat="48.5183" lon="2.22816">
        <ele>100.59999847412</ele>
        <time>2020-08-02T17:32:29.000Z</time>
      </trkpt>
      <trkpt lat="48.51816" lon="2.22822">
        <ele>99.800003051758</ele>
        <time>2020-08-02T17:32:31.000Z</time>
      </trkpt>
      <trkpt lat="48.51805" lon="2.22823">
        <ele>99.199996948242</ele>
        <time>2020-08-02T17:32:33.000Z</time>
      </trkpt>
      <trkpt lat="48.518" lon="2.22822">
        <ele>98.800003051758</ele>
        <time>2020-08-02T17:32:34.000Z</time>
      </trkpt>
      <trkpt lat="48.51791" lon="2.22815">
        <ele>98.199996948242</ele>
        <time>2020-08-02T17:32:36.000Z</time>
      </trkpt>
      <trkpt lat="48.51787" lon="2.22811">
        <ele>98</ele>
        <time>2020-08-02T17:32:37.000Z</time>
      </trkpt>
      <trkpt lat="48.51775" lon="2.22797">
        <ele>97</ele>
        <time>2020-08-02T17:32:40.000Z</time>
      </trkpt>
      <trkpt lat="48.51763" lon="2.22785">
        <ele>96</ele>
        <time>2020-08-02T17:32:43.000Z</time>
      </trkpt>
      <trkpt lat="48.51759" lon="2.2278">
        <ele>95.400001525879</ele>
        <time>2020-08-02T17:32:44.000Z</time>
      </trkpt>
      <trkpt lat="48.5175" lon="2.2277">
        <ele>94.199996948242</ele>
        <time>2020-08-02T17:32:46.000Z</time>
      </trkpt>
      <trkpt lat="48.51744" lon="2.22761">
        <ele>93.400001525879</ele>
        <time>2020-08-02T17:32:48.000Z</time>
      </trkpt>
      <trkpt lat="48.51739" lon="2.22753">
        <ele>92.800003051758</ele>
        <time>2020-08-02T17:32:50.000Z</time>
      </trkpt>
      <trkpt lat="48.51739" lon="2.22749">
        <ele>92.800003051758</ele>
        <time>2020-08-02T17:32:51.000Z</time>
      </trkpt>
      <trkpt lat="48.51738" lon="2.22744">
        <ele>92.400001525879</ele>
        <time>2020-08-02T17:32:53.000Z</time>
      </trkpt>
      <trkpt lat="48.51732" lon="2.22739">
        <ele>91.800003051758</ele>
        <time>2020-08-02T17:32:55.000Z</time>
      </trkpt>
      <trkpt lat="48.51723" lon="2.22732">
        <ele>90.800003051758</ele>
        <time>2020-08-02T17:32:57.000Z</time>
      </trkpt>
      <trkpt lat="48.51713" lon="2.22721">
        <ele>89.400001525879</ele>
        <time>2020-08-02T17:32:59.000Z</time>
      </trkpt>
      <trkpt lat="48.51709" lon="2.22716">
        <ele>89</ele>
        <time>2020-08-02T17:33:00.000Z</time>
      </trkpt>
      <trkpt lat="48.51701" lon="2.22707">
        <ele>88.199996948242</ele>
        <time>2020-08-02T17:33:02.000Z</time>
      </trkpt>
      <trkpt lat="48.51698" lon="2.22701">
        <ele>87.599998474121</ele>
        <time>2020-08-02T17:33:03.000Z</time>
      </trkpt>
      <trkpt lat="48.51689" lon="2.22691">
        <ele>86.599998474121</ele>
        <time>2020-08-02T17:33:05.000Z</time>
      </trkpt>
      <trkpt lat="48.5168" lon="2.22678">
        <ele>85.599998474121</ele>
        <time>2020-08-02T17:33:07.000Z</time>
      </trkpt>
      <trkpt lat="48.5167" lon="2.22665">
        <ele>84.599998474121</ele>
        <time>2020-08-02T17:33:09.000Z</time>
      </trkpt>
      <trkpt lat="48.5166" lon="2.22651">
        <ele>83.800003051758</ele>
        <time>2020-08-02T17:33:11.000Z</time>
      </trkpt>
      <trkpt lat="48.51636" lon="2.22617">
        <ele>82</ele>
        <time>2020-08-02T17:33:16.000Z</time>
      </trkpt>
      <trkpt lat="48.51623" lon="2.22593">
        <ele>81</ele>
        <time>2020-08-02T17:33:20.000Z</time>
      </trkpt>
      <trkpt lat="48.51621" lon="2.22581">
        <ele>80.800003051758</ele>
        <time>2020-08-02T17:33:22.000Z</time>
      </trkpt>
      <trkpt lat="48.51622" lon="2.22566">
        <ele>80.400001525879</ele>
        <time>2020-08-02T17:33:24.000Z</time>
      </trkpt>
      <trkpt lat="48.51626" lon="2.22519">
        <ele>79.800003051758</ele>
        <time>2020-08-02T17:33:30.000Z</time>
      </trkpt>
      <trkpt lat="48.51628" lon="2.22466">
        <ele>79</ele>
        <time>2020-08-02T17:33:36.000Z</time>
      </trkpt>
      <trkpt lat="48.51628" lon="2.22457">
        <ele>78.800003051758</ele>
        <time>2020-08-02T17:33:37.000Z</time>
      </trkpt>
      <trkpt lat="48.51626" lon="2.22387">
        <ele>78.199996948242</ele>
        <time>2020-08-02T17:33:44.000Z</time>
      </trkpt>
      <trkpt lat="48.5162" lon="2.22312">
        <ele>77.199996948242</ele>
        <time>2020-08-02T17:33:51.000Z</time>
      </trkpt>
      <trkpt lat="48.51612" lon="2.2223">
        <ele>75.400001525879</ele>
        <time>2020-08-02T17:33:59.000Z</time>
      </trkpt>
      <trkpt lat="48.5161" lon="2.22221">
        <ele>75.199996948242</ele>
        <time>2020-08-02T17:34:00.000Z</time>
      </trkpt>
      <trkpt lat="48.51604" lon="2.22194">
        <ele>74.400001525879</ele>
        <time>2020-08-02T17:34:03.000Z</time>
      </trkpt>
      <trkpt lat="48.51597" lon="2.22179">
        <ele>73.800003051758</ele>
        <time>2020-08-02T17:34:05.000Z</time>
      </trkpt>
      <trkpt lat="48.51588" lon="2.22165">
        <ele>73.199996948242</ele>
        <time>2020-08-02T17:34:07.000Z</time>
      </trkpt>
      <trkpt lat="48.51558" lon="2.22119">
        <ele>72.400001525879</ele>
        <time>2020-08-02T17:34:14.000Z</time>
      </trkpt>
      <trkpt lat="48.51555" lon="2.22112">
        <ele>72.400001525879</ele>
        <time>2020-08-02T17:34:15.000Z</time>
      </trkpt>
      <trkpt lat="48.51543" lon="2.22092">
        <ele>72.400001525879</ele>
        <time>2020-08-02T17:34:18.000Z</time>
      </trkpt>
      <trkpt lat="48.51513" lon="2.22051">
        <ele>72.199996948242</ele>
        <time>2020-08-02T17:34:25.000Z</time>
      </trkpt>
      <trkpt lat="48.5148" lon="2.22013">
        <ele>72.800003051758</ele>
        <time>2020-08-02T17:34:32.000Z</time>
      </trkpt>
      <trkpt lat="48.5144" lon="2.21958">
        <ele>73.599998474121</ele>
        <time>2020-08-02T17:34:41.000Z</time>
      </trkpt>
      <trkpt lat="48.51422" lon="2.21935">
        <ele>74.400001525879</ele>
        <time>2020-08-02T17:34:45.000Z</time>
      </trkpt>
      <trkpt lat="48.51413" lon="2.21924">
        <ele>75</ele>
        <time>2020-08-02T17:34:47.000Z</time>
      </trkpt>
      <trkpt lat="48.51403" lon="2.21913">
        <ele>75.599998474121</ele>
        <time>2020-08-02T17:34:49.000Z</time>
      </trkpt>
      <trkpt lat="48.51385" lon="2.21887">
        <ele>76.400001525879</ele>
        <time>2020-08-02T17:34:53.000Z</time>
      </trkpt>
      <trkpt lat="48.51377" lon="2.21875">
        <ele>76.800003051758</ele>
        <time>2020-08-02T17:34:55.000Z</time>
      </trkpt>
      <trkpt lat="48.51372" lon="2.21858">
        <ele>77.199996948242</ele>
        <time>2020-08-02T17:34:57.000Z</time>
      </trkpt>
      <trkpt lat="48.51372" lon="2.21841">
        <ele>77.400001525879</ele>
        <time>2020-08-02T17:34:59.000Z</time>
      </trkpt>
      <trkpt lat="48.51373" lon="2.21832">
        <ele>77.599998474121</ele>
        <time>2020-08-02T17:35:00.000Z</time>
      </trkpt>
      <trkpt lat="48.51375" lon="2.21823">
        <ele>77.599998474121</ele>
        <time>2020-08-02T17:35:01.000Z</time>
      </trkpt>
      <trkpt lat="48.51385" lon="2.21801">
        <ele>77.199996948242</ele>
        <time>2020-08-02T17:35:04.000Z</time>
      </trkpt>
      <trkpt lat="48.51394" lon="2.2178">
        <ele>77.199996948242</ele>
        <time>2020-08-02T17:35:07.000Z</time>
      </trkpt>
      <trkpt lat="48.51398" lon="2.21764">
        <ele>77.400001525879</ele>
        <time>2020-08-02T17:35:09.000Z</time>
      </trkpt>
      <trkpt lat="48.51399" lon="2.21757">
        <ele>77.400001525879</ele>
        <time>2020-08-02T17:35:10.000Z</time>
      </trkpt>
      <trkpt lat="48.514" lon="2.21741">
        <ele>77.800003051758</ele>
        <time>2020-08-02T17:35:12.000Z</time>
      </trkpt>
      <trkpt lat="48.51397" lon="2.21726">
        <ele>78.199996948242</ele>
        <time>2020-08-02T17:35:14.000Z</time>
      </trkpt>
      <trkpt lat="48.51385" lon="2.21691">
        <ele>79.400001525879</ele>
        <time>2020-08-02T17:35:19.000Z</time>
      </trkpt>
      <trkpt lat="48.51382" lon="2.21685">
        <ele>79.599998474121</ele>
        <time>2020-08-02T17:35:20.000Z</time>
      </trkpt>
      <trkpt lat="48.5136" lon="2.21623">
        <ele>82.599998474121</ele>
        <time>2020-08-02T17:35:29.000Z</time>
      </trkpt>
      <trkpt lat="48.51344" lon="2.21567">
        <ele>85.400001525879</ele>
        <time>2020-08-02T17:35:37.000Z</time>
      </trkpt>
      <trkpt lat="48.51331" lon="2.21525">
        <ele>86.199996948242</ele>
        <time>2020-08-02T17:35:43.000Z</time>
      </trkpt>
      <trkpt lat="48.51314" lon="2.21484">
        <ele>87.599998474121</ele>
        <time>2020-08-02T17:35:49.000Z</time>
      </trkpt>
      <trkpt lat="48.51308" lon="2.2147">
        <ele>88.400001525879</ele>
        <time>2020-08-02T17:35:51.000Z</time>
      </trkpt>
      <trkpt lat="48.51298" lon="2.21443">
        <ele>90</ele>
        <time>2020-08-02T17:35:55.000Z</time>
      </trkpt>
      <trkpt lat="48.51279" lon="2.21397">
        <ele>92</ele>
        <time>2020-08-02T17:36:02.000Z</time>
      </trkpt>
      <trkpt lat="48.51276" lon="2.21383">
        <ele>92.199996948242</ele>
        <time>2020-08-02T17:36:04.000Z</time>
      </trkpt>
      <trkpt lat="48.51276" lon="2.2137">
        <ele>92</ele>
        <time>2020-08-02T17:36:06.000Z</time>
      </trkpt>
      <trkpt lat="48.5128" lon="2.2133">
        <ele>92.199996948242</ele>
        <time>2020-08-02T17:36:12.000Z</time>
      </trkpt>
      <trkpt lat="48.51279" lon="2.21316">
        <ele>92.800003051758</ele>
        <time>2020-08-02T17:36:14.000Z</time>
      </trkpt>
      <trkpt lat="48.51275" lon="2.21305">
        <ele>93</ele>
        <time>2020-08-02T17:36:16.000Z</time>
      </trkpt>
      <trkpt lat="48.51271" lon="2.21301">
        <ele>93</ele>
        <time>2020-08-02T17:36:17.000Z</time>
      </trkpt>
      <trkpt lat="48.51267" lon="2.21297">
        <ele>93.199996948242</ele>
        <time>2020-08-02T17:36:18.000Z</time>
      </trkpt>
      <trkpt lat="48.51252" lon="2.21282">
        <ele>93</ele>
        <time>2020-08-02T17:36:22.000Z</time>
      </trkpt>
      <trkpt lat="48.51233" lon="2.21263">
        <ele>92.800003051758</ele>
        <time>2020-08-02T17:36:27.000Z</time>
      </trkpt>
      <trkpt lat="48.51226" lon="2.21256">
        <ele>92.599998474121</ele>
        <time>2020-08-02T17:36:29.000Z</time>
      </trkpt>
      <trkpt lat="48.5121" lon="2.21239">
        <ele>92.400001525879</ele>
        <time>2020-08-02T17:36:33.000Z</time>
      </trkpt>
      <trkpt lat="48.51207" lon="2.21235">
        <ele>92.599998474121</ele>
        <time>2020-08-02T17:36:34.000Z</time>
      </trkpt>
      <trkpt lat="48.51203" lon="2.2123">
        <ele>92.400001525879</ele>
        <time>2020-08-02T17:36:35.000Z</time>
      </trkpt>
      <trkpt lat="48.51184" lon="2.21214">
        <ele>92.199996948242</ele>
        <time>2020-08-02T17:36:39.000Z</time>
      </trkpt>
      <trkpt lat="48.51173" lon="2.21205">
        <ele>91.800003051758</ele>
        <time>2020-08-02T17:36:41.000Z</time>
      </trkpt>
      <trkpt lat="48.51158" lon="2.2119">
        <ele>91.400001525879</ele>
        <time>2020-08-02T17:36:44.000Z</time>
      </trkpt>
      <trkpt lat="48.51122" lon="2.21155">
        <ele>90.599998474121</ele>
        <time>2020-08-02T17:36:51.000Z</time>
      </trkpt>
      <trkpt lat="48.51085" lon="2.21118">
        <ele>90.599998474121</ele>
        <time>2020-08-02T17:36:58.000Z</time>
      </trkpt>
      <trkpt lat="48.5105" lon="2.21081">
        <ele>91.199996948242</ele>
        <time>2020-08-02T17:37:05.000Z</time>
      </trkpt>
      <trkpt lat="48.51012" lon="2.21038">
        <ele>90.800003051758</ele>
        <time>2020-08-02T17:37:13.000Z</time>
      </trkpt>
      <trkpt lat="48.50991" lon="2.21011">
        <ele>90.400001525879</ele>
        <time>2020-08-02T17:37:18.000Z</time>
      </trkpt>
      <trkpt lat="48.50987" lon="2.21008">
        <ele>90.199996948242</ele>
        <time>2020-08-02T17:37:19.000Z</time>
      </trkpt>
      <trkpt lat="48.50983" lon="2.2101">
        <ele>90</ele>
        <time>2020-08-02T17:37:20.000Z</time>
      </trkpt>
      <trkpt lat="48.50979" lon="2.21016">
        <ele>89.800003051758</ele>
        <time>2020-08-02T17:37:21.000Z</time>
      </trkpt>
      <trkpt lat="48.50962" lon="2.21054">
        <ele>90.599998474121</ele>
        <time>2020-08-02T17:37:26.000Z</time>
      </trkpt>
      <trkpt lat="48.50958" lon="2.2106">
        <ele>91</ele>
        <time>2020-08-02T17:37:27.000Z</time>
      </trkpt>
      <trkpt lat="48.50953" lon="2.21066">
        <ele>91.599998474121</ele>
        <time>2020-08-02T17:37:28.000Z</time>
      </trkpt>
      <trkpt lat="48.50941" lon="2.21073">
        <ele>92.400001525879</ele>
        <time>2020-08-02T17:37:30.000Z</time>
      </trkpt>
      <trkpt lat="48.50914" lon="2.2109">
        <ele>91.199996948242</ele>
        <time>2020-08-02T17:37:35.000Z</time>
      </trkpt>
      <trkpt lat="48.50875" lon="2.21113">
        <ele>88.199996948242</ele>
        <time>2020-08-02T17:37:41.000Z</time>
      </trkpt>
      <trkpt lat="48.50852" lon="2.21129">
        <ele>87.400001525879</ele>
        <time>2020-08-02T17:37:44.000Z</time>
      </trkpt>
      <trkpt lat="48.50838" lon="2.21145">
        <ele>86</ele>
        <time>2020-08-02T17:37:46.000Z</time>
      </trkpt>
      <trkpt lat="48.50823" lon="2.21176">
        <ele>84.199996948242</ele>
        <time>2020-08-02T17:37:49.000Z</time>
      </trkpt>
      <trkpt lat="48.50794" lon="2.21254">
        <ele>82</ele>
        <time>2020-08-02T17:37:56.000Z</time>
      </trkpt>
      <trkpt lat="48.50764" lon="2.21325">
        <ele>79.800003051758</ele>
        <time>2020-08-02T17:38:02.000Z</time>
      </trkpt>
      <trkpt lat="48.50759" lon="2.21338">
        <ele>79.199996948242</ele>
        <time>2020-08-02T17:38:03.000Z</time>
      </trkpt>
      <trkpt lat="48.50724" lon="2.21417">
        <ele>75.599998474121</ele>
        <time>2020-08-02T17:38:09.000Z</time>
      </trkpt>
      <trkpt lat="48.50713" lon="2.21444">
        <ele>75.199996948242</ele>
        <time>2020-08-02T17:38:11.000Z</time>
      </trkpt>
      <trkpt lat="48.50678" lon="2.21526">
        <ele>70.599998474121</ele>
        <time>2020-08-02T17:38:17.000Z</time>
      </trkpt>
      <trkpt lat="48.50665" lon="2.21554">
        <ele>69.400001525879</ele>
        <time>2020-08-02T17:38:19.000Z</time>
      </trkpt>
      <trkpt lat="48.5064" lon="2.2161">
        <ele>67.599998474121</ele>
        <time>2020-08-02T17:38:23.000Z</time>
      </trkpt>
      <trkpt lat="48.50608" lon="2.21678">
        <ele>64</ele>
        <time>2020-08-02T17:38:28.000Z</time>
      </trkpt>
      <trkpt lat="48.50602" lon="2.21691">
        <ele>63.799999237061</ele>
        <time>2020-08-02T17:38:29.000Z</time>
      </trkpt>
      <trkpt lat="48.50575" lon="2.21753">
        <ele>64.400001525879</ele>
        <time>2020-08-02T17:38:34.000Z</time>
      </trkpt>
      <trkpt lat="48.50556" lon="2.21797">
        <ele>64.199996948242</ele>
        <time>2020-08-02T17:38:38.000Z</time>
      </trkpt>
      <trkpt lat="48.50538" lon="2.21835">
        <ele>63</ele>
        <time>2020-08-02T17:38:42.000Z</time>
      </trkpt>
      <trkpt lat="48.50502" lon="2.21897">
        <ele>63.200000762939</ele>
        <time>2020-08-02T17:38:49.000Z</time>
      </trkpt>
      <trkpt lat="48.50479" lon="2.21936">
        <ele>64.400001525879</ele>
        <time>2020-08-02T17:38:54.000Z</time>
      </trkpt>
      <trkpt lat="48.50452" lon="2.21981">
        <ele>64.400001525879</ele>
        <time>2020-08-02T17:39:00.000Z</time>
      </trkpt>
      <trkpt lat="48.50426" lon="2.22025">
        <ele>64</ele>
        <time>2020-08-02T17:39:06.000Z</time>
      </trkpt>
      <trkpt lat="48.50395" lon="2.22076">
        <ele>64.400001525879</ele>
        <time>2020-08-02T17:39:13.000Z</time>
      </trkpt>
      <trkpt lat="48.50363" lon="2.22131">
        <ele>64.199996948242</ele>
        <time>2020-08-02T17:39:21.000Z</time>
      </trkpt>
      <trkpt lat="48.50341" lon="2.22168">
        <ele>62.599998474121</ele>
        <time>2020-08-02T17:39:27.000Z</time>
      </trkpt>
      <trkpt lat="48.50325" lon="2.22201">
        <ele>61.400001525879</ele>
        <time>2020-08-02T17:39:32.000Z</time>
      </trkpt>
      <trkpt lat="48.50302" lon="2.22244">
        <ele>61.599998474121</ele>
        <time>2020-08-02T17:39:38.000Z</time>
      </trkpt>
      <trkpt lat="48.5028" lon="2.22291">
        <ele>63.400001525879</ele>
        <time>2020-08-02T17:39:45.000Z</time>
      </trkpt>
      <trkpt lat="48.50265" lon="2.22321">
        <ele>64.800003051758</ele>
        <time>2020-08-02T17:39:50.000Z</time>
      </trkpt>
      <trkpt lat="48.50261" lon="2.22325">
        <ele>65</ele>
        <time>2020-08-02T17:39:51.000Z</time>
      </trkpt>
      <trkpt lat="48.50257" lon="2.22328">
        <ele>65.400001525879</ele>
        <time>2020-08-02T17:39:52.000Z</time>
      </trkpt>
      <trkpt lat="48.50248" lon="2.22332">
        <ele>65.800003051758</ele>
        <time>2020-08-02T17:39:54.000Z</time>
      </trkpt>
      <trkpt lat="48.50243" lon="2.22333">
        <ele>66</ele>
        <time>2020-08-02T17:39:55.000Z</time>
      </trkpt>
      <trkpt lat="48.50207" lon="2.22341">
        <ele>67.400001525879</ele>
        <time>2020-08-02T17:40:02.000Z</time>
      </trkpt>
      <trkpt lat="48.50172" lon="2.22354">
        <ele>68.400001525879</ele>
        <time>2020-08-02T17:40:09.000Z</time>
      </trkpt>
      <trkpt lat="48.50147" lon="2.22365">
        <ele>69.400001525879</ele>
        <time>2020-08-02T17:40:14.000Z</time>
      </trkpt>
      <trkpt lat="48.50138" lon="2.22368">
        <ele>69.599998474121</ele>
        <time>2020-08-02T17:40:16.000Z</time>
      </trkpt>
      <trkpt lat="48.50103" lon="2.22379">
        <ele>70.400001525879</ele>
        <time>2020-08-02T17:40:23.000Z</time>
      </trkpt>
      <trkpt lat="48.50099" lon="2.22379">
        <ele>70.400001525879</ele>
        <time>2020-08-02T17:40:24.000Z</time>
      </trkpt>
      <trkpt lat="48.50089" lon="2.2238">
        <ele>70.599998474121</ele>
        <time>2020-08-02T17:40:26.000Z</time>
      </trkpt>
      <trkpt lat="48.5008" lon="2.22381">
        <ele>70.599998474121</ele>
        <time>2020-08-02T17:40:28.000Z</time>
      </trkpt>
      <trkpt lat="48.50058" lon="2.22384">
        <ele>71</ele>
        <time>2020-08-02T17:40:32.000Z</time>
      </trkpt>
      <trkpt lat="48.50029" lon="2.22388">
        <ele>71.800003051758</ele>
        <time>2020-08-02T17:40:37.000Z</time>
      </trkpt>
      <trkpt lat="48.4999" lon="2.22393">
        <ele>71.400001525879</ele>
        <time>2020-08-02T17:40:44.000Z</time>
      </trkpt>
      <trkpt lat="48.49966" lon="2.22396">
        <ele>71.199996948242</ele>
        <time>2020-08-02T17:40:48.000Z</time>
      </trkpt>
      <trkpt lat="48.49961" lon="2.22396">
        <ele>71.199996948242</ele>
        <time>2020-08-02T17:40:49.000Z</time>
      </trkpt>
      <trkpt lat="48.49943" lon="2.22397">
        <ele>71</ele>
        <time>2020-08-02T17:40:52.000Z</time>
      </trkpt>
      <trkpt lat="48.49932" lon="2.22399">
        <ele>70.800003051758</ele>
        <time>2020-08-02T17:40:54.000Z</time>
      </trkpt>
      <trkpt lat="48.49915" lon="2.224">
        <ele>71.199996948242</ele>
        <time>2020-08-02T17:40:57.000Z</time>
      </trkpt>
      <trkpt lat="48.49903" lon="2.224">
        <ele>71.199996948242</ele>
        <time>2020-08-02T17:40:59.000Z</time>
      </trkpt>
      <trkpt lat="48.49862" lon="2.22405">
        <ele>71</ele>
        <time>2020-08-02T17:41:06.000Z</time>
      </trkpt>
      <trkpt lat="48.49833" lon="2.22407">
        <ele>71.199996948242</ele>
        <time>2020-08-02T17:41:11.000Z</time>
      </trkpt>
      <trkpt lat="48.49828" lon="2.22405">
        <ele>71.400001525879</ele>
        <time>2020-08-02T17:41:12.000Z</time>
      </trkpt>
      <trkpt lat="48.49822" lon="2.22404">
        <ele>71.400001525879</ele>
        <time>2020-08-02T17:41:13.000Z</time>
      </trkpt>
      <trkpt lat="48.498" lon="2.22397">
        <ele>71.800003051758</ele>
        <time>2020-08-02T17:41:17.000Z</time>
      </trkpt>
      <trkpt lat="48.4978" lon="2.22377">
        <ele>72.199996948242</ele>
        <time>2020-08-02T17:41:21.000Z</time>
      </trkpt>
      <trkpt lat="48.49742" lon="2.22347">
        <ele>72.199996948242</ele>
        <time>2020-08-02T17:41:28.000Z</time>
      </trkpt>
      <trkpt lat="48.49709" lon="2.22321">
        <ele>71.800003051758</ele>
        <time>2020-08-02T17:41:34.000Z</time>
      </trkpt>
      <trkpt lat="48.49704" lon="2.22318">
        <ele>71.800003051758</ele>
        <time>2020-08-02T17:41:35.000Z</time>
      </trkpt>
      <trkpt lat="48.49686" lon="2.22306">
        <ele>71.800003051758</ele>
        <time>2020-08-02T17:41:38.000Z</time>
      </trkpt>
      <trkpt lat="48.4968" lon="2.22302">
        <ele>71.800003051758</ele>
        <time>2020-08-02T17:41:39.000Z</time>
      </trkpt>
      <trkpt lat="48.49664" lon="2.22287">
        <ele>71.800003051758</ele>
        <time>2020-08-02T17:41:42.000Z</time>
      </trkpt>
      <trkpt lat="48.49658" lon="2.22282">
        <ele>71.800003051758</ele>
        <time>2020-08-02T17:41:43.000Z</time>
      </trkpt>
      <trkpt lat="48.49624" lon="2.22256">
        <ele>71.400001525879</ele>
        <time>2020-08-02T17:41:49.000Z</time>
      </trkpt>
      <trkpt lat="48.49618" lon="2.2225">
        <ele>71.400001525879</ele>
        <time>2020-08-02T17:41:50.000Z</time>
      </trkpt>
      <trkpt lat="48.49585" lon="2.22223">
        <ele>70.599998474121</ele>
        <time>2020-08-02T17:41:56.000Z</time>
      </trkpt>
      <trkpt lat="48.49547" lon="2.22191">
        <ele>69.800003051758</ele>
        <time>2020-08-02T17:42:03.000Z</time>
      </trkpt>
      <trkpt lat="48.49503" lon="2.22156">
        <ele>69</ele>
        <time>2020-08-02T17:42:11.000Z</time>
      </trkpt>
      <trkpt lat="48.4948" lon="2.22139">
        <ele>68.800003051758</ele>
        <time>2020-08-02T17:42:15.000Z</time>
      </trkpt>
      <trkpt lat="48.49475" lon="2.22134">
        <ele>68.599998474121</ele>
        <time>2020-08-02T17:42:16.000Z</time>
      </trkpt>
      <trkpt lat="48.49446" lon="2.22097">
        <ele>68.199996948242</ele>
        <time>2020-08-02T17:42:22.000Z</time>
      </trkpt>
      <trkpt lat="48.49442" lon="2.2209">
        <ele>68.199996948242</ele>
        <time>2020-08-02T17:42:23.000Z</time>
      </trkpt>
      <trkpt lat="48.49417" lon="2.22047">
        <ele>67.400001525879</ele>
        <time>2020-08-02T17:42:29.000Z</time>
      </trkpt>
      <trkpt lat="48.49391" lon="2.22022">
        <ele>67.199996948242</ele>
        <time>2020-08-02T17:42:34.000Z</time>
      </trkpt>
      <trkpt lat="48.4936" lon="2.22013">
        <ele>67.199996948242</ele>
        <time>2020-08-02T17:42:39.000Z</time>
      </trkpt>
      <trkpt lat="48.49318" lon="2.22">
        <ele>67.400001525879</ele>
        <time>2020-08-02T17:42:46.000Z</time>
      </trkpt>
      <trkpt lat="48.49289" lon="2.21985">
        <ele>67.400001525879</ele>
        <time>2020-08-02T17:42:51.000Z</time>
      </trkpt>
      <trkpt lat="48.49284" lon="2.2198">
        <ele>67.400001525879</ele>
        <time>2020-08-02T17:42:52.000Z</time>
      </trkpt>
      <trkpt lat="48.49256" lon="2.21942">
        <ele>66.800003051758</ele>
        <time>2020-08-02T17:42:58.000Z</time>
      </trkpt>
      <trkpt lat="48.49251" lon="2.21925">
        <ele>66.400001525879</ele>
        <time>2020-08-02T17:43:00.000Z</time>
      </trkpt>
      <trkpt lat="48.49249" lon="2.21915">
        <ele>66</ele>
        <time>2020-08-02T17:43:01.000Z</time>
      </trkpt>
      <trkpt lat="48.49239" lon="2.21863">
        <ele>64.800003051758</ele>
        <time>2020-08-02T17:43:07.000Z</time>
      </trkpt>
      <trkpt lat="48.49232" lon="2.2181">
        <ele>63.599998474121</ele>
        <time>2020-08-02T17:43:13.000Z</time>
      </trkpt>
      <trkpt lat="48.49231" lon="2.21802">
        <ele>63.599998474121</ele>
        <time>2020-08-02T17:43:14.000Z</time>
      </trkpt>
      <trkpt lat="48.4923" lon="2.21785">
        <ele>63.400001525879</ele>
        <time>2020-08-02T17:43:16.000Z</time>
      </trkpt>
      <trkpt lat="48.49229" lon="2.21768">
        <ele>63.400001525879</ele>
        <time>2020-08-02T17:43:18.000Z</time>
      </trkpt>
      <trkpt lat="48.49229" lon="2.21752">
        <ele>63.400001525879</ele>
        <time>2020-08-02T17:43:20.000Z</time>
      </trkpt>
      <trkpt lat="48.49224" lon="2.21735">
        <ele>63.799999237061</ele>
        <time>2020-08-02T17:43:22.000Z</time>
      </trkpt>
      <trkpt lat="48.49214" lon="2.21724">
        <ele>64.199996948242</ele>
        <time>2020-08-02T17:43:24.000Z</time>
      </trkpt>
      <trkpt lat="48.49209" lon="2.2172">
        <ele>64.199996948242</ele>
        <time>2020-08-02T17:43:25.000Z</time>
      </trkpt>
      <trkpt lat="48.49178" lon="2.21712">
        <ele>64.599998474121</ele>
        <time>2020-08-02T17:43:30.000Z</time>
      </trkpt>
      <trkpt lat="48.49172" lon="2.21712">
        <ele>64.599998474121</ele>
        <time>2020-08-02T17:43:31.000Z</time>
      </trkpt>
      <trkpt lat="48.49153" lon="2.21715">
        <ele>64</ele>
        <time>2020-08-02T17:43:34.000Z</time>
      </trkpt>
      <trkpt lat="48.49135" lon="2.21722">
        <ele>64</ele>
        <time>2020-08-02T17:43:37.000Z</time>
      </trkpt>
      <trkpt lat="48.49129" lon="2.21724">
        <ele>64</ele>
        <time>2020-08-02T17:43:38.000Z</time>
      </trkpt>
      <trkpt lat="48.49104" lon="2.21725">
        <ele>64</ele>
        <time>2020-08-02T17:43:42.000Z</time>
      </trkpt>
      <trkpt lat="48.49092" lon="2.21722">
        <ele>64</ele>
        <time>2020-08-02T17:43:44.000Z</time>
      </trkpt>
      <trkpt lat="48.49075" lon="2.21714">
        <ele>64.199996948242</ele>
        <time>2020-08-02T17:43:47.000Z</time>
      </trkpt>
      <trkpt lat="48.49065" lon="2.21705">
        <ele>64.400001525879</ele>
        <time>2020-08-02T17:43:49.000Z</time>
      </trkpt>
      <trkpt lat="48.49056" lon="2.21693">
        <ele>64.599998474121</ele>
        <time>2020-08-02T17:43:51.000Z</time>
      </trkpt>
      <trkpt lat="48.49048" lon="2.21679">
        <ele>64.599998474121</ele>
        <time>2020-08-02T17:43:53.000Z</time>
      </trkpt>
      <trkpt lat="48.49041" lon="2.21654">
        <ele>64.800003051758</ele>
        <time>2020-08-02T17:43:56.000Z</time>
      </trkpt>
      <trkpt lat="48.49032" lon="2.21603">
        <ele>64.800003051758</ele>
        <time>2020-08-02T17:44:02.000Z</time>
      </trkpt>
      <trkpt lat="48.49022" lon="2.21542">
        <ele>66.400001525879</ele>
        <time>2020-08-02T17:44:09.000Z</time>
      </trkpt>
      <trkpt lat="48.49017" lon="2.21517">
        <ele>67.199996948242</ele>
        <time>2020-08-02T17:44:12.000Z</time>
      </trkpt>
      <trkpt lat="48.49011" lon="2.21502">
        <ele>67.599998474121</ele>
        <time>2020-08-02T17:44:14.000Z</time>
      </trkpt>
      <trkpt lat="48.48992" lon="2.21458">
        <ele>68.400001525879</ele>
        <time>2020-08-02T17:44:20.000Z</time>
      </trkpt>
      <trkpt lat="48.48988" lon="2.21451">
        <ele>68.400001525879</ele>
        <time>2020-08-02T17:44:21.000Z</time>
      </trkpt>
      <trkpt lat="48.48985" lon="2.21444">
        <ele>68.400001525879</ele>
        <time>2020-08-02T17:44:22.000Z</time>
      </trkpt>
      <trkpt lat="48.48972" lon="2.21417">
        <ele>68.800003051758</ele>
        <time>2020-08-02T17:44:26.000Z</time>
      </trkpt>
      <trkpt lat="48.48967" lon="2.21409">
        <ele>68.800003051758</ele>
        <time>2020-08-02T17:44:27.000Z</time>
      </trkpt>
      <trkpt lat="48.48954" lon="2.21389">
        <ele>68.400001525879</ele>
        <time>2020-08-02T17:44:30.000Z</time>
      </trkpt>
      <trkpt lat="48.48925" lon="2.21358">
        <ele>68</ele>
        <time>2020-08-02T17:44:36.000Z</time>
      </trkpt>
      <trkpt lat="48.48886" lon="2.21333">
        <ele>68</ele>
        <time>2020-08-02T17:44:43.000Z</time>
      </trkpt>
      <trkpt lat="48.48854" lon="2.21305">
        <ele>68.199996948242</ele>
        <time>2020-08-02T17:44:49.000Z</time>
      </trkpt>
      <trkpt lat="48.48831" lon="2.21276">
        <ele>69.400001525879</ele>
        <time>2020-08-02T17:44:54.000Z</time>
      </trkpt>
      <trkpt lat="48.48826" lon="2.2127">
        <ele>69.599998474121</ele>
        <time>2020-08-02T17:44:55.000Z</time>
      </trkpt>
      <trkpt lat="48.48789" lon="2.21222">
        <ele>71.199996948242</ele>
        <time>2020-08-02T17:45:03.000Z</time>
      </trkpt>
      <trkpt lat="48.48752" lon="2.21172">
        <ele>72.599998474121</ele>
        <time>2020-08-02T17:45:11.000Z</time>
      </trkpt>
      <trkpt lat="48.48724" lon="2.21137">
        <ele>73.599998474121</ele>
        <time>2020-08-02T17:45:17.000Z</time>
      </trkpt>
      <trkpt lat="48.48716" lon="2.21124">
        <ele>73.800003051758</ele>
        <time>2020-08-02T17:45:19.000Z</time>
      </trkpt>
      <trkpt lat="48.487" lon="2.21097">
        <ele>74.400001525879</ele>
        <time>2020-08-02T17:45:23.000Z</time>
      </trkpt>
      <trkpt lat="48.48687" lon="2.21078">
        <ele>75</ele>
        <time>2020-08-02T17:45:26.000Z</time>
      </trkpt>
      <trkpt lat="48.4868" lon="2.21064">
        <ele>74.800003051758</ele>
        <time>2020-08-02T17:45:28.000Z</time>
      </trkpt>
      <trkpt lat="48.48654" lon="2.21014">
        <ele>74.400001525879</ele>
        <time>2020-08-02T17:45:35.000Z</time>
      </trkpt>
      <trkpt lat="48.4864" lon="2.20987">
        <ele>74.400001525879</ele>
        <time>2020-08-02T17:45:39.000Z</time>
      </trkpt>
      <trkpt lat="48.48634" lon="2.20972">
        <ele>74.199996948242</ele>
        <time>2020-08-02T17:45:41.000Z</time>
      </trkpt>
      <trkpt lat="48.48611" lon="2.20919">
        <ele>73.800003051758</ele>
        <time>2020-08-02T17:45:48.000Z</time>
      </trkpt>
      <trkpt lat="48.48586" lon="2.20864">
        <ele>73.599998474121</ele>
        <time>2020-08-02T17:45:55.000Z</time>
      </trkpt>
      <trkpt lat="48.48562" lon="2.20812">
        <ele>73</ele>
        <time>2020-08-02T17:46:02.000Z</time>
      </trkpt>
      <trkpt lat="48.48534" lon="2.20753">
        <ele>71.800003051758</ele>
        <time>2020-08-02T17:46:10.000Z</time>
      </trkpt>
      <trkpt lat="48.48502" lon="2.20697">
        <ele>71.400001525879</ele>
        <time>2020-08-02T17:46:18.000Z</time>
      </trkpt>
      <trkpt lat="48.48468" lon="2.20633">
        <ele>71.400001525879</ele>
        <time>2020-08-02T17:46:27.000Z</time>
      </trkpt>
      <trkpt lat="48.4846" lon="2.2062">
        <ele>71.599998474121</ele>
        <time>2020-08-02T17:46:29.000Z</time>
      </trkpt>
      <trkpt lat="48.48434" lon="2.20577">
        <ele>72</ele>
        <time>2020-08-02T17:46:36.000Z</time>
      </trkpt>
      <trkpt lat="48.48411" lon="2.20541">
        <ele>72.800003051758</ele>
        <time>2020-08-02T17:46:43.000Z</time>
      </trkpt>
      <trkpt lat="48.48407" lon="2.20536">
        <ele>73</ele>
        <time>2020-08-02T17:46:44.000Z</time>
      </trkpt>
      <trkpt lat="48.48397" lon="2.2053">
        <ele>73.400001525879</ele>
        <time>2020-08-02T17:46:46.000Z</time>
      </trkpt>
      <trkpt lat="48.48386" lon="2.20525">
        <ele>73.800003051758</ele>
        <time>2020-08-02T17:46:48.000Z</time>
      </trkpt>
      <trkpt lat="48.4837" lon="2.2051">
        <ele>74.199996948242</ele>
        <time>2020-08-02T17:46:51.000Z</time>
      </trkpt>
      <trkpt lat="48.48357" lon="2.20493">
        <ele>74.800003051758</ele>
        <time>2020-08-02T17:46:54.000Z</time>
      </trkpt>
      <trkpt lat="48.48352" lon="2.20479">
        <ele>75</ele>
        <time>2020-08-02T17:46:56.000Z</time>
      </trkpt>
      <trkpt lat="48.48343" lon="2.20457">
        <ele>75.599998474121</ele>
        <time>2020-08-02T17:46:59.000Z</time>
      </trkpt>
      <trkpt lat="48.48332" lon="2.20438">
        <ele>76.199996948242</ele>
        <time>2020-08-02T17:47:02.000Z</time>
      </trkpt>
      <trkpt lat="48.48305" lon="2.20397">
        <ele>77.599998474121</ele>
        <time>2020-08-02T17:47:09.000Z</time>
      </trkpt>
      <trkpt lat="48.48297" lon="2.20385">
        <ele>77.800003051758</ele>
        <time>2020-08-02T17:47:11.000Z</time>
      </trkpt>
      <trkpt lat="48.48285" lon="2.20365">
        <ele>78</ele>
        <time>2020-08-02T17:47:14.000Z</time>
      </trkpt>
      <trkpt lat="48.48281" lon="2.20359">
        <ele>78</ele>
        <time>2020-08-02T17:47:15.000Z</time>
      </trkpt>
      <trkpt lat="48.48273" lon="2.20346">
        <ele>78.199996948242</ele>
        <time>2020-08-02T17:47:17.000Z</time>
      </trkpt>
      <trkpt lat="48.48268" lon="2.20341">
        <ele>78.400001525879</ele>
        <time>2020-08-02T17:47:18.000Z</time>
      </trkpt>
      <trkpt lat="48.48257" lon="2.20336">
        <ele>78.199996948242</ele>
        <time>2020-08-02T17:47:20.000Z</time>
      </trkpt>
      <trkpt lat="48.48245" lon="2.20332">
        <ele>77.800003051758</ele>
        <time>2020-08-02T17:47:22.000Z</time>
      </trkpt>
      <trkpt lat="48.48224" lon="2.20328">
        <ele>77.400001525879</ele>
        <time>2020-08-02T17:47:25.000Z</time>
      </trkpt>
      <trkpt lat="48.48211" lon="2.20324">
        <ele>77.199996948242</ele>
        <time>2020-08-02T17:47:27.000Z</time>
      </trkpt>
      <trkpt lat="48.48196" lon="2.20314">
        <ele>76.400001525879</ele>
        <time>2020-08-02T17:47:29.000Z</time>
      </trkpt>
      <trkpt lat="48.48173" lon="2.20283">
        <ele>75.400001525879</ele>
        <time>2020-08-02T17:47:33.000Z</time>
      </trkpt>
      <trkpt lat="48.4814" lon="2.20219">
        <ele>73.400001525879</ele>
        <time>2020-08-02T17:47:40.000Z</time>
      </trkpt>
      <trkpt lat="48.48116" lon="2.20148">
        <ele>71.400001525879</ele>
        <time>2020-08-02T17:47:47.000Z</time>
      </trkpt>
      <trkpt lat="48.48087" lon="2.20073">
        <ele>71.599998474121</ele>
        <time>2020-08-02T17:47:55.000Z</time>
      </trkpt>
      <trkpt lat="48.48079" lon="2.20057">
        <ele>71.800003051758</ele>
        <time>2020-08-02T17:47:57.000Z</time>
      </trkpt>
      <trkpt lat="48.48063" lon="2.20034">
        <ele>72</ele>
        <time>2020-08-02T17:48:00.000Z</time>
      </trkpt>
      <trkpt lat="48.48027" lon="2.19988">
        <ele>73</ele>
        <time>2020-08-02T17:48:07.000Z</time>
      </trkpt>
      <trkpt lat="48.47998" lon="2.1995">
        <ele>74</ele>
        <time>2020-08-02T17:48:13.000Z</time>
      </trkpt>
      <trkpt lat="48.47967" lon="2.19901">
        <ele>75</ele>
        <time>2020-08-02T17:48:20.000Z</time>
      </trkpt>
      <trkpt lat="48.47954" lon="2.19881">
        <ele>74.800003051758</ele>
        <time>2020-08-02T17:48:23.000Z</time>
      </trkpt>
      <trkpt lat="48.47945" lon="2.19869">
        <ele>74.800003051758</ele>
        <time>2020-08-02T17:48:25.000Z</time>
      </trkpt>
      <trkpt lat="48.4794" lon="2.19864">
        <ele>74.800003051758</ele>
        <time>2020-08-02T17:48:26.000Z</time>
      </trkpt>
      <trkpt lat="48.47909" lon="2.19832">
        <ele>76.800003051758</ele>
        <time>2020-08-02T17:48:32.000Z</time>
      </trkpt>
      <trkpt lat="48.47894" lon="2.19818">
        <ele>77.800003051758</ele>
        <time>2020-08-02T17:48:35.000Z</time>
      </trkpt>
      <trkpt lat="48.47884" lon="2.19808">
        <ele>78.599998474121</ele>
        <time>2020-08-02T17:48:37.000Z</time>
      </trkpt>
      <trkpt lat="48.47862" lon="2.19787">
        <ele>80.199996948242</ele>
        <time>2020-08-02T17:48:42.000Z</time>
      </trkpt>
      <trkpt lat="48.47853" lon="2.19776">
        <ele>80.599998474121</ele>
        <time>2020-08-02T17:48:45.000Z</time>
      </trkpt>
      <trkpt lat="48.47849" lon="2.19772">
        <ele>81</ele>
        <time>2020-08-02T17:48:46.000Z</time>
      </trkpt>
      <trkpt lat="48.47844" lon="2.19762">
        <ele>81.199996948242</ele>
        <time>2020-08-02T17:48:48.000Z</time>
      </trkpt>
      <trkpt lat="48.47844" lon="2.19755">
        <ele>80.800003051758</ele>
        <time>2020-08-02T17:48:49.000Z</time>
      </trkpt>
      <trkpt lat="48.47845" lon="2.19749">
        <ele>80</ele>
        <time>2020-08-02T17:48:50.000Z</time>
      </trkpt>
      <trkpt lat="48.47851" lon="2.19736">
        <ele>78.800003051758</ele>
        <time>2020-08-02T17:48:52.000Z</time>
      </trkpt>
      <trkpt lat="48.4787" lon="2.19701">
        <ele>77.400001525879</ele>
        <time>2020-08-02T17:48:57.000Z</time>
      </trkpt>
      <trkpt lat="48.4788" lon="2.19682">
        <ele>77.199996948242</ele>
        <time>2020-08-02T17:49:00.000Z</time>
      </trkpt>
      <trkpt lat="48.47879" lon="2.19673">
        <ele>77.599998474121</ele>
        <time>2020-08-02T17:49:02.000Z</time>
      </trkpt>
      <trkpt lat="48.47876" lon="2.1967">
        <ele>77.800003051758</ele>
        <time>2020-08-02T17:49:03.000Z</time>
      </trkpt>
      <trkpt lat="48.47872" lon="2.19665">
        <ele>77.800003051758</ele>
        <time>2020-08-02T17:49:04.000Z</time>
      </trkpt>
      <trkpt lat="48.47865" lon="2.19655">
        <ele>78</ele>
        <time>2020-08-02T17:49:06.000Z</time>
      </trkpt>
      <trkpt lat="48.47861" lon="2.1965">
        <ele>78.199996948242</ele>
        <time>2020-08-02T17:49:07.000Z</time>
      </trkpt>
      <trkpt lat="48.47854" lon="2.19641">
        <ele>78.199996948242</ele>
        <time>2020-08-02T17:49:09.000Z</time>
      </trkpt>
      <trkpt lat="48.47846" lon="2.1963">
        <ele>78.199996948242</ele>
        <time>2020-08-02T17:49:11.000Z</time>
      </trkpt>
      <trkpt lat="48.47841" lon="2.19626">
        <ele>78.199996948242</ele>
        <time>2020-08-02T17:49:12.000Z</time>
      </trkpt>
      <trkpt lat="48.47824" lon="2.19607">
        <ele>78</ele>
        <time>2020-08-02T17:49:16.000Z</time>
      </trkpt>
      <trkpt lat="48.47815" lon="2.19596">
        <ele>78</ele>
        <time>2020-08-02T17:49:18.000Z</time>
      </trkpt>
      <trkpt lat="48.47799" lon="2.1958">
        <ele>77.800003051758</ele>
        <time>2020-08-02T17:49:21.000Z</time>
      </trkpt>
      <trkpt lat="48.47788" lon="2.19572">
        <ele>77.599998474121</ele>
        <time>2020-08-02T17:49:23.000Z</time>
      </trkpt>
      <trkpt lat="48.47782" lon="2.19567">
        <ele>77.599998474121</ele>
        <time>2020-08-02T17:49:24.000Z</time>
      </trkpt>
      <trkpt lat="48.47771" lon="2.19558">
        <ele>77.599998474121</ele>
        <time>2020-08-02T17:49:26.000Z</time>
      </trkpt>
      <trkpt lat="48.47766" lon="2.19553">
        <ele>77.599998474121</ele>
        <time>2020-08-02T17:49:27.000Z</time>
      </trkpt>
      <trkpt lat="48.47756" lon="2.19544">
        <ele>77</ele>
        <time>2020-08-02T17:49:29.000Z</time>
      </trkpt>
      <trkpt lat="48.4774" lon="2.19536">
        <ele>76.199996948242</ele>
        <time>2020-08-02T17:49:32.000Z</time>
      </trkpt>
      <trkpt lat="48.47735" lon="2.19533">
        <ele>75.800003051758</ele>
        <time>2020-08-02T17:49:33.000Z</time>
      </trkpt>
      <trkpt lat="48.47717" lon="2.19522">
        <ele>74.800003051758</ele>
        <time>2020-08-02T17:49:36.000Z</time>
      </trkpt>
      <trkpt lat="48.47684" lon="2.19507">
        <ele>73.400001525879</ele>
        <time>2020-08-02T17:49:41.000Z</time>
      </trkpt>
      <trkpt lat="48.47672" lon="2.19499">
        <ele>72.400001525879</ele>
        <time>2020-08-02T17:49:43.000Z</time>
      </trkpt>
      <trkpt lat="48.47652" lon="2.1949">
        <ele>70.800003051758</ele>
        <time>2020-08-02T17:49:46.000Z</time>
      </trkpt>
      <trkpt lat="48.47646" lon="2.19487">
        <ele>70.199996948242</ele>
        <time>2020-08-02T17:49:47.000Z</time>
      </trkpt>
      <trkpt lat="48.47626" lon="2.19484">
        <ele>68.800003051758</ele>
        <time>2020-08-02T17:49:50.000Z</time>
      </trkpt>
      <trkpt lat="48.47613" lon="2.19482">
        <ele>67.800003051758</ele>
        <time>2020-08-02T17:49:52.000Z</time>
      </trkpt>
      <trkpt lat="48.4759" lon="2.19474">
        <ele>66.400001525879</ele>
        <time>2020-08-02T17:49:55.000Z</time>
      </trkpt>
      <trkpt lat="48.47547" lon="2.19463">
        <ele>65.199996948242</ele>
        <time>2020-08-02T17:50:01.000Z</time>
      </trkpt>
      <trkpt lat="48.47507" lon="2.19461">
        <ele>64.800003051758</ele>
        <time>2020-08-02T17:50:07.000Z</time>
      </trkpt>
      <trkpt lat="48.47457" lon="2.19466">
        <ele>65.599998474121</ele>
        <time>2020-08-02T17:50:15.000Z</time>
      </trkpt>
      <trkpt lat="48.47409" lon="2.19469">
        <ele>67.599998474121</ele>
        <time>2020-08-02T17:50:23.000Z</time>
      </trkpt>
      <trkpt lat="48.47373" lon="2.19475">
        <ele>69</ele>
        <time>2020-08-02T17:50:29.000Z</time>
      </trkpt>
      <trkpt lat="48.47367" lon="2.19475">
        <ele>69.199996948242</ele>
        <time>2020-08-02T17:50:30.000Z</time>
      </trkpt>
      <trkpt lat="48.47343" lon="2.19476">
        <ele>69.800003051758</ele>
        <time>2020-08-02T17:50:34.000Z</time>
      </trkpt>
      <trkpt lat="48.47307" lon="2.19477">
        <ele>70.199996948242</ele>
        <time>2020-08-02T17:50:40.000Z</time>
      </trkpt>
      <trkpt lat="48.47264" lon="2.19472">
        <ele>71</ele>
        <time>2020-08-02T17:50:47.000Z</time>
      </trkpt>
      <trkpt lat="48.47233" lon="2.19466">
        <ele>71.400001525879</ele>
        <time>2020-08-02T17:50:52.000Z</time>
      </trkpt>
      <trkpt lat="48.4721" lon="2.19459">
        <ele>71.400001525879</ele>
        <time>2020-08-02T17:50:56.000Z</time>
      </trkpt>
      <trkpt lat="48.47204" lon="2.19457">
        <ele>71.400001525879</ele>
        <time>2020-08-02T17:50:57.000Z</time>
      </trkpt>
      <trkpt lat="48.47198" lon="2.19456">
        <ele>71.400001525879</ele>
        <time>2020-08-02T17:50:58.000Z</time>
      </trkpt>
      <trkpt lat="48.47182" lon="2.19451">
        <ele>71.400001525879</ele>
        <time>2020-08-02T17:51:01.000Z</time>
      </trkpt>
      <trkpt lat="48.47154" lon="2.19444">
        <ele>72.199996948242</ele>
        <time>2020-08-02T17:51:06.000Z</time>
      </trkpt>
      <trkpt lat="48.47136" lon="2.19439">
        <ele>72.599998474121</ele>
        <time>2020-08-02T17:51:09.000Z</time>
      </trkpt>
      <trkpt lat="48.47124" lon="2.19436">
        <ele>73</ele>
        <time>2020-08-02T17:51:11.000Z</time>
      </trkpt>
      <trkpt lat="48.47106" lon="2.19431">
        <ele>73.400001525879</ele>
        <time>2020-08-02T17:51:14.000Z</time>
      </trkpt>
      <trkpt lat="48.47093" lon="2.19428">
        <ele>73.400001525879</ele>
        <time>2020-08-02T17:51:16.000Z</time>
      </trkpt>
      <trkpt lat="48.4706" lon="2.19422">
        <ele>73.800003051758</ele>
        <time>2020-08-02T17:51:21.000Z</time>
      </trkpt>
      <trkpt lat="48.47054" lon="2.1942">
        <ele>73.800003051758</ele>
        <time>2020-08-02T17:51:22.000Z</time>
      </trkpt>
      <trkpt lat="48.47035" lon="2.19416">
        <ele>73.800003051758</ele>
        <time>2020-08-02T17:51:25.000Z</time>
      </trkpt>
      <trkpt lat="48.46997" lon="2.19407">
        <ele>73.400001525879</ele>
        <time>2020-08-02T17:51:31.000Z</time>
      </trkpt>
      <trkpt lat="48.46956" lon="2.19398">
        <ele>72.199996948242</ele>
        <time>2020-08-02T17:51:38.000Z</time>
      </trkpt>
      <trkpt lat="48.46929" lon="2.19388">
        <ele>71.400001525879</ele>
        <time>2020-08-02T17:51:43.000Z</time>
      </trkpt>
      <trkpt lat="48.46911" lon="2.19379">
        <ele>71.199996948242</ele>
        <time>2020-08-02T17:51:46.000Z</time>
      </trkpt>
      <trkpt lat="48.46893" lon="2.19369">
        <ele>71</ele>
        <time>2020-08-02T17:51:49.000Z</time>
      </trkpt>
      <trkpt lat="48.46882" lon="2.19363">
        <ele>70.800003051758</ele>
        <time>2020-08-02T17:51:51.000Z</time>
      </trkpt>
      <trkpt lat="48.46865" lon="2.19355">
        <ele>70.599998474121</ele>
        <time>2020-08-02T17:51:54.000Z</time>
      </trkpt>
      <trkpt lat="48.46822" lon="2.19333">
        <ele>70.199996948242</ele>
        <time>2020-08-02T17:52:01.000Z</time>
      </trkpt>
      <trkpt lat="48.4679" lon="2.19309">
        <ele>70.199996948242</ele>
        <time>2020-08-02T17:52:07.000Z</time>
      </trkpt>
      <trkpt lat="48.46761" lon="2.19285">
        <ele>70.400001525879</ele>
        <time>2020-08-02T17:52:13.000Z</time>
      </trkpt>
      <trkpt lat="48.46756" lon="2.19282">
        <ele>70.199996948242</ele>
        <time>2020-08-02T17:52:14.000Z</time>
      </trkpt>
      <trkpt lat="48.46734" lon="2.19266">
        <ele>69.599998474121</ele>
        <time>2020-08-02T17:52:18.000Z</time>
      </trkpt>
      <trkpt lat="48.46728" lon="2.19263">
        <ele>69.400001525879</ele>
        <time>2020-08-02T17:52:19.000Z</time>
      </trkpt>
      <trkpt lat="48.46704" lon="2.19255">
        <ele>68.599998474121</ele>
        <time>2020-08-02T17:52:23.000Z</time>
      </trkpt>
      <trkpt lat="48.46668" lon="2.19247">
        <ele>68.599998474121</ele>
        <time>2020-08-02T17:52:29.000Z</time>
      </trkpt>
      <trkpt lat="48.4664" lon="2.19231">
        <ele>69.199996948242</ele>
        <time>2020-08-02T17:52:34.000Z</time>
      </trkpt>
      <trkpt lat="48.46604" lon="2.19213">
        <ele>70</ele>
        <time>2020-08-02T17:52:40.000Z</time>
      </trkpt>
      <trkpt lat="48.46561" lon="2.19189">
        <ele>69.199996948242</ele>
        <time>2020-08-02T17:52:47.000Z</time>
      </trkpt>
      <trkpt lat="48.46526" lon="2.19169">
        <ele>68.199996948242</ele>
        <time>2020-08-02T17:52:53.000Z</time>
      </trkpt>
      <trkpt lat="48.4649" lon="2.1915">
        <ele>68</ele>
        <time>2020-08-02T17:52:59.000Z</time>
      </trkpt>
      <trkpt lat="48.46448" lon="2.19125">
        <ele>68</ele>
        <time>2020-08-02T17:53:06.000Z</time>
      </trkpt>
      <trkpt lat="48.46399" lon="2.19099">
        <ele>68</ele>
        <time>2020-08-02T17:53:14.000Z</time>
      </trkpt>
      <trkpt lat="48.46363" lon="2.19077">
        <ele>68</ele>
        <time>2020-08-02T17:53:20.000Z</time>
      </trkpt>
      <trkpt lat="48.46334" lon="2.19059">
        <ele>68</ele>
        <time>2020-08-02T17:53:25.000Z</time>
      </trkpt>
      <trkpt lat="48.46298" lon="2.19038">
        <ele>68</ele>
        <time>2020-08-02T17:53:31.000Z</time>
      </trkpt>
      <trkpt lat="48.46292" lon="2.19035">
        <ele>68</ele>
        <time>2020-08-02T17:53:32.000Z</time>
      </trkpt>
      <trkpt lat="48.46274" lon="2.19025">
        <ele>68</ele>
        <time>2020-08-02T17:53:35.000Z</time>
      </trkpt>
      <trkpt lat="48.46239" lon="2.19005">
        <ele>67.599998474121</ele>
        <time>2020-08-02T17:53:41.000Z</time>
      </trkpt>
      <trkpt lat="48.46203" lon="2.18984">
        <ele>67.599998474121</ele>
        <time>2020-08-02T17:53:47.000Z</time>
      </trkpt>
      <trkpt lat="48.46164" lon="2.1896">
        <ele>68.199996948242</ele>
        <time>2020-08-02T17:53:54.000Z</time>
      </trkpt>
      <trkpt lat="48.46153" lon="2.18962">
        <ele>68.199996948242</ele>
        <time>2020-08-02T17:53:56.000Z</time>
      </trkpt>
      <trkpt lat="48.46146" lon="2.18976">
        <ele>67.800003051758</ele>
        <time>2020-08-02T17:53:58.000Z</time>
      </trkpt>
      <trkpt lat="48.46144" lon="2.18985">
        <ele>67.800003051758</ele>
        <time>2020-08-02T17:53:59.000Z</time>
      </trkpt>
      <trkpt lat="48.46143" lon="2.18994">
        <ele>67.400001525879</ele>
        <time>2020-08-02T17:54:00.000Z</time>
      </trkpt>
      <trkpt lat="48.46143" lon="2.19013">
        <ele>67.599998474121</ele>
        <time>2020-08-02T17:54:02.000Z</time>
      </trkpt>
      <trkpt lat="48.46143" lon="2.19021">
        <ele>67.800003051758</ele>
        <time>2020-08-02T17:54:03.000Z</time>
      </trkpt>
      <trkpt lat="48.46144" lon="2.1904">
        <ele>68</ele>
        <time>2020-08-02T17:54:05.000Z</time>
      </trkpt>
      <trkpt lat="48.46142" lon="2.19077">
        <ele>68</ele>
        <time>2020-08-02T17:54:09.000Z</time>
      </trkpt>
      <trkpt lat="48.46141" lon="2.19104">
        <ele>68.599998474121</ele>
        <time>2020-08-02T17:54:12.000Z</time>
      </trkpt>
      <trkpt lat="48.46141" lon="2.19113">
        <ele>68.800003051758</ele>
        <time>2020-08-02T17:54:13.000Z</time>
      </trkpt>
      <trkpt lat="48.46141" lon="2.19158">
        <ele>70</ele>
        <time>2020-08-02T17:54:18.000Z</time>
      </trkpt>
      <trkpt lat="48.4614" lon="2.19167">
        <ele>70</ele>
        <time>2020-08-02T17:54:19.000Z</time>
      </trkpt>
      <trkpt lat="48.46138" lon="2.19211">
        <ele>70.199996948242</ele>
        <time>2020-08-02T17:54:24.000Z</time>
      </trkpt>
      <trkpt lat="48.46137" lon="2.19229">
        <ele>70.400001525879</ele>
        <time>2020-08-02T17:54:26.000Z</time>
      </trkpt>
      <trkpt lat="48.46135" lon="2.19235">
        <ele>70.400001525879</ele>
        <time>2020-08-02T17:54:27.000Z</time>
      </trkpt>
      <trkpt lat="48.46131" lon="2.19239">
        <ele>70.599998474121</ele>
        <time>2020-08-02T17:54:28.000Z</time>
      </trkpt>
      <trkpt lat="48.46122" lon="2.19249">
        <ele>70.800003051758</ele>
        <time>2020-08-02T17:54:30.000Z</time>
      </trkpt>
      <trkpt lat="48.46112" lon="2.19253">
        <ele>71</ele>
        <time>2020-08-02T17:54:32.000Z</time>
      </trkpt>
      <trkpt lat="48.46106" lon="2.19253">
        <ele>71</ele>
        <time>2020-08-02T17:54:33.000Z</time>
      </trkpt>
      <trkpt lat="48.46059" lon="2.19254">
        <ele>71.599998474121</ele>
        <time>2020-08-02T17:54:40.000Z</time>
      </trkpt>
      <trkpt lat="48.46015" lon="2.1926">
        <ele>72.199996948242</ele>
        <time>2020-08-02T17:54:47.000Z</time>
      </trkpt>
      <trkpt lat="48.45978" lon="2.19258">
        <ele>72.199996948242</ele>
        <time>2020-08-02T17:54:53.000Z</time>
      </trkpt>
      <trkpt lat="48.45941" lon="2.19248">
        <ele>72</ele>
        <time>2020-08-02T17:54:59.000Z</time>
      </trkpt>
      <trkpt lat="48.45892" lon="2.19228">
        <ele>71.599998474121</ele>
        <time>2020-08-02T17:55:07.000Z</time>
      </trkpt>
      <trkpt lat="48.45873" lon="2.19221">
        <ele>71.400001525879</ele>
        <time>2020-08-02T17:55:10.000Z</time>
      </trkpt>
      <trkpt lat="48.4586" lon="2.19215">
        <ele>71.199996948242</ele>
        <time>2020-08-02T17:55:12.000Z</time>
      </trkpt>
      <trkpt lat="48.45817" lon="2.19194">
        <ele>71.199996948242</ele>
        <time>2020-08-02T17:55:19.000Z</time>
      </trkpt>
      <trkpt lat="48.45805" lon="2.19187">
        <ele>71.199996948242</ele>
        <time>2020-08-02T17:55:21.000Z</time>
      </trkpt>
      <trkpt lat="48.45781" lon="2.19176">
        <ele>71.199996948242</ele>
        <time>2020-08-02T17:55:25.000Z</time>
      </trkpt>
      <trkpt lat="48.45737" lon="2.1916">
        <ele>71.400001525879</ele>
        <time>2020-08-02T17:55:32.000Z</time>
      </trkpt>
      <trkpt lat="48.45693" lon="2.19146">
        <ele>71.400001525879</ele>
        <time>2020-08-02T17:55:39.000Z</time>
      </trkpt>
      <trkpt lat="48.4568" lon="2.19143">
        <ele>71.400001525879</ele>
        <time>2020-08-02T17:55:41.000Z</time>
      </trkpt>
      <trkpt lat="48.45655" lon="2.19132">
        <ele>71</ele>
        <time>2020-08-02T17:55:45.000Z</time>
      </trkpt>
      <trkpt lat="48.45612" lon="2.19115">
        <ele>70</ele>
        <time>2020-08-02T17:55:52.000Z</time>
      </trkpt>
      <trkpt lat="48.45568" lon="2.19102">
        <ele>70</ele>
        <time>2020-08-02T17:55:59.000Z</time>
      </trkpt>
      <trkpt lat="48.45528" lon="2.19102">
        <ele>70</ele>
        <time>2020-08-02T17:56:05.000Z</time>
      </trkpt>
      <trkpt lat="48.45487" lon="2.19118">
        <ele>68.800003051758</ele>
        <time>2020-08-02T17:56:11.000Z</time>
      </trkpt>
      <trkpt lat="48.45449" lon="2.1913">
        <ele>68.599998474121</ele>
        <time>2020-08-02T17:56:17.000Z</time>
      </trkpt>
      <trkpt lat="48.45431" lon="2.19129">
        <ele>68.599998474121</ele>
        <time>2020-08-02T17:56:20.000Z</time>
      </trkpt>
      <trkpt lat="48.45419" lon="2.19125">
        <ele>68.800003051758</ele>
        <time>2020-08-02T17:56:22.000Z</time>
      </trkpt>
      <trkpt lat="48.45392" lon="2.19109">
        <ele>69.400001525879</ele>
        <time>2020-08-02T17:56:27.000Z</time>
      </trkpt>
      <trkpt lat="48.4537" lon="2.19095">
        <ele>69.800003051758</ele>
        <time>2020-08-02T17:56:32.000Z</time>
      </trkpt>
      <trkpt lat="48.45366" lon="2.19092">
        <ele>69.800003051758</ele>
        <time>2020-08-02T17:56:33.000Z</time>
      </trkpt>
      <trkpt lat="48.45358" lon="2.19083">
        <ele>69.800003051758</ele>
        <time>2020-08-02T17:56:35.000Z</time>
      </trkpt>
      <trkpt lat="48.45348" lon="2.19073">
        <ele>70</ele>
        <time>2020-08-02T17:56:37.000Z</time>
      </trkpt>
      <trkpt lat="48.45343" lon="2.1907">
        <ele>70</ele>
        <time>2020-08-02T17:56:38.000Z</time>
      </trkpt>
      <trkpt lat="48.45315" lon="2.19057">
        <ele>70.800003051758</ele>
        <time>2020-08-02T17:56:43.000Z</time>
      </trkpt>
      <trkpt lat="48.4531" lon="2.19055">
        <ele>71</ele>
        <time>2020-08-02T17:56:44.000Z</time>
      </trkpt>
      <trkpt lat="48.45306" lon="2.19051">
        <ele>71</ele>
        <time>2020-08-02T17:56:45.000Z</time>
      </trkpt>
      <trkpt lat="48.45305" lon="2.19044">
        <ele>71</ele>
        <time>2020-08-02T17:56:46.000Z</time>
      </trkpt>
      <trkpt lat="48.45311" lon="2.19021">
        <ele>70.199996948242</ele>
        <time>2020-08-02T17:56:49.000Z</time>
      </trkpt>
      <trkpt lat="48.45312" lon="2.19001">
        <ele>70</ele>
        <time>2020-08-02T17:56:51.000Z</time>
      </trkpt>
      <trkpt lat="48.45311" lon="2.18992">
        <ele>69.800003051758</ele>
        <time>2020-08-02T17:56:52.000Z</time>
      </trkpt>
      <trkpt lat="48.45309" lon="2.18984">
        <ele>69.599998474121</ele>
        <time>2020-08-02T17:56:53.000Z</time>
      </trkpt>
      <trkpt lat="48.453" lon="2.18959">
        <ele>69.400001525879</ele>
        <time>2020-08-02T17:56:56.000Z</time>
      </trkpt>
      <trkpt lat="48.4529" lon="2.18938">
        <ele>69</ele>
        <time>2020-08-02T17:56:59.000Z</time>
      </trkpt>
      <trkpt lat="48.45284" lon="2.18924">
        <ele>68.800003051758</ele>
        <time>2020-08-02T17:57:01.000Z</time>
      </trkpt>
      <trkpt lat="48.45263" lon="2.18875">
        <ele>68.199996948242</ele>
        <time>2020-08-02T17:57:07.000Z</time>
      </trkpt>
      <trkpt lat="48.45255" lon="2.18858">
        <ele>68</ele>
        <time>2020-08-02T17:57:09.000Z</time>
      </trkpt>
      <trkpt lat="48.45237" lon="2.18827">
        <ele>67.599998474121</ele>
        <time>2020-08-02T17:57:13.000Z</time>
      </trkpt>
      <trkpt lat="48.45212" lon="2.18782">
        <ele>67.800003051758</ele>
        <time>2020-08-02T17:57:20.000Z</time>
      </trkpt>
      <trkpt lat="48.452" lon="2.18762">
        <ele>67.800003051758</ele>
        <time>2020-08-02T17:57:25.000Z</time>
      </trkpt>
      <trkpt lat="48.45188" lon="2.18741">
        <ele>67.800003051758</ele>
        <time>2020-08-02T17:57:31.000Z</time>
      </trkpt>
      <trkpt lat="48.45171" lon="2.18716">
        <ele>67.599998474121</ele>
        <time>2020-08-02T17:57:35.000Z</time>
      </trkpt>
      <trkpt lat="48.45152" lon="2.18686">
        <ele>67</ele>
        <time>2020-08-02T17:57:39.000Z</time>
      </trkpt>
      <trkpt lat="48.45143" lon="2.18672">
        <ele>66.599998474121</ele>
        <time>2020-08-02T17:57:41.000Z</time>
      </trkpt>
      <trkpt lat="48.45116" lon="2.1863">
        <ele>66.599998474121</ele>
        <time>2020-08-02T17:57:47.000Z</time>
      </trkpt>
      <trkpt lat="48.45092" lon="2.18587">
        <ele>66.800003051758</ele>
        <time>2020-08-02T17:57:53.000Z</time>
      </trkpt>
      <trkpt lat="48.4506" lon="2.18541">
        <ele>66.599998474121</ele>
        <time>2020-08-02T17:58:00.000Z</time>
      </trkpt>
      <trkpt lat="48.45043" lon="2.18514">
        <ele>66.199996948242</ele>
        <time>2020-08-02T17:58:04.000Z</time>
      </trkpt>
      <trkpt lat="48.45022" lon="2.18482">
        <ele>66.400001525879</ele>
        <time>2020-08-02T17:58:09.000Z</time>
      </trkpt>
      <trkpt lat="48.4501" lon="2.1846">
        <ele>67.599998474121</ele>
        <time>2020-08-02T17:58:13.000Z</time>
      </trkpt>
      <trkpt lat="48.45008" lon="2.18454">
        <ele>67.800003051758</ele>
        <time>2020-08-02T17:58:14.000Z</time>
      </trkpt>
      <trkpt lat="48.45007" lon="2.18447">
        <ele>68.199996948242</ele>
        <time>2020-08-02T17:58:15.000Z</time>
      </trkpt>
      <trkpt lat="48.45011" lon="2.18434">
        <ele>68.400001525879</ele>
        <time>2020-08-02T17:58:17.000Z</time>
      </trkpt>
      <trkpt lat="48.45027" lon="2.18406">
        <ele>68.800003051758</ele>
        <time>2020-08-02T17:58:21.000Z</time>
      </trkpt>
      <trkpt lat="48.45053" lon="2.18352">
        <ele>69.400001525879</ele>
        <time>2020-08-02T17:58:28.000Z</time>
      </trkpt>
      <trkpt lat="48.45057" lon="2.18344">
        <ele>69</ele>
        <time>2020-08-02T17:58:29.000Z</time>
      </trkpt>
      <trkpt lat="48.45059" lon="2.18336">
        <ele>68.800003051758</ele>
        <time>2020-08-02T17:58:30.000Z</time>
      </trkpt>
      <trkpt lat="48.45057" lon="2.18319">
        <ele>68.800003051758</ele>
        <time>2020-08-02T17:58:32.000Z</time>
      </trkpt>
      <trkpt lat="48.45049" lon="2.18306">
        <ele>69.400001525879</ele>
        <time>2020-08-02T17:58:34.000Z</time>
      </trkpt>
      <trkpt lat="48.45043" lon="2.18301">
        <ele>69.800003051758</ele>
        <time>2020-08-02T17:58:35.000Z</time>
      </trkpt>
      <trkpt lat="48.45029" lon="2.18282">
        <ele>70.599998474121</ele>
        <time>2020-08-02T17:58:38.000Z</time>
      </trkpt>
      <trkpt lat="48.45025" lon="2.18274">
        <ele>70.800003051758</ele>
        <time>2020-08-02T17:58:39.000Z</time>
      </trkpt>
      <trkpt lat="48.45024" lon="2.18265">
        <ele>70.800003051758</ele>
        <time>2020-08-02T17:58:40.000Z</time>
      </trkpt>
      <trkpt lat="48.45023" lon="2.18247">
        <ele>70.599998474121</ele>
        <time>2020-08-02T17:58:42.000Z</time>
      </trkpt>
      <trkpt lat="48.45018" lon="2.18231">
        <ele>70.400001525879</ele>
        <time>2020-08-02T17:58:44.000Z</time>
      </trkpt>
      <trkpt lat="48.45014" lon="2.18224">
        <ele>70.199996948242</ele>
        <time>2020-08-02T17:58:45.000Z</time>
      </trkpt>
      <trkpt lat="48.44986" lon="2.18202">
        <ele>69.800003051758</ele>
        <time>2020-08-02T17:58:50.000Z</time>
      </trkpt>
      <trkpt lat="48.44953" lon="2.18174">
        <ele>69.199996948242</ele>
        <time>2020-08-02T17:58:56.000Z</time>
      </trkpt>
      <trkpt lat="48.44918" lon="2.18135">
        <ele>68</ele>
        <time>2020-08-02T17:59:03.000Z</time>
      </trkpt>
      <trkpt lat="48.44882" lon="2.18097">
        <ele>66.599998474121</ele>
        <time>2020-08-02T17:59:10.000Z</time>
      </trkpt>
      <trkpt lat="48.44861" lon="2.18068">
        <ele>66.199996948242</ele>
        <time>2020-08-02T17:59:15.000Z</time>
      </trkpt>
      <trkpt lat="48.4486" lon="2.18061">
        <ele>66.400001525879</ele>
        <time>2020-08-02T17:59:16.000Z</time>
      </trkpt>
      <trkpt lat="48.4486" lon="2.18054">
        <ele>66.599998474121</ele>
        <time>2020-08-02T17:59:17.000Z</time>
      </trkpt>
      <trkpt lat="48.44866" lon="2.18041">
        <ele>66.800003051758</ele>
        <time>2020-08-02T17:59:19.000Z</time>
      </trkpt>
      <trkpt lat="48.4488" lon="2.18011">
        <ele>67.599998474121</ele>
        <time>2020-08-02T17:59:23.000Z</time>
      </trkpt>
      <trkpt lat="48.449" lon="2.17951">
        <ele>67.199996948242</ele>
        <time>2020-08-02T17:59:30.000Z</time>
      </trkpt>
      <trkpt lat="48.44917" lon="2.17892">
        <ele>67.199996948242</ele>
        <time>2020-08-02T17:59:37.000Z</time>
      </trkpt>
      <trkpt lat="48.44935" lon="2.17832">
        <ele>65.199996948242</ele>
        <time>2020-08-02T17:59:44.000Z</time>
      </trkpt>
      <trkpt lat="48.44954" lon="2.17773">
        <ele>64.599998474121</ele>
        <time>2020-08-02T17:59:51.000Z</time>
      </trkpt>
      <trkpt lat="48.4497" lon="2.17724">
        <ele>64.400001525879</ele>
        <time>2020-08-02T17:59:57.000Z</time>
      </trkpt>
      <trkpt lat="48.44989" lon="2.17675">
        <ele>65.800003051758</ele>
        <time>2020-08-02T18:00:03.000Z</time>
      </trkpt>
      <trkpt lat="48.45001" lon="2.17643">
        <ele>66.599998474121</ele>
        <time>2020-08-02T18:00:07.000Z</time>
      </trkpt>
      <trkpt lat="48.45009" lon="2.17628">
        <ele>66.599998474121</ele>
        <time>2020-08-02T18:00:09.000Z</time>
      </trkpt>
      <trkpt lat="48.45028" lon="2.17579">
        <ele>67.400001525879</ele>
        <time>2020-08-02T18:00:15.000Z</time>
      </trkpt>
      <trkpt lat="48.4504" lon="2.17547">
        <ele>69</ele>
        <time>2020-08-02T18:00:19.000Z</time>
      </trkpt>
      <trkpt lat="48.45042" lon="2.17539">
        <ele>69.400001525879</ele>
        <time>2020-08-02T18:00:20.000Z</time>
      </trkpt>
      <trkpt lat="48.45055" lon="2.17508">
        <ele>70.199996948242</ele>
        <time>2020-08-02T18:00:24.000Z</time>
      </trkpt>
      <trkpt lat="48.45056" lon="2.17501">
        <ele>70</ele>
        <time>2020-08-02T18:00:25.000Z</time>
      </trkpt>
      <trkpt lat="48.45055" lon="2.17496">
        <ele>69.800003051758</ele>
        <time>2020-08-02T18:00:26.000Z</time>
      </trkpt>
      <trkpt lat="48.45049" lon="2.17484">
        <ele>69.800003051758</ele>
        <time>2020-08-02T18:00:28.000Z</time>
      </trkpt>
      <trkpt lat="48.45048" lon="2.17466">
        <ele>70.400001525879</ele>
        <time>2020-08-02T18:00:30.000Z</time>
      </trkpt>
      <trkpt lat="48.4505" lon="2.17457">
        <ele>70.800003051758</ele>
        <time>2020-08-02T18:00:31.000Z</time>
      </trkpt>
      <trkpt lat="48.45053" lon="2.17448">
        <ele>71.400001525879</ele>
        <time>2020-08-02T18:00:32.000Z</time>
      </trkpt>
      <trkpt lat="48.45051" lon="2.1743">
        <ele>71.400001525879</ele>
        <time>2020-08-02T18:00:34.000Z</time>
      </trkpt>
      <trkpt lat="48.45048" lon="2.17413">
        <ele>71.599998474121</ele>
        <time>2020-08-02T18:00:36.000Z</time>
      </trkpt>
      <trkpt lat="48.45044" lon="2.17397">
        <ele>71.199996948242</ele>
        <time>2020-08-02T18:00:38.000Z</time>
      </trkpt>
      <trkpt lat="48.45029" lon="2.17368">
        <ele>70.199996948242</ele>
        <time>2020-08-02T18:00:42.000Z</time>
      </trkpt>
      <trkpt lat="48.45027" lon="2.17361">
        <ele>70</ele>
        <time>2020-08-02T18:00:43.000Z</time>
      </trkpt>
      <trkpt lat="48.45028" lon="2.17354">
        <ele>69.800003051758</ele>
        <time>2020-08-02T18:00:44.000Z</time>
      </trkpt>
      <trkpt lat="48.45032" lon="2.17339">
        <ele>70.199996948242</ele>
        <time>2020-08-02T18:00:46.000Z</time>
      </trkpt>
      <trkpt lat="48.45049" lon="2.1729">
        <ele>71.800003051758</ele>
        <time>2020-08-02T18:00:52.000Z</time>
      </trkpt>
      <trkpt lat="48.45061" lon="2.17258">
        <ele>71.599998474121</ele>
        <time>2020-08-02T18:00:57.000Z</time>
      </trkpt>
      <trkpt lat="48.45075" lon="2.17216">
        <ele>71.599998474121</ele>
        <time>2020-08-02T18:01:02.000Z</time>
      </trkpt>
      <trkpt lat="48.45091" lon="2.1717">
        <ele>70.199996948242</ele>
        <time>2020-08-02T18:01:08.000Z</time>
      </trkpt>
      <trkpt lat="48.45104" lon="2.17135">
        <ele>70.400001525879</ele>
        <time>2020-08-02T18:01:14.000Z</time>
      </trkpt>
      <trkpt lat="48.45115" lon="2.17133">
        <ele>70.599998474121</ele>
        <time>2020-08-02T18:01:17.000Z</time>
      </trkpt>
      <trkpt lat="48.45118" lon="2.17131">
        <ele>70.599998474121</ele>
        <time>2020-08-02T18:01:18.000Z</time>
      </trkpt>
      <trkpt lat="48.45124" lon="2.17123">
        <ele>70.800003051758</ele>
        <time>2020-08-02T18:01:20.000Z</time>
      </trkpt>
      <trkpt lat="48.45129" lon="2.17112">
        <ele>71</ele>
        <time>2020-08-02T18:01:22.000Z</time>
      </trkpt>
      <trkpt lat="48.45131" lon="2.17099">
        <ele>70.800003051758</ele>
        <time>2020-08-02T18:01:24.000Z</time>
      </trkpt>
      <trkpt lat="48.45134" lon="2.17085">
        <ele>70.599998474121</ele>
        <time>2020-08-02T18:01:26.000Z</time>
      </trkpt>
      <trkpt lat="48.45138" lon="2.17073">
        <ele>70.800003051758</ele>
        <time>2020-08-02T18:01:28.000Z</time>
      </trkpt>
      <trkpt lat="48.45141" lon="2.17067">
        <ele>71</ele>
        <time>2020-08-02T18:01:29.000Z</time>
      </trkpt>
      <trkpt lat="48.45172" lon="2.17021">
        <ele>71.199996948242</ele>
        <time>2020-08-02T18:01:38.000Z</time>
      </trkpt>
      <trkpt lat="48.45198" lon="2.16975">
        <ele>71.800003051758</ele>
        <time>2020-08-02T18:01:46.000Z</time>
      </trkpt>
      <trkpt lat="48.45202" lon="2.16968">
        <ele>72</ele>
        <time>2020-08-02T18:01:47.000Z</time>
      </trkpt>
      <trkpt lat="48.4522" lon="2.16929">
        <ele>72.800003051758</ele>
        <time>2020-08-02T18:01:53.000Z</time>
      </trkpt>
      <trkpt lat="48.45241" lon="2.16891">
        <ele>73.400001525879</ele>
        <time>2020-08-02T18:01:59.000Z</time>
      </trkpt>
      <trkpt lat="48.45251" lon="2.16875">
        <ele>74</ele>
        <time>2020-08-02T18:02:02.000Z</time>
      </trkpt>
      <trkpt lat="48.45256" lon="2.16863">
        <ele>74.400001525879</ele>
        <time>2020-08-02T18:02:04.000Z</time>
      </trkpt>
      <trkpt lat="48.45258" lon="2.16856">
        <ele>74.800003051758</ele>
        <time>2020-08-02T18:02:05.000Z</time>
      </trkpt>
      <trkpt lat="48.45261" lon="2.1684">
        <ele>75.400001525879</ele>
        <time>2020-08-02T18:02:07.000Z</time>
      </trkpt>
      <trkpt lat="48.45262" lon="2.16831">
        <ele>75.800003051758</ele>
        <time>2020-08-02T18:02:08.000Z</time>
      </trkpt>
      <trkpt lat="48.45262" lon="2.16814">
        <ele>76.400001525879</ele>
        <time>2020-08-02T18:02:10.000Z</time>
      </trkpt>
      <trkpt lat="48.45259" lon="2.16801">
        <ele>76.800003051758</ele>
        <time>2020-08-02T18:02:12.000Z</time>
      </trkpt>
      <trkpt lat="48.45255" lon="2.16778">
        <ele>77.400001525879</ele>
        <time>2020-08-02T18:02:15.000Z</time>
      </trkpt>
      <trkpt lat="48.45256" lon="2.1677">
        <ele>77.599998474121</ele>
        <time>2020-08-02T18:02:16.000Z</time>
      </trkpt>
      <trkpt lat="48.45259" lon="2.16761">
        <ele>77.800003051758</ele>
        <time>2020-08-02T18:02:17.000Z</time>
      </trkpt>
      <trkpt lat="48.45266" lon="2.16745">
        <ele>78</ele>
        <time>2020-08-02T18:02:19.000Z</time>
      </trkpt>
      <trkpt lat="48.45271" lon="2.16738">
        <ele>77.599998474121</ele>
        <time>2020-08-02T18:02:20.000Z</time>
      </trkpt>
      <trkpt lat="48.45275" lon="2.16732">
        <ele>77</ele>
        <time>2020-08-02T18:02:21.000Z</time>
      </trkpt>
      <trkpt lat="48.45302" lon="2.16701">
        <ele>74.599998474121</ele>
        <time>2020-08-02T18:02:26.000Z</time>
      </trkpt>
      <trkpt lat="48.4534" lon="2.16646">
        <ele>73</ele>
        <time>2020-08-02T18:02:34.000Z</time>
      </trkpt>
      <trkpt lat="48.45363" lon="2.166">
        <ele>71.800003051758</ele>
        <time>2020-08-02T18:02:40.000Z</time>
      </trkpt>
      <trkpt lat="48.45367" lon="2.16591">
        <ele>71.800003051758</ele>
        <time>2020-08-02T18:02:41.000Z</time>
      </trkpt>
      <trkpt lat="48.45379" lon="2.16558">
        <ele>72.400001525879</ele>
        <time>2020-08-02T18:02:45.000Z</time>
      </trkpt>
      <trkpt lat="48.45399" lon="2.16492">
        <ele>71</ele>
        <time>2020-08-02T18:02:53.000Z</time>
      </trkpt>
      <trkpt lat="48.45411" lon="2.16423">
        <ele>71.199996948242</ele>
        <time>2020-08-02T18:03:01.000Z</time>
      </trkpt>
      <trkpt lat="48.45418" lon="2.16369">
        <ele>70.599998474121</ele>
        <time>2020-08-02T18:03:07.000Z</time>
      </trkpt>
      <trkpt lat="48.45428" lon="2.16298">
        <ele>69.400001525879</ele>
        <time>2020-08-02T18:03:15.000Z</time>
      </trkpt>
      <trkpt lat="48.45436" lon="2.16239">
        <ele>68.400001525879</ele>
        <time>2020-08-02T18:03:22.000Z</time>
      </trkpt>
      <trkpt lat="48.45443" lon="2.16199">
        <ele>70</ele>
        <time>2020-08-02T18:03:27.000Z</time>
      </trkpt>
      <trkpt lat="48.45446" lon="2.16193">
        <ele>70.400001525879</ele>
        <time>2020-08-02T18:03:28.000Z</time>
      </trkpt>
      <trkpt lat="48.45453" lon="2.16174">
        <ele>71</ele>
        <time>2020-08-02T18:03:31.000Z</time>
      </trkpt>
      <trkpt lat="48.45462" lon="2.16157">
        <ele>70.599998474121</ele>
        <time>2020-08-02T18:03:34.000Z</time>
      </trkpt>
      <trkpt lat="48.45471" lon="2.16148">
        <ele>70.599998474121</ele>
        <time>2020-08-02T18:03:36.000Z</time>
      </trkpt>
      <trkpt lat="48.45477" lon="2.16147">
        <ele>70.400001525879</ele>
        <time>2020-08-02T18:03:37.000Z</time>
      </trkpt>
      <trkpt lat="48.45483" lon="2.16147">
        <ele>70.400001525879</ele>
        <time>2020-08-02T18:03:38.000Z</time>
      </trkpt>
      <trkpt lat="48.45495" lon="2.16154">
        <ele>70.199996948242</ele>
        <time>2020-08-02T18:03:40.000Z</time>
      </trkpt>
      <trkpt lat="48.45528" lon="2.16183">
        <ele>70</ele>
        <time>2020-08-02T18:03:46.000Z</time>
      </trkpt>
      <trkpt lat="48.45555" lon="2.16197">
        <ele>69.599998474121</ele>
        <time>2020-08-02T18:03:51.000Z</time>
      </trkpt>
      <trkpt lat="48.45569" lon="2.162">
        <ele>69.599998474121</ele>
        <time>2020-08-02T18:03:55.000Z</time>
      </trkpt>
      <trkpt lat="48.45576" lon="2.1619">
        <ele>69.599998474121</ele>
        <time>2020-08-02T18:03:58.000Z</time>
      </trkpt>
      <trkpt lat="48.45584" lon="2.16186">
        <ele>69.599998474121</ele>
        <time>2020-08-02T18:04:00.000Z</time>
      </trkpt>
      <trkpt lat="48.45588" lon="2.16186">
        <ele>69.800003051758</ele>
        <time>2020-08-02T18:04:01.000Z</time>
      </trkpt>
      <trkpt lat="48.45608" lon="2.16187">
        <ele>69.800003051758</ele>
        <time>2020-08-02T18:04:05.000Z</time>
      </trkpt>
      <trkpt lat="48.45618" lon="2.16186">
        <ele>70.199996948242</ele>
        <time>2020-08-02T18:04:07.000Z</time>
      </trkpt>
      <trkpt lat="48.4565" lon="2.16183">
        <ele>70.199996948242</ele>
        <time>2020-08-02T18:04:13.000Z</time>
      </trkpt>
      <trkpt lat="48.45697" lon="2.16176">
        <ele>70.800003051758</ele>
        <time>2020-08-02T18:04:21.000Z</time>
      </trkpt>
      <trkpt lat="48.45731" lon="2.16171">
        <ele>72.800003051758</ele>
        <time>2020-08-02T18:04:27.000Z</time>
      </trkpt>
      <trkpt lat="48.45758" lon="2.16167">
        <ele>74.599998474121</ele>
        <time>2020-08-02T18:04:32.000Z</time>
      </trkpt>
      <trkpt lat="48.45762" lon="2.16164">
        <ele>74.800003051758</ele>
        <time>2020-08-02T18:04:33.000Z</time>
      </trkpt>
      <trkpt lat="48.45764" lon="2.16159">
        <ele>75</ele>
        <time>2020-08-02T18:04:34.000Z</time>
      </trkpt>
      <trkpt lat="48.45762" lon="2.16146">
        <ele>74.599998474121</ele>
        <time>2020-08-02T18:04:36.000Z</time>
      </trkpt>
      <trkpt lat="48.45761" lon="2.16139">
        <ele>74.400001525879</ele>
        <time>2020-08-02T18:04:37.000Z</time>
      </trkpt>
      <trkpt lat="48.45751" lon="2.16109">
        <ele>73.599998474121</ele>
        <time>2020-08-02T18:04:41.000Z</time>
      </trkpt>
      <trkpt lat="48.4574" lon="2.16056">
        <ele>72.599998474121</ele>
        <time>2020-08-02T18:04:47.000Z</time>
      </trkpt>
      <trkpt lat="48.45737" lon="2.16031">
        <ele>72.800003051758</ele>
        <time>2020-08-02T18:04:50.000Z</time>
      </trkpt>
      <trkpt lat="48.45736" lon="2.16023">
        <ele>73</ele>
        <time>2020-08-02T18:04:51.000Z</time>
      </trkpt>
      <trkpt lat="48.45737" lon="2.16014">
        <ele>73</ele>
        <time>2020-08-02T18:04:52.000Z</time>
      </trkpt>
      <trkpt lat="48.45744" lon="2.15989">
        <ele>73.599998474121</ele>
        <time>2020-08-02T18:04:55.000Z</time>
      </trkpt>
      <trkpt lat="48.45747" lon="2.15981">
        <ele>73.599998474121</ele>
        <time>2020-08-02T18:04:56.000Z</time>
      </trkpt>
      <trkpt lat="48.45757" lon="2.15947">
        <ele>74.800003051758</ele>
        <time>2020-08-02T18:05:00.000Z</time>
      </trkpt>
      <trkpt lat="48.45769" lon="2.15907">
        <ele>76</ele>
        <time>2020-08-02T18:05:05.000Z</time>
      </trkpt>
      <trkpt lat="48.45771" lon="2.15899">
        <ele>76.199996948242</ele>
        <time>2020-08-02T18:05:06.000Z</time>
      </trkpt>
      <trkpt lat="48.45786" lon="2.15852">
        <ele>77</ele>
        <time>2020-08-02T18:05:12.000Z</time>
      </trkpt>
      <trkpt lat="48.458" lon="2.15804">
        <ele>77.199996948242</ele>
        <time>2020-08-02T18:05:18.000Z</time>
      </trkpt>
      <trkpt lat="48.45804" lon="2.15787">
        <ele>77.599998474121</ele>
        <time>2020-08-02T18:05:20.000Z</time>
      </trkpt>
      <trkpt lat="48.45811" lon="2.15761">
        <ele>78.400001525879</ele>
        <time>2020-08-02T18:05:23.000Z</time>
      </trkpt>
      <trkpt lat="48.45815" lon="2.15745">
        <ele>79</ele>
        <time>2020-08-02T18:05:25.000Z</time>
      </trkpt>
      <trkpt lat="48.45816" lon="2.15736">
        <ele>79</ele>
        <time>2020-08-02T18:05:26.000Z</time>
      </trkpt>
      <trkpt lat="48.45822" lon="2.15698">
        <ele>79.400001525879</ele>
        <time>2020-08-02T18:05:30.000Z</time>
      </trkpt>
      <trkpt lat="48.45826" lon="2.15671">
        <ele>79.199996948242</ele>
        <time>2020-08-02T18:05:33.000Z</time>
      </trkpt>
      <trkpt lat="48.45828" lon="2.15644">
        <ele>79.599998474121</ele>
        <time>2020-08-02T18:05:36.000Z</time>
      </trkpt>
      <trkpt lat="48.45832" lon="2.15607">
        <ele>80</ele>
        <time>2020-08-02T18:05:40.000Z</time>
      </trkpt>
      <trkpt lat="48.45833" lon="2.15588">
        <ele>80.199996948242</ele>
        <time>2020-08-02T18:05:42.000Z</time>
      </trkpt>
      <trkpt lat="48.45832" lon="2.15552">
        <ele>79.599998474121</ele>
        <time>2020-08-02T18:05:46.000Z</time>
      </trkpt>
      <trkpt lat="48.45832" lon="2.15543">
        <ele>79.400001525879</ele>
        <time>2020-08-02T18:05:47.000Z</time>
      </trkpt>
      <trkpt lat="48.45828" lon="2.15518">
        <ele>78.800003051758</ele>
        <time>2020-08-02T18:05:50.000Z</time>
      </trkpt>
      <trkpt lat="48.45823" lon="2.15453">
        <ele>78</ele>
        <time>2020-08-02T18:05:57.000Z</time>
      </trkpt>
      <trkpt lat="48.45817" lon="2.15397">
        <ele>77.199996948242</ele>
        <time>2020-08-02T18:06:03.000Z</time>
      </trkpt>
      <trkpt lat="48.45814" lon="2.1537">
        <ele>77.400001525879</ele>
        <time>2020-08-02T18:06:06.000Z</time>
      </trkpt>
      <trkpt lat="48.4581" lon="2.15344">
        <ele>78.400001525879</ele>
        <time>2020-08-02T18:06:09.000Z</time>
      </trkpt>
      <trkpt lat="48.45807" lon="2.1528">
        <ele>78</ele>
        <time>2020-08-02T18:06:16.000Z</time>
      </trkpt>
      <trkpt lat="48.45805" lon="2.15225">
        <ele>77</ele>
        <time>2020-08-02T18:06:22.000Z</time>
      </trkpt>
      <trkpt lat="48.458" lon="2.15166">
        <ele>75.199996948242</ele>
        <time>2020-08-02T18:06:28.000Z</time>
      </trkpt>
      <trkpt lat="48.45791" lon="2.15091">
        <ele>74.199996948242</ele>
        <time>2020-08-02T18:06:36.000Z</time>
      </trkpt>
      <trkpt lat="48.45786" lon="2.15029">
        <ele>74</ele>
        <time>2020-08-02T18:06:43.000Z</time>
      </trkpt>
      <trkpt lat="48.45771" lon="2.14959">
        <ele>75.400001525879</ele>
        <time>2020-08-02T18:06:51.000Z</time>
      </trkpt>
      <trkpt lat="48.45759" lon="2.14923">
        <ele>76</ele>
        <time>2020-08-02T18:06:56.000Z</time>
      </trkpt>
      <trkpt lat="48.45743" lon="2.14877">
        <ele>75.800003051758</ele>
        <time>2020-08-02T18:07:02.000Z</time>
      </trkpt>
      <trkpt lat="48.45731" lon="2.14843">
        <ele>75.800003051758</ele>
        <time>2020-08-02T18:07:07.000Z</time>
      </trkpt>
      <trkpt lat="48.45731" lon="2.14837">
        <ele>75.800003051758</ele>
        <time>2020-08-02T18:07:08.000Z</time>
      </trkpt>
      <trkpt lat="48.45732" lon="2.1483">
        <ele>76</ele>
        <time>2020-08-02T18:07:09.000Z</time>
      </trkpt>
      <trkpt lat="48.45738" lon="2.14821">
        <ele>77</ele>
        <time>2020-08-02T18:07:11.000Z</time>
      </trkpt>
      <trkpt lat="48.45763" lon="2.14809">
        <ele>79.199996948242</ele>
        <time>2020-08-02T18:07:16.000Z</time>
      </trkpt>
      <trkpt lat="48.45814" lon="2.14781">
        <ele>80.199996948242</ele>
        <time>2020-08-02T18:07:25.000Z</time>
      </trkpt>
      <trkpt lat="48.4583" lon="2.1477">
        <ele>80.400001525879</ele>
        <time>2020-08-02T18:07:28.000Z</time>
      </trkpt>
      <trkpt lat="48.45837" lon="2.1476">
        <ele>80.599998474121</ele>
        <time>2020-08-02T18:07:30.000Z</time>
      </trkpt>
      <trkpt lat="48.45849" lon="2.14722">
        <ele>81.199996948242</ele>
        <time>2020-08-02T18:07:35.000Z</time>
      </trkpt>
      <trkpt lat="48.45858" lon="2.14681">
        <ele>81.800003051758</ele>
        <time>2020-08-02T18:07:40.000Z</time>
      </trkpt>
      <trkpt lat="48.45865" lon="2.14667">
        <ele>82</ele>
        <time>2020-08-02T18:07:42.000Z</time>
      </trkpt>
      <trkpt lat="48.45893" lon="2.1462">
        <ele>83.400001525879</ele>
        <time>2020-08-02T18:07:49.000Z</time>
      </trkpt>
      <trkpt lat="48.45917" lon="2.14559">
        <ele>82.800003051758</ele>
        <time>2020-08-02T18:07:57.000Z</time>
      </trkpt>
      <trkpt lat="48.4592" lon="2.14541">
        <ele>82.800003051758</ele>
        <time>2020-08-02T18:07:59.000Z</time>
      </trkpt>
      <trkpt lat="48.45916" lon="2.14497">
        <ele>83.599998474121</ele>
        <time>2020-08-02T18:08:04.000Z</time>
      </trkpt>
      <trkpt lat="48.45905" lon="2.14426">
        <ele>85.800003051758</ele>
        <time>2020-08-02T18:08:12.000Z</time>
      </trkpt>
      <trkpt lat="48.45895" lon="2.14375">
        <ele>86.400001525879</ele>
        <time>2020-08-02T18:08:18.000Z</time>
      </trkpt>
      <trkpt lat="48.45892" lon="2.14367">
        <ele>86.599998474121</ele>
        <time>2020-08-02T18:08:19.000Z</time>
      </trkpt>
      <trkpt lat="48.45885" lon="2.14353">
        <ele>86.800003051758</ele>
        <time>2020-08-02T18:08:21.000Z</time>
      </trkpt>
      <trkpt lat="48.45878" lon="2.14342">
        <ele>87</ele>
        <time>2020-08-02T18:08:23.000Z</time>
      </trkpt>
      <trkpt lat="48.45869" lon="2.14327">
        <ele>87.199996948242</ele>
        <time>2020-08-02T18:08:26.000Z</time>
      </trkpt>
      <trkpt lat="48.45869" lon="2.14322">
        <ele>87.199996948242</ele>
        <time>2020-08-02T18:08:27.000Z</time>
      </trkpt>
      <trkpt lat="48.45872" lon="2.14318">
        <ele>87.199996948242</ele>
        <time>2020-08-02T18:08:28.000Z</time>
      </trkpt>
      <trkpt lat="48.4588" lon="2.14313">
        <ele>87.400001525879</ele>
        <time>2020-08-02T18:08:30.000Z</time>
      </trkpt>
      <trkpt lat="48.45894" lon="2.14301">
        <ele>87.599998474121</ele>
        <time>2020-08-02T18:08:33.000Z</time>
      </trkpt>
      <trkpt lat="48.4591" lon="2.14285">
        <ele>88.199996948242</ele>
        <time>2020-08-02T18:08:37.000Z</time>
      </trkpt>
      <trkpt lat="48.45928" lon="2.1427">
        <ele>89.199996948242</ele>
        <time>2020-08-02T18:08:42.000Z</time>
      </trkpt>
      <trkpt lat="48.45933" lon="2.14259">
        <ele>89.599998474121</ele>
        <time>2020-08-02T18:08:44.000Z</time>
      </trkpt>
      <trkpt lat="48.45933" lon="2.14253">
        <ele>89.800003051758</ele>
        <time>2020-08-02T18:08:45.000Z</time>
      </trkpt>
      <trkpt lat="48.4593" lon="2.14246">
        <ele>89.800003051758</ele>
        <time>2020-08-02T18:08:46.000Z</time>
      </trkpt>
      <trkpt lat="48.45921" lon="2.14223">
        <ele>89.800003051758</ele>
        <time>2020-08-02T18:08:49.000Z</time>
      </trkpt>
      <trkpt lat="48.45905" lon="2.14177">
        <ele>89.800003051758</ele>
        <time>2020-08-02T18:08:55.000Z</time>
      </trkpt>
      <trkpt lat="48.45889" lon="2.14128">
        <ele>90.599998474121</ele>
        <time>2020-08-02T18:09:01.000Z</time>
      </trkpt>
      <trkpt lat="48.45883" lon="2.14112">
        <ele>91</ele>
        <time>2020-08-02T18:09:03.000Z</time>
      </trkpt>
      <trkpt lat="48.45875" lon="2.14098">
        <ele>91.199996948242</ele>
        <time>2020-08-02T18:09:05.000Z</time>
      </trkpt>
      <trkpt lat="48.4587" lon="2.14093">
        <ele>91.199996948242</ele>
        <time>2020-08-02T18:09:06.000Z</time>
      </trkpt>
      <trkpt lat="48.45842" lon="2.14058">
        <ele>91.199996948242</ele>
        <time>2020-08-02T18:09:12.000Z</time>
      </trkpt>
      <trkpt lat="48.45832" lon="2.14036">
        <ele>91.400001525879</ele>
        <time>2020-08-02T18:09:15.000Z</time>
      </trkpt>
      <trkpt lat="48.45827" lon="2.1402">
        <ele>91.599998474121</ele>
        <time>2020-08-02T18:09:17.000Z</time>
      </trkpt>
      <trkpt lat="48.45816" lon="2.13988">
        <ele>92.400001525879</ele>
        <time>2020-08-02T18:09:21.000Z</time>
      </trkpt>
      <trkpt lat="48.45811" lon="2.13971">
        <ele>93</ele>
        <time>2020-08-02T18:09:23.000Z</time>
      </trkpt>
      <trkpt lat="48.45787" lon="2.13899">
        <ele>95.199996948242</ele>
        <time>2020-08-02T18:09:32.000Z</time>
      </trkpt>
      <trkpt lat="48.4578" lon="2.13878">
        <ele>94.800003051758</ele>
        <time>2020-08-02T18:09:35.000Z</time>
      </trkpt>
      <trkpt lat="48.45775" lon="2.13868">
        <ele>94.599998474121</ele>
        <time>2020-08-02T18:09:37.000Z</time>
      </trkpt>
      <trkpt lat="48.45769" lon="2.13857">
        <ele>94.199996948242</ele>
        <time>2020-08-02T18:09:39.000Z</time>
      </trkpt>
      <trkpt lat="48.45762" lon="2.13839">
        <ele>93.800003051758</ele>
        <time>2020-08-02T18:09:42.000Z</time>
      </trkpt>
      <trkpt lat="48.45756" lon="2.13831">
        <ele>93.400001525879</ele>
        <time>2020-08-02T18:09:44.000Z</time>
      </trkpt>
      <trkpt lat="48.45753" lon="2.13832">
        <ele>93</ele>
        <time>2020-08-02T18:09:45.000Z</time>
      </trkpt>
      <trkpt lat="48.45741" lon="2.13838">
        <ele>92.199996948242</ele>
        <time>2020-08-02T18:09:48.000Z</time>
      </trkpt>
      <trkpt lat="48.45733" lon="2.13842">
        <ele>91.599998474121</ele>
        <time>2020-08-02T18:09:50.000Z</time>
      </trkpt>
      <trkpt lat="48.4572" lon="2.13847">
        <ele>90.800003051758</ele>
        <time>2020-08-02T18:09:54.000Z</time>
      </trkpt>
      <trkpt lat="48.45717" lon="2.13849">
        <ele>90.400001525879</ele>
        <time>2020-08-02T18:09:58.000Z</time>
      </trkpt>
      <trkpt lat="48.45714" lon="2.1385">
        <ele>90.199996948242</ele>
        <time>2020-08-02T18:10:21.000Z</time>
      </trkpt>
      <trkpt lat="48.45709" lon="2.13853">
        <ele>90</ele>
        <time>2020-08-02T18:10:23.000Z</time>
      </trkpt>
      <trkpt lat="48.45704" lon="2.13855">
        <ele>89.599998474121</ele>
        <time>2020-08-02T18:10:25.000Z</time>
      </trkpt>
      <trkpt lat="48.457" lon="2.13854">
        <ele>89.400001525879</ele>
        <time>2020-08-02T18:10:27.000Z</time>
      </trkpt>
      <trkpt lat="48.4569" lon="2.13841">
        <ele>88.599998474121</ele>
        <time>2020-08-02T18:10:32.000Z</time>
      </trkpt>
      <trkpt lat="48.45685" lon="2.13832">
        <ele>88.199996948242</ele>
        <time>2020-08-02T18:10:35.000Z</time>
      </trkpt>
      <trkpt lat="48.45685" lon="2.13835">
        <ele>88.199996948242</ele>
        <time>2020-08-02T18:10:38.000Z</time>
      </trkpt>
      <trkpt lat="48.45685" lon="2.13836">
        <ele>88.199996948242</ele>
        <time>2020-08-02T18:10:39.000Z</time>
      </trkpt>
    </trkseg>
  </trk>
</gpx>